# Wetter Temperatur Luftdruck Luftfeuchtigkeit Sichtweite Windgeschwindigkeit Windrichtung Zeit
1 Clouds 18 1015 72 10000 3.09 220 12:18 22.04.2021
2 Clouds 18 1014 72 10000 3.6 230 11:40 22.04.2021
3 Clouds 18 1014 72 10000 3.09 190 11:19 22.04.2021
4 Clouds 17 1014 72 10000 2.57 190 10:40 22.04.2021
5 Clouds 17 1015 7 10000 2.57 190 10:19 22.04.2021
6 Clouds 17 1014 72 10000 5.14 250 09:36 22.04.2021
7 Clouds 17 1014 6 10000 2.57 180 08:52 22.04.2021
8 Clouds 17 1013 82 10000 3.09 230 08:23 22.04.2021
9 Clouds 17 1013 6 10000 2.57 180 07:54 22.04.2021
10 Clouds 17 1012 72 10000 2.57 230 07:31 22.04.2021
11 Clouds 16 1013 77 10000 2.57 180 06:46 22.04.2021
12 Clouds 17 1013 77 10000 2.57 180 06:18 22.04.2021
13 Clouds 17 1013 77 10000 3.6 300 05:23 22.04.2021
14 Clouds 17 1014 72 10000 5.66 270 02:27 22.04.2021
15 Clouds 17 1014 72 10000 8.23 280 00:23 22.04.2021
16 Clear 16 1015 77 10000 2.06 250 23:41 21.04.2021
17 Clear 17 1015 77 10000 2.57 250 23:20 21.04.2021
18 Clouds 17 1013 68 10000 10.29 290 22:40 21.04.2021
19 Clear 17 1014 72 10000 3.09 250 22:20 21.04.2021
20 Clear 17 1014 77 10000 3.6 250 21:41 21.04.2021
21 Clouds 18 1012 63 10000 9.26 280 21:22 21.04.2021
22 Clear 19 1012 59 10000 7.2 280 20:32 21.04.2021
23 Clouds 19 1013 68 10000 4.12 250 19:51 21.04.2021
24 Clouds 19 1012 59 10000 6.17 280 19:28 21.04.2021
25 Clouds 19 1013 59 10000 5.66 280 18:57 21.04.2021
26 Clouds 19 1013 59 10000 5.66 280 18:39 21.04.2021
27 Clouds 20 1013 68 10000 5.66 260 18:19 21.04.2021
28 Clouds 20 1014 72 10000 5.66 270 17:43 21.04.2021
29 Clouds 21 1013 49 10000 5.14 240 17:22 21.04.2021
30 Clouds 21 1013 52 10000 7.2 260 16:40 21.04.2021
31 Clouds 21 1013 52 10000 6.17 240 15:52 21.04.2021
32 Clouds 21 1013 49 10000 6.69 230 15:26 21.04.2021
33 Clouds 21 1014 64 10000 5.66 250 14:45 21.04.2021
34 Clouds 21 1013 49 10000 4.63 260 14:27 21.04.2021
35 Clouds 21 1014 64 10000 3.6 250 13:50 21.04.2021
36 Clouds 20 1014 52 10000 6.17 260 13:22 21.04.2021
37 Clouds 20 1015 68 10000 3.6 250 12:47 21.04.2021
38 Clouds 20 1014 59 10000 5.14 260 12:23 21.04.2021
39 Clouds 19 1015 68 10000 4.12 260 11:46 21.04.2021
40 Clouds 18 1014 68 10000 3.6 240 11:23 21.04.2021
41 Clouds 17 1014 72 10000 3.09 260 10:40 21.04.2021
42 Clear 16 1013 77 10000 3.09 260 09:57 21.04.2021
43 Clear 16 1013 77 10000 3.09 260 09:31 21.04.2021
44 Clouds 16 1014 82 8000 2.57 180 08:51 21.04.2021
45 Clear 16 1013 77 10000 3.09 240 08:24 21.04.2021
46 Clouds 16 1012 82 10000 2.57 240 07:57 21.04.2021
47 Clouds 16 1012 82 10000 2.57 240 07:29 21.04.2021
48 Clouds 16 1012 82 10000 2.06 250 06:22 21.04.2021
49 Clouds 17 1014 77 10000 5.66 260 02:56 21.04.2021
50 Clouds 17 1014 77 10000 6.69 280 00:28 21.04.2021
51 Clear 16 1015 77 10000 2.06 220 23:41 20.04.2021
52 Clouds 16 1015 82 10000 2.57 260 22:50 20.04.2021
53 Clouds 17 1014 68 10000 5.66 260 22:24 20.04.2021
54 Clouds 18 1013 63 10000 6.69 260 21:59 20.04.2021
55 Clouds 18 1013 63 10000 6.69 260 21:40 20.04.2021
56 Clouds 18 1013 63 10000 6.69 260 21:22 20.04.2021
57 Clouds 19 1013 56 10000 6.17 260 20:41 20.04.2021
58 Clouds 20 1013 52 10000 7.2 260 20:21 20.04.2021
59 Clouds 19 1013 60 10000 5.66 240 19:50 20.04.2021
60 Clouds 20 1013 52 10000 6.17 240 19:29 20.04.2021
61 Clouds 20 1014 68 10000 4.63 270 18:47 20.04.2021
62 Clouds 20 1013 56 10000 7.72 260 18:29 20.04.2021
63 Clouds 21 1015 64 10000 4.12 280 17:41 20.04.2021
64 Clouds 21 1014 49 10000 6.69 260 16:55 20.04.2021
65 Clouds 21 1014 49 10000 6.69 260 16:35 20.04.2021
66 Clouds 21 1015 60 10000 5.66 270 15:41 20.04.2021
67 Clouds 21 1014 53 10000 6.17 260 15:21 20.04.2021
68 Clouds 21 1016 64 10000 6.17 290 14:48 20.04.2021
69 Clouds 21 1015 56 10000 4.12 240 14:23 20.04.2021
70 Clouds 21 1015 56 10000 4.12 240 14:23 20.04.2021
71 Clouds 21 1015 56 10000 5.14 220 13:29 20.04.2021
72 Clouds 20 1015 60 10000 4.63 220 12:55 20.04.2021
73 Clouds 20 1015 60 10000 5.14 230 12:28 20.04.2021
74 Clouds 19 1016 72 10000 4.12 230 11:47 20.04.2021
75 Clouds 19 1016 72 10000 4.12 230 11:47 20.04.2021
76 Clouds 19 1015 63 10000 4.63 230 11:28 20.04.2021
77 Clouds 19 1016 77 8000 2.06 170 10:48 20.04.2021
78 Clouds 17 1015 72 10000 4.12 240 10:26 20.04.2021
79 Clouds 17 1016 82 6000 2.57 180 09:50 20.04.2021
80 Clouds 16 1016 88 6000 2.57 180 09:18 20.04.2021
81 Clouds 16 1015 77 10000 4.63 250 08:42 20.04.2021
82 Clear 16 1015 77 10000 3.6 240 07:59 20.04.2021
83 Clear 16 1015 77 10000 3.6 240 07:32 20.04.2021
84 Clouds 16 1015 72 10000 3.6 230 05:42 20.04.2021
85 Clouds 16 1016 72 10000 5.14 250 04:57 20.04.2021
86 Clouds 16 1016 82 6000 1.54 170 03:41 20.04.2021
87 Clouds 16 1018 82 8000 1.03 0 00:51 20.04.2021
88 Clouds 18 1018 82 8000 1.03 210 23:54 19.04.2021
89 Clear 18 1017 68 10000 4.63 260 23:31 19.04.2021
90 Clouds 18 1018 72 8000 0.51 0 22:43 19.04.2021
91 Clear 18 1017 68 10000 4.12 240 22:22 19.04.2021
92 Clear 18 1017 72 10000 2.06 300 21:42 19.04.2021
93 Clear 18 1017 77 10000 2.06 310 21:20 19.04.2021
94 Clear 18 1017 72 10000 3.09 290 20:41 19.04.2021
95 Clear 19 1017 72 10000 3.6 290 20:20 19.04.2021
96 Clear 20 1017 68 10000 4.63 290 19:48 19.04.2021
97 Clouds 20 1016 63 10000 2.57 120 19:26 19.04.2021
98 Clouds 21 1016 63 10000 3.6 110 18:56 19.04.2021
99 Clouds 21 1016 63 10000 3.6 110 18:37 19.04.2021
100 Clouds 21 1016 38 10000 4.63 270 18:18 19.04.2021
101 Clouds 22 1017 64 10000 4.12 110 17:40 19.04.2021
102 Clouds 22 1017 64 10000 4.12 110 17:22 19.04.2021
103 Clouds 22 1018 64 10000 4.63 100 16:41 19.04.2021
104 Clouds 22 1018 64 10000 4.63 100 16:22 19.04.2021
105 Clouds 21 1018 55 10000 4.12 100 15:40 19.04.2021
106 Clouds 22 1019 68 10000 4.12 100 15:22 19.04.2021
107 Clouds 20 1019 68 10000 3.09 110 14:38 19.04.2021
108 Clouds 21 1018 56 10000 4.12 20 14:19 19.04.2021
109 Clouds 21 1018 53 10000 4.63 30 13:44 19.04.2021
110 Clouds 20 1020 68 10000 3.09 100 13:25 19.04.2021
111 Clear 20 1018 53 10000 4.12 50 12:43 19.04.2021
112 Clear 20 1018 53 10000 4.12 50 12:43 19.04.2021
113 Clouds 20 1020 72 10000 3.6 100 12:23 19.04.2021
114 Clouds 19 1020 72 10000 4.12 100 11:54 19.04.2021
115 Clouds 19 1020 72 10000 3.6 90 11:26 19.04.2021
116 Clouds 19 1018 59 10000 5.14 90 10:47 19.04.2021
117 Clouds 18 1020 77 10000 4.63 90 10:25 19.04.2021
118 Clouds 18 1020 82 10000 4.12 90 09:50 19.04.2021
119 Clouds 17 1020 77 10000 4.12 80 09:30 19.04.2021
120 Clouds 17 1020 77 10000 4.12 80 09:30 19.04.2021
121 Clouds 17 1020 82 10000 5.14 90 08:59 19.04.2021
122 Clouds 16 1020 82 10000 5.14 90 08:28 19.04.2021
123 Clear 15 1018 77 10000 4.12 70 07:48 19.04.2021
124 Clear 16 1017 72 10000 4.63 70 07:19 19.04.2021
125 Clouds 16 1019 82 10000 6.17 90 06:36 19.04.2021
126 Clouds 15 1021 88 10000 6.17 80 02:35 19.04.2021
127 Clear 15 1019 62 10000 0.51 0 00:49 19.04.2021
128 Clear 16 1020 62 10000 1.54 70 23:50 18.04.2021
129 Clear 17 1020 67 10000 2.06 70 23:18 18.04.2021
130 Clear 17 1020 67 10000 2.06 70 22:47 18.04.2021
131 Clouds 18 1020 63 10000 3.09 190 22:29 18.04.2021
132 Clouds 19 1019 56 10000 1.54 90 21:29 18.04.2021
133 Clear 20 1019 72 10000 2.06 310 20:59 18.04.2021
134 Clouds 20 1019 60 10000 1.54 40 20:39 18.04.2021
135 Clouds 20 1019 60 10000 1.54 40 20:39 18.04.2021
136 Clear 20 1019 63 10000 2.57 310 20:20 18.04.2021
137 Clear 20 1018 56 10000 3.09 290 19:45 18.04.2021
138 Clouds 21 1018 56 10000 3.09 150 19:27 18.04.2021
139 Clouds 21 1018 56 10000 3.09 190 18:54 18.04.2021
140 Clouds 20 1018 68 10000 3.6 200 18:30 18.04.2021
141 Clear 21 1018 64 10000 3.6 290 17:50 18.04.2021
142 Clouds 21 1018 49 10000 3.09 130 17:31 18.04.2021
143 Clouds 21 1019 60 10000 3.09 200 16:55 18.04.2021
144 Clouds 21 1019 60 10000 3.09 200 16:36 18.04.2021
145 Clouds 21 1019 53 10000 1.54 250 15:57 18.04.2021
146 Clouds 22 1019 53 10000 1.54 250 15:38 18.04.2021
147 Clouds 21 1019 68 10000 4.63 270 15:18 18.04.2021
148 Clouds 19 1019 68 10000 3.6 280 14:41 18.04.2021
149 Clouds 19 1019 68 10000 3.6 280 14:18 18.04.2021
150 Clouds 19 1020 72 10000 3.09 100 13:45 18.04.2021
151 Clouds 19 1020 77 10000 2.06 90 13:27 18.04.2021
152 Clouds 18 1020 77 10000 3.09 80 12:37 18.04.2021
153 Clouds 18 1020 77 10000 4.12 50 11:55 18.04.2021
154 Clouds 18 1019 77 10000 2.57 50 11:28 18.04.2021
155 Clouds 18 1019 77 10000 3.09 40 10:58 18.04.2021
156 Clouds 18 1019 77 10000 3.09 40 10:40 18.04.2021
157 Clear 16 1018 77 10000 1.03 100 09:58 18.04.2021
158 Clear 16 1018 77 10000 1.03 100 09:39 18.04.2021
159 Clouds 16 1018 72 8000 0.51 0 09:19 18.04.2021
160 Clear 14 1018 82 10000 2.06 250 08:41 18.04.2021
161 Clouds 14 1018 71 6000 0.51 0 08:19 18.04.2021
162 Clear 14 1017 88 10000 2.06 260 07:39 18.04.2021
163 Clouds 14 1017 88 6000 2.06 80 05:48 18.04.2021
164 Clouds 15 1017 82 10000 3.6 260 05:26 18.04.2021
165 Clouds 17 1018 72 10000 4.12 240 03:37 18.04.2021
166 Clear 17 1018 77 10000 5.66 260 02:22 18.04.2021
167 Clouds 17 1019 77 8000 0.51 0 00:41 18.04.2021
168 Clear 17 1018 72 10000 7.2 270 23:40 17.04.2021
169 Clouds 18 1017 68 10000 4.63 270 22:59 17.04.2021
170 Clouds 18 1017 68 10000 4.63 270 22:39 17.04.2021
171 Clouds 18 1018 94 10000 1.03 0 22:20 17.04.2021
172 Clouds 19 1017 64 10000 3.09 230 21:38 17.04.2021
173 Clouds 19 1017 88 10000 1.54 250 21:19 17.04.2021
174 Clouds 19 1016 68 10000 6.17 270 20:28 17.04.2021
175 Clouds 20 1017 77 10000 4.63 290 19:46 17.04.2021
176 Clouds 21 1016 53 10000 5.66 260 19:22 17.04.2021
177 Clouds 21 1016 49 10000 5.66 260 18:58 17.04.2021
178 Clouds 21 1016 49 10000 5.66 260 18:37 17.04.2021
179 Clouds 22 1015 49 10000 4.12 230 18:00 17.04.2021
180 Clouds 22 1015 49 10000 4.12 230 17:40 17.04.2021
181 Clouds 20 1016 56 10000 6.69 200 16:55 17.04.2021
182 Clouds 20 1016 56 10000 6.17 200 16:28 17.04.2021
183 Clouds 21 1017 56 10000 4.63 280 15:53 17.04.2021
184 Clouds 21 1017 56 10000 4.12 250 14:51 17.04.2021
185 Clouds 20 1017 60 10000 3.09 220 14:32 17.04.2021
186 Clear 19 1018 60 10000 3.09 240 13:49 17.04.2021
187 Clouds 20 1018 63 10000 3.09 120 13:25 17.04.2021
188 Clear 19 1018 56 10000 2.57 240 12:42 17.04.2021
189 Clear 19 1018 60 10000 3.6 250 12:20 17.04.2021
190 Clear 19 1017 60 10000 3.09 250 11:45 17.04.2021
191 Clouds 18 1018 77 10000 2.57 50 11:27 17.04.2021
192 Clear 18 1017 55 10000 1.54 110 10:45 17.04.2021
193 Clouds 16 1018 88 10000 1.54 50 10:26 17.04.2021
194 Clouds 15 1018 82 10000 2.06 40 09:39 17.04.2021
195 Clear 13 1016 82 10000 1.54 70 08:40 17.04.2021
196 Clouds 13 1017 88 10000 2.57 20 08:21 17.04.2021
197 Clouds 13 1016 87 8000 2.06 110 06:44 17.04.2021
198 Clouds 16 1016 72 8000 4.12 60 03:55 17.04.2021
199 Clouds 16 1018 72 10000 3.6 120 03:37 17.04.2021
200 Clouds 15 1016 72 8000 4.12 20 00:48 17.04.2021
201 Clouds 15 1018 82 10000 2.06 60 00:26 17.04.2021
202 Clouds 16 1016 72 8000 3.09 40 23:46 16.04.2021
203 Clouds 16 1017 77 10000 3.09 100 23:24 16.04.2021
204 Clear 16 1016 67 10000 2.57 30 22:44 16.04.2021
205 Clear 16 1015 67 10000 3.09 40 22:20 16.04.2021
206 Clouds 16 1015 67 10000 4.12 40 21:50 16.04.2021
207 Clouds 17 1016 77 10000 3.09 130 21:29 16.04.2021
208 Clouds 17 1014 59 10000 5.14 50 20:50 16.04.2021
209 Clouds 17 1016 77 10000 3.09 130 20:24 16.04.2021
210 Clouds 18 1014 59 10000 6.17 50 19:50 16.04.2021
211 Clouds 18 1016 72 10000 4.12 100 19:28 16.04.2021
212 Clouds 18 1016 72 10000 4.63 100 18:28 16.04.2021
213 Clouds 19 1016 72 10000 4.12 100 17:55 16.04.2021
214 Clouds 20 1016 72 10000 5.14 110 17:22 16.04.2021
215 Clouds 19 1016 72 10000 5.14 100 16:59 16.04.2021
216 Clouds 20 1014 53 10000 7.72 40 16:41 16.04.2021
217 Clouds 19 1016 82 10000 4.63 70 16:21 16.04.2021
218 Clouds 20 1014 49 10000 6.17 40 15:42 16.04.2021
219 Clouds 19 1017 72 10000 5.14 110 14:59 16.04.2021
220 Clouds 19 1017 72 10000 5.14 110 14:40 16.04.2021
221 Clouds 19 1017 72 10000 4.63 110 13:59 16.04.2021
222 Clouds 19 1017 72 10000 4.63 110 13:38 16.04.2021
223 Clouds 19 1015 52 10000 6.69 70 13:18 16.04.2021
224 Clouds 18 1015 56 10000 6.69 60 12:44 16.04.2021
225 Clouds 18 1017 82 10000 5.14 110 12:25 16.04.2021
226 Clouds 16 1016 82 10000 5.66 110 11:43 16.04.2021
227 Clouds 17 1016 77 10000 5.14 120 11:23 16.04.2021
228 Clear 16 1014 77 10000 5.14 80 10:43 16.04.2021
229 Clouds 16 1016 82 10000 5.14 120 10:24 16.04.2021
230 Clear 16 1014 77 10000 6.17 80 09:49 16.04.2021
231 Clouds 15 1015 82 10000 6.17 110 09:23 16.04.2021
232 Clear 15 1013 82 10000 5.14 60 08:45 16.04.2021
233 Clouds 15 1015 88 10000 6.17 110 08:27 16.04.2021
234 Clear 15 1013 82 10000 4.63 70 07:47 16.04.2021
235 Clouds 15 1014 88 10000 7.2 110 07:27 16.04.2021
236 Clear 15 1013 82 10000 3.6 80 06:46 16.04.2021
237 Clouds 15 1014 94 10000 9.26 110 05:32 16.04.2021
238 Haze 15 1015 94 5000 10.29 110 03:59 16.04.2021
239 Clear 15 1013 82 10000 4.63 80 00:47 16.04.2021
240 Haze 15 1015 88 8000 8.23 110 00:22 16.04.2021
241 Clouds 15 1015 88 10000 7.72 120 23:57 15.04.2021
242 Clouds 15 1015 88 10000 7.72 120 23:34 15.04.2021
243 Clouds 15 1013 82 10000 5.66 80 22:50 15.04.2021
244 Clouds 15 1015 88 4400 7.72 120 22:26 15.04.2021
245 Clouds 15 1012 5 10000 4.12 90 21:47 15.04.2021
246 Clouds 16 1014 88 10000 7.2 110 21:29 15.04.2021
247 Clouds 16 1014 88 10000 6.69 110 20:56 15.04.2021
248 Clouds 16 1014 88 10000 6.69 110 20:37 15.04.2021
249 Clouds 16 1011 72 10000 6.69 80 20:18 15.04.2021
250 Clouds 17 1011 68 10000 6.69 80 19:41 15.04.2021
251 Clouds 17 1014 88 10000 5.66 120 19:21 15.04.2021
252 Clouds 17 1013 77 10000 5.66 120 18:41 15.04.2021
253 Clouds 18 1011 63 9000 7.2 70 18:19 15.04.2021
254 Clouds 18 1014 77 10000 6.69 110 17:54 15.04.2021
255 Clouds 18 1014 77 10000 6.69 110 17:31 15.04.2021
256 Clouds 18 1011 60 8000 6.17 80 16:45 15.04.2021
257 Clouds 18 1014 82 10000 6.69 100 16:25 15.04.2021
258 Clouds 18 1014 88 10000 7.2 100 15:51 15.04.2021
259 Clouds 17 1014 88 10000 7.2 90 15:28 15.04.2021
260 Clouds 18 1012 64 8000 7.2 90 14:45 15.04.2021
261 Clouds 17 1015 88 10000 7.2 80 14:27 15.04.2021
262 Clouds 18 1014 94 7000 8.23 90 13:57 15.04.2021
263 Clouds 17 1014 94 7000 8.23 90 13:39 15.04.2021
264 Clouds 17 1014 94 3500 7.72 80 12:53 15.04.2021
265 Clouds 16 1014 88 5000 8.23 80 12:27 15.04.2021
266 Clouds 17 1012 72 7000 7.72 80 11:48 15.04.2021
267 Clouds 16 1014 88 10000 9.26 90 11:30 15.04.2021
268 Clouds 16 1014 88 10000 9.26 90 11:30 15.04.2021
269 Clouds 15 1013 94 10000 11.32 90 10:59 15.04.2021
270 Clouds 15 1013 94 10000 11.32 90 10:40 15.04.2021
271 Clouds 15 1013 94 10000 11.32 90 10:22 15.04.2021
272 Clouds 16 1013 94 4000 9.26 80 09:31 15.04.2021
273 Clouds 15 1011 82 8000 5.14 90 08:53 15.04.2021
274 Clouds 15 1013 94 7000 7.72 80 08:34 15.04.2021
275 Clouds 15 1013 88 6000 10.29 80 07:37 15.04.2021
276 Clouds 15 1011 82 8000 6.17 80 07:18 15.04.2021
277 Clouds 16 1013 77 10000 10.8 80 06:36 15.04.2021
278 Clouds 16 1014 77 10000 10.8 90 04:57 15.04.2021
279 Clouds 16 1015 77 10000 9.77 90 03:59 15.04.2021
280 Clouds 16 1013 82 8000 7.72 80 00:18 15.04.2021
281 Clouds 16 1016 82 10000 9.77 70 23:34 14.04.2021
282 Clouds 16 1015 77 10000 9.26 70 22:57 14.04.2021
283 Clouds 16 1015 77 10000 9.26 70 22:37 14.04.2021
284 Clouds 16 1015 77 10000 9.26 70 22:37 14.04.2021
285 Clouds 16 1012 82 8000 7.2 80 22:19 14.04.2021
286 Clouds 16 1012 82 8000 7.2 80 22:19 14.04.2021
287 Clouds 16 1015 77 10000 10.29 70 21:40 14.04.2021
288 Clouds 16 1015 77 10000 10.29 70 21:22 14.04.2021
289 Clouds 16 1015 72 10000 7.2 70 20:39 14.04.2021
290 Clouds 16 1012 77 8000 6.69 70 20:20 14.04.2021
291 Clouds 16 1012 77 8000 7.72 80 19:44 14.04.2021
292 Clouds 16 1012 77 8000 7.72 80 19:19 14.04.2021
293 Clouds 16 1012 77 8000 9.26 90 18:50 14.04.2021
294 Clouds 17 1012 77 8000 9.26 90 18:19 14.04.2021
295 Clouds 17 1015 88 10000 9.26 70 17:55 14.04.2021
296 Clouds 16 1015 82 10000 8.23 70 17:24 14.04.2021
297 Clouds 16 1016 88 8000 7.72 70 16:46 14.04.2021
298 Clouds 16 1016 88 8000 7.72 80 16:22 14.04.2021
299 Clouds 16 1013 82 6000 9.77 80 15:41 14.04.2021
300 Rain 16 1016 88 6000 8.75 90 15:22 14.04.2021
301 Rain 17 1013 82 5000 7.72 80 14:43 14.04.2021
302 Rain 17 1017 82 6000 9.26 90 14:22 14.04.2021
303 Rain 17 1014 14 5000 8.75 80 13:49 14.04.2021
304 Rain 16 1015 94 4000 6.17 80 12:58 14.04.2021
305 Rain 16 1017 77 10000 8.75 80 12:35 14.04.2021
306 Rain 16 1015 88 8000 6.17 90 11:42 14.04.2021
307 Clouds 16 1017 82 10000 10.29 90 11:24 14.04.2021
308 Clouds 16 1017 88 10000 10.29 90 10:35 14.04.2021
309 Rain 16 1017 82 10000 9.26 90 09:59 14.04.2021
310 Rain 16 1013 77 8000 7.72 90 09:41 14.04.2021
311 Rain 16 1013 77 8000 7.72 80 09:18 14.04.2021
312 Rain 16 1016 82 10000 10.29 90 08:33 14.04.2021
313 Rain 16 1013 9 10000 8.23 90 07:53 14.04.2021
314 Rain 17 1011 7 10000 9.26 80 06:43 14.04.2021
315 Rain 17 1016 77 10000 10.29 90 06:22 14.04.2021
316 Rain 17 1012 72 10000 8.75 90 03:44 14.04.2021
317 Rain 17 1020 82 10000 10.8 90 01:28 14.04.2021
318 Rain 17 1020 82 10000 10.29 80 00:34 14.04.2021
319 Clouds 17 1020 77 10000 9.77 90 23:39 13.04.2021
320 Clear 17 1016 72 10000 9.26 80 22:55 13.04.2021
321 Clouds 17 1019 77 10000 9.77 90 22:37 13.04.2021
322 Clear 17 1016 5 10000 8.75 80 22:18 13.04.2021
323 Clouds 17 1019 77 10000 7.72 90 21:40 13.04.2021
324 Clear 17 1015 5 10000 9.26 70 21:20 13.04.2021
325 Clouds 17 1019 77 10000 8.23 90 20:39 13.04.2021
326 Clear 18 1015 68 10000 10.29 80 20:20 13.04.2021
327 Clouds 18 1019 72 10000 8.23 100 19:27 13.04.2021
328 Clouds 18 1019 72 10000 8.23 100 19:27 13.04.2021
329 Clouds 18 1019 72 10000 8.23 100 18:58 13.04.2021
330 Clouds 18 1019 72 10000 8.23 100 18:33 13.04.2021
331 Clear 20 1016 60 10000 9.77 80 17:44 13.04.2021
332 Clouds 20 1020 72 10000 8.75 90 17:23 13.04.2021
333 Clouds 20 1020 68 10000 9.26 90 16:55 13.04.2021
334 Clouds 19 1020 68 10000 9.26 90 16:37 13.04.2021
335 Clear 20 1017 60 10000 9.77 80 16:18 13.04.2021
336 Clouds 20 1021 72 10000 9.26 90 15:39 13.04.2021
337 Clouds 19 1021 77 10000 8.75 90 14:59 13.04.2021
338 Clouds 19 1021 77 10000 8.75 90 14:37 13.04.2021
339 Clear 20 1018 56 10000 10.29 70 14:18 13.04.2021
340 Clouds 19 1022 77 10000 9.26 80 13:40 13.04.2021
341 Clear 19 1018 60 10000 10.8 80 13:20 13.04.2021
342 Clouds 19 1022 77 10000 9.26 90 12:49 13.04.2021
343 Clear 19 1018 64 10000 11.83 80 12:23 13.04.2021
344 Clouds 18 1022 77 10000 9.26 90 11:38 13.04.2021
345 Clouds 18 1022 72 10000 9.26 90 10:58 13.04.2021
346 Clouds 17 1022 72 10000 9.26 90 10:40 13.04.2021
347 Clear 18 1018 72 10000 9.77 80 10:19 13.04.2021
348 Clear 17 1018 77 10000 9.77 80 09:51 13.04.2021
349 Clouds 17 1021 77 10000 9.26 80 09:26 13.04.2021
350 Clear 17 1017 82 10000 9.77 80 08:47 13.04.2021
351 Clouds 17 1021 77 10000 9.26 90 08:24 13.04.2021
352 Clear 17 1017 82 10000 9.26 80 07:48 13.04.2021
353 Clear 17 1017 82 10000 9.77 80 07:26 13.04.2021
354 Clouds 17 1021 77 10000 9.26 90 06:24 13.04.2021
355 Clear 17 1018 77 10000 9.77 80 03:44 13.04.2021
356 Clouds 17 1023 77 10000 11.32 80 01:32 13.04.2021
357 Clear 17 1019 72 10000 9.26 80 23:52 12.04.2021
358 Clouds 17 1023 82 10000 9.77 70 23:32 12.04.2021
359 Clouds 17 1019 72 10000 8.75 80 22:52 12.04.2021
360 Clouds 18 1022 82 10000 10.29 80 22:33 12.04.2021
361 Clouds 18 1022 82 10000 10.29 80 22:33 12.04.2021
362 Clouds 18 1018 4 10000 9.77 70 21:48 12.04.2021
363 Clouds 18 1022 82 10000 10.29 90 21:25 12.04.2021
364 Clouds 18 1021 82 10000 8.23 90 20:58 12.04.2021
365 Clouds 18 1021 82 10000 8.23 90 20:36 12.04.2021
366 Clouds 18 1018 63 10000 9.77 80 20:18 12.04.2021
367 Clouds 19 1021 82 10000 8.23 80 19:39 12.04.2021
368 Clouds 20 1018 56 10000 7.72 60 19:21 12.04.2021
369 Clouds 20 1021 82 10000 8.23 80 18:48 12.04.2021
370 Clouds 20 1021 82 10000 7.72 80 18:30 12.04.2021
371 Clouds 19 1021 82 10000 7.2 70 17:58 12.04.2021
372 Clouds 19 1021 82 10000 7.2 70 17:37 12.04.2021
373 Clouds 20 1018 60 10000 8.23 40 17:19 12.04.2021
374 Clouds 20 1021 82 10000 7.2 70 16:37 12.04.2021
375 Clouds 20 1019 56 10000 7.2 30 16:18 12.04.2021
376 Clouds 20 1021 72 10000 5.66 80 15:33 12.04.2021
377 Clouds 21 1021 73 10000 4.63 70 14:56 12.04.2021
378 Clouds 21 1021 73 10000 4.63 70 14:37 12.04.2021
379 Clouds 21 1020 64 10000 3.09 300 14:18 12.04.2021
380 Clouds 19 1021 68 10000 4.12 80 13:40 12.04.2021
381 Clouds 20 1020 68 10000 3.09 310 13:18 12.04.2021
382 Clouds 20 1020 73 10000 3.09 280 12:43 12.04.2021
383 Clouds 19 1020 63 10000 1.54 90 12:22 12.04.2021
384 Clear 19 1020 68 10000 2.57 200 11:35 12.04.2021
385 Clear 17 1020 77 10000 2.06 260 10:51 12.04.2021
386 Clear 17 1019 82 10000 3.09 220 10:28 12.04.2021
387 Clear 16 1019 82 10000 3.09 220 09:52 12.04.2021
388 Clear 15 1019 82 10000 3.09 250 09:23 12.04.2021
389 Clear 13 1018 88 10000 2.57 250 08:49 12.04.2021
390 Clear 14 1018 88 10000 3.09 230 07:53 12.04.2021
391 Clear 14 1018 88 10000 3.09 230 07:29 12.04.2021
392 Clear 14 1018 82 10000 3.6 230 06:29 12.04.2021
393 Clouds 14 1018 87 7000 2.06 60 05:47 12.04.2021
394 Clouds 15 1019 82 10000 4.63 240 02:26 12.04.2021
395 Clouds 16 1018 77 10000 6.17 240 00:27 12.04.2021
396 Clouds 16 1019 88 8000 1.54 80 23:54 11.04.2021
397 Clouds 16 1018 72 10000 5.14 260 23:32 11.04.2021
398 Clouds 18 1018 72 8000 1.03 0 22:50 11.04.2021
399 Clear 18 1018 72 10000 5.14 260 22:28 11.04.2021
400 Clear 18 1017 68 10000 5.14 260 21:59 11.04.2021
401 Clear 18 1017 68 10000 5.14 260 21:39 11.04.2021
402 Clouds 18 1017 82 10000 2.06 260 21:20 11.04.2021
403 Clouds 19 1016 64 10000 5.14 260 20:42 11.04.2021
404 Clouds 19 1016 64 10000 5.14 260 20:23 11.04.2021
405 Clouds 20 1017 72 10000 4.12 260 19:41 11.04.2021
406 Clouds 20 1017 77 10000 4.12 260 19:20 11.04.2021
407 Clouds 20 1016 64 10000 7.2 260 18:55 11.04.2021
408 Clouds 20 1016 64 10000 7.2 260 18:55 11.04.2021
409 Clouds 20 1016 64 10000 7.2 260 18:37 11.04.2021
410 Clouds 21 1017 68 10000 5.14 250 18:18 11.04.2021
411 Clouds 21 1017 68 10000 5.14 250 18:18 11.04.2021
412 Clouds 21 1016 60 10000 6.17 260 17:37 11.04.2021
413 Clouds 21 1016 73 10000 4.63 250 17:18 11.04.2021
414 Clouds 21 1017 68 10000 5.14 240 16:40 11.04.2021
415 Clouds 21 1017 68 10000 5.14 240 16:40 11.04.2021
416 Clouds 21 1017 64 10000 5.66 240 16:20 11.04.2021
417 Clouds 21 1017 68 10000 5.14 240 15:43 11.04.2021
418 Clouds 21 1016 52 10000 6.69 240 15:22 11.04.2021
419 Clouds 21 1016 56 10000 5.66 240 14:51 11.04.2021
420 Clouds 21 1016 64 10000 4.63 260 14:21 11.04.2021
421 Clouds 19 1017 72 10000 5.66 230 13:40 11.04.2021
422 Clouds 19 1017 77 10000 4.12 210 13:22 11.04.2021
423 Clouds 19 1017 77 10000 4.63 210 12:26 11.04.2021
424 Clouds 18 1016 82 10000 4.63 210 11:56 11.04.2021
425 Clouds 18 1016 82 10000 4.63 210 11:38 11.04.2021
426 Clouds 18 1016 72 10000 3.09 180 11:19 11.04.2021
427 Clouds 16 1016 88 10000 2.57 220 10:40 11.04.2021
428 Clouds 17 1016 82 10000 3.09 170 10:20 11.04.2021
429 Clouds 16 1015 82 10000 3.09 170 09:43 11.04.2021
430 Clouds 16 1015 82 10000 3.09 170 09:43 11.04.2021
431 Clouds 16 1015 88 10000 2.57 220 09:25 11.04.2021
432 Clouds 15 1015 94 10000 1.54 250 08:39 11.04.2021
433 Clouds 15 1014 94 10000 1.03 290 07:38 11.04.2021
434 Clouds 15 1014 88 10000 2.06 170 07:19 11.04.2021
435 Clouds 15 1014 88 10000 1.54 160 05:47 11.04.2021
436 Clouds 15 1014 94 10000 1.54 260 05:22 11.04.2021
437 Clouds 15 1015 94 10000 3.09 280 04:35 11.04.2021
438 Clouds 15 1015 94 10000 3.09 280 04:35 11.04.2021
439 Clouds 14 1015 88 10000 1.54 280 03:35 11.04.2021
440 Clouds 16 1015 88 10000 0.51 0 00:51 11.04.2021
441 Clouds 16 1015 94 10000 1.03 270 00:25 11.04.2021
442 Clouds 16 1015 88 10000 0.51 0 23:44 10.04.2021
443 Clouds 16 1014 88 10000 1.06 231 22:55 10.04.2021
444 Clouds 17 1014 82 10000 0.51 210 22:26 10.04.2021
445 Clouds 17 1014 82 10000 0.51 0 21:52 10.04.2021
446 Clouds 17 1013 82 10000 1.54 120 21:24 10.04.2021
447 Clouds 17 1013 82 10000 2.06 280 20:53 10.04.2021
448 Clouds 18 1013 82 10000 3.09 120 20:32 10.04.2021
449 Clouds 18 1013 77 10000 2.57 290 19:49 10.04.2021
450 Clouds 18 1013 82 10000 3.09 100 19:30 10.04.2021
451 Clouds 19 1013 77 10000 3.09 110 18:57 10.04.2021
452 Clouds 18 1013 77 10000 3.09 110 18:39 10.04.2021
453 Clouds 19 1013 68 10000 2.57 270 18:20 10.04.2021
454 Clouds 19 1013 77 10000 4.63 90 17:34 10.04.2021
455 Clouds 19 1014 82 10000 4.63 80 16:32 10.04.2021
456 Clouds 19 1014 77 10000 4.63 90 15:56 10.04.2021
457 Clouds 19 1014 77 10000 4.63 90 15:36 10.04.2021
458 Clouds 19 1015 77 10000 4.63 100 14:51 10.04.2021
459 Drizzle 19 1015 88 10000 4.12 100 14:28 10.04.2021
460 Drizzle 19 1015 88 10000 5.66 90 13:49 10.04.2021
461 Clouds 18 1015 88 10000 3.6 90 13:28 10.04.2021
462 Clouds 17 1015 82 10000 3.09 110 12:38 10.04.2021
463 Clouds 18 1015 88 10000 4.12 80 11:59 10.04.2021
464 Clouds 18 1014 72 10000 2.06 180 11:41 10.04.2021
465 Clouds 17 1014 72 10000 2.06 190 11:18 10.04.2021
466 Clouds 17 1015 88 10000 5.14 80 10:42 10.04.2021
467 Clouds 16 1015 88 10000 5.14 80 10:24 10.04.2021
468 Clouds 15 1015 88 10000 5.14 90 09:30 10.04.2021
469 Clouds 15 1015 88 10000 5.14 90 09:30 10.04.2021
470 Clouds 15 1014 88 6000 6.69 80 08:59 10.04.2021
471 Clouds 15 1014 88 6000 6.69 80 08:31 10.04.2021
472 Clouds 14 1013 88 10000 2.06 100 07:54 10.04.2021
473 Clouds 14 1014 94 10000 5.66 70 07:25 10.04.2021
474 Clouds 15 1014 88 4000 5.14 70 06:27 10.04.2021
475 Clouds 15 1013 88 10000 3.6 80 04:49 10.04.2021
476 Clouds 16 1016 88 10000 6.69 100 02:58 10.04.2021
477 Clouds 16 1016 88 10000 6.69 100 02:37 10.04.2021
478 Clear 16 1015 88 10000 4.12 90 00:55 10.04.2021
479 Clouds 16 1016 82 10000 9.26 100 00:30 10.04.2021
480 Clear 16 1014 77 10000 4.63 80 23:45 09.04.2021
481 Clear 16 1014 77 10000 4.63 90 23:20 09.04.2021
482 Clear 16 1014 77 10000 4.63 90 22:44 09.04.2021
483 Clouds 16 1016 82 10000 8.75 110 22:25 09.04.2021
484 Clouds 17 1015 82 10000 8.23 110 21:39 09.04.2021
485 Clouds 17 1013 72 10000 6.17 80 21:19 09.04.2021
486 Clouds 17 1013 72 10000 6.17 80 20:45 09.04.2021
487 Clouds 17 1015 82 10000 8.23 110 20:23 09.04.2021
488 Clouds 18 1015 77 10000 6.17 100 19:57 09.04.2021
489 Clouds 18 1015 77 10000 6.69 100 19:39 09.04.2021
490 Clouds 18 1013 68 10000 6.69 80 19:20 09.04.2021
491 Clouds 18 1013 68 10000 7.2 90 18:41 09.04.2021
492 Clouds 19 1015 72 10000 6.69 100 18:21 09.04.2021
493 Clouds 18 1013 63 10000 7.72 80 17:43 09.04.2021
494 Clouds 19 1016 77 10000 6.69 90 17:21 09.04.2021
495 Clouds 19 1016 77 10000 5.66 80 16:39 09.04.2021
496 Clouds 18 1017 77 10000 7.2 80 15:59 09.04.2021
497 Clouds 19 1017 72 10000 7.2 80 15:40 09.04.2021
498 Clouds 19 1015 60 10000 7.72 70 15:19 09.04.2021
499 Clouds 18 1015 64 10000 8.75 70 14:42 09.04.2021
500 Clouds 18 1018 77 10000 8.75 90 13:57 09.04.2021
501 Clouds 18 1018 77 10000 8.75 90 13:57 09.04.2021
502 Drizzle 17 1018 82 10000 8.75 90 13:38 09.04.2021
503 Clouds 18 1016 64 10000 8.75 80 13:19 09.04.2021
504 Drizzle 18 1018 77 8000 9.26 90 12:39 09.04.2021
505 Clouds 18 1016 68 10000 7.2 90 11:48 09.04.2021
506 Clouds 18 1018 77 10000 8.23 90 11:23 09.04.2021
507 Clouds 17 1016 68 10000 6.69 90 10:49 09.04.2021
508 Clouds 17 1018 82 10000 8.23 90 10:30 09.04.2021
509 Clouds 16 1018 77 10000 8.23 80 09:51 09.04.2021
510 Clouds 16 1018 77 10000 7.2 90 09:25 09.04.2021
511 Clouds 16 1016 77 7000 4.63 80 08:53 09.04.2021
512 Clouds 16 1016 77 7000 5.14 90 08:18 09.04.2021
513 Clouds 16 1015 77 7000 4.63 90 07:18 09.04.2021
514 Clouds 16 1015 77 8000 6.17 90 06:21 09.04.2021
515 Clouds 16 1016 77 8000 7.72 80 03:54 09.04.2021
516 Clouds 16 1016 72 9000 7.72 80 02:18 09.04.2021
517 Clouds 16 1020 72 10000 11.32 100 00:38 09.04.2021
518 Clouds 16 1017 77 8000 6.69 90 00:19 09.04.2021
519 Clouds 16 1020 77 10000 11.83 100 23:29 08.04.2021
520 Clouds 16 1017 77 8000 8.23 90 22:45 08.04.2021
521 Clouds 16 1019 77 10000 11.83 110 22:25 08.04.2021
522 Clear 16 1016 72 10000 7.2 90 21:56 08.04.2021
523 Clouds 16 1019 72 10000 9.26 100 21:56 08.04.2021
524 Clouds 16 1019 72 10000 9.26 100 21:37 08.04.2021
525 Clear 16 1016 72 10000 7.72 80 21:18 08.04.2021
526 Clouds 17 1019 72 10000 9.26 100 20:52 08.04.2021
527 Clouds 17 1019 77 10000 9.26 100 20:30 08.04.2021
528 Clear 17 1015 68 10000 8.75 80 19:46 08.04.2021
529 Clear 17 1015 68 10000 9.77 80 19:20 08.04.2021
530 Clouds 17 1019 72 10000 9.77 100 18:51 08.04.2021
531 Clouds 17 1019 72 10000 10.29 100 18:21 08.04.2021
532 Clear 17 1016 68 10000 9.77 80 17:49 08.04.2021
533 Clouds 18 1019 67 10000 10.29 100 17:26 08.04.2021
534 Clouds 18 1019 72 10000 11.32 90 16:51 08.04.2021
535 Clouds 17 1020 72 10000 11.32 90 16:33 08.04.2021
536 Clear 18 1016 63 10000 13.38 70 15:48 08.04.2021
537 Clouds 17 1020 72 10000 11.32 90 15:29 08.04.2021
538 Clouds 19 1021 67 10000 11.32 90 14:46 08.04.2021
539 Clouds 18 1021 67 10000 11.32 90 14:28 08.04.2021
540 Clouds 18 1021 67 10000 11.32 90 13:59 08.04.2021
541 Clear 18 1017 68 10000 13.89 80 13:41 08.04.2021
542 Clouds 18 1021 67 10000 11.32 90 13:22 08.04.2021
543 Clouds 18 1021 63 10000 12.35 100 12:38 08.04.2021
544 Clear 18 1018 63 10000 13.38 80 12:18 08.04.2021
545 Clear 17 1018 68 10000 12.86 80 11:43 08.04.2021
546 Clouds 17 1021 72 10000 11.83 90 10:59 08.04.2021
547 Clouds 16 1021 72 10000 11.83 90 10:36 08.04.2021
548 Clouds 17 1018 72 10000 11.83 80 10:18 08.04.2021
549 Clouds 16 1017 77 10000 12.35 80 09:41 08.04.2021
550 Clouds 16 1017 72 8000 10.29 80 08:46 08.04.2021
551 Clouds 16 1020 77 10000 11.32 90 08:28 08.04.2021
552 Clouds 16 1020 72 10000 12.86 100 07:57 08.04.2021
553 Clouds 16 1020 72 10000 12.86 100 07:35 08.04.2021
554 Clear 17 1017 72 10000 8.75 80 03:48 08.04.2021
555 Clear 18 1017 72 10000 3.6 80 00:54 08.04.2021
556 Clouds 18 1019 77 10000 11.32 100 23:59 07.04.2021
557 Clouds 18 1019 77 10000 11.32 100 23:39 07.04.2021
558 Clouds 18 1019 77 10000 11.32 100 23:21 07.04.2021
559 Clear 18 1016 72 10000 5.14 90 22:47 07.04.2021
560 Clouds 18 1019 82 10000 9.77 90 22:29 07.04.2021
561 Clouds 18 1015 72 10000 5.66 80 21:44 07.04.2021
562 Clouds 18 1017 82 10000 9.77 90 21:22 07.04.2021
563 Clouds 19 1017 77 10000 6.69 90 20:43 07.04.2021
564 Clouds 19 1017 77 10000 6.69 90 20:21 07.04.2021
565 Clouds 20 1014 60 10000 6.17 60 19:43 07.04.2021
566 Clouds 20 1014 64 10000 5.14 40 19:25 07.04.2021
567 Clouds 20 1014 68 10000 4.12 10 18:47 07.04.2021
568 Clouds 20 1014 68 10000 4.12 360 18:19 07.04.2021
569 Clouds 20 1016 77 10000 6.69 100 17:54 07.04.2021
570 Clouds 19 1016 77 10000 6.69 100 17:36 07.04.2021
571 Clouds 20 1014 68 10000 3.09 250 16:49 07.04.2021
572 Clouds 20 1016 77 10000 7.72 80 16:23 07.04.2021
573 Clouds 20 1015 77 10000 5.14 60 15:57 07.04.2021
574 Clouds 19 1015 77 10000 5.14 60 15:38 07.04.2021
575 Clouds 19 1015 77 10000 5.14 60 15:38 07.04.2021
576 Clouds 21 1015 73 10000 5.14 60 14:57 07.04.2021
577 Clouds 23 1014 50 10000 2.57 280 14:31 07.04.2021
578 Clear 22 1014 53 10000 3.09 220 13:52 07.04.2021
579 Clear 22 1014 56 10000 3.09 220 13:23 07.04.2021
580 Clouds 22 1014 68 7000 4.63 230 12:51 07.04.2021
581 Clear 21 1013 52 10000 2.57 230 12:24 07.04.2021
582 Clear 20 1013 52 10000 3.09 240 11:54 07.04.2021
583 Clear 19 1013 55 10000 2.57 240 11:26 07.04.2021
584 Clear 18 1013 59 10000 3.09 240 10:52 07.04.2021
585 Clear 17 1013 88 10000 2.06 170 10:19 07.04.2021
586 Clouds 16 1013 88 6000 0.51 0 09:40 07.04.2021
587 Mist 14 1013 88 4000 1.03 0 09:21 07.04.2021
588 Clear 14 1011 77 10000 3.09 240 08:34 07.04.2021
589 Clear 14 1010 67 10000 3.09 240 07:59 07.04.2021
590 Clear 14 1010 67 10000 3.09 240 07:37 07.04.2021
591 Clear 14 1010 67 10000 3.09 240 07:19 07.04.2021
592 Clear 15 1011 72 10000 3.09 240 06:22 07.04.2021
593 Clouds 15 1011 77 10000 3.6 250 04:22 07.04.2021
594 Clear 17 1011 67 10000 1.54 100 00:19 07.04.2021
595 Clouds 17 1011 68 10000 1.54 240 23:42 06.04.2021
596 Clear 17 1011 67 10000 0.51 0 23:18 06.04.2021
597 Clouds 17 1011 82 10000 1.03 300 22:38 06.04.2021
598 Clear 17 1011 67 10000 1.03 0 22:18 06.04.2021
599 Clouds 18 1011 68 10000 1.54 80 21:40 06.04.2021
600 Clouds 18 1011 68 10000 1.54 80 21:21 06.04.2021
601 Clear 19 1010 68 10000 1.03 0 20:51 06.04.2021
602 Clouds 19 1011 59 10000 0.51 50 20:21 06.04.2021
603 Clouds 20 1011 52 10000 1.03 330 19:51 06.04.2021
604 Clouds 20 1011 52 10000 1.03 330 19:33 06.04.2021
605 Clouds 21 1011 56 10000 2.57 110 18:49 06.04.2021
606 Clouds 21 1011 56 10000 1.03 310 18:31 06.04.2021
607 Clouds 22 1011 49 10000 1.03 80 17:53 06.04.2021
608 Clouds 22 1012 60 10000 1.54 280 17:30 06.04.2021
609 Clouds 22 1012 60 10000 1.54 90 16:59 06.04.2021
610 Clouds 22 1012 60 10000 1.54 90 16:39 06.04.2021
611 Clear 22 1011 46 10000 3.09 290 15:44 06.04.2021
612 Clouds 22 1013 59 10000 3.09 100 15:22 06.04.2021
613 Clouds 21 1013 63 10000 3.09 100 14:39 06.04.2021
614 Clouds 20 1014 68 10000 3.6 100 14:19 06.04.2021
615 Clear 20 1012 53 10000 4.12 40 13:44 06.04.2021
616 Clouds 20 1015 77 10000 3.09 80 13:25 06.04.2021
617 Clouds 19 1015 77 10000 3.09 80 12:42 06.04.2021
618 Clouds 20 1015 77 10000 3.09 80 12:22 06.04.2021
619 Clouds 19 1015 77 10000 3.09 70 11:52 06.04.2021
620 Clouds 18 1015 77 10000 2.57 70 11:21 06.04.2021
621 Clear 18 1013 72 10000 5.66 90 10:48 06.04.2021
622 Clouds 17 1015 77 10000 2.06 70 10:29 06.04.2021
623 Clouds 16 1015 82 10000 1.54 70 09:57 06.04.2021
624 Clouds 16 1015 82 10000 1.54 70 09:36 06.04.2021
625 Clear 14 1012 88 10000 5.66 90 08:45 06.04.2021
626 Clear 14 1012 88 10000 4.63 90 08:19 06.04.2021
627 Clear 15 1012 7 10000 6.69 90 06:55 06.04.2021
628 Clouds 15 1015 88 10000 3.09 40 05:41 06.04.2021
629 Clear 16 1013 67 10000 7.2 70 02:58 06.04.2021
630 Clear 17 1014 67 10000 6.69 60 00:45 06.04.2021
631 Clouds 17 1018 82 10000 4.12 100 00:21 06.04.2021
632 Clear 17 1015 67 10000 4.63 70 23:43 05.04.2021
633 Clear 17 1015 67 10000 5.66 70 23:20 05.04.2021
634 Clear 17 1014 63 10000 5.66 70 22:48 05.04.2021
635 Clouds 17 1017 82 10000 4.63 110 22:26 05.04.2021
636 Clouds 18 1017 82 10000 4.63 110 21:44 05.04.2021
637 Clouds 18 1017 82 10000 4.63 110 21:22 05.04.2021
638 Clear 19 1014 52 10000 6.17 70 20:45 05.04.2021
639 Clouds 19 1017 77 10000 5.14 100 20:26 05.04.2021
640 Clouds 19 1017 77 10000 5.14 110 19:43 05.04.2021
641 Clouds 20 1017 77 10000 6.17 100 19:23 05.04.2021
642 Clouds 20 1017 77 10000 5.66 100 18:54 05.04.2021
643 Clouds 19 1017 77 10000 5.66 100 18:36 05.04.2021
644 Clear 20 1014 56 10000 8.23 60 18:18 05.04.2021
645 Clouds 19 1017 77 10000 6.17 100 17:42 05.04.2021
646 Clear 20 1014 56 10000 8.75 50 17:20 05.04.2021
647 Clear 21 1014 53 10000 9.26 50 16:43 05.04.2021
648 Clear 21 1015 56 10000 9.26 50 16:20 05.04.2021
649 Clouds 20 1018 72 10000 6.17 90 15:52 05.04.2021
650 Clouds 20 1018 72 10000 6.17 90 15:29 05.04.2021
651 Clear 20 1016 56 10000 7.72 50 14:50 05.04.2021
652 Clouds 21 1018 72 10000 5.66 90 14:28 05.04.2021
653 Clouds 20 1019 72 10000 6.17 80 13:31 05.04.2021
654 Clouds 20 1019 72 10000 6.17 80 12:50 05.04.2021
655 Clear 19 1016 60 10000 8.23 80 12:27 05.04.2021
656 Clouds 18 1019 82 10000 5.14 80 11:56 05.04.2021
657 Clouds 18 1019 82 10000 5.14 80 11:33 05.04.2021
658 Clouds 18 1018 82 10000 5.66 80 10:59 05.04.2021
659 Clouds 18 1018 82 10000 5.66 80 10:59 05.04.2021
660 Clouds 18 1018 82 10000 5.66 80 10:59 05.04.2021
661 Clouds 17 1018 82 10000 5.66 80 10:40 05.04.2021
662 Clouds 18 1018 82 10000 5.14 90 10:22 05.04.2021
663 Clear 17 1016 77 10000 7.2 70 09:47 05.04.2021
664 Clouds 17 1017 82 10000 5.14 90 09:22 05.04.2021
665 Clouds 16 1017 88 10000 5.66 90 08:42 05.04.2021
666 Clouds 16 1017 88 10000 5.66 90 08:24 05.04.2021
667 Clouds 15 1017 88 10000 6.17 80 07:35 05.04.2021
668 Clouds 16 1017 88 10000 6.69 60 04:25 05.04.2021
669 Clouds 17 1017 88 10000 5.14 70 01:35 05.04.2021
670 Clouds 17 1017 88 10000 3.6 40 00:36 05.04.2021
671 Clouds 17 1017 88 8000 1.03 320 23:43 04.04.2021
672 Clouds 17 1017 88 8000 1.03 290 23:23 04.04.2021
673 Clouds 17 1017 88 7000 1.54 280 22:50 04.04.2021
674 Clouds 17 1016 77 10000 2.06 280 22:28 04.04.2021
675 Clear 18 1015 72 10000 3.09 260 21:26 04.04.2021
676 Clouds 19 1015 82 10000 2.57 270 20:56 04.04.2021
677 Clouds 19 1015 68 10000 4.12 200 20:29 04.04.2021
678 Clouds 18 1015 88 10000 4.12 260 19:45 04.04.2021
679 Clouds 19 1014 68 10000 5.66 200 19:23 04.04.2021
680 Clouds 19 1014 68 10000 6.69 190 18:59 04.04.2021
681 Clouds 19 1014 68 10000 6.69 190 18:40 04.04.2021
682 Clouds 19 1014 68 10000 6.69 190 18:40 04.04.2021
683 Clouds 19 1015 77 10000 4.63 240 18:20 04.04.2021
684 Clouds 20 1014 68 10000 5.14 190 17:41 04.04.2021
685 Clouds 20 1014 68 10000 5.14 190 17:41 04.04.2021
686 Clouds 20 1014 64 10000 5.66 200 17:22 04.04.2021
687 Clouds 20 1015 72 10000 4.12 230 16:42 04.04.2021
688 Clouds 20 1015 68 10000 4.63 230 16:18 04.04.2021
689 Clouds 20 1014 60 10000 5.14 210 15:34 04.04.2021
690 Clouds 19 1015 68 10000 4.12 230 14:46 04.04.2021
691 Clouds 19 1014 60 10000 5.14 250 14:27 04.04.2021
692 Clouds 18 1015 68 10000 5.14 260 13:30 04.04.2021
693 Clouds 18 1015 72 10000 5.14 240 12:57 04.04.2021
694 Clouds 18 1015 72 10000 5.14 240 12:33 04.04.2021
695 Clouds 18 1015 68 10000 4.63 260 11:59 04.04.2021
696 Clouds 18 1014 68 10000 3.09 260 11:39 04.04.2021
697 Clouds 18 1015 77 10000 3.09 190 11:20 04.04.2021
698 Clouds 16 1014 77 10000 4.63 230 10:40 04.04.2021
699 Clouds 15 1014 82 10000 5.14 280 09:53 04.04.2021
700 Clouds 15 1013 77 10000 4.63 280 09:25 04.04.2021
701 Clouds 14 1013 82 10000 4.63 270 08:53 04.04.2021
702 Clouds 14 1013 82 10000 4.63 270 08:35 04.04.2021
703 Clouds 14 1013 82 10000 4.63 270 08:35 04.04.2021
704 Clouds 14 1013 82 8000 2.06 170 07:50 04.04.2021
705 Clear 14 1012 82 10000 5.14 260 06:36 04.04.2021
706 Clouds 15 1012 77 10000 6.17 260 05:33 04.04.2021
707 Clear 16 1013 77 10000 7.72 280 01:28 04.04.2021
708 Clouds 15 1014 82 7000 1.54 250 00:20 04.04.2021
709 Clouds 16 1014 77 7000 1.54 260 23:47 03.04.2021
710 Clear 15 1013 77 10000 8.23 270 23:24 03.04.2021
711 Clouds 16 1014 72 7000 2.06 260 22:51 03.04.2021
712 Clear 16 1013 72 10000 7.2 280 22:22 03.04.2021
713 Clouds 17 1013 72 8000 2.06 250 21:49 03.04.2021
714 Clear 17 1012 63 10000 6.69 260 21:24 03.04.2021
715 Clouds 17 1013 77 10000 3.09 260 20:51 03.04.2021
716 Clear 18 1012 59 10000 8.23 270 20:28 03.04.2021
717 Clouds 19 1012 59 10000 7.2 270 19:51 03.04.2021
718 Clouds 19 1012 56 10000 6.17 260 19:25 03.04.2021
719 Clouds 20 1012 60 10000 7.2 260 18:52 03.04.2021
720 Clouds 20 1012 60 10000 7.2 260 18:32 03.04.2021
721 Clouds 20 1012 52 10000 6.17 260 17:53 03.04.2021
722 Clouds 20 1012 56 10000 7.2 260 17:26 03.04.2021
723 Clouds 21 1012 52 10000 6.17 260 16:52 03.04.2021
724 Clouds 20 1012 56 10000 5.66 250 16:25 03.04.2021
725 Clouds 20 1013 64 10000 5.66 210 15:51 03.04.2021
726 Clouds 20 1013 64 10000 5.14 220 15:29 03.04.2021
727 Clouds 21 1014 64 10000 4.12 260 14:44 03.04.2021
728 Clouds 20 1013 60 10000 5.66 260 14:25 03.04.2021
729 Clouds 20 1014 60 10000 5.66 270 13:53 03.04.2021
730 Clouds 20 1014 60 10000 5.66 270 13:25 03.04.2021
731 Clouds 20 1014 60 10000 3.6 230 12:57 03.04.2021
732 Clouds 19 1014 63 10000 4.12 200 12:32 03.04.2021
733 Clouds 17 1014 72 10000 3.09 240 11:40 03.04.2021
734 Clouds 17 1015 82 10000 2.57 230 11:19 03.04.2021
735 Clouds 16 1015 82 10000 2.06 200 10:43 03.04.2021
736 Clouds 16 1014 77 10000 4.63 250 10:25 03.04.2021
737 Clouds 15 1014 82 10000 4.12 260 09:29 03.04.2021
738 Clouds 14 1014 88 10000 3.6 270 08:59 03.04.2021
739 Clouds 14 1014 88 10000 3.6 270 08:31 03.04.2021
740 Clear 14 1014 82 10000 3.09 230 07:30 03.04.2021
741 Mist 13 1014 76 4000 0.51 0 06:50 03.04.2021
742 Mist 15 1016 82 4000 1.03 0 03:53 03.04.2021
743 Clouds 15 1016 88 6000 0.51 0 02:54 03.04.2021
744 Clear 15 1016 77 10000 6.69 270 02:27 03.04.2021
745 Clear 15 1017 77 10000 6.69 270 00:31 03.04.2021
746 Clear 15 1018 72 10000 0.51 0 23:55 02.04.2021
747 Clear 15 1017 77 10000 6.69 290 23:27 02.04.2021
748 Clear 16 1017 77 10000 1.03 200 22:56 02.04.2021
749 Clear 16 1017 77 10000 5.66 280 22:37 02.04.2021
750 Clear 17 1017 88 10000 1.03 300 21:54 02.04.2021
751 Clear 17 1016 72 10000 7.2 270 21:36 02.04.2021
752 Clear 18 1017 88 10000 1.54 230 21:18 02.04.2021
753 Clear 17 1017 88 10000 1.54 230 21:18 02.04.2021
754 Clouds 19 1017 60 10000 4.63 260 20:36 02.04.2021
755 Clouds 19 1017 82 10000 3.09 270 20:18 02.04.2021
756 Clouds 19 1017 60 10000 5.66 260 19:40 02.04.2021
757 Clouds 19 1018 77 10000 3.09 260 19:21 02.04.2021
758 Clouds 19 1018 77 10000 4.63 270 18:42 02.04.2021
759 Clouds 19 1017 60 10000 5.66 260 18:23 02.04.2021
760 Clouds 20 1017 60 10000 6.17 260 17:54 02.04.2021
761 Clouds 20 1017 52 10000 5.66 240 17:22 02.04.2021
762 Clouds 20 1018 60 10000 5.66 240 16:23 02.04.2021
763 Clouds 20 1019 68 10000 5.66 260 15:43 02.04.2021
764 Clouds 20 1019 77 10000 5.66 240 15:19 02.04.2021
765 Clouds 19 1018 52 10000 7.2 270 14:33 02.04.2021
766 Clouds 19 1019 77 10000 5.14 250 13:47 02.04.2021
767 Clouds 19 1019 55 10000 5.66 270 13:27 02.04.2021
768 Clouds 19 1020 77 10000 3.6 230 12:47 02.04.2021
769 Clouds 18 1020 77 10000 4.12 240 12:20 02.04.2021
770 Clouds 18 1019 72 10000 5.14 280 11:58 02.04.2021
771 Clouds 18 1019 72 10000 4.63 270 11:21 02.04.2021
772 Clouds 17 1019 88 8000 3.09 240 10:51 02.04.2021
773 Clouds 17 1019 77 10000 4.63 270 10:32 02.04.2021
774 Clouds 17 1019 77 10000 4.63 270 10:32 02.04.2021
775 Clouds 16 1018 82 10000 5.14 270 09:55 02.04.2021
776 Clouds 16 1018 82 10000 5.14 270 09:37 02.04.2021
777 Clouds 16 1019 94 6000 1.54 230 09:18 02.04.2021
778 Clouds 16 1018 82 10000 5.14 290 08:34 02.04.2021
779 Clouds 15 1018 15 6000 2.06 230 07:42 02.04.2021
780 Clouds 16 1018 15 6000 1.54 250 07:18 02.04.2021
781 Clouds 17 1017 77 10000 4.63 290 05:59 02.04.2021
782 Clouds 17 1018 94 6000 2.57 210 02:51 02.04.2021
783 Mist 18 1018 88 4000 2.57 200 00:54 02.04.2021
784 Clouds 18 1018 72 10000 2.06 240 00:24 02.04.2021
785 Clouds 18 1018 82 8000 2.06 200 23:41 01.04.2021
786 Clouds 18 1018 72 10000 2.57 270 23:21 01.04.2021
787 Clear 19 1017 68 10000 3.6 290 22:22 01.04.2021
788 Clear 18 1018 82 10000 2.06 190 21:51 01.04.2021
789 Clear 18 1016 68 10000 4.12 280 21:29 01.04.2021
790 Clouds 18 1016 72 10000 0.51 280 20:58 01.04.2021
791 Clouds 19 1016 72 10000 0.51 280 20:28 01.04.2021
792 Clouds 19 1016 82 10000 3.09 80 19:57 01.04.2021
793 Clouds 18 1016 82 10000 3.09 80 19:36 01.04.2021
794 Clouds 19 1016 77 10000 4.12 230 18:47 01.04.2021
795 Clouds 19 1016 77 10000 4.63 230 18:19 01.04.2021
796 Clouds 19 1016 72 10000 3.6 100 17:54 01.04.2021
797 Clouds 19 1016 72 10000 3.6 100 17:33 01.04.2021
798 Clouds 20 1016 77 10000 4.63 100 16:54 01.04.2021
799 Clouds 20 1016 77 10000 4.63 100 16:34 01.04.2021
800 Clouds 21 1016 60 10000 3.09 240 15:49 01.04.2021
801 Clouds 20 1016 68 10000 3.6 240 15:20 01.04.2021
802 Clouds 20 1016 68 10000 4.12 240 14:48 01.04.2021
803 Clouds 19 1017 77 10000 3.6 90 14:27 01.04.2021
804 Clouds 19 1017 77 10000 3.6 90 13:58 01.04.2021
805 Clouds 19 1017 77 10000 3.6 90 13:31 01.04.2021
806 Clouds 20 1017 77 10000 3.09 80 12:55 01.04.2021
807 Clouds 19 1017 77 10000 3.09 80 12:33 01.04.2021
808 Clouds 19 1016 73 9000 2.06 220 11:57 01.04.2021
809 Clouds 18 1017 82 10000 2.06 60 11:38 01.04.2021
810 Clouds 18 1016 77 9000 2.06 230 11:18 01.04.2021
811 Clouds 18 1016 77 7000 1.54 0 10:45 01.04.2021
812 Clouds 17 1016 77 10000 2.06 50 10:22 01.04.2021
813 Clouds 16 1016 88 10000 2.06 50 09:31 01.04.2021
814 Clouds 16 1015 82 10000 1.54 130 08:43 01.04.2021
815 Clouds 17 1015 88 10000 2.57 70 08:24 01.04.2021
816 Clouds 16 1015 88 10000 6.17 80 07:21 01.04.2021
817 Clouds 16 1014 77 10000 1.54 140 06:55 01.04.2021
818 Haze 16 1016 88 8000 6.17 100 05:33 01.04.2021
819 Clear 16 1012 82 10000 5.66 100 03:18 01.04.2021
820 Rain 18 1011 68 10000 11.32 80 23:55 31.03.2021
821 Haze 18 1015 82 9000 12.86 80 23:37 31.03.2021
822 Clear 18 1009 68 10000 13.38 70 22:44 31.03.2021
823 Haze 18 1015 82 9000 11.83 80 22:23 31.03.2021
824 Clear 18 1009 68 10000 14.4 80 21:54 31.03.2021
825 Haze 17 1015 82 9000 10.8 90 21:36 31.03.2021
826 Clouds 17 1009 72 8000 13.38 80 21:18 31.03.2021
827 Clouds 18 1015 82 10000 9.26 90 20:40 31.03.2021
828 Clouds 18 1009 68 8000 14.4 80 20:20 31.03.2021
829 Clouds 18 1009 68 8000 12.35 80 19:42 31.03.2021
830 Clouds 18 1010 63 8000 13.38 80 19:20 31.03.2021
831 Clouds 18 1015 77 10000 9.77 90 18:54 31.03.2021
832 Clouds 18 1015 77 10000 9.77 90 18:34 31.03.2021
833 Clouds 19 1016 77 10000 10.29 90 17:38 31.03.2021
834 Clouds 19 1010 60 8000 9.77 80 17:19 31.03.2021
835 Clouds 20 1011 60 8000 13.89 70 16:50 31.03.2021
836 Clouds 19 1017 72 10000 10.29 90 16:31 31.03.2021
837 Clouds 19 1017 72 10000 11.32 90 15:53 31.03.2021
838 Clouds 20 1012 60 8000 14.4 80 15:20 31.03.2021
839 Clouds 19 1012 60 8000 14.4 90 14:49 31.03.2021
840 Clouds 19 1018 72 10000 10.29 90 14:24 31.03.2021
841 Clouds 19 1018 72 10000 10.8 90 13:54 31.03.2021
842 Clouds 19 1019 77 10000 11.32 90 13:22 31.03.2021
843 Clouds 18 1019 72 10000 10.8 90 12:40 31.03.2021
844 Clouds 18 1019 72 10000 10.8 90 12:40 31.03.2021
845 Clouds 19 1013 68 8000 13.89 80 12:18 31.03.2021
846 Clouds 18 1019 72 10000 9.77 90 11:23 31.03.2021
847 Clouds 18 1013 68 8000 12.86 80 10:50 31.03.2021
848 Clouds 17 1019 77 10000 9.77 100 10:27 31.03.2021
849 Clouds 17 1019 77 10000 9.26 100 09:54 31.03.2021
850 Clouds 17 1019 82 10000 9.77 110 09:29 31.03.2021
851 Clear 16 1013 77 10000 13.89 80 08:46 31.03.2021
852 Clouds 16 1019 82 10000 8.75 110 08:26 31.03.2021
853 Clouds 17 1018 82 10000 8.23 110 07:36 31.03.2021
854 Clear 17 1013 72 10000 14.4 80 04:46 31.03.2021
855 Haze 18 1020 82 7000 8.75 80 02:37 31.03.2021
856 Clear 18 1015 59 10000 12.35 80 00:54 31.03.2021
857 Haze 18 1021 82 8000 7.72 70 00:25 31.03.2021
858 Clear 18 1015 55 10000 11.32 80 23:55 30.03.2021
859 Haze 18 1020 88 8000 7.2 70 23:25 30.03.2021
860 Clear 18 1015 63 10000 9.26 80 22:49 30.03.2021
861 Haze 18 1020 82 7000 6.17 80 22:30 30.03.2021
862 Haze 18 1020 82 9000 6.69 90 21:56 30.03.2021
863 Haze 18 1020 82 9000 6.69 90 21:29 30.03.2021
864 Clouds 18 1020 77 10000 7.2 100 20:59 30.03.2021
865 Clouds 18 1020 77 10000 7.2 100 20:31 30.03.2021
866 Clouds 19 1019 72 10000 7.72 100 19:56 30.03.2021
867 Clouds 18 1019 72 10000 7.72 100 19:37 30.03.2021
868 Clouds 19 1019 77 10000 8.23 90 18:55 30.03.2021
869 Clouds 19 1020 77 10000 6.17 100 18:26 30.03.2021
870 Clouds 19 1014 64 8000 14.92 80 17:45 30.03.2021
871 Rain 19 1020 77 10000 6.17 100 17:26 30.03.2021
872 Clouds 20 1020 77 10000 6.69 90 16:47 30.03.2021
873 Clouds 19 1021 72 10000 6.69 90 16:27 30.03.2021
874 Haze 20 1021 72 9000 7.2 90 15:37 30.03.2021
875 Clouds 20 1016 60 8000 13.38 70 15:18 30.03.2021
876 Clouds 20 1016 60 8000 11.83 80 14:45 30.03.2021
877 Clouds 19 1017 64 8000 12.35 80 14:20 30.03.2021
878 Haze 19 1022 77 9000 7.2 110 13:47 30.03.2021
879 Haze 19 1022 82 8000 6.69 110 13:24 30.03.2021
880 Clouds 19 1017 68 6000 13.89 80 12:41 30.03.2021
881 Clouds 19 1018 68 6000 12.86 80 12:20 30.03.2021
882 Clouds 18 1017 72 6000 10.8 90 11:41 30.03.2021
883 Clouds 18 1018 72 6000 12.86 80 11:18 30.03.2021
884 Clouds 17 1018 77 6000 9.77 60 10:41 30.03.2021
885 Clouds 17 1018 77 6000 8.23 40 10:19 30.03.2021
886 Haze 17 1021 88 9000 7.2 90 09:40 30.03.2021
887 Clouds 17 1018 72 7000 10.29 70 09:20 30.03.2021
888 Clouds 17 1017 39 8000 11.32 80 08:41 30.03.2021
889 Clouds 17 1016 39 7000 11.32 80 07:55 30.03.2021
890 Haze 17 1021 88 8000 8.23 90 07:28 30.03.2021
891 Clouds 16 1021 88 7000 5.14 80 06:29 30.03.2021
892 Rain 17 1021 88 8000 6.69 60 05:25 30.03.2021
893 Rain 18 1020 68 8000 8.75 60 01:44 30.03.2021
894 Rain 18 1019 63 7000 11.83 60 23:53 29.03.2021
895 Clouds 18 1018 68 7000 12.86 70 23:21 29.03.2021
896 Haze 18 1022 82 8000 10.29 90 22:37 29.03.2021
897 Clouds 18 1017 63 8000 12.86 70 21:55 29.03.2021
898 Haze 17 1022 82 8000 11.32 90 21:33 29.03.2021
899 Clouds 17 1017 67 8000 11.83 80 20:51 29.03.2021
900 Haze 18 1022 82 9000 8.75 90 20:29 29.03.2021
901 Haze 18 1022 82 9000 7.2 90 19:53 29.03.2021
902 Clouds 18 1022 82 10000 8.23 90 19:27 29.03.2021
903 Clouds 18 1022 82 10000 8.23 90 19:27 29.03.2021
904 Clouds 18 1022 82 10000 7.72 90 18:54 29.03.2021
905 Clouds 18 1022 82 10000 7.72 80 18:30 29.03.2021
906 Clouds 18 1023 82 10000 7.2 80 17:58 29.03.2021
907 Clouds 18 1023 82 10000 7.2 80 17:35 29.03.2021
908 Haze 19 1023 77 9000 10.8 90 16:53 29.03.2021
909 Haze 19 1023 77 9000 9.26 90 16:26 29.03.2021
910 Clear 19 1019 68 10000 13.89 80 15:41 29.03.2021
911 Clouds 19 1024 77 10000 9.77 90 15:22 29.03.2021
912 Clear 19 1019 64 10000 13.38 80 14:48 29.03.2021
913 Haze 18 1024 82 9000 9.77 90 13:58 29.03.2021
914 Haze 18 1024 82 9000 9.77 90 13:37 29.03.2021
915 Clear 19 1019 32 10000 13.38 80 13:18 29.03.2021
916 Clouds 19 1020 64 6000 12.86 80 12:48 29.03.2021
917 Clouds 18 1020 68 6000 13.38 80 11:46 29.03.2021
918 Haze 18 1024 82 9000 9.77 90 11:28 29.03.2021
919 Clouds 17 1019 72 6000 12.35 70 10:46 29.03.2021
920 Haze 17 1024 88 9000 9.77 90 10:21 29.03.2021
921 Haze 16 1024 82 9000 9.26 90 09:32 29.03.2021
922 Clouds 16 1023 82 10000 9.26 100 08:35 29.03.2021
923 Clear 16 1019 77 10000 9.77 80 07:54 29.03.2021
924 Rain 16 1019 77 8000 9.26 80 07:19 29.03.2021
925 Rain 16 1023 88 9000 11.32 90 06:23 29.03.2021
926 Rain 17 1025 82 10000 12.35 90 02:34 29.03.2021
927 Haze 17 1025 88 9000 11.32 90 00:30 29.03.2021
928 Clouds 17 1025 88 10000 10.8 90 23:59 28.03.2021
929 Clouds 17 1021 72 8000 10.8 80 23:25 28.03.2021
930 Clouds 17 1021 72 10000 10.29 80 22:48 28.03.2021
931 Clouds 17 1024 88 10000 10.8 80 22:29 28.03.2021
932 Rain 17 1020 13 10000 9.77 80 21:47 28.03.2021
933 Rain 17 1024 82 10000 12.35 90 21:25 28.03.2021
934 Clouds 17 1024 82 10000 9.77 100 20:56 28.03.2021
935 Rain 17 1024 82 10000 9.77 100 20:38 28.03.2021
936 Rain 17 1020 72 8000 10.8 80 20:18 28.03.2021
937 Clouds 17 1020 72 8000 11.83 80 19:41 28.03.2021
938 Clouds 18 1024 77 10000 9.26 90 19:21 28.03.2021
939 Clouds 18 1020 68 8000 11.83 80 18:49 28.03.2021
940 Clouds 18 1024 77 10000 12.86 90 18:22 28.03.2021
941 Clouds 18 1020 68 8000 12.86 80 17:41 28.03.2021
942 Clouds 18 1020 68 8000 12.86 80 17:18 28.03.2021
943 Clouds 18 1025 77 10000 9.77 90 16:39 28.03.2021
944 Clouds 18 1025 77 10000 9.77 90 16:21 28.03.2021
945 Clouds 18 1026 77 10000 12.86 90 15:24 28.03.2021
946 Clouds 19 1022 63 8000 11.32 80 14:49 28.03.2021
947 Clouds 18 1026 77 10000 9.77 90 14:25 28.03.2021
948 Clouds 18 1026 77 10000 10.8 90 13:36 28.03.2021
949 Clouds 18 1026 77 10000 9.77 90 12:58 28.03.2021
950 Clouds 18 1026 77 10000 9.77 90 12:35 28.03.2021
951 Clouds 18 1026 77 10000 11.32 90 11:59 28.03.2021
952 Clouds 17 1026 77 10000 11.32 90 11:37 28.03.2021
953 Clouds 18 1025 77 10000 10.29 90 10:54 28.03.2021
954 Clouds 17 1025 82 10000 10.8 90 10:31 28.03.2021
955 Clouds 17 1025 82 10000 9.77 90 09:53 28.03.2021
956 Clouds 16 1025 82 10000 9.26 90 09:28 28.03.2021
957 Clouds 16 1024 82 10000 9.77 90 08:52 28.03.2021
958 Clouds 16 1024 82 10000 9.77 90 08:34 28.03.2021
959 Clear 16 1020 77 10000 11.32 80 07:42 28.03.2021
960 Clouds 16 1024 82 10000 9.26 90 06:21 28.03.2021
961 Clear 17 1019 67 10000 12.35 70 03:50 28.03.2021
962 Clear 17 1020 55 10000 9.77 70 00:45 28.03.2021
963 Rain 18 1020 52 10000 9.77 80 23:53 27.03.2021
964 Rain 18 1020 52 10000 9.77 80 23:53 27.03.2021
965 Rain 18 1024 82 10000 8.75 80 23:34 27.03.2021
966 Clouds 18 1024 82 10000 8.23 90 22:40 27.03.2021
967 Clouds 18 1024 82 10000 8.23 90 22:22 27.03.2021
968 Clear 18 1019 48 10000 9.77 80 21:42 27.03.2021
969 Clouds 17 1023 82 10000 8.23 90 21:21 27.03.2021
970 Clouds 18 1022 82 10000 9.26 90 20:58 27.03.2021
971 Clouds 18 1022 82 10000 9.26 90 20:37 27.03.2021
972 Clouds 18 1022 82 10000 7.2 90 19:56 27.03.2021
973 Clouds 18 1022 82 10000 7.2 90 19:37 27.03.2021
974 Clear 19 1018 39 10000 10.29 80 19:18 27.03.2021
975 Clear 19 1017 30 10000 11.32 80 18:41 27.03.2021
976 Clear 20 1017 26 10000 12.35 80 18:20 27.03.2021
977 Clouds 21 1021 63 10000 7.72 90 17:36 27.03.2021
978 Clear 21 1017 31 10000 11.83 70 17:18 27.03.2021
979 Clouds 21 1021 68 10000 6.17 80 16:43 27.03.2021
980 Clouds 21 1021 72 10000 6.17 80 16:23 27.03.2021
981 Clear 21 1017 29 10000 9.26 60 15:45 27.03.2021
982 Clouds 21 1022 77 10000 6.69 80 14:59 27.03.2021
983 Clouds 21 1022 77 10000 6.69 80 14:38 27.03.2021
984 Clouds 20 1022 77 10000 6.69 80 13:39 27.03.2021
985 Clear 21 1019 33 10000 10.29 80 13:19 27.03.2021
986 Clear 21 1019 35 10000 9.26 80 12:41 27.03.2021
987 Clouds 20 1023 82 10000 4.63 80 11:49 27.03.2021
988 Clouds 19 1022 77 10000 3.09 80 11:31 27.03.2021
989 Clear 18 1019 59 10000 5.66 60 10:49 27.03.2021
990 Clouds 17 1022 72 10000 3.09 50 10:30 27.03.2021
991 Clear 17 1019 72 10000 5.66 40 09:44 27.03.2021
992 Clear 17 1019 67 10000 5.66 50 09:18 27.03.2021
993 Clear 14 1021 82 10000 0.51 90 08:38 27.03.2021
994 Clear 13 1018 87 10000 2.57 80 07:49 27.03.2021
995 Clear 13 1020 88 10000 1.03 40 06:59 27.03.2021
996 Clear 13 1020 88 10000 1.03 40 06:59 27.03.2021
997 Clear 13 1020 88 10000 1.03 40 06:39 27.03.2021
998 Clear 13 1019 71 10000 2.06 120 04:41 27.03.2021
999 Clear 14 1020 76 10000 1.54 90 02:19 27.03.2021
1000 Clouds 15 1021 77 10000 2.57 260 00:32 27.03.2021
1001 Clouds 16 1022 77 10000 2.57 260 23:59 26.03.2021
1002 Clouds 15 1022 77 10000 2.57 260 23:24 26.03.2021
1003 Clouds 16 1022 82 10000 2.06 280 22:39 26.03.2021
1004 Clear 16 1021 59 10000 2.57 10 21:42 26.03.2021
1005 Clear 17 1021 77 10000 1.03 260 21:22 26.03.2021
1006 Clear 17 1020 59 10000 2.06 340 20:54 26.03.2021
1007 Clear 18 1021 68 10000 1.03 240 20:31 26.03.2021
1008 Clear 19 1021 59 10000 1.03 40 19:51 26.03.2021
1009 Clear 19 1021 59 10000 1.03 40 19:32 26.03.2021
1010 Clear 21 1020 49 10000 2.06 330 18:49 26.03.2021
1011 Clear 22 1021 40 10000 1.03 80 18:30 26.03.2021
1012 Clear 22 1020 40 10000 4.63 40 17:50 26.03.2021
1013 Clear 22 1021 42 10000 1.03 260 17:23 26.03.2021
1014 Clear 21 1021 49 10000 1.54 280 16:34 26.03.2021
1015 Clear 21 1021 59 10000 4.63 100 15:59 26.03.2021
1016 Clear 21 1022 59 10000 4.63 100 15:28 26.03.2021
1017 Clear 20 1022 52 10000 3.09 90 14:43 26.03.2021
1018 Clouds 19 1021 64 8000 2.06 250 13:46 26.03.2021
1019 Clear 18 1023 72 10000 3.09 90 13:22 26.03.2021
1020 Clear 18 1023 72 10000 2.57 90 12:35 26.03.2021
1021 Clear 17 1023 72 10000 2.57 90 11:47 26.03.2021
1022 Clear 17 1023 67 10000 1.03 90 11:27 26.03.2021
1023 Clouds 16 1022 77 6000 0.51 0 10:42 26.03.2021
1024 Clouds 15 1022 72 6000 0.51 0 10:19 26.03.2021
1025 Clouds 14 1022 77 5000 1.03 0 09:41 26.03.2021
1026 Clouds 12 1021 66 6000 2.06 80 08:48 26.03.2021
1027 Clear 11 1022 76 10000 1.03 250 08:26 26.03.2021
1028 Clear 10 1021 82 10000 1.03 250 07:43 26.03.2021
1029 Mist 10 1021 93 4000 3.09 80 07:21 26.03.2021
1030 Mist 10 1021 7 4000 2.57 80 06:55 26.03.2021
1031 Clouds 11 1022 82 10000 2.06 260 05:32 26.03.2021
1032 Clouds 10 1022 82 10000 3.09 250 03:28 26.03.2021
1033 Clear 12 1023 87 10000 1.54 60 00:50 26.03.2021
1034 Clear 13 1023 87 10000 0.51 0 23:51 25.03.2021
1035 Clouds 13 1023 63 10000 3.6 250 23:33 25.03.2021
1036 Clouds 15 1023 25 10000 2.57 230 22:40 25.03.2021
1037 Clear 14 1023 82 10000 1.54 20 22:18 25.03.2021
1038 Clear 15 1023 82 10000 1.03 0 21:45 25.03.2021
1039 Clouds 16 1022 16 10000 6.17 200 21:24 25.03.2021
1040 Clouds 16 1022 25 10000 6.17 200 20:38 25.03.2021
1041 Clear 16 1022 82 10000 1.03 0 20:18 25.03.2021
1042 Clouds 18 1022 26 10000 6.17 200 19:40 25.03.2021
1043 Clouds 18 1022 26 10000 5.14 200 19:21 25.03.2021
1044 Clear 18 1022 67 10000 3.09 270 18:43 25.03.2021
1045 Clouds 19 1022 30 10000 5.66 190 18:25 25.03.2021
1046 Clouds 19 1022 37 10000 6.17 190 17:38 25.03.2021
1047 Clouds 19 1022 40 10000 6.17 200 16:59 25.03.2021
1048 Clouds 19 1022 40 10000 6.17 200 16:36 25.03.2021
1049 Clear 19 1022 42 10000 6.69 200 15:52 25.03.2021
1050 Clear 19 1023 48 10000 1.54 200 15:27 25.03.2021
1051 Clear 19 1023 48 10000 1.03 200 14:59 25.03.2021
1052 Clear 19 1023 32 10000 4.63 200 14:40 25.03.2021
1053 Clear 19 1024 32 10000 3.09 200 13:38 25.03.2021
1054 Clear 19 1024 67 10000 3.09 280 13:19 25.03.2021
1055 Clouds 18 1024 42 10000 1.03 90 12:37 25.03.2021
1056 Clear 18 1024 72 10000 2.57 260 12:18 25.03.2021
1057 Clear 17 1025 77 10000 2.57 250 11:44 25.03.2021
1058 Clear 16 1025 63 10000 3.09 230 11:26 25.03.2021
1059 Clouds 15 1025 82 10000 1.03 0 10:49 25.03.2021
1060 Clear 15 1025 72 10000 2.06 260 10:22 25.03.2021
1061 Clear 14 1025 72 10000 2.57 260 09:53 25.03.2021
1062 Clear 13 1025 72 10000 2.57 260 09:35 25.03.2021
1063 Clear 13 1025 72 10000 2.57 260 09:35 25.03.2021
1064 Clear 11 1024 82 10000 3.09 240 08:37 25.03.2021
1065 Mist 10 1024 93 4000 3.09 80 07:51 25.03.2021
1066 Clouds 10 1023 82 10000 3.09 240 06:57 25.03.2021
1067 Clouds 10 1023 82 10000 3.09 240 06:24 25.03.2021
1068 Mist 10 1024 93 4000 2.57 90 05:46 25.03.2021
1069 Clear 11 1024 67 10000 4.12 270 02:28 25.03.2021
1070 Clear 12 1025 77 10000 4.63 270 00:21 25.03.2021
1071 Clear 12 1025 93 10000 1.54 60 23:48 24.03.2021
1072 Clear 12 1025 67 10000 4.63 250 23:23 24.03.2021
1073 Clear 13 1025 59 10000 5.14 240 22:41 24.03.2021
1074 Clear 13 1026 87 10000 1.54 60 22:19 24.03.2021
1075 Clear 14 1025 82 10000 1.03 60 21:41 24.03.2021
1076 Clear 15 1025 76 10000 0.51 0 21:20 24.03.2021
1077 Clear 16 1025 82 10000 1.03 290 20:41 24.03.2021
1078 Clear 17 1025 82 10000 1.54 280 20:19 24.03.2021
1079 Clear 18 1024 42 10000 5.66 210 19:34 24.03.2021
1080 Clear 18 1024 42 10000 5.66 210 19:34 24.03.2021
1081 Clear 19 1023 32 10000 5.66 200 18:57 24.03.2021
1082 Clear 19 1023 32 10000 5.66 200 18:39 24.03.2021
1083 Clear 19 1024 67 10000 3.6 280 18:19 24.03.2021
1084 Clear 20 1023 35 10000 5.14 200 17:34 24.03.2021
1085 Clear 19 1023 35 10000 5.14 200 16:59 24.03.2021
1086 Clear 19 1024 67 10000 4.12 290 16:41 24.03.2021
1087 Clear 20 1024 59 10000 4.63 280 16:20 24.03.2021
1088 Clear 19 1024 63 10000 4.12 290 15:41 24.03.2021
1089 Clear 20 1024 43 10000 5.14 190 15:21 24.03.2021
1090 Clear 19 1025 49 10000 5.14 190 14:41 24.03.2021
1091 Clear 19 1025 49 10000 5.14 190 14:21 24.03.2021
1092 Clear 19 1026 68 10000 3.6 260 13:44 24.03.2021
1093 Clouds 19 1025 59 10000 5.14 190 13:24 24.03.2021
1094 Clouds 19 1025 42 10000 3.09 230 12:40 24.03.2021
1095 Clear 19 1026 68 10000 2.57 240 12:20 24.03.2021
1096 Clouds 17 1026 72 10000 3.09 260 11:41 24.03.2021
1097 Clouds 17 1026 77 6000 1.54 0 10:49 24.03.2021
1098 Clear 16 1025 55 10000 3.09 240 10:31 24.03.2021
1099 Clear 15 1025 51 10000 3.6 240 09:58 24.03.2021
1100 Clear 14 1024 55 10000 3.09 250 09:33 24.03.2021
1101 Clear 12 1024 76 10000 3.6 240 08:58 24.03.2021
1102 Clear 11 1024 76 10000 3.6 240 08:39 24.03.2021
1103 Mist 10 1024 93 3000 3.09 90 07:50 24.03.2021
1104 Mist 11 1024 93 3000 2.57 80 07:19 24.03.2021
1105 Mist 10 1024 93 3500 2.57 80 06:45 24.03.2021
1106 Clear 12 1023 67 10000 4.12 250 02:29 24.03.2021
1107 Clear 13 1024 67 10000 4.12 240 00:42 24.03.2021
1108 Clear 13 1024 87 8000 2.06 80 23:52 23.03.2021
1109 Clear 14 1024 87 10000 1.03 0 23:19 23.03.2021
1110 Clear 14 1024 87 10000 0.51 0 22:50 23.03.2021
1111 Clear 14 1023 63 10000 5.66 270 22:24 23.03.2021
1112 Clear 15 1023 63 10000 4.63 250 21:45 23.03.2021
1113 Clear 14 1023 82 10000 0.51 0 21:26 23.03.2021
1114 Clear 16 1023 72 10000 0.51 10 20:45 23.03.2021
1115 Clear 17 1022 63 10000 5.14 280 20:25 23.03.2021
1116 Clear 17 1023 67 10000 2.06 310 19:47 23.03.2021
1117 Clouds 18 1022 52 10000 3.09 230 19:26 23.03.2021
1118 Clear 18 1023 59 10000 4.12 300 18:44 23.03.2021
1119 Clouds 19 1021 52 10000 3.6 220 18:22 23.03.2021
1120 Clear 18 1022 63 10000 4.63 300 17:46 23.03.2021
1121 Clouds 19 1021 49 10000 5.14 190 17:21 23.03.2021
1122 Clear 19 1022 63 10000 4.12 290 16:42 23.03.2021
1123 Clear 20 1022 63 10000 4.12 290 16:19 23.03.2021
1124 Clouds 19 1022 45 10000 6.17 180 15:40 23.03.2021
1125 Clouds 19 1022 52 10000 6.69 190 14:55 23.03.2021
1126 Clear 19 1023 55 10000 4.12 280 14:21 23.03.2021
1127 Clouds 19 1023 59 10000 4.63 200 13:55 23.03.2021
1128 Clouds 19 1023 59 10000 4.63 200 13:37 23.03.2021
1129 Clear 19 1023 48 10000 3.6 280 13:18 23.03.2021
1130 Clear 18 1023 45 10000 3.09 280 12:41 23.03.2021
1131 Clear 18 1024 52 10000 3.09 280 12:20 23.03.2021
1132 Clear 17 1024 45 10000 3.6 210 11:44 23.03.2021
1133 Clear 16 1023 67 10000 1.03 0 10:44 23.03.2021
1134 Clouds 15 1023 58 10000 1.54 260 10:25 23.03.2021
1135 Clouds 13 1023 58 10000 2.06 250 09:58 23.03.2021
1136 Clouds 12 1023 58 10000 2.06 250 09:38 23.03.2021
1137 Clear 12 1023 82 10000 2.06 90 09:19 23.03.2021
1138 Clouds 10 1022 76 10000 2.06 270 08:39 23.03.2021
1139 Clouds 10 1022 76 10000 2.06 270 08:21 23.03.2021
1140 Clear 9 1021 71 10000 3.09 250 07:28 23.03.2021
1141 Clear 10 1021 66 10000 3.09 240 06:59 23.03.2021
1142 Clear 10 1021 66 10000 3.09 240 06:24 23.03.2021
1143 Clear 12 1021 54 10000 3.09 270 03:21 23.03.2021
1144 Clear 12 1021 93 10000 1.54 100 02:18 23.03.2021
1145 Clear 13 1021 93 10000 1.54 50 23:43 22.03.2021
1146 Clear 13 1021 87 10000 2.06 80 22:54 22.03.2021
1147 Clear 14 1020 48 10000 5.66 230 22:36 22.03.2021
1148 Clear 13 1021 82 10000 2.06 70 22:18 22.03.2021
1149 Clear 15 1019 55 10000 5.66 260 21:40 22.03.2021
1150 Clear 15 1019 55 10000 5.66 260 21:21 22.03.2021
1151 Clear 15 1020 76 10000 0.51 0 20:41 22.03.2021
1152 Clear 16 1019 55 10000 6.17 260 20:21 22.03.2021
1153 Clear 16 1018 48 10000 5.14 240 19:52 22.03.2021
1154 Clear 17 1018 55 10000 4.63 220 19:30 22.03.2021
1155 Clear 17 1018 55 10000 6.17 220 18:46 22.03.2021
1156 Clear 18 1017 52 10000 5.14 210 18:27 22.03.2021
1157 Clear 18 1017 52 10000 5.14 210 17:57 22.03.2021
1158 Clear 18 1017 52 10000 5.14 210 17:37 22.03.2021
1159 Clear 18 1018 55 10000 5.14 260 17:18 22.03.2021
1160 Clear 19 1017 40 10000 5.14 240 16:43 22.03.2021
1161 Clouds 19 1017 40 10000 5.14 250 15:59 22.03.2021
1162 Clouds 19 1017 40 10000 5.14 250 15:37 22.03.2021
1163 Clear 19 1019 67 10000 5.14 240 15:18 22.03.2021
1164 Clouds 18 1017 40 10000 4.12 240 14:49 22.03.2021
1165 Clouds 18 1018 49 10000 4.12 200 14:29 22.03.2021
1166 Clouds 18 1018 45 10000 3.6 200 13:39 22.03.2021
1167 Clear 18 1019 63 10000 3.6 240 13:19 22.03.2021
1168 Clear 18 1018 34 10000 4.12 220 12:45 22.03.2021
1169 Clear 18 1018 34 10000 4.12 220 12:22 22.03.2021
1170 Clear 17 1019 39 10000 2.57 240 11:46 22.03.2021
1171 Clear 17 1019 39 10000 2.57 240 11:22 22.03.2021
1172 Clear 16 1019 59 10000 2.06 180 10:44 22.03.2021
1173 Clear 16 1018 47 10000 3.09 260 10:24 22.03.2021
1174 Clear 12 1018 58 10000 3.09 260 09:40 22.03.2021
1175 Clear 12 1018 66 10000 2.57 260 09:21 22.03.2021
1176 Clear 10 1018 71 10000 4.12 240 08:43 22.03.2021
1177 Clear 10 1018 71 10000 4.12 240 08:24 22.03.2021
1178 Clear 9 1018 81 10000 3.09 80 07:44 22.03.2021
1179 Clear 9 1018 87 10000 3.09 80 06:52 22.03.2021
1180 Clear 9 1018 81 10000 2.57 80 06:27 22.03.2021
1181 Clear 10 1020 58 10000 3.6 260 02:32 22.03.2021
1182 Clear 11 1020 54 10000 4.12 280 00:29 22.03.2021
1183 Clear 12 1020 76 10000 2.06 100 23:53 21.03.2021
1184 Clear 12 1020 76 10000 2.06 100 23:53 21.03.2021
1185 Clear 12 1020 71 10000 1.54 80 23:19 21.03.2021
1186 Clear 12 1020 71 10000 1.54 70 22:55 21.03.2021
1187 Clear 13 1020 55 10000 4.12 280 21:58 21.03.2021
1188 Clear 14 1020 55 10000 4.12 280 21:39 21.03.2021
1189 Clear 14 1020 55 10000 4.12 280 21:21 21.03.2021
1190 Clear 13 1020 71 10000 2.57 330 20:41 21.03.2021
1191 Clouds 14 1020 55 10000 2.57 180 20:23 21.03.2021
1192 Clouds 14 1019 51 10000 4.12 190 19:52 21.03.2021
1193 Clouds 15 1019 51 10000 4.12 190 19:21 21.03.2021
1194 Clouds 16 1019 58 10000 4.63 320 18:46 21.03.2021
1195 Clouds 16 1019 51 10000 4.12 200 18:27 21.03.2021
1196 Clouds 16 1019 48 10000 5.14 320 17:45 21.03.2021
1197 Clouds 17 1019 44 10000 5.14 310 17:20 21.03.2021
1198 Clouds 17 1019 51 10000 3.6 180 16:54 21.03.2021
1199 Clouds 17 1019 51 10000 3.6 170 16:30 21.03.2021
1200 Clouds 17 1019 51 10000 4.12 10 15:55 21.03.2021
1201 Clouds 17 1020 45 10000 3.09 190 15:36 21.03.2021
1202 Clouds 17 1019 48 10000 3.6 360 15:18 21.03.2021
1203 Clouds 17 1019 51 10000 3.09 20 14:41 21.03.2021
1204 Clouds 17 1021 44 10000 2.57 150 14:23 21.03.2021
1205 Clouds 16 1021 55 10000 3.6 120 13:52 21.03.2021
1206 Clouds 16 1021 59 10000 5.14 30 12:46 21.03.2021
1207 Clouds 16 1022 55 10000 3.09 110 12:27 21.03.2021
1208 Clouds 16 1022 55 10000 3.09 110 12:27 21.03.2021
1209 Clouds 15 1022 62 10000 2.06 80 11:53 21.03.2021
1210 Clouds 15 1022 62 10000 1.54 90 11:28 21.03.2021
1211 Clear 13 1021 55 10000 4.12 60 10:55 21.03.2021
1212 Clouds 12 1022 62 10000 2.06 260 10:35 21.03.2021
1213 Clouds 12 1021 66 10000 3.09 240 09:58 21.03.2021
1214 Clouds 11 1021 66 10000 3.09 240 09:38 21.03.2021
1215 Clear 11 1020 76 10000 2.06 50 09:19 21.03.2021
1216 Clouds 10 1021 71 10000 2.06 230 08:39 21.03.2021
1217 Clear 10 1020 76 10000 1.54 80 08:20 21.03.2021
1218 Clouds 8 1020 81 10000 2.57 240 07:37 21.03.2021
1219 Clear 8 1019 87 10000 1.03 0 06:50 21.03.2021
1220 Clear 9 1019 81 10000 2.57 240 04:59 21.03.2021
1221 Clear 10 1018 81 10000 2.06 70 01:54 21.03.2021
1222 Clouds 10 1018 76 10000 2.06 280 00:40 21.03.2021
1223 Clouds 10 1018 76 10000 2.06 280 00:21 21.03.2021
1224 Clear 10 1017 81 10000 4.12 40 23:47 20.03.2021
1225 Clear 11 1017 81 10000 2.57 50 23:20 20.03.2021
1226 Clear 12 1017 76 10000 2.57 80 22:54 20.03.2021
1227 Clouds 12 1017 67 10000 1.03 160 22:21 20.03.2021
1228 Clouds 12 1016 71 10000 3.6 60 21:45 20.03.2021
1229 Clouds 13 1016 62 10000 6.17 90 21:24 20.03.2021
1230 Clouds 13 1015 66 10000 5.14 60 20:45 20.03.2021
1231 Clouds 13 1016 54 10000 5.66 110 20:22 20.03.2021
1232 Clouds 13 1015 71 10000 4.63 90 19:48 20.03.2021
1233 Clouds 14 1015 55 10000 7.72 110 19:26 20.03.2021
1234 Clouds 14 1014 62 10000 7.72 70 18:49 20.03.2021
1235 Clouds 14 1015 55 10000 8.23 100 18:26 20.03.2021
1236 Clouds 14 1013 62 10000 9.26 60 17:54 20.03.2021
1237 Clouds 14 1014 58 10000 7.2 100 17:32 20.03.2021
1238 Clouds 14 1012 62 10000 8.75 50 16:46 20.03.2021
1239 Clouds 13 1014 62 10000 5.14 80 16:21 20.03.2021
1240 Clouds 13 1014 71 10000 5.66 80 15:59 20.03.2021
1241 Clouds 12 1014 71 10000 5.66 80 15:39 20.03.2021
1242 Clouds 11 1012 66 10000 10.29 60 14:46 20.03.2021
1243 Clouds 12 1014 66 10000 5.14 80 14:28 20.03.2021
1244 Clouds 12 1014 66 10000 6.69 100 13:40 20.03.2021
1245 Rain 12 1011 62 10000 10.8 60 12:52 20.03.2021
1246 Rain 12 1013 71 4700 15.43 80 12:26 20.03.2021
1247 Clouds 12 1011 71 10000 5.14 30 11:47 20.03.2021
1248 Clouds 13 1012 71 10000 13.38 70 11:29 20.03.2021
1249 Rain 13 1012 71 10000 11.32 80 10:55 20.03.2021
1250 Clouds 14 1011 54 10000 4.12 50 10:32 20.03.2021
1251 Clouds 13 1011 67 10000 1.54 280 09:58 20.03.2021
1252 Clouds 12 1010 58 10000 1.03 40 09:27 20.03.2021
1253 Rain 12 1010 62 10000 1.54 200 08:57 20.03.2021
1254 Rain 12 1010 62 10000 1.54 200 08:30 20.03.2021
1255 Rain 12 1009 82 6000 2.06 60 07:53 20.03.2021
1256 Clouds 12 1009 62 10000 2.06 240 07:32 20.03.2021
1257 Clouds 13 1009 67 10000 2.57 20 06:52 20.03.2021
1258 Rain 13 1009 67 10000 2.57 350 06:19 20.03.2021
1259 Clouds 13 1010 38 10000 3.09 340 03:59 20.03.2021
1260 Clear 13 1009 87 10000 2.06 100 03:41 20.03.2021
1261 Clear 14 1011 76 10000 3.09 330 00:18 20.03.2021
1262 Clouds 14 1011 47 10000 1.54 280 23:31 19.03.2021
1263 Clear 15 1011 51 10000 3.6 340 22:49 19.03.2021
1264 Clear 15 1011 72 10000 1.54 340 22:28 19.03.2021
1265 Clear 15 1011 44 10000 5.66 340 21:56 19.03.2021
1266 Clear 15 1011 55 10000 3.09 10 21:22 19.03.2021
1267 Clear 16 1011 58 10000 6.17 310 20:59 19.03.2021
1268 Clear 16 1010 48 10000 2.57 350 20:39 19.03.2021
1269 Clear 16 1010 48 10000 2.57 350 20:21 19.03.2021
1270 Clouds 16 1010 47 10000 3.6 340 19:45 19.03.2021
1271 Clouds 17 1010 41 10000 4.63 330 19:20 19.03.2021
1272 Clouds 17 1010 41 10000 4.63 330 19:20 19.03.2021
1273 Clouds 17 1009 59 10000 3.6 200 18:40 19.03.2021
1274 Clouds 17 1010 39 10000 7.2 340 18:19 19.03.2021
1275 Clouds 18 1010 63 10000 5.14 190 17:52 19.03.2021
1276 Clouds 17 1010 55 10000 5.14 190 17:28 19.03.2021
1277 Clouds 17 1010 55 10000 4.12 190 16:52 19.03.2021
1278 Clouds 17 1011 67 10000 5.14 200 16:27 19.03.2021
1279 Clouds 17 1011 63 10000 6.69 320 15:47 19.03.2021
1280 Clouds 17 1011 59 10000 4.63 130 15:22 19.03.2021
1281 Clouds 18 1011 59 10000 6.17 330 14:46 19.03.2021
1282 Clouds 18 1012 59 10000 4.12 120 14:26 19.03.2021
1283 Clouds 17 1013 63 10000 3.6 110 13:40 19.03.2021
1284 Clouds 17 1013 63 10000 3.6 100 12:51 19.03.2021
1285 Clouds 16 1013 63 10000 3.6 100 12:33 19.03.2021
1286 Clouds 17 1013 67 10000 5.66 30 11:42 19.03.2021
1287 Clouds 17 1014 67 10000 4.63 90 10:54 19.03.2021
1288 Clouds 16 1014 67 10000 4.12 90 10:30 19.03.2021
1289 Clouds 15 1013 72 10000 5.14 70 09:49 19.03.2021
1290 Clouds 15 1014 72 10000 4.12 80 09:30 19.03.2021
1291 Clouds 14 1013 72 10000 6.17 90 08:55 19.03.2021
1292 Clouds 14 1013 72 10000 6.17 90 08:37 19.03.2021
1293 Clouds 14 1013 72 10000 8.75 90 07:58 19.03.2021
1294 Clouds 14 1013 72 10000 8.75 90 07:36 19.03.2021
1295 Clear 14 1011 82 10000 5.14 60 06:51 19.03.2021
1296 Clear 14 1011 77 10000 5.14 60 02:45 19.03.2021
1297 Clouds 15 1013 72 10000 8.23 110 00:58 19.03.2021
1298 Clouds 16 1014 72 10000 8.75 90 23:30 18.03.2021
1299 Clouds 16 1014 72 10000 8.75 90 23:30 18.03.2021
1300 Clouds 16 1014 72 10000 9.26 80 22:58 18.03.2021
1301 Clouds 16 1014 72 10000 9.26 80 22:39 18.03.2021
1302 Clear 16 1012 77 10000 6.17 60 22:19 18.03.2021
1303 Clouds 16 1013 77 10000 7.72 80 21:39 18.03.2021
1304 Clear 16 1011 72 10000 7.2 60 20:47 18.03.2021
1305 Clouds 16 1013 77 10000 5.14 80 20:27 18.03.2021
1306 Clear 16 1011 67 10000 7.2 50 19:45 18.03.2021
1307 Clouds 17 1013 77 10000 5.66 90 19:27 18.03.2021
1308 Clouds 17 1013 72 10000 5.66 90 18:57 18.03.2021
1309 Clouds 17 1013 72 10000 5.66 90 18:33 18.03.2021
1310 Clouds 18 1013 72 10000 5.66 80 17:50 18.03.2021
1311 Clouds 18 1013 72 10000 6.17 90 17:25 18.03.2021
1312 Clear 19 1010 56 10000 6.69 60 16:48 18.03.2021
1313 Clouds 19 1013 68 10000 7.2 90 16:29 18.03.2021
1314 Clear 19 1010 56 10000 7.2 80 15:47 18.03.2021
1315 Clouds 19 1014 68 10000 7.2 90 15:26 18.03.2021
1316 Clouds 19 1014 68 10000 7.2 90 14:55 18.03.2021
1317 Clouds 19 1014 63 10000 7.2 90 14:32 18.03.2021
1318 Clouds 19 1015 63 10000 7.2 90 13:53 18.03.2021
1319 Clouds 19 1015 63 10000 6.17 90 13:26 18.03.2021
1320 Clouds 19 1014 59 10000 6.17 100 12:44 18.03.2021
1321 Clouds 19 1014 59 10000 6.17 100 12:44 18.03.2021
1322 Clouds 19 1015 63 10000 6.17 100 12:26 18.03.2021
1323 Clouds 18 1015 67 10000 6.17 100 11:53 18.03.2021
1324 Clouds 18 1015 67 10000 6.17 100 11:32 18.03.2021
1325 Clear 18 1011 55 10000 8.75 70 10:46 18.03.2021
1326 Clear 17 1012 59 10000 8.75 70 10:27 18.03.2021
1327 Clouds 16 1014 72 10000 4.63 120 09:54 18.03.2021
1328 Clouds 16 1014 67 10000 6.17 130 09:29 18.03.2021
1329 Clear 16 1011 58 10000 6.69 70 08:50 18.03.2021
1330 Clouds 16 1014 72 10000 7.2 110 08:31 18.03.2021
1331 Clear 15 1011 63 10000 8.23 70 07:53 18.03.2021
1332 Clouds 15 1014 72 10000 5.66 110 07:25 18.03.2021
1333 Clouds 15 1015 72 10000 6.17 90 06:30 18.03.2021
1334 Clear 15 1012 62 10000 9.77 70 05:55 18.03.2021
1335 Clouds 15 1017 72 10000 7.72 70 02:35 18.03.2021
1336 Clouds 15 1017 72 10000 7.72 70 02:35 18.03.2021
1337 Clear 16 1018 77 10000 8.23 80 23:59 17.03.2021
1338 Clear 16 1014 63 10000 9.77 60 22:56 17.03.2021
1339 Clear 16 1018 77 10000 9.26 80 22:36 17.03.2021
1340 Clear 16 1018 77 10000 9.26 80 22:36 17.03.2021
1341 Clear 16 1014 63 10000 10.29 70 22:18 17.03.2021
1342 Clouds 16 1018 77 10000 10.29 80 21:42 17.03.2021
1343 Clouds 16 1018 77 10000 10.29 80 21:23 17.03.2021
1344 Clear 15 1014 72 10000 9.77 80 20:45 17.03.2021
1345 Clouds 16 1018 77 10000 8.23 90 20:25 17.03.2021
1346 Clouds 16 1018 72 10000 8.23 90 19:46 17.03.2021
1347 Clouds 16 1018 72 10000 8.75 90 19:25 17.03.2021
1348 Clouds 17 1018 67 10000 9.26 80 18:57 17.03.2021
1349 Clouds 17 1018 67 10000 9.26 80 18:38 17.03.2021
1350 Clouds 18 1018 63 10000 9.77 90 17:56 17.03.2021
1351 Clouds 18 1018 63 10000 10.29 90 17:27 17.03.2021
1352 Clouds 18 1018 63 10000 10.29 90 16:54 17.03.2021
1353 Clouds 18 1018 63 10000 10.29 90 16:36 17.03.2021
1354 Clouds 18 1014 63 10000 13.38 80 16:18 17.03.2021
1355 Clouds 18 1019 63 10000 10.8 100 15:37 17.03.2021
1356 Clouds 18 1015 63 10000 13.89 70 14:45 17.03.2021
1357 Clouds 19 1020 63 10000 11.32 90 14:27 17.03.2021
1358 Clouds 19 1020 63 10000 11.32 90 13:56 17.03.2021
1359 Clouds 18 1020 63 10000 11.32 90 13:32 17.03.2021
1360 Clouds 18 1020 68 10000 11.32 90 12:58 17.03.2021
1361 Clouds 18 1020 68 10000 11.32 90 12:34 17.03.2021
1362 Clouds 18 1021 67 10000 11.32 90 11:53 17.03.2021
1363 Clouds 18 1021 67 10000 11.32 90 11:24 17.03.2021
1364 Clouds 17 1021 67 10000 11.32 90 10:57 17.03.2021
1365 Clouds 17 1021 67 10000 11.32 90 10:34 17.03.2021
1366 Clouds 16 1016 67 10000 12.35 80 09:50 17.03.2021
1367 Clouds 16 1020 72 10000 11.32 90 09:32 17.03.2021
1368 Clouds 15 1020 77 10000 11.32 90 09:00 17.03.2021
1369 Clouds 15 1020 77 10000 11.32 90 08:39 17.03.2021
1370 Clouds 15 1020 77 10000 11.32 90 07:55 17.03.2021
1371 Clouds 15 1020 77 10000 11.32 90 07:35 17.03.2021
1372 Clear 15 1015 67 10000 12.86 80 06:47 17.03.2021
1373 Clouds 16 1021 72 10000 14.92 90 04:27 17.03.2021
1374 Clouds 16 1021 72 10000 13.38 90 03:25 17.03.2021
1375 Clear 15 1018 67 10000 10.8 80 00:41 17.03.2021
1376 Clouds 16 1023 72 10000 13.89 90 23:40 16.03.2021
1377 Clear 16 1018 63 10000 9.77 90 23:18 16.03.2021
1378 Clear 15 1018 63 10000 10.8 80 22:43 16.03.2021
1379 Clouds 16 1022 77 10000 13.38 90 22:24 16.03.2021
1380 Clouds 16 1022 77 10000 12.35 90 21:40 16.03.2021
1381 Clouds 16 1022 77 10000 12.35 90 21:21 16.03.2021
1382 Clouds 16 1021 77 10000 12.86 100 20:46 16.03.2021
1383 Clear 16 1017 63 10000 11.83 80 20:19 16.03.2021
1384 Clear 17 1017 59 10000 13.38 80 19:43 16.03.2021
1385 Clouds 17 1021 72 10000 10.29 90 19:24 16.03.2021
1386 Clear 18 1017 52 10000 12.86 70 18:50 16.03.2021
1387 Clouds 18 1021 72 10000 9.26 90 18:29 16.03.2021
1388 Clouds 18 1021 72 10000 10.29 90 17:51 16.03.2021
1389 Clouds 18 1021 72 10000 10.29 90 17:33 16.03.2021
1390 Clouds 19 1021 72 10000 10.29 90 16:54 16.03.2021
1391 Clouds 19 1021 72 10000 10.29 90 16:54 16.03.2021
1392 Clouds 18 1021 72 10000 12.35 90 16:31 16.03.2021
1393 Clouds 19 1021 68 10000 9.77 90 15:57 16.03.2021
1394 Clouds 19 1021 68 10000 9.77 90 15:36 16.03.2021
1395 Clouds 19 1021 68 10000 9.77 90 15:36 16.03.2021
1396 Clear 19 1017 49 10000 12.86 70 15:18 16.03.2021
1397 Clear 19 1017 45 10000 13.89 70 14:41 16.03.2021
1398 Clouds 19 1022 72 10000 11.83 80 14:22 16.03.2021
1399 Clouds 19 1022 68 10000 9.26 80 13:57 16.03.2021
1400 Clouds 18 1022 72 10000 9.26 80 13:29 16.03.2021
1401 Clouds 18 1022 72 10000 9.26 80 12:55 16.03.2021
1402 Clouds 18 1022 72 10000 9.26 80 12:36 16.03.2021
1403 Clouds 18 1022 72 10000 9.26 80 11:56 16.03.2021
1404 Clouds 18 1022 72 10000 8.23 80 11:32 16.03.2021
1405 Clear 17 1019 52 10000 10.29 60 10:46 16.03.2021
1406 Clouds 16 1022 77 10000 7.72 80 10:20 16.03.2021
1407 Clouds 16 1021 77 10000 7.72 80 09:40 16.03.2021
1408 Clear 16 1018 59 10000 9.26 50 09:20 16.03.2021
1409 Clear 16 1018 63 10000 7.72 50 08:52 16.03.2021
1410 Clouds 15 1021 88 10000 7.2 80 08:33 16.03.2021
1411 Clear 15 1018 72 10000 8.75 60 07:50 16.03.2021
1412 Clouds 15 1021 88 10000 7.2 80 07:24 16.03.2021
1413 Clouds 15 1021 82 10000 8.23 80 06:37 16.03.2021
1414 Clouds 15 1021 88 10000 7.72 80 05:36 16.03.2021
1415 Clear 16 1018 63 10000 8.75 70 02:46 16.03.2021
1416 Clouds 16 1021 88 10000 6.17 70 02:25 16.03.2021
1417 Clouds 16 1022 82 10000 7.2 80 00:25 16.03.2021
1418 Clouds 16 1022 82 10000 7.72 80 23:37 15.03.2021
1419 Clear 16 1019 63 10000 7.72 70 23:18 15.03.2021
1420 Clear 16 1019 59 10000 7.2 70 22:42 15.03.2021
1421 Clouds 16 1022 82 10000 7.2 90 22:23 15.03.2021
1422 Clear 16 1018 59 10000 7.2 70 21:47 15.03.2021
1423 Clouds 16 1022 82 10000 7.72 90 21:27 15.03.2021
1424 Clear 16 1018 63 10000 7.2 80 20:47 15.03.2021
1425 Clouds 17 1021 82 10000 6.17 100 20:28 15.03.2021
1426 Clouds 17 1021 82 10000 5.66 100 19:57 15.03.2021
1427 Clouds 17 1021 82 10000 6.17 110 19:39 15.03.2021
1428 Clouds 17 1021 82 10000 6.17 110 19:21 15.03.2021
1429 Clouds 18 1021 77 10000 6.17 110 18:41 15.03.2021
1430 Clouds 18 1021 72 10000 5.14 110 18:22 15.03.2021
1431 Clouds 18 1021 72 10000 6.17 100 17:49 15.03.2021
1432 Clouds 19 1021 72 10000 6.17 90 17:22 15.03.2021
1433 Clear 19 1018 56 10000 9.77 60 16:44 15.03.2021
1434 Clear 19 1018 52 10000 10.8 80 15:56 15.03.2021
1435 Clouds 19 1022 72 10000 6.69 90 15:29 15.03.2021
1436 Clouds 19 1022 68 10000 6.69 90 14:56 15.03.2021
1437 Clouds 19 1022 68 10000 6.69 90 14:38 15.03.2021
1438 Clear 19 1019 56 10000 9.77 70 14:19 15.03.2021
1439 Clouds 18 1022 72 10000 7.72 80 13:44 15.03.2021
1440 Clouds 19 1023 67 10000 7.2 80 13:23 15.03.2021
1441 Clear 18 1019 59 10000 11.32 80 12:45 15.03.2021
1442 Clear 18 1019 63 10000 10.8 80 12:18 15.03.2021
1443 Clear 18 1020 59 10000 10.29 80 11:45 15.03.2021
1444 Clouds 18 1023 67 10000 10.29 100 11:26 15.03.2021
1445 Clear 17 1020 67 10000 10.29 80 10:43 15.03.2021
1446 Clouds 17 1023 72 10000 8.75 100 10:24 15.03.2021
1447 Clear 17 1020 67 10000 8.23 80 09:44 15.03.2021
1448 Clear 16 1019 72 10000 8.23 80 09:22 15.03.2021
1449 Clear 16 1019 77 10000 5.66 80 08:45 15.03.2021
1450 Clouds 15 1022 72 10000 6.17 90 08:25 15.03.2021
1451 Clouds 15 1022 77 10000 5.14 90 07:42 15.03.2021
1452 Clouds 15 1022 82 10000 5.66 90 07:22 15.03.2021
1453 Clear 15 1019 72 10000 6.17 70 05:42 15.03.2021
1454 Clouds 16 1022 82 10000 6.17 80 03:21 15.03.2021
1455 Clear 15 1020 58 10000 4.12 60 00:42 15.03.2021
1456 Clouds 16 1023 88 10000 4.12 80 23:24 14.03.2021
1457 Clouds 16 1023 88 10000 4.63 80 22:57 14.03.2021
1458 Clouds 16 1023 88 10000 4.63 80 22:37 14.03.2021
1459 Clear 16 1021 58 10000 4.12 50 22:18 14.03.2021
1460 Clear 16 1021 58 10000 4.12 50 22:18 14.03.2021
1461 Clouds 16 1023 88 10000 4.63 90 21:38 14.03.2021
1462 Clear 16 1021 55 10000 4.12 60 21:18 14.03.2021
1463 Clouds 16 1022 88 10000 3.09 80 20:41 14.03.2021
1464 Clouds 16 1022 88 10000 3.09 80 20:23 14.03.2021
1465 Clear 17 1020 55 10000 5.14 50 19:42 14.03.2021
1466 Clear 17 1020 48 10000 4.63 50 19:19 14.03.2021
1467 Clouds 18 1022 82 10000 3.6 80 18:37 14.03.2021
1468 Clouds 18 1022 82 10000 2.57 90 17:56 14.03.2021
1469 Clouds 17 1022 82 10000 2.57 90 17:37 14.03.2021
1470 Clear 18 1021 55 10000 7.2 40 17:19 14.03.2021
1471 Clouds 18 1022 77 10000 3.6 90 16:40 14.03.2021
1472 Clear 19 1022 77 10000 3.09 100 16:21 14.03.2021
1473 Clouds 18 1023 72 10000 3.6 100 15:47 14.03.2021
1474 -273 0 0 0 0 0 14:56 14.03.2021
1475 Clear 18 1023 63 10000 3.6 100 14:31 14.03.2021
1476 Clear 17 1023 59 10000 4.63 90 13:55 14.03.2021
1477 Clear 17 1023 59 10000 4.63 90 13:36 14.03.2021
1478 Clear 17 1024 51 10000 2.57 90 12:58 14.03.2021
1479 Clear 17 1024 51 10000 2.57 90 12:40 14.03.2021
1480 Clear 18 1024 45 10000 2.06 110 12:22 14.03.2021
1481 Clear 17 1024 39 10000 1.54 250 11:38 14.03.2021
1482 Clear 16 1024 77 10000 2.57 280 11:19 14.03.2021
1483 Clear 15 1024 55 10000 2.06 250 10:38 14.03.2021
1484 Clear 15 1023 67 10000 1.03 0 10:19 14.03.2021
1485 Clear 13 1023 67 10000 2.57 240 09:56 14.03.2021
1486 Clear 12 1023 67 10000 2.57 240 09:37 14.03.2021
1487 Clear 12 1023 87 10000 1.54 80 09:19 14.03.2021
1488 Clear 10 1022 76 10000 2.57 250 08:36 14.03.2021
1489 Clear 10 1023 93 10000 2.06 70 07:52 14.03.2021
1490 Clear 11 1022 76 10000 2.57 240 07:22 14.03.2021
1491 Clear 11 1022 76 10000 3.6 260 05:33 14.03.2021
1492 Clear 13 1023 59 10000 4.63 250 00:59 14.03.2021
1493 Clear 13 1024 93 10000 2.06 70 00:20 14.03.2021
1494 Clear 13 1024 93 10000 2.06 70 00:20 14.03.2021
1495 Clear 13 1024 55 10000 5.14 250 23:57 13.03.2021
1496 Clear 14 1024 55 10000 5.14 250 23:37 13.03.2021
1497 Clear 14 1023 59 10000 4.63 250 22:58 13.03.2021
1498 Clear 14 1023 59 10000 4.63 250 22:40 13.03.2021
1499 Clear 13 1023 82 10000 1.54 40 21:50 13.03.2021
1500 Clear 14 1023 76 10000 0.51 0 21:27 13.03.2021
1501 Clear 14 1023 76 10000 1.03 0 20:55 13.03.2021
1502 Clouds 15 1022 72 10000 0.51 50 20:32 13.03.2021
1503 Clouds 16 1022 67 10000 1.03 60 19:56 13.03.2021
1504 Clouds 16 1022 67 10000 1.54 60 19:33 13.03.2021
1505 Clouds 17 1022 67 10000 2.06 50 18:58 13.03.2021
1506 Clouds 17 1022 67 10000 2.06 50 18:40 13.03.2021
1507 Clear 17 1022 63 10000 4.12 300 18:18 13.03.2021
1508 Clear 17 1022 59 10000 4.12 300 17:44 13.03.2021
1509 Clouds 18 1022 63 10000 3.09 80 17:25 13.03.2021
1510 Clear 18 1022 63 10000 5.14 290 16:50 13.03.2021
1511 Clouds 18 1022 55 10000 3.09 80 16:29 13.03.2021
1512 Clear 18 1023 63 10000 4.63 290 15:47 13.03.2021
1513 Clouds 18 1023 59 10000 2.57 100 14:51 13.03.2021
1514 Clouds 18 1023 59 10000 2.57 100 14:32 13.03.2021
1515 Clouds 18 1023 52 10000 3.6 200 13:54 13.03.2021
1516 Clouds 18 1023 52 10000 4.12 200 13:25 13.03.2021
1517 Clouds 18 1023 52 10000 3.09 200 12:45 13.03.2021
1518 Clouds 18 1023 48 10000 1.03 200 12:27 13.03.2021
1519 Clear 17 1024 59 10000 2.57 270 11:50 13.03.2021
1520 Clouds 17 1024 51 10000 1.54 250 11:29 13.03.2021
1521 Clear 16 1024 59 10000 1.03 0 10:50 13.03.2021
1522 Clouds 15 1023 62 10000 2.57 240 10:29 13.03.2021
1523 Clear 13 1023 94 10000 2.06 100 09:47 13.03.2021
1524 Clear 12 1022 62 10000 3.09 240 08:59 13.03.2021
1525 Clear 11 1023 100 10000 1.03 120 08:41 13.03.2021
1526 Clear 11 1022 100 10000 2.57 100 08:19 13.03.2021
1527 Clear 11 1022 100 10000 2.57 100 08:19 13.03.2021
1528 Clear 10 1022 100 10000 2.06 90 07:46 13.03.2021
1529 Clouds 11 1021 93 10000 0.51 0 06:18 13.03.2021
1530 Clear 14 1021 82 10000 1.03 0 02:54 13.03.2021
1531 Clear 15 1022 88 10000 3.6 310 00:51 13.03.2021
1532 Clear 16 1023 94 10000 5.14 310 23:54 12.03.2021
1533 Clear 16 1022 72 10000 7.2 280 23:32 12.03.2021
1534 Clear 16 1023 94 10000 5.14 300 22:42 12.03.2021
1535 Clouds 16 1022 63 10000 7.2 290 22:23 12.03.2021
1536 Clear 15 1023 100 10000 3.09 290 21:44 12.03.2021
1537 Clouds 16 1021 72 10000 7.2 260 21:24 12.03.2021
1538 Clouds 17 1022 88 10000 2.57 260 20:55 12.03.2021
1539 Clouds 17 1021 68 10000 8.23 280 20:32 12.03.2021
1540 Clear 17 1020 68 10000 6.69 270 19:56 12.03.2021
1541 Clear 18 1020 68 10000 6.69 270 19:38 12.03.2021
1542 Clouds 18 1020 56 10000 7.2 280 18:59 12.03.2021
1543 Clouds 19 1020 52 10000 7.72 280 18:35 12.03.2021
1544 Clear 19 1022 77 10000 6.17 270 17:49 12.03.2021
1545 Clear 19 1020 52 10000 8.23 270 17:30 12.03.2021
1546 Clear 19 1020 52 10000 8.23 270 16:55 12.03.2021
1547 Clear 19 1020 52 10000 8.23 270 16:36 12.03.2021
1548 Clear 19 1020 56 10000 7.2 270 15:52 12.03.2021
1549 Clear 20 1021 49 10000 6.69 260 15:27 12.03.2021
1550 Clouds 20 1024 72 10000 4.12 280 14:48 12.03.2021
1551 Clouds 19 1024 72 10000 4.63 290 14:20 12.03.2021
1552 Clouds 18 1024 72 10000 4.12 280 13:43 12.03.2021
1553 Clouds 19 1022 56 10000 7.2 270 13:21 12.03.2021
1554 Clear 18 1023 59 10000 7.2 270 12:56 12.03.2021
1555 Clear 18 1023 59 10000 7.2 270 12:36 12.03.2021
1556 Clouds 18 1025 72 8000 3.6 270 12:18 12.03.2021
1557 Clouds 17 1025 88 8000 2.57 300 11:47 12.03.2021
1558 Clouds 17 1025 88 8000 2.06 270 11:19 12.03.2021
1559 Clouds 17 1025 94 8000 2.57 240 10:45 12.03.2021
1560 Clouds 16 1023 72 10000 5.14 250 10:22 12.03.2021
1561 Clouds 13 1023 77 10000 6.17 270 09:37 12.03.2021
1562 Clouds 13 1024 100 8000 1.54 60 09:19 12.03.2021
1563 Clouds 12 1023 82 10000 4.12 230 08:39 12.03.2021
1564 Clear 12 1022 72 10000 4.63 230 07:41 12.03.2021
1565 Clouds 12 1024 100 5000 2.06 80 07:21 12.03.2021
1566 Clear 12 1022 77 10000 4.12 250 06:42 12.03.2021
1567 Clouds 12 1023 100 6000 2.06 90 05:45 12.03.2021
1568 Clear 13 1026 93 7000 1.54 40 00:52 12.03.2021
1569 Clear 14 1026 94 7000 2.06 80 23:56 11.03.2021
1570 Clear 15 1025 59 10000 5.14 240 22:58 11.03.2021
1571 Clear 16 1025 59 10000 5.14 240 22:38 11.03.2021
1572 Clear 16 1026 88 8000 1.03 0 22:18 11.03.2021
1573 Clear 16 1026 88 8000 1.03 0 21:46 11.03.2021
1574 Clear 16 1025 67 10000 6.17 280 21:22 11.03.2021
1575 Clear 16 1026 88 10000 0.51 0 20:49 11.03.2021
1576 Clear 17 1025 68 10000 3.09 240 20:22 11.03.2021
1577 Clear 17 1025 88 10000 1.54 330 19:49 11.03.2021
1578 Clear 18 1024 55 10000 6.17 200 19:30 11.03.2021
1579 Clear 18 1024 59 10000 5.14 200 18:52 11.03.2021
1580 Clear 18 1024 59 10000 5.14 200 18:34 11.03.2021
1581 Clear 18 1025 67 10000 4.12 310 17:52 11.03.2021
1582 Clear 19 1025 30 10000 3.6 190 17:30 11.03.2021
1583 Clear 20 1025 32 10000 3.6 200 16:32 11.03.2021
1584 Clear 20 1025 34 10000 3.09 200 15:55 11.03.2021
1585 Clouds 21 1026 45 10000 3.09 130 15:37 11.03.2021
1586 Clear 21 1026 35 10000 1.03 0 15:19 11.03.2021
1587 Clouds 20 1026 42 10000 3.09 120 14:39 11.03.2021
1588 Clear 19 1027 52 10000 2.57 260 14:18 11.03.2021
1589 Clear 19 1027 63 10000 3.6 270 13:43 11.03.2021
1590 Clouds 18 1027 68 10000 2.06 110 13:21 11.03.2021
1591 Clear 17 1027 67 10000 3.09 280 12:49 11.03.2021
1592 Clouds 18 1028 67 10000 1.03 90 12:27 11.03.2021
1593 Clear 17 1027 45 10000 1.54 50 11:46 11.03.2021
1594 Clouds 16 1028 67 10000 0.51 230 11:27 11.03.2021
1595 Clouds 16 1028 72 10000 1.03 230 10:50 11.03.2021
1596 Clouds 14 1028 82 10000 1.54 250 10:22 11.03.2021
1597 Clear 13 1027 82 10000 1.54 100 09:48 11.03.2021
1598 Clouds 12 1027 82 10000 2.57 250 09:29 11.03.2021
1599 Clear 11 1026 93 10000 2.06 100 08:48 11.03.2021
1600 Clouds 10 1027 82 10000 2.57 260 08:23 11.03.2021
1601 Mist 10 1026 87 3000 2.06 100 07:44 11.03.2021
1602 Clear 10 1025 93 6000 2.57 80 06:51 11.03.2021
1603 Clear 11 1026 82 10000 1.03 240 06:31 11.03.2021
1604 Clear 11 1025 100 6000 2.57 90 04:48 11.03.2021
1605 Clear 13 1026 76 10000 2.06 240 01:39 11.03.2021
1606 -273 0 0 0 0 0 23:53 10.03.2021
1607 Clear 14 1026 94 10000 2.57 30 23:22 10.03.2021
1608 Clear 14 1026 77 10000 3.09 40 22:39 10.03.2021
1609 Clear 14 1025 100 10000 1.03 0 21:47 10.03.2021
1610 Clear 15 1025 48 10000 0.51 290 21:26 10.03.2021
1611 Clear 16 1024 82 10000 1.54 20 20:58 10.03.2021
1612 Clear 16 1024 45 10000 1.54 180 20:37 10.03.2021
1613 Clear 16 1024 88 10000 0.51 0 20:19 10.03.2021
1614 Clouds 17 1024 42 10000 1.03 130 19:39 10.03.2021
1615 Clear 17 1023 88 10000 3.6 330 19:20 10.03.2021
1616 Clouds 18 1024 48 10000 2.57 120 18:37 10.03.2021
1617 Clear 18 1023 72 10000 4.12 320 18:18 10.03.2021
1618 Clear 17 1023 72 10000 4.63 320 17:41 10.03.2021
1619 Clear 18 1023 72 10000 4.63 330 17:20 10.03.2021
1620 Clouds 18 1023 55 10000 2.06 140 16:52 10.03.2021
1621 Clouds 18 1023 48 10000 4.12 210 16:29 10.03.2021
1622 Clear 18 1023 63 10000 6.17 320 15:54 10.03.2021
1623 Clouds 18 1023 63 10000 2.57 130 15:36 10.03.2021
1624 Clear 18 1023 59 10000 6.17 310 15:18 10.03.2021
1625 Clouds 18 1024 63 10000 2.57 130 14:23 10.03.2021
1626 Clouds 18 1024 67 10000 2.57 120 13:58 10.03.2021
1627 Clouds 18 1024 67 10000 2.57 120 13:31 10.03.2021
1628 Clear 18 1024 55 10000 2.06 40 12:53 10.03.2021
1629 Clouds 18 1024 67 10000 2.57 120 12:28 10.03.2021
1630 Clouds 16 1024 77 10000 1.03 260 11:53 10.03.2021
1631 Clouds 15 1024 77 10000 1.03 270 11:28 10.03.2021
1632 Clouds 14 1024 82 10000 1.54 260 10:51 10.03.2021
1633 Clouds 13 1024 82 10000 1.54 260 10:33 10.03.2021
1634 Clouds 13 1024 82 10000 1.54 260 09:56 10.03.2021
1635 Clouds 12 1024 82 10000 1.54 260 09:38 10.03.2021
1636 Clear 12 1023 94 8000 1.54 90 09:19 10.03.2021
1637 Clear 9 1022 100 8000 1.03 110 08:44 10.03.2021
1638 Clouds 10 1022 87 10000 2.57 240 08:26 10.03.2021
1639 Clear 10 1022 100 6000 1.54 80 07:44 10.03.2021
1640 Clear 10 1022 82 10000 2.57 240 07:24 10.03.2021
1641 Clear 10 1021 100 6000 1.54 80 06:52 10.03.2021
1642 Clouds 11 1020 100 8000 0.51 0 02:44 10.03.2021
1643 Clouds 12 1021 87 10000 1.03 260 00:31 10.03.2021
1644 Clouds 12 1021 82 10000 1.54 290 23:33 09.03.2021
1645 Clear 13 1020 94 10000 1.03 0 22:52 09.03.2021
1646 Clouds 13 1020 77 10000 0.51 30 22:34 09.03.2021
1647 Clouds 13 1019 72 10000 1.54 10 21:58 09.03.2021
1648 Clouds 14 1019 72 10000 1.54 10 21:38 09.03.2021
1649 Clear 14 1019 82 10000 1.54 30 21:19 09.03.2021
1650 Clouds 15 1018 67 10000 3.09 30 20:45 09.03.2021
1651 Clouds 15 1018 67 10000 3.09 30 20:23 09.03.2021
1652 Clouds 15 1018 67 10000 2.06 70 19:59 09.03.2021
1653 Clouds 15 1018 67 10000 2.06 70 19:29 09.03.2021
1654 Clear 16 1017 72 10000 3.09 320 18:54 09.03.2021
1655 Clouds 16 1017 63 10000 1.03 270 18:31 09.03.2021
1656 Clouds 16 1017 67 10000 2.06 310 17:59 09.03.2021
1657 Clouds 16 1017 67 10000 2.06 310 17:38 09.03.2021
1658 Clouds 16 1017 63 10000 3.09 300 17:19 09.03.2021
1659 Clouds 16 1017 55 10000 2.06 270 16:40 09.03.2021
1660 Clouds 16 1017 67 10000 3.6 260 16:20 09.03.2021
1661 Clouds 16 1017 67 10000 3.6 260 16:20 09.03.2021
1662 Clouds 16 1017 67 10000 4.63 260 15:47 09.03.2021
1663 Clouds 16 1017 63 10000 3.6 250 15:24 09.03.2021
1664 Clouds 16 1017 59 10000 3.6 240 14:42 09.03.2021
1665 Clouds 17 1017 59 10000 3.09 200 14:22 09.03.2021
1666 Clouds 16 1017 59 10000 3.6 210 13:39 09.03.2021
1667 Clouds 16 1018 67 10000 3.09 210 13:21 09.03.2021
1668 Clouds 15 1018 72 10000 2.57 210 12:44 09.03.2021
1669 Clouds 16 1017 51 10000 3.09 240 12:25 09.03.2021
1670 Clouds 15 1018 72 10000 2.57 170 11:42 09.03.2021
1671 Clouds 15 1018 58 10000 3.09 250 11:21 09.03.2021
1672 Clouds 15 1018 58 10000 3.09 250 11:21 09.03.2021
1673 Clouds 15 1018 58 10000 3.09 250 11:21 09.03.2021
1674 Clouds 13 1018 67 10000 2.06 260 10:56 09.03.2021
1675 Clouds 13 1018 67 10000 2.06 260 10:38 09.03.2021
1676 Clouds 13 1018 71 10000 2.57 170 10:19 09.03.2021
1677 Clouds 13 1017 71 10000 2.06 170 09:43 09.03.2021
1678 Clouds 12 1017 76 10000 1.54 140 09:24 09.03.2021
1679 Clouds 10 1016 87 10000 1.54 90 08:46 09.03.2021
1680 Clouds 11 1016 82 10000 2.57 270 08:23 09.03.2021
1681 Clouds 11 1015 76 10000 2.57 240 07:40 09.03.2021
1682 Clouds 11 1015 76 10000 2.57 240 07:21 09.03.2021
1683 Clouds 11 1015 93 10000 1.03 0 05:55 09.03.2021
1684 Clouds 11 1015 76 10000 4.12 280 05:37 09.03.2021
1685 Clouds 13 1016 71 10000 5.66 240 00:30 09.03.2021
1686 Clouds 11 1016 71 10000 3.09 250 23:44 08.03.2021
1687 Clouds 12 1016 71 10000 5.66 270 23:25 08.03.2021
1688 Clouds 13 1016 71 10000 3.09 240 22:48 08.03.2021
1689 Clouds 13 1016 67 10000 6.69 260 22:29 08.03.2021
1690 Clouds 13 1015 62 10000 8.23 260 21:56 08.03.2021
1691 Clouds 13 1015 62 10000 8.23 260 21:35 08.03.2021
1692 Clouds 13 1016 66 10000 2.57 250 20:48 08.03.2021
1693 Clouds 13 1015 67 10000 7.2 260 20:27 08.03.2021
1694 Clouds 13 1014 62 10000 7.2 260 19:59 08.03.2021
1695 Clouds 14 1014 62 10000 7.2 260 19:36 08.03.2021
1696 Clouds 15 1015 62 10000 5.66 270 18:42 08.03.2021
1697 Clouds 15 1013 51 10000 6.69 260 18:23 08.03.2021
1698 Clouds 15 1014 55 10000 6.17 280 17:56 08.03.2021
1699 Clouds 16 1014 55 10000 6.17 280 17:38 08.03.2021
1700 Clouds 16 1014 59 10000 6.17 280 16:55 08.03.2021
1701 Clouds 16 1014 59 10000 7.72 280 16:29 08.03.2021
1702 Clouds 15 1014 59 10000 7.2 270 15:52 08.03.2021
1703 Clouds 15 1014 59 10000 7.2 270 15:52 08.03.2021
1704 Clouds 15 1014 63 10000 7.2 280 15:29 08.03.2021
1705 Clouds 16 1015 72 10000 5.14 290 14:49 08.03.2021
1706 Clouds 16 1016 77 10000 4.63 300 14:20 08.03.2021
1707 Clouds 16 1016 77 10000 4.63 290 13:43 08.03.2021
1708 Clouds 16 1016 72 10000 4.63 290 13:20 08.03.2021
1709 Clouds 16 1016 72 10000 6.17 270 12:46 08.03.2021
1710 Clouds 17 1016 55 10000 4.63 280 12:27 08.03.2021
1711 Clouds 16 1016 55 10000 6.17 280 11:40 08.03.2021
1712 Clouds 16 1016 67 10000 4.63 270 11:19 08.03.2021
1713 Clouds 15 1016 72 10000 5.66 280 10:43 08.03.2021
1714 Clouds 15 1016 72 10000 5.66 280 10:25 08.03.2021
1715 Clouds 15 1016 72 10000 4.12 250 09:41 08.03.2021
1716 Clouds 14 1015 77 10000 5.66 280 09:23 08.03.2021
1717 Clouds 14 1015 77 10000 5.66 280 09:23 08.03.2021
1718 Clouds 14 1015 82 10000 4.63 250 08:29 08.03.2021
1719 Clouds 14 1014 82 10000 6.17 290 07:41 08.03.2021
1720 Clouds 14 1015 82 7000 4.12 260 07:20 08.03.2021
1721 Clouds 14 1015 88 10000 4.63 290 04:28 08.03.2021
1722 Clouds 14 1017 94 7000 3.6 260 00:45 08.03.2021
1723 Clouds 14 1017 94 7000 3.6 270 00:20 08.03.2021
1724 Clear 14 1016 88 10000 4.63 250 23:39 07.03.2021
1725 Clouds 14 1017 100 7000 3.6 270 23:20 07.03.2021
1726 Clouds 14 1017 100 8000 2.06 260 22:44 07.03.2021
1727 Clouds 15 1016 82 10000 6.17 270 22:26 07.03.2021
1728 Clouds 14 1017 94 10000 2.06 270 21:45 07.03.2021
1729 Clear 15 1016 88 10000 5.66 270 21:26 07.03.2021
1730 Clouds 15 1016 88 10000 2.06 300 20:49 07.03.2021
1731 Clouds 15 1015 88 10000 4.12 260 20:31 07.03.2021
1732 Clouds 15 1015 88 10000 3.6 270 19:57 07.03.2021
1733 Clouds 15 1015 88 10000 3.6 270 19:38 07.03.2021
1734 Clouds 15 1016 88 10000 2.06 280 19:20 07.03.2021
1735 Clouds 16 1015 82 10000 3.09 280 18:44 07.03.2021
1736 Clouds 16 1015 82 10000 3.09 280 18:20 07.03.2021
1737 Clouds 16 1015 82 10000 2.06 310 17:42 07.03.2021
1738 Clouds 17 1015 77 10000 2.57 240 17:21 07.03.2021
1739 Clouds 17 1015 77 10000 2.06 250 16:58 07.03.2021
1740 Clouds 17 1015 77 10000 2.06 250 16:38 07.03.2021
1741 Clouds 16 1016 77 10000 3.6 270 16:19 07.03.2021
1742 Clouds 16 1016 82 4000 3.09 330 15:43 07.03.2021
1743 Rain 17 1016 77 2000 2.06 40 15:22 07.03.2021
1744 Clouds 16 1017 82 10000 3.09 220 14:30 07.03.2021
1745 Clouds 16 1017 77 10000 2.57 200 13:59 07.03.2021
1746 Clouds 16 1017 77 10000 2.57 200 13:40 07.03.2021
1747 Clouds 16 1017 82 10000 3.09 220 13:21 07.03.2021
1748 Clouds 15 1018 77 10000 1.03 0 12:45 07.03.2021
1749 Clouds 15 1018 88 10000 2.57 220 12:27 07.03.2021
1750 Rain 14 1018 100 10000 2.06 180 11:41 07.03.2021
1751 Rain 14 1018 94 10000 1.03 300 11:21 07.03.2021
1752 Rain 13 1018 100 6000 1.03 300 10:39 07.03.2021
1753 Rain 13 1017 100 4000 3.09 300 10:21 07.03.2021
1754 Rain 13 1018 100 4000 1.54 290 09:41 07.03.2021
1755 Rain 14 1017 94 4000 1.03 260 09:21 07.03.2021
1756 Rain 14 1017 94 3000 4.56 70 08:45 07.03.2021
1757 Rain 13 1017 94 2000 2.06 300 08:23 07.03.2021
1758 Rain 14 1016 100 8000 5.98 75 07:25 07.03.2021
1759 Clouds 13 1016 100 5000 1.03 0 02:41 07.03.2021
1760 Clouds 13 1016 100 10000 1.03 0 00:45 07.03.2021
1761 Clouds 14 1016 94 10000 8.81 90 23:44 06.03.2021
1762 Haze 15 1017 88 5000 9.26 60 23:23 06.03.2021
1763 Rain 15 1016 94 10000 3.09 80 22:47 06.03.2021
1764 Rain 14 1017 94 1600 9.77 60 22:27 06.03.2021
1765 Clouds 15 1015 94 10000 3.09 70 21:57 06.03.2021
1766 Haze 15 1017 88 6000 11.83 90 21:21 06.03.2021
1767 Clouds 15 1015 88 10000 3.09 80 20:49 06.03.2021
1768 Rain 15 1017 88 5000 10.29 90 20:26 06.03.2021
1769 Rain 16 1015 88 10000 2.06 110 19:49 06.03.2021
1770 Rain 16 1015 88 10000 2.06 70 19:20 06.03.2021
1771 Rain 16 1014 94 8000 1.54 60 18:45 06.03.2021
1772 Rain 16 1016 88 5000 10.8 80 18:24 06.03.2021
1773 Clouds 15 1015 88 4000 12.35 90 17:56 06.03.2021
1774 Clouds 15 1015 88 4000 12.35 90 17:56 06.03.2021
1775 Rain 16 1015 88 3500 10.8 80 17:38 06.03.2021
1776 Rain 16 1014 82 8000 4.63 50 17:18 06.03.2021
1777 Rain 16 1014 82 8000 1.03 0 16:41 06.03.2021
1778 Rain 16 1014 82 8000 1.03 0 16:41 06.03.2021
1779 Rain 16 1015 82 6000 10.29 80 16:21 06.03.2021
1780 Rain 16 1014 82 6000 3.09 150 15:47 06.03.2021
1781 Rain 16 1015 82 5000 11.32 80 15:29 06.03.2021
1782 Rain 15 1014 100 5000 2.06 100 14:49 06.03.2021
1783 Clouds 14 1016 94 4000 9.77 80 14:25 06.03.2021
1784 Rain 14 1016 94 3000 10.8 80 13:39 06.03.2021
1785 Rain 14 1015 100 6000 4.63 30 13:20 06.03.2021
1786 Rain 14 1016 88 3000 10.8 70 12:44 06.03.2021
1787 Clouds 15 1015 88 6000 3.6 90 12:19 06.03.2021
1788 Rain 15 1015 88 6000 3.6 90 11:49 06.03.2021
1789 Rain 15 1017 94 2500 9.26 80 11:21 06.03.2021
1790 Rain 15 1015 94 6000 2.06 110 10:48 06.03.2021
1791 Rain 15 1015 88 6000 2.57 100 10:19 06.03.2021
1792 Rain 15 1014 88 6000 4.12 80 09:42 06.03.2021
1793 Rain 14 1015 94 4000 10.29 80 09:19 06.03.2021
1794 Rain 15 1015 88 5000 9.77 70 08:39 06.03.2021
1795 Rain 15 1015 88 7000 11.32 80 07:57 06.03.2021
1796 Rain 15 1015 88 7000 11.32 80 07:24 06.03.2021
1797 Rain 15 1013 94 6000 4.63 60 06:55 06.03.2021
1798 Rain 15 1014 88 10000 14.92 90 05:34 06.03.2021
1799 Rain 15 1015 88 10000 13.38 90 02:38 06.03.2021
1800 Clouds 14 1013 94 6000 4.63 70 00:47 06.03.2021
1801 Clouds 14 1014 94 6000 4.63 60 23:53 05.03.2021
1802 Clouds 14 1016 94 5000 3.6 40 23:28 05.03.2021
1803 Clouds 14 1014 94 6000 4.63 70 22:45 05.03.2021
1804 Clouds 13 1015 94 6000 4.63 70 22:23 05.03.2021
1805 Clouds 13 1013 100 6000 2.57 100 21:53 05.03.2021
1806 Clouds 13 1015 94 10000 6.17 50 21:34 05.03.2021
1807 Clouds 13 1013 94 6000 2.57 60 20:54 05.03.2021
1808 Clouds 13 1015 94 4000 5.14 40 20:27 05.03.2021
1809 Clouds 15 1014 88 5000 1.54 70 19:59 05.03.2021
1810 Clouds 15 1014 88 5000 1.54 70 19:26 05.03.2021
1811 Clouds 16 1014 88 9000 3.09 110 18:58 05.03.2021
1812 Clouds 16 1014 88 9000 3.09 110 18:40 05.03.2021
1813 Clouds 16 1012 82 5000 0.51 0 18:19 05.03.2021
1814 Clouds 17 1013 82 10000 3.09 110 17:35 05.03.2021
1815 Clouds 17 1013 72 10000 4.63 120 16:49 05.03.2021
1816 Clouds 17 1013 77 10000 4.63 120 16:25 05.03.2021
1817 Clouds 17 1013 82 10000 5.14 120 15:58 05.03.2021
1818 Clouds 17 1013 72 10000 2.06 170 15:39 05.03.2021
1819 Clouds 17 1012 72 8000 4.12 210 15:20 05.03.2021
1820 Clouds 15 1014 82 10000 1.03 210 14:38 05.03.2021
1821 Clouds 15 1014 82 10000 1.03 210 14:38 05.03.2021
1822 Clouds 15 1014 82 10000 1.03 210 14:38 05.03.2021
1823 Clouds 16 1014 88 5000 4.63 190 13:55 05.03.2021
1824 Clouds 16 1014 88 8000 3.6 180 13:22 05.03.2021
1825 Clouds 16 1014 88 2500 5.14 160 12:55 05.03.2021
1826 Rain 15 1014 88 6000 7.2 130 11:56 05.03.2021
1827 Rain 15 1014 88 6000 7.2 130 11:36 05.03.2021
1828 Clouds 15 1014 88 3000 7.72 120 11:18 05.03.2021
1829 Rain 15 1014 88 10000 8.23 110 10:40 05.03.2021
1830 Rain 15 1014 88 10000 8.23 110 10:22 05.03.2021
1831 Rain 15 1013 100 5000 3.09 140 09:47 05.03.2021
1832 Clouds 15 1013 88 10000 8.75 110 09:26 05.03.2021
1833 Clouds 13 1012 100 3000 2.06 90 08:41 05.03.2021
1834 Clouds 14 1014 94 7000 9.26 110 08:22 05.03.2021
1835 Clouds 14 1014 94 2400 10.29 100 07:43 05.03.2021
1836 Clouds 14 1012 100 4000 3.09 80 06:56 05.03.2021
1837 Clouds 14 1014 88 7000 8.75 100 06:31 05.03.2021
1838 Clouds 15 1014 82 8000 4.12 90 01:52 05.03.2021
1839 Haze 15 1017 88 8000 9.77 90 00:34 05.03.2021
1840 Haze 15 1017 88 9000 9.77 90 23:36 04.03.2021
1841 Haze 15 1017 88 9000 8.75 90 22:38 04.03.2021
1842 Clouds 15 1015 82 8000 4.63 100 22:19 04.03.2021
1843 Clouds 15 1015 82 8000 4.12 100 21:42 04.03.2021
1844 Haze 15 1017 82 9000 7.72 80 21:23 04.03.2021
1845 Clouds 15 1015 82 8000 5.14 90 20:41 04.03.2021
1846 Clouds 15 1017 82 10000 6.17 90 20:21 04.03.2021
1847 Clouds 15 1017 82 10000 6.17 90 19:54 04.03.2021
1848 Clouds 16 1017 82 10000 6.17 90 19:30 04.03.2021
1849 Clouds 16 1017 77 10000 6.17 90 18:54 04.03.2021
1850 Clouds 17 1017 77 10000 6.17 90 18:31 04.03.2021
1851 Clouds 16 1017 82 10000 6.17 90 17:58 04.03.2021
1852 Clouds 16 1017 82 10000 6.17 90 17:39 04.03.2021
1853 Clouds 17 1018 77 10000 6.69 90 17:18 04.03.2021
1854 Clouds 17 1015 68 9000 8.23 80 16:43 04.03.2021
1855 Clouds 17 1018 77 10000 7.2 90 16:24 04.03.2021
1856 Clouds 17 1016 68 9000 8.75 70 15:46 04.03.2021
1857 Clouds 17 1019 77 10000 7.72 90 15:27 04.03.2021
1858 Clouds 17 1016 68 9000 8.23 80 14:44 04.03.2021
1859 Clouds 17 1017 68 9000 8.23 80 14:18 04.03.2021
1860 Clouds 17 1017 68 9000 9.26 80 13:42 04.03.2021
1861 Haze 17 1020 77 9000 9.26 90 13:22 04.03.2021
1862 Clouds 17 1018 68 9000 9.77 80 12:42 04.03.2021
1863 Haze 17 1021 77 8000 9.26 90 11:58 04.03.2021
1864 Haze 16 1021 77 8000 9.26 90 11:40 04.03.2021
1865 Clear 17 1019 72 10000 8.75 80 11:19 04.03.2021
1866 Clouds 16 1021 77 10000 9.77 90 10:37 04.03.2021
1867 Clouds 15 1021 82 10000 10.29 90 09:55 04.03.2021
1868 Haze 15 1021 77 9000 12.86 90 09:28 04.03.2021
1869 Clear 15 1018 82 10000 7.72 80 08:53 04.03.2021
1870 Clouds 15 1021 82 10000 10.29 90 08:28 04.03.2021
1871 Clouds 15 1021 82 10000 9.26 100 07:37 04.03.2021
1872 Haze 15 1021 77 9000 12.35 100 06:41 04.03.2021
1873 Haze 15 1021 77 9000 12.35 100 06:21 04.03.2021
1874 Haze 15 1023 82 8000 11.83 90 02:38 04.03.2021
1875 Haze 16 1025 77 9000 10.8 100 23:57 03.03.2021
1876 Haze 16 1025 77 8000 10.29 100 22:39 03.03.2021
1877 Clear 16 1022 72 10000 10.8 70 22:20 03.03.2021
1878 Clear 15 1022 72 10000 9.77 70 21:41 03.03.2021
1879 Haze 16 1025 77 8000 10.8 100 21:23 03.03.2021
1880 Clear 16 1022 72 10000 8.75 70 20:53 03.03.2021
1881 Haze 16 1025 72 9000 6.17 110 20:35 03.03.2021
1882 Clouds 16 1022 67 10000 7.2 70 19:48 03.03.2021
1883 Clouds 16 1024 77 10000 7.2 100 19:30 03.03.2021
1884 Clouds 17 1024 77 10000 8.75 110 18:56 03.03.2021
1885 Clouds 16 1024 77 10000 8.75 110 18:38 03.03.2021
1886 Clouds 17 1024 72 10000 9.77 130 17:58 03.03.2021
1887 Clouds 18 1024 67 10000 8.23 120 17:22 03.03.2021
1888 Clouds 18 1024 67 10000 9.26 110 16:52 03.03.2021
1889 Clouds 18 1024 67 10000 9.26 120 16:27 03.03.2021
1890 Clouds 18 1025 67 10000 9.77 120 15:53 03.03.2021
1891 Haze 18 1025 72 9000 9.26 110 15:32 03.03.2021
1892 Clouds 18 1023 59 8000 9.77 80 14:45 03.03.2021
1893 Clouds 18 1026 72 10000 8.75 120 14:26 03.03.2021
1894 Clouds 17 1024 63 8000 11.32 90 13:42 03.03.2021
1895 Clouds 17 1027 72 10000 8.23 110 13:21 03.03.2021
1896 Clouds 18 1024 63 8000 7.72 90 12:43 03.03.2021
1897 Clouds 18 1027 72 10000 7.72 120 12:23 03.03.2021
1898 Clouds 17 1024 63 8000 9.26 80 11:45 03.03.2021
1899 Clouds 17 1027 77 10000 9.26 120 11:27 03.03.2021
1900 Clouds 17 1027 77 10000 9.26 120 11:27 03.03.2021
1901 Clouds 17 1024 67 8000 9.26 80 10:45 03.03.2021
1902 Clouds 17 1026 77 10000 8.75 110 10:22 03.03.2021
1903 Clouds 16 1024 72 8000 8.23 70 09:42 03.03.2021
1904 Clouds 16 1024 82 8000 8.75 80 08:53 03.03.2021
1905 Clouds 16 1026 77 10000 9.26 110 08:24 03.03.2021
1906 Clear 16 1023 82 10000 6.69 70 07:55 03.03.2021
1907 Clouds 16 1025 82 10000 7.72 100 07:28 03.03.2021
1908 Clouds 15 1025 88 10000 4.63 60 06:22 03.03.2021
1909 Clear 15 1023 72 10000 7.72 80 05:44 03.03.2021
1910 Haze 15 1025 88 8000 5.66 80 04:36 03.03.2021
1911 Clear 16 1023 63 10000 7.2 70 03:54 03.03.2021
1912 Haze 14 1026 88 7000 2.06 40 00:28 03.03.2021
1913 Haze 16 1026 82 6000 1.03 60 23:34 02.03.2021
1914 Clear 16 1024 63 10000 6.69 70 22:52 02.03.2021
1915 Haze 16 1025 82 7000 1.54 80 22:22 02.03.2021
1916 Clouds 16 1023 67 6000 5.66 60 21:51 02.03.2021
1917 Clouds 16 1025 72 10000 3.6 190 21:33 02.03.2021
1918 Clouds 16 1023 72 6000 4.63 70 20:56 02.03.2021
1919 Clouds 16 1025 72 10000 3.09 180 20:38 02.03.2021
1920 Clouds 16 1023 72 6000 3.6 70 20:20 02.03.2021
1921 Clouds 16 1023 67 6000 2.06 90 19:46 02.03.2021
1922 Clouds 16 1024 72 10000 2.57 190 19:28 02.03.2021
1923 Clouds 17 1022 67 10000 3.6 90 18:42 02.03.2021
1924 Haze 17 1024 67 9000 1.03 180 18:21 02.03.2021
1925 Haze 18 1023 72 9000 3.09 120 17:57 02.03.2021
1926 Haze 18 1023 72 9000 3.09 120 17:38 02.03.2021
1927 Clouds 18 1022 63 10000 6.17 80 17:18 02.03.2021
1928 Clouds 18 1023 72 10000 3.6 120 16:40 02.03.2021
1929 Haze 18 1023 67 9000 3.6 110 15:54 02.03.2021
1930 Haze 18 1023 67 9000 4.12 120 15:26 02.03.2021
1931 Clouds 18 1022 63 10000 8.23 80 14:42 02.03.2021
1932 Clouds 18 1022 68 10000 7.2 100 14:18 02.03.2021
1933 Clouds 18 1023 68 10000 7.2 100 13:42 02.03.2021
1934 Clouds 18 1024 67 10000 5.14 120 13:23 02.03.2021
1935 Clouds 18 1023 72 10000 7.2 100 12:43 02.03.2021
1936 Haze 17 1024 72 9000 4.12 130 12:24 02.03.2021
1937 Clouds 17 1024 72 10000 4.63 130 11:41 02.03.2021
1938 Haze 17 1024 77 9000 4.63 110 11:20 02.03.2021
1939 Clouds 16 1022 82 10000 5.66 80 10:42 02.03.2021
1940 Clouds 16 1022 82 10000 5.66 70 10:23 02.03.2021
1941 Clouds 15 1022 100 10000 3.09 80 09:41 02.03.2021
1942 Clouds 14 1021 100 10000 3.09 80 09:21 02.03.2021
1943 Haze 13 1022 82 8000 7.72 100 08:40 02.03.2021
1944 Haze 13 1022 82 8000 7.72 100 08:21 02.03.2021
1945 Haze 14 1021 77 7000 7.72 100 07:38 02.03.2021
1946 Haze 14 1021 77 7000 7.72 100 07:38 02.03.2021
1947 Clouds 14 1021 77 10000 7.2 100 06:35 02.03.2021
1948 Clear 14 1019 94 10000 3.6 70 05:46 02.03.2021
1949 Clear 14 1019 94 10000 3.6 70 05:46 02.03.2021
1950 Clear 14 1019 94 10000 3.6 70 05:46 02.03.2021
1951 Haze 14 1021 77 6000 8.75 100 05:28 02.03.2021
1952 Clear 14 1019 94 10000 4.12 70 01:45 02.03.2021
1953 Clear 14 1019 94 10000 4.12 70 01:45 02.03.2021
1954 Clouds 14 1020 77 10000 10.8 100 01:27 02.03.2021
1955 Haze 14 1020 82 7000 10.8 100 00:39 02.03.2021
1956 Haze 15 1020 82 7000 10.29 90 23:28 01.03.2021
1957 Clouds 15 1018 94 10000 4.12 60 22:42 01.03.2021
1958 Haze 15 1019 77 4900 5.66 70 22:21 01.03.2021
1959 Haze 15 1019 82 5000 5.66 100 21:45 01.03.2021
1960 Haze 15 1019 82 5000 5.66 100 21:23 01.03.2021
1961 Haze 15 1018 77 7000 5.14 110 20:48 01.03.2021
1962 Haze 15 1018 77 7000 5.14 110 20:27 01.03.2021
1963 Haze 15 1018 77 7000 5.14 110 19:54 01.03.2021
1964 Haze 15 1018 77 7000 5.14 110 19:33 01.03.2021
1965 Haze 15 1017 72 8000 5.14 90 18:46 01.03.2021
1966 Haze 15 1017 77 6000 5.14 80 18:24 01.03.2021
1967 Rain 15 1015 88 6000 7.2 50 17:56 01.03.2021
1968 Rain 15 1017 77 7000 5.14 70 17:37 01.03.2021
1969 Rain 15 1015 82 6000 9.38 100 17:18 01.03.2021
1970 Rain 16 1017 72 7000 4.63 70 16:40 01.03.2021
1971 Rain 16 1017 72 7000 6.69 70 16:22 01.03.2021
1972 Rain 16 1016 72 7000 7.72 80 15:40 01.03.2021
1973 Rain 16 1015 82 8000 7.72 80 15:19 01.03.2021
1974 Rain 16 1015 77 8000 7.72 80 14:44 01.03.2021
1975 Rain 16 1017 77 7000 9.77 80 14:26 01.03.2021
1976 Rain 16 1017 77 10000 9.26 80 13:39 01.03.2021
1977 Clouds 16 1017 77 10000 9.26 80 13:20 01.03.2021
1978 Rain 16 1017 82 10000 10.29 90 12:44 01.03.2021
1979 Clouds 16 1017 77 10000 11.83 90 12:26 01.03.2021
1980 Rain 16 1017 82 10000 11.32 90 11:58 01.03.2021
1981 Clouds 16 1015 77 10000 9.26 80 11:32 01.03.2021
1982 Clouds 16 1015 77 10000 9.77 80 10:44 01.03.2021
1983 Clouds 16 1015 77 10000 9.77 80 10:44 01.03.2021
1984 Clouds 16 1017 82 8000 11.83 100 10:22 01.03.2021
1985 Clouds 15 1017 82 7000 11.83 100 09:56 01.03.2021
1986 Clouds 15 1016 82 10000 11.32 90 09:38 01.03.2021
1987 Clouds 15 1014 82 10000 7.72 80 09:19 01.03.2021
1988 Clouds 15 1014 88 10000 7.2 80 08:41 01.03.2021
1989 Clouds 14 1014 88 10000 7.72 70 07:44 01.03.2021
1990 Clouds 15 1014 82 10000 8.75 80 06:51 01.03.2021
1991 Rain 14 1014 82 10000 7.72 80 02:47 01.03.2021
1992 Rain 15 1017 88 5000 13.89 100 23:58 28.02.2021
1993 Rain 15 1017 88 5000 13.89 100 23:22 28.02.2021
1994 Rain 15 1014 77 10000 7.72 90 22:45 28.02.2021
1995 Haze 15 1017 82 7000 14.4 100 22:21 28.02.2021
1996 Clouds 15 1014 77 10000 9.77 80 21:47 28.02.2021
1997 Haze 15 1016 82 8000 13.38 100 21:24 28.02.2021
1998 Clouds 15 1013 77 10000 9.26 70 20:49 28.02.2021
1999 Haze 15 1016 77 8000 13.89 90 20:30 28.02.2021
2000 Clouds 15 1014 77 10000 9.26 80 19:47 28.02.2021
2001 Haze 15 1016 82 7000 11.83 90 19:27 28.02.2021
2002 Clouds 16 1013 72 10000 9.77 80 18:47 28.02.2021
2003 Haze 16 1016 72 9000 14.4 90 18:28 28.02.2021
2004 Clouds 16 1016 77 10000 11.83 80 17:58 28.02.2021
2005 Clouds 16 1016 77 10000 11.83 80 17:38 28.02.2021
2006 Clouds 16 1016 77 10000 11.83 80 17:38 28.02.2021
2007 Clouds 16 1013 72 10000 10.29 80 17:20 28.02.2021
2008 Clouds 16 1013 72 10000 10.29 80 16:48 28.02.2021
2009 Haze 16 1016 72 8000 12.86 90 16:29 28.02.2021
2010 Clouds 17 1014 72 10000 11.32 80 15:52 28.02.2021
2011 Clouds 17 1014 72 10000 11.32 80 15:52 28.02.2021
2012 Clouds 17 1017 72 10000 11.83 90 15:28 28.02.2021
2013 Clouds 17 1017 72 10000 12.35 90 14:58 28.02.2021
2014 Clouds 17 1014 67 10000 11.83 80 14:35 28.02.2021
2015 Clouds 16 1018 77 10000 12.86 90 13:59 28.02.2021
2016 Clouds 16 1018 77 10000 12.86 90 13:38 28.02.2021
2017 Clouds 16 1015 67 10000 11.83 80 13:19 28.02.2021
2018 Clouds 16 1019 82 10000 11.83 90 12:53 28.02.2021
2019 Clouds 16 1019 82 10000 11.83 90 12:35 28.02.2021
2020 Clouds 16 1019 82 10000 12.35 90 11:56 28.02.2021
2021 Clouds 15 1019 82 10000 12.35 90 11:37 28.02.2021
2022 Clouds 16 1016 77 10000 11.32 80 11:18 28.02.2021
2023 Clouds 15 1018 82 10000 11.83 90 10:30 28.02.2021
2024 Clouds 15 1018 88 5000 11.32 90 09:59 28.02.2021
2025 Clouds 15 1018 88 5000 11.32 90 09:38 28.02.2021
2026 Clouds 15 1016 77 10000 8.75 80 09:20 28.02.2021
2027 Clouds 14 1018 88 6000 10.8 80 08:38 28.02.2021
2028 Clear 14 1015 82 10000 7.72 70 08:20 28.02.2021
2029 Clouds 14 1018 88 6000 12.35 100 07:44 28.02.2021
2030 Clouds 14 1018 88 6000 12.35 100 07:25 28.02.2021
2031 Clouds 15 1018 77 10000 9.77 90 06:23 28.02.2021
2032 Clear 15 1016 77 10000 7.72 80 05:19 28.02.2021
2033 Haze 15 1019 82 8000 11.83 90 02:26 28.02.2021
2034 Haze 15 1020 82 7000 11.32 90 01:23 28.02.2021
2035 Haze 15 1020 77 9000 12.35 90 00:39 28.02.2021
2036 Clear 15 1017 82 10000 9.77 80 23:50 27.02.2021
2037 Haze 15 1020 77 9000 12.35 100 23:21 27.02.2021
2038 Clear 15 1017 77 10000 9.26 70 22:50 27.02.2021
2039 Haze 15 1020 77 9000 12.35 100 22:23 27.02.2021
2040 Haze 15 1020 82 8000 10.8 90 21:58 27.02.2021
2041 Haze 15 1020 82 8000 10.8 90 21:37 27.02.2021
2042 Clouds 15 1020 77 10000 8.23 100 20:55 27.02.2021
2043 Clouds 14 1017 77 10000 7.72 80 20:37 27.02.2021
2044 Clouds 15 1017 72 10000 8.23 80 20:18 27.02.2021
2045 Clouds 15 1017 72 10000 9.77 70 19:41 27.02.2021
2046 Clouds 15 1020 77 10000 8.23 90 19:23 27.02.2021
2047 Clouds 16 1017 67 10000 8.75 60 18:39 27.02.2021
2048 Clouds 16 1017 67 10000 8.23 60 18:19 27.02.2021
2049 Clouds 16 1018 67 10000 7.72 70 17:43 27.02.2021
2050 Clouds 17 1018 63 10000 7.72 70 17:20 27.02.2021
2051 Clouds 17 1020 67 10000 9.26 90 16:51 27.02.2021
2052 Clouds 17 1020 67 10000 10.29 80 16:31 27.02.2021
2053 Clouds 17 1018 63 10000 10.29 90 15:49 27.02.2021
2054 Clouds 17 1021 67 10000 10.29 90 15:31 27.02.2021
2055 Clouds 17 1019 67 10000 10.8 90 14:43 27.02.2021
2056 Clouds 17 1022 67 10000 9.77 90 14:25 27.02.2021
2057 Clouds 17 1020 67 10000 10.8 80 13:49 27.02.2021
2058 Clouds 17 1023 67 10000 10.8 80 13:26 27.02.2021
2059 Clouds 16 1020 72 10000 11.83 80 12:52 27.02.2021
2060 Clouds 16 1023 72 10000 10.29 90 12:28 27.02.2021
2061 Clouds 16 1021 72 10000 8.75 70 11:56 27.02.2021
2062 Clouds 15 1024 77 10000 9.26 80 11:36 27.02.2021
2063 Clouds 15 1021 77 10000 7.2 60 11:18 27.02.2021
2064 Clouds 15 1021 77 10000 11.83 70 10:41 27.02.2021
2065 Clouds 15 1020 77 10000 10.8 70 10:18 27.02.2021
2066 Clouds 15 1020 72 10000 7.72 80 09:37 27.02.2021
2067 Clouds 15 1023 77 10000 10.29 90 08:58 27.02.2021
2068 Clouds 14 1020 77 8000 5.14 90 08:39 27.02.2021
2069 Clouds 15 1020 77 8000 8.23 80 08:18 27.02.2021
2070 Clouds 14 1020 77 8000 8.75 80 07:32 27.02.2021
2071 Haze 15 1025 77 9000 13.38 100 02:31 27.02.2021
2072 Haze 15 1025 77 9000 13.38 90 00:33 27.02.2021
2073 Haze 15 1025 77 8000 12.86 90 23:43 26.02.2021
2074 Haze 15 1025 77 8000 12.86 90 23:24 26.02.2021
2075 Haze 15 1025 77 8000 12.35 90 22:40 26.02.2021
2076 Haze 15 1025 77 8000 12.35 90 22:21 26.02.2021
2077 Clouds 15 1022 77 8000 5.66 70 21:36 26.02.2021
2078 Haze 15 1024 82 8000 11.32 90 20:57 26.02.2021
2079 Haze 15 1024 82 8000 11.32 90 20:38 26.02.2021
2080 Clouds 15 1022 82 8000 6.17 60 20:19 26.02.2021
2081 Clouds 15 1022 82 8000 6.17 60 20:19 26.02.2021
2082 Haze 15 1024 82 8000 11.32 90 19:27 26.02.2021
2083 Haze 16 1024 77 9000 8.23 90 18:57 26.02.2021
2084 Haze 16 1024 77 9000 8.23 90 18:36 26.02.2021
2085 Clouds 16 1022 82 6000 6.17 70 18:18 26.02.2021
2086 Clouds 16 1022 77 6000 6.69 70 17:38 26.02.2021
2087 Clouds 16 1022 82 6000 5.14 90 17:19 26.02.2021
2088 Clouds 16 1022 82 6000 5.66 90 16:47 26.02.2021
2089 Haze 16 1024 82 9000 9.26 90 16:28 26.02.2021
2090 Clouds 17 1022 77 6000 7.2 90 15:45 26.02.2021
2091 Haze 17 1025 77 9000 9.26 90 15:27 26.02.2021
2092 Haze 17 1025 77 9000 9.77 90 14:58 26.02.2021
2093 Haze 16 1025 77 9000 9.77 90 14:36 26.02.2021
2094 Haze 17 1025 77 9000 10.29 90 13:59 26.02.2021
2095 Haze 16 1025 77 9000 10.29 90 13:39 26.02.2021
2096 Haze 16 1026 82 9000 10.29 90 12:58 26.02.2021
2097 Clouds 16 1024 88 6000 2.06 20 12:31 26.02.2021
2098 Clouds 16 1025 94 6000 2.57 30 11:47 26.02.2021
2099 Clouds 15 1024 94 6000 2.06 40 11:20 26.02.2021
2100 Clouds 15 1024 94 6000 2.06 40 11:20 26.02.2021
2101 Clouds 15 1025 100 6000 1.03 0 10:44 26.02.2021
2102 Clouds 15 1024 100 6000 2.06 90 09:49 26.02.2021
2103 Haze 14 1024 88 9000 10.8 100 09:29 26.02.2021
2104 Clouds 14 1024 100 5000 1.54 160 08:41 26.02.2021
2105 Clouds 14 1023 82 10000 9.26 100 07:59 26.02.2021
2106 Clouds 14 1023 82 10000 9.26 100 07:59 26.02.2021
2107 Clouds 14 1023 82 10000 9.26 100 07:27 26.02.2021
2108 Rain 14 1023 88 5000 8.75 110 06:35 26.02.2021
2109 Rain 15 1022 100 1000 1.54 0 05:20 26.02.2021
2110 Rain 15 1023 94 5000 3.09 100 02:41 26.02.2021
2111 Haze 16 1025 82 6000 10.8 90 00:33 26.02.2021
2112 Clouds 15 1023 88 8000 3.09 80 23:41 25.02.2021
2113 Clouds 16 1023 88 8000 4.63 80 23:19 25.02.2021
2114 Haze 16 1025 82 7000 10.8 90 22:38 25.02.2021
2115 Clouds 15 1023 94 5000 3.09 80 21:54 25.02.2021
2116 Clouds 15 1023 94 5000 3.09 80 21:54 25.02.2021
2117 Haze 15 1025 82 7000 9.77 90 21:33 25.02.2021
2118 Clouds 16 1023 88 5000 3.09 100 20:56 25.02.2021
2119 Haze 16 1025 82 7000 8.75 90 20:37 25.02.2021
2120 Clouds 16 1023 88 5000 3.09 100 20:18 25.02.2021
2121 Clouds 16 1023 77 5000 3.6 100 19:47 25.02.2021
2122 Clouds 16 1023 77 5000 1.54 20 19:19 25.02.2021
2123 Clouds 16 1023 77 5000 1.54 60 18:44 25.02.2021
2124 Clouds 16 1023 72 5000 1.03 0 18:18 25.02.2021
2125 Clouds 16 1023 77 5000 1.54 360 17:42 25.02.2021
2126 Haze 17 1025 77 8000 7.2 90 17:22 25.02.2021
2127 Haze 16 1025 82 7000 7.2 90 16:34 25.02.2021
2128 Clouds 17 1023 72 6000 2.57 280 15:51 25.02.2021
2129 Clouds 16 1024 82 6000 3.6 270 15:28 25.02.2021
2130 Clouds 17 1024 77 6000 3.6 240 14:40 25.02.2021
2131 Clouds 17 1024 77 6000 3.6 230 14:20 25.02.2021
2132 Clouds 17 1025 77 6000 4.12 230 13:41 25.02.2021
2133 Clouds 17 1025 72 5000 2.57 210 13:20 25.02.2021
2134 Haze 17 1027 82 8000 7.72 80 12:38 25.02.2021
2135 Clouds 17 1025 68 5000 2.06 140 12:20 25.02.2021
2136 Clouds 17 1026 72 5000 2.57 130 11:43 25.02.2021
2137 Haze 16 1027 88 9000 11.83 80 10:53 25.02.2021
2138 Haze 15 1027 88 9000 11.83 80 10:35 25.02.2021
2139 Clouds 14 1025 100 8000 2.06 90 09:48 25.02.2021
2140 Haze 14 1026 88 7000 10.29 70 09:26 25.02.2021
2141 Haze 14 1026 88 7000 8.23 70 08:40 25.02.2021
2142 Haze 14 1026 88 7000 8.23 70 08:21 25.02.2021
2143 Clouds 14 1026 88 6000 8.23 80 07:39 25.02.2021
2144 Clouds 14 1026 88 5000 11.83 80 06:57 25.02.2021
2145 Clouds 15 1026 88 2400 12.86 80 05:28 25.02.2021
2146 Clear 16 1024 82 10000 8.23 80 01:49 25.02.2021
2147 Clear 16 1025 82 10000 7.72 80 00:48 25.02.2021
2148 Clear 16 1025 82 10000 8.23 70 00:19 25.02.2021
2149 Clear 15 1025 82 10000 8.23 80 23:36 24.02.2021
2150 Clear 15 1024 82 10000 7.72 80 22:50 24.02.2021
2151 Haze 16 1028 72 9000 11.32 100 22:30 24.02.2021
2152 Clear 16 1024 77 10000 7.2 80 21:49 24.02.2021
2153 Haze 16 1027 77 7000 12.35 100 21:30 24.02.2021
2154 Clear 15 1024 77 10000 8.23 80 20:49 24.02.2021
2155 Haze 16 1027 82 8000 10.29 100 20:26 24.02.2021
2156 Clear 16 1023 72 10000 10.29 80 19:42 24.02.2021
2157 Clear 16 1023 72 10000 11.32 80 19:20 24.02.2021
2158 Clear 16 1023 72 10000 10.8 80 18:50 24.02.2021
2159 Haze 17 1027 82 8000 9.26 90 18:30 24.02.2021
2160 Clear 17 1024 67 10000 10.8 80 17:39 24.02.2021
2161 Haze 17 1027 77 9000 10.8 100 17:21 24.02.2021
2162 Clouds 17 1024 63 10000 12.35 80 16:46 24.02.2021
2163 Clouds 17 1027 77 10000 12.35 90 16:21 24.02.2021
2164 Clouds 17 1024 63 10000 10.8 90 15:50 24.02.2021
2165 Clouds 17 1028 82 10000 11.32 90 15:28 24.02.2021
2166 Clouds 17 1028 82 10000 10.8 90 14:44 24.02.2021
2167 Clouds 17 1029 82 10000 11.32 90 14:26 24.02.2021
2168 Clouds 18 1030 72 10000 11.83 90 13:41 24.02.2021
2169 Clouds 18 1030 72 10000 11.83 90 13:23 24.02.2021
2170 Clouds 17 1030 77 10000 12.35 100 12:53 24.02.2021
2171 Clouds 17 1026 55 10000 13.89 80 12:33 24.02.2021
2172 Clouds 17 1030 77 10000 13.38 100 11:51 24.02.2021
2173 Clouds 17 1030 77 10000 12.35 90 11:24 24.02.2021
2174 Clouds 16 1030 77 10000 12.35 100 10:32 24.02.2021
2175 Clouds 16 1030 77 10000 11.32 110 09:56 24.02.2021
2176 Clouds 16 1027 67 10000 8.75 100 09:22 24.02.2021
2177 Clear 15 1027 67 10000 9.26 100 08:41 24.02.2021
2178 Clouds 15 1029 77 10000 13.38 100 08:22 24.02.2021
2179 Clear 15 1026 72 10000 9.26 80 07:21 24.02.2021
2180 Clear 16 1026 67 10000 10.29 90 06:52 24.02.2021
2181 Haze 15 1030 88 4500 16.98 100 04:23 24.02.2021
2182 Clear 14 1028 71 10000 7.72 80 00:43 24.02.2021
2183 Clouds 14 1031 72 10000 14.92 90 23:29 23.02.2021
2184 Clouds 14 1031 77 10000 13.89 90 22:42 23.02.2021
2185 Clear 14 1029 71 10000 7.72 80 22:20 23.02.2021
2186 Clear 15 1028 67 10000 8.23 90 21:46 23.02.2021
2187 Clear 14 1031 72 10000 12.86 90 21:24 23.02.2021
2188 Clear 14 1028 76 10000 6.17 80 20:49 23.02.2021
2189 Clear 15 1030 72 10000 12.86 90 20:29 23.02.2021
2190 Clear 15 1028 67 10000 7.72 80 19:48 23.02.2021
2191 Clear 16 1030 72 10000 13.38 90 19:28 23.02.2021
2192 Clouds 16 1030 67 10000 13.38 100 18:58 23.02.2021
2193 Clear 16 1028 55 10000 7.2 90 18:39 23.02.2021
2194 Clear 16 1028 51 10000 8.23 90 18:18 23.02.2021
2195 Clouds 17 1030 67 10000 9.26 90 17:39 23.02.2021
2196 Clear 18 1027 36 10000 9.77 80 16:56 23.02.2021
2197 Clouds 18 1030 67 10000 7.2 70 16:36 23.02.2021
2198 Clear 18 1027 42 10000 9.26 80 16:18 23.02.2021
2199 Clouds 18 1030 63 10000 7.72 80 15:40 23.02.2021
2200 Clouds 18 1030 63 10000 7.72 80 15:21 23.02.2021
2201 Clear 18 1028 45 10000 7.72 80 14:44 23.02.2021
2202 Clouds 18 1030 59 10000 8.23 80 14:25 23.02.2021
2203 Clear 18 1029 48 10000 7.2 90 13:47 23.02.2021
2204 Clouds 18 1031 51 10000 7.2 80 13:26 23.02.2021
2205 Clear 17 1031 48 10000 6.69 80 12:51 23.02.2021
2206 Clear 16 1029 51 10000 5.66 80 12:20 23.02.2021
2207 Clear 16 1031 58 10000 3.09 90 11:50 23.02.2021
2208 Clear 15 1031 62 10000 3.09 90 11:22 23.02.2021
2209 Clear 14 1030 54 10000 2.06 90 10:51 23.02.2021
2210 Clear 14 1029 67 10000 2.57 80 10:32 23.02.2021
2211 Clear 13 1028 82 10000 3.09 90 09:45 23.02.2021
2212 Clear 10 1029 71 10000 1.03 250 09:25 23.02.2021
2213 Clouds 9 1028 76 10000 1.54 240 08:51 23.02.2021
2214 Clouds 9 1028 76 10000 2.06 240 08:24 23.02.2021
2215 Clear 9 1027 100 10000 4.12 80 07:53 23.02.2021
2216 Clear 9 1027 76 10000 2.57 260 05:32 23.02.2021
2217 Clear 9 1027 93 10000 1.54 80 04:46 23.02.2021
2218 Clear 10 1027 82 10000 4.12 240 02:34 23.02.2021
2219 Clear 11 1026 100 10000 2.57 80 00:20 23.02.2021
2220 Clear 11 1026 93 10000 2.57 70 23:52 22.02.2021
2221 Clear 12 1026 93 10000 2.06 70 23:20 22.02.2021
2222 Clear 12 1026 93 10000 2.06 70 22:41 22.02.2021
2223 Clear 12 1026 93 10000 1.54 60 22:20 22.02.2021
2224 Clear 12 1026 93 10000 1.54 60 22:20 22.02.2021
2225 Clouds 12 1025 67 10000 4.63 280 21:41 22.02.2021
2226 Clouds 12 1025 67 10000 4.63 280 21:22 22.02.2021
2227 Clear 13 1025 87 10000 0.51 0 20:51 22.02.2021
2228 Clouds 14 1024 63 10000 4.12 280 20:27 22.02.2021
2229 Clear 15 1024 67 10000 1.54 210 19:51 22.02.2021
2230 Clear 15 1024 67 10000 1.54 210 19:31 22.02.2021
2231 Clouds 16 1023 55 10000 5.14 260 18:56 22.02.2021
2232 Clouds 15 1023 58 10000 2.06 230 18:37 22.02.2021
2233 Clouds 17 1023 55 10000 2.57 220 18:18 22.02.2021
2234 Clouds 17 1022 51 10000 5.14 260 17:24 22.02.2021
2235 Clouds 16 1022 55 10000 6.17 270 16:54 22.02.2021
2236 Clouds 17 1022 48 10000 5.66 260 16:31 22.02.2021
2237 Clouds 16 1022 51 10000 6.17 260 15:42 22.02.2021
2238 Clouds 16 1022 48 10000 5.14 260 15:21 22.02.2021
2239 Clouds 16 1022 67 10000 3.09 190 14:44 22.02.2021
2240 Clouds 16 1022 51 10000 5.14 260 14:22 22.02.2021
2241 Clouds 16 1023 48 10000 5.14 270 13:45 22.02.2021
2242 Clouds 14 1023 72 8000 3.09 170 12:56 22.02.2021
2243 Clouds 14 1023 67 10000 4.12 230 12:23 22.02.2021
2244 Clouds 13 1022 67 10000 3.09 210 11:57 22.02.2021
2245 Clouds 13 1022 67 10000 3.09 210 11:33 22.02.2021
2246 Clouds 12 1022 71 10000 3.09 300 10:59 22.02.2021
2247 Clouds 12 1022 71 10000 3.09 300 10:59 22.02.2021
2248 Clouds 12 1023 82 8000 2.06 150 10:41 22.02.2021
2249 Clouds 12 1022 71 10000 3.09 300 10:21 22.02.2021
2250 Clouds 11 1022 87 8000 3.09 160 09:39 22.02.2021
2251 Clouds 11 1022 100 10000 1.54 90 09:21 22.02.2021
2252 Clouds 11 1022 100 10000 1.54 90 09:21 22.02.2021
2253 Clouds 11 1021 100 10000 2.57 100 08:49 22.02.2021
2254 Rain 11 1020 76 10000 5.14 260 08:21 22.02.2021
2255 Rain 10 1020 100 10000 4.12 360 07:48 22.02.2021
2256 Rain 11 1020 93 10000 2.06 0 07:22 22.02.2021
2257 Clouds 11 1019 71 10000 4.12 260 06:27 22.02.2021
2258 Rain 12 1019 71 10000 4.63 310 04:55 22.02.2021
2259 Clear 13 1018 67 10000 6.69 280 03:23 22.02.2021
2260 Clouds 13 1016 71 10000 8.75 270 00:56 22.02.2021
2261 Clouds 13 1016 71 10000 8.75 270 00:30 22.02.2021
2262 Clouds 13 1016 71 10000 7.2 270 23:57 21.02.2021
2263 Clouds 13 1016 71 10000 7.2 270 23:25 21.02.2021
2264 Clouds 13 1015 76 10000 8.75 260 22:36 21.02.2021
2265 Clouds 14 1015 62 10000 8.75 270 21:53 21.02.2021
2266 Clouds 14 1014 67 10000 7.2 250 21:34 21.02.2021
2267 Clouds 14 1014 67 10000 7.2 250 21:34 21.02.2021
2268 Clouds 14 1013 67 10000 7.2 240 20:58 21.02.2021
2269 Clouds 14 1013 67 10000 7.2 240 20:38 21.02.2021
2270 Clouds 14 1014 67 10000 7.2 270 20:18 21.02.2021
2271 Clouds 13 1013 71 10000 4.63 260 19:44 21.02.2021
2272 Clouds 14 1011 67 10000 10.8 260 19:24 21.02.2021
2273 Clouds 14 1010 62 10000 12.86 280 18:30 21.02.2021
2274 Clouds 14 1009 67 10000 10.29 280 17:59 21.02.2021
2275 Clouds 14 1009 67 10000 10.29 280 17:28 21.02.2021
2276 Clouds 15 1008 72 10000 10.8 260 16:53 21.02.2021
2277 Clouds 15 1010 63 10000 9.26 270 16:32 21.02.2021
2278 Clouds 14 1009 77 10000 8.23 260 15:47 21.02.2021
2279 Clouds 14 1009 77 10000 8.75 260 15:20 21.02.2021
2280 Clouds 13 1008 88 10000 6.17 260 14:42 21.02.2021
2281 Clouds 13 1007 82 10000 5.14 280 14:21 21.02.2021
2282 Clouds 14 1008 88 10000 7.2 270 13:45 21.02.2021
2283 Rain 13 1007 82 10000 5.14 230 13:22 21.02.2021
2284 Clouds 12 1007 87 3000 6.69 210 12:29 21.02.2021
2285 Rain 13 1007 100 10000 3.09 170 11:44 21.02.2021
2286 Clouds 14 1006 82 7000 1.03 250 10:58 21.02.2021
2287 Rain 15 1006 82 9000 1.54 10 10:23 21.02.2021
2288 Rain 15 1006 82 9000 2.57 140 09:55 21.02.2021
2289 Haze 15 1006 82 9000 3.09 120 09:29 21.02.2021
2290 Clouds 15 1005 88 8000 5.14 230 08:54 21.02.2021
2291 Clouds 16 1006 72 10000 6.17 220 08:20 21.02.2021
2292 Clouds 16 1007 77 10000 1.03 100 07:35 21.02.2021
2293 Clouds 15 1006 72 10000 1.54 120 06:53 21.02.2021
2294 Clouds 16 1008 82 10000 5.66 250 03:36 21.02.2021
2295 Clouds 15 1010 88 10000 6.69 80 02:29 21.02.2021
2296 Clear 14 1008 82 10000 4.63 80 00:43 21.02.2021
2297 Clear 15 1008 82 10000 5.66 70 00:19 21.02.2021
2298 Clear 15 1008 82 10000 6.17 80 23:20 20.02.2021
2299 Clear 15 1008 82 10000 6.69 90 22:41 20.02.2021
2300 Clouds 15 1011 77 10000 10.29 80 22:23 20.02.2021
2301 Clear 15 1008 88 10000 6.17 90 21:44 20.02.2021
2302 Clouds 15 1012 77 10000 8.75 80 21:24 20.02.2021
2303 Clear 15 1009 82 10000 6.69 90 20:42 20.02.2021
2304 Clouds 16 1012 77 10000 9.77 80 20:21 20.02.2021
2305 Clear 16 1009 82 10000 4.12 90 19:52 20.02.2021
2306 Clouds 16 1013 77 10000 7.2 80 19:27 20.02.2021
2307 Clouds 17 1013 77 10000 7.72 90 18:39 20.02.2021
2308 Clear 18 1010 68 10000 4.12 80 18:20 20.02.2021
2309 Clouds 17 1013 72 10000 7.72 80 17:38 20.02.2021
2310 Clouds 18 1013 77 10000 6.17 70 16:55 20.02.2021
2311 Clear 18 1010 64 10000 3.6 40 16:32 20.02.2021
2312 Clear 19 1011 60 10000 5.14 40 15:47 20.02.2021
2313 Clouds 19 1015 77 10000 7.72 70 15:23 20.02.2021
2314 Clear 20 1012 53 10000 3.6 60 14:46 20.02.2021
2315 Clouds 19 1016 77 10000 6.17 70 14:23 20.02.2021
2316 Clear 19 1013 56 10000 3.6 110 13:41 20.02.2021
2317 Clouds 19 1017 77 10000 6.69 90 13:23 20.02.2021
2318 Clear 18 1014 68 10000 4.12 90 12:50 20.02.2021
2319 Haze 17 1017 82 9000 6.69 70 12:23 20.02.2021
2320 Clear 17 1015 72 10000 5.66 100 11:43 20.02.2021
2321 Clouds 16 1018 82 10000 6.69 70 11:24 20.02.2021
2322 Clear 16 1015 77 10000 5.14 90 10:47 20.02.2021
2323 Clear 15 1016 82 10000 5.14 80 09:54 20.02.2021
2324 Clouds 14 1017 82 10000 6.69 70 09:22 20.02.2021
2325 Haze 13 1017 82 9000 5.14 70 08:34 20.02.2021
2326 Clouds 13 1015 100 6000 5.14 90 07:55 20.02.2021
2327 Clouds 13 1016 100 6000 4.63 70 02:46 20.02.2021
2328 Clouds 14 1018 77 10000 4.12 90 02:22 20.02.2021
2329 Clouds 13 1017 100 7000 2.57 100 01:48 20.02.2021
2330 Clouds 13 1017 100 7000 2.57 90 00:45 20.02.2021
2331 Clouds 13 1018 100 7000 2.57 70 23:51 19.02.2021
2332 Clouds 14 1019 77 10000 3.6 110 22:56 19.02.2021
2333 Clouds 14 1019 77 10000 3.6 110 22:27 19.02.2021
2334 Clear 14 1017 100 10000 3.09 70 21:50 19.02.2021
2335 Clouds 15 1019 77 10000 4.63 100 21:30 19.02.2021
2336 Clear 15 1017 100 10000 2.57 90 20:48 19.02.2021
2337 Clouds 15 1019 77 10000 3.09 100 20:28 19.02.2021
2338 Clear 15 1017 100 10000 2.06 40 19:55 19.02.2021
2339 Clouds 15 1019 82 10000 3.09 110 19:24 19.02.2021
2340 Clouds 17 1019 72 10000 3.6 110 18:56 19.02.2021
2341 Clouds 17 1019 72 10000 3.6 110 18:33 19.02.2021
2342 Clear 17 1017 77 10000 3.09 40 17:49 19.02.2021
2343 Clouds 17 1017 77 8000 2.57 40 16:52 19.02.2021
2344 Clouds 17 1019 72 10000 4.63 90 16:27 19.02.2021
2345 Clouds 17 1019 72 10000 3.6 100 15:57 19.02.2021
2346 Clouds 17 1019 72 10000 3.6 100 15:31 19.02.2021
2347 Clouds 17 1020 67 10000 3.09 90 14:56 19.02.2021
2348 Clouds 17 1020 67 10000 4.12 100 14:36 19.02.2021
2349 Clouds 17 1020 72 10000 2.57 110 13:58 19.02.2021
2350 Clouds 17 1019 82 7000 2.57 280 13:37 19.02.2021
2351 Clouds 17 1019 94 6000 2.06 270 13:19 19.02.2021
2352 Clouds 16 1020 100 5000 3.09 290 12:41 19.02.2021
2353 Haze 16 1021 77 9000 3.09 50 12:22 19.02.2021
2354 Clouds 16 1020 94 6000 0.51 0 11:44 19.02.2021
2355 Clouds 15 1020 100 6000 0.51 0 11:20 19.02.2021
2356 Haze 14 1021 94 8000 0.51 110 10:39 19.02.2021
2357 Clouds 14 1020 100 5000 0.51 0 10:19 19.02.2021
2358 Haze 11 1021 94 6000 1.03 250 09:37 19.02.2021
2359 Haze 11 1021 94 6000 1.03 250 09:37 19.02.2021
2360 Haze 11 1021 94 6000 1.03 250 09:37 19.02.2021
2361 Mist 11 1020 100 1500 1.54 90 09:18 19.02.2021
2362 Mist 10 1019 100 1500 1.03 90 08:42 19.02.2021
2363 Haze 10 1020 94 7000 2.57 280 08:21 19.02.2021
2364 Mist 10 1019 100 1500 2.06 90 07:45 19.02.2021
2365 Haze 10 1020 94 10000 1.54 240 07:25 19.02.2021
2366 Fog 10 1019 100 800 1.54 60 06:44 19.02.2021
2367 Fog 10 1019 100 200 3.6 80 04:42 19.02.2021
2368 Mist 10 1020 100 3000 2.06 80 02:50 19.02.2021
2369 Clear 11 1019 82 10000 3.6 270 01:33 19.02.2021
2370 Clear 12 1020 82 10000 3.6 260 00:35 19.02.2021
2371 Mist 11 1020 100 4000 1.54 50 23:47 18.02.2021
2372 Clear 12 1020 77 10000 3.6 250 23:29 18.02.2021
2373 Clear 14 1020 67 10000 3.6 230 22:38 18.02.2021
2374 Clear 14 1020 100 8000 1.54 70 22:18 18.02.2021
2375 Clear 14 1019 67 10000 4.63 230 21:40 18.02.2021
2376 Clear 14 1019 67 10000 4.63 230 21:21 18.02.2021
2377 Clear 15 1019 67 10000 4.12 230 20:40 18.02.2021
2378 Clear 15 1019 67 10000 4.12 230 20:21 18.02.2021
2379 Clear 15 1019 94 10000 0.51 0 19:44 18.02.2021
2380 Clear 16 1019 67 10000 5.14 210 19:21 18.02.2021
2381 Clear 16 1019 72 10000 5.14 220 18:50 18.02.2021
2382 Clear 17 1018 72 10000 4.12 220 18:26 18.02.2021
2383 Clouds 17 1018 68 10000 5.14 210 17:52 18.02.2021
2384 Clouds 17 1018 68 10000 5.66 200 17:25 18.02.2021
2385 Clouds 17 1019 77 10000 1.54 0 16:47 18.02.2021
2386 Clouds 17 1018 63 10000 4.63 220 16:29 18.02.2021
2387 Clouds 17 1019 82 10000 2.57 260 15:43 18.02.2021
2388 Clear 18 1019 59 10000 3.09 210 15:24 18.02.2021
2389 Clear 17 1019 63 10000 3.09 210 14:55 18.02.2021
2390 Clouds 17 1019 77 8000 2.57 260 14:34 18.02.2021
2391 Clouds 16 1020 72 10000 3.6 200 13:50 18.02.2021
2392 Clouds 16 1020 72 10000 3.6 200 13:50 18.02.2021
2393 Clouds 16 1021 72 10000 3.09 210 13:22 18.02.2021
2394 Clouds 15 1021 72 10000 2.57 250 12:55 18.02.2021
2395 Clouds 15 1021 82 6000 1.54 0 12:33 18.02.2021
2396 Clouds 14 1021 82 10000 1.03 260 11:47 18.02.2021
2397 Clouds 14 1021 82 10000 1.03 260 11:47 18.02.2021
2398 Fog 14 1021 82 7000 2.06 260 11:28 18.02.2021
2399 Fog 13 1021 87 6000 1.03 250 10:58 18.02.2021
2400 Fog 12 1020 93 5000 1.54 260 10:37 18.02.2021
2401 Mist 12 1020 100 2000 1.54 170 10:19 18.02.2021
2402 Haze 11 1020 93 7000 1.03 240 09:31 18.02.2021
2403 Mist 11 1019 100 2000 1.03 0 08:50 18.02.2021
2404 Clouds 11 1019 87 10000 1.54 260 08:31 18.02.2021
2405 Mist 10 1019 100 2000 2.06 100 07:49 18.02.2021
2406 Clouds 10 1019 93 10000 1.03 220 07:24 18.02.2021
2407 Mist 11 1018 100 3000 2.06 80 06:18 18.02.2021
2408 Clouds 12 1020 82 10000 1.54 60 00:40 18.02.2021
2409 Clear 12 1019 93 10000 1.54 60 23:45 17.02.2021
2410 Clear 12 1019 93 10000 2.06 90 23:18 17.02.2021
2411 Clear 14 1020 82 10000 2.06 110 22:39 17.02.2021
2412 Clear 14 1020 82 10000 2.06 110 22:21 17.02.2021
2413 Clear 14 1018 82 10000 3.6 60 21:44 17.02.2021
2414 Clear 14 1018 77 10000 5.66 50 21:20 17.02.2021
2415 Clear 14 1018 77 10000 4.12 50 20:42 17.02.2021
2416 Clear 14 1018 77 10000 4.12 40 20:22 17.02.2021
2417 Clear 14 1018 77 10000 3.6 40 19:38 17.02.2021
2418 Clouds 16 1020 72 10000 2.57 100 18:59 17.02.2021
2419 Clear 16 1018 67 10000 5.66 70 18:40 17.02.2021
2420 Clear 16 1019 67 10000 6.17 30 17:47 17.02.2021
2421 Clouds 16 1020 72 10000 4.12 100 17:23 17.02.2021
2422 Clouds 17 1021 72 10000 3.09 100 16:54 17.02.2021
2423 Clouds 16 1021 72 10000 3.09 110 16:29 17.02.2021
2424 Clouds 17 1021 67 10000 3.6 100 15:59 17.02.2021
2425 Clear 18 1019 63 10000 4.12 30 15:40 17.02.2021
2426 Clouds 18 1021 67 10000 3.6 90 15:21 17.02.2021
2427 Clear 18 1020 63 10000 2.57 60 14:44 17.02.2021
2428 Clouds 17 1022 72 10000 4.12 90 14:25 17.02.2021
2429 Clear 18 1021 59 10000 1.54 100 13:43 17.02.2021
2430 Clouds 16 1024 72 10000 4.12 100 12:59 17.02.2021
2431 Clouds 16 1024 72 10000 3.09 80 12:26 17.02.2021
2432 Clouds 15 1024 82 10000 3.09 60 11:50 17.02.2021
2433 Clouds 15 1024 82 10000 3.09 50 11:30 17.02.2021
2434 Clouds 15 1024 82 10000 3.09 60 10:59 17.02.2021
2435 Clear 15 1022 82 10000 3.6 90 10:40 17.02.2021
2436 Clear 14 1022 88 10000 3.09 90 10:20 17.02.2021
2437 Clear 13 1022 87 10000 2.57 80 09:41 17.02.2021
2438 Clear 13 1022 93 10000 4.63 80 09:18 17.02.2021
2439 Clear 12 1022 100 10000 4.63 80 08:42 17.02.2021
2440 Clear 12 1022 100 10000 3.6 90 08:20 17.02.2021
2441 Clouds 13 1024 82 10000 2.57 40 07:24 17.02.2021
2442 Clear 12 1023 93 10000 3.6 100 03:55 17.02.2021
2443 Clouds 11 1025 94 10000 2.06 10 02:33 17.02.2021
2444 Clear 12 1024 93 10000 4.63 90 01:49 17.02.2021
2445 Clouds 12 1026 82 10000 2.57 30 00:30 17.02.2021
2446 Clear 12 1024 93 10000 4.12 90 23:50 16.02.2021
2447 Clear 12 1024 93 10000 4.12 90 23:32 16.02.2021
2448 Clear 13 1024 87 10000 3.09 100 22:42 16.02.2021
2449 Clouds 13 1026 82 10000 3.09 90 22:22 16.02.2021
2450 Clear 13 1024 94 10000 3.09 80 21:41 16.02.2021
2451 Clouds 14 1026 82 10000 2.57 120 21:22 16.02.2021
2452 Clouds 14 1026 82 10000 2.57 120 20:58 16.02.2021
2453 Clouds 14 1026 82 10000 2.57 120 20:38 16.02.2021
2454 Clear 14 1024 88 10000 3.09 90 20:20 16.02.2021
2455 Clear 15 1024 82 10000 3.6 70 19:40 16.02.2021
2456 Clouds 15 1026 77 10000 3.09 110 19:21 16.02.2021
2457 Clouds 17 1026 77 10000 3.6 100 18:40 16.02.2021
2458 Clouds 17 1026 77 10000 3.6 100 18:21 16.02.2021
2459 Clear 18 1024 60 10000 5.14 80 17:49 16.02.2021
2460 Clouds 18 1026 77 10000 5.14 100 17:23 16.02.2021
2461 Clear 18 1024 56 10000 5.66 70 16:51 16.02.2021
2462 Clouds 18 1027 67 10000 5.14 90 16:24 16.02.2021
2463 Clear 18 1025 60 10000 7.2 70 15:47 16.02.2021
2464 Clear 18 1025 60 10000 7.2 70 15:47 16.02.2021
2465 Clouds 17 1028 72 10000 5.66 80 15:26 16.02.2021
2466 Clear 17 1025 59 10000 7.72 80 14:48 16.02.2021
2467 Clouds 17 1029 72 10000 5.66 80 14:30 16.02.2021
2468 Clouds 17 1029 72 10000 5.66 70 13:57 16.02.2021
2469 Clouds 17 1029 72 10000 5.66 70 13:34 16.02.2021
2470 Clear 17 1027 63 10000 7.72 90 12:46 16.02.2021
2471 Clouds 17 1030 77 10000 6.17 60 12:25 16.02.2021
2472 Clear 16 1027 67 10000 8.75 80 11:50 16.02.2021
2473 Clouds 16 1030 77 10000 6.17 60 11:24 16.02.2021
2474 Clouds 16 1030 77 10000 6.17 60 10:56 16.02.2021
2475 Clear 16 1027 72 10000 7.72 80 10:38 16.02.2021
2476 Clear 15 1027 77 10000 7.72 90 10:20 16.02.2021
2477 Clear 15 1026 77 10000 7.72 80 09:47 16.02.2021
2478 Clear 15 1026 77 10000 7.72 80 09:47 16.02.2021
2479 Clouds 15 1029 72 10000 7.2 90 09:26 16.02.2021
2480 Clear 14 1026 82 10000 7.2 80 08:42 16.02.2021
2481 Clouds 14 1029 77 10000 7.72 80 08:21 16.02.2021
2482 Clouds 14 1029 77 10000 8.23 90 07:25 16.02.2021
2483 Clouds 15 1029 77 10000 10.29 80 05:31 16.02.2021
2484 Clear 15 1027 77 10000 9.26 80 00:51 16.02.2021
2485 Clear 14 1027 82 10000 9.77 80 23:41 15.02.2021
2486 Clear 15 1027 82 10000 9.26 80 23:20 15.02.2021
2487 Clear 14 1027 82 10000 9.26 80 22:44 15.02.2021
2488 Clouds 15 1031 77 10000 12.86 90 22:21 15.02.2021
2489 Clear 14 1027 82 10000 9.77 80 21:42 15.02.2021
2490 Clear 15 1027 77 10000 9.26 80 21:21 15.02.2021
2491 Clear 15 1027 77 10000 8.75 80 20:47 15.02.2021
2492 Clouds 15 1030 77 10000 12.35 90 20:26 15.02.2021
2493 Clouds 15 1030 77 10000 12.35 90 20:26 15.02.2021
2494 Clouds 15 1030 77 10000 12.35 90 19:44 15.02.2021
2495 Clouds 15 1030 77 10000 12.35 90 19:23 15.02.2021
2496 Clear 16 1026 67 10000 11.32 80 18:47 15.02.2021
2497 Clouds 16 1030 72 10000 12.86 90 18:26 15.02.2021
2498 Clear 17 1025 63 10000 13.38 80 17:43 15.02.2021
2499 Clouds 17 1031 72 10000 10.29 90 17:25 15.02.2021
2500 Clouds 17 1031 72 10000 10.29 90 16:57 15.02.2021
2501 Clouds 17 1031 72 10000 11.32 90 16:28 15.02.2021
2502 Clouds 18 1031 72 10000 11.32 90 15:52 15.02.2021
2503 Clouds 18 1031 72 10000 9.26 90 15:25 15.02.2021
2504 Clouds 18 1032 72 10000 9.26 90 14:59 15.02.2021
2505 Clouds 17 1032 72 10000 9.26 90 14:36 15.02.2021
2506 Clear 18 1026 59 10000 12.86 80 14:18 15.02.2021
2507 Clear 18 1026 59 10000 13.38 80 13:45 15.02.2021
2508 Clear 17 1027 63 10000 12.86 80 13:19 15.02.2021
2509 Clear 17 1027 63 10000 12.86 80 12:44 15.02.2021
2510 Clear 17 1027 59 10000 11.32 80 12:20 15.02.2021
2511 Clear 17 1027 63 10000 11.32 90 11:42 15.02.2021
2512 Clear 17 1027 63 10000 11.32 90 11:19 15.02.2021
2513 Clear 16 1027 67 10000 11.32 90 10:47 15.02.2021
2514 Clouds 16 1032 77 10000 11.32 90 10:24 15.02.2021
2515 Clear 15 1027 72 10000 10.8 80 09:55 15.02.2021
2516 Clouds 15 1031 77 10000 11.83 90 09:33 15.02.2021
2517 Clouds 15 1030 77 10000 11.83 90 08:45 15.02.2021
2518 Clouds 15 1030 77 10000 11.32 90 07:40 15.02.2021
2519 Clouds 15 1030 77 10000 11.32 90 06:58 15.02.2021
2520 Clouds 15 1030 77 10000 11.32 90 06:37 15.02.2021
2521 Clouds 15 1031 82 10000 14.4 90 02:30 15.02.2021
2522 Clear 15 1026 72 10000 11.83 80 00:45 15.02.2021
2523 Clouds 15 1031 82 10000 11.83 90 23:34 14.02.2021
2524 Clear 15 1026 67 10000 11.32 80 22:55 14.02.2021
2525 Clouds 15 1030 88 10000 12.86 80 22:36 14.02.2021
2526 Clear 15 1026 67 10000 10.8 80 22:18 14.02.2021
2527 Clear 15 1025 72 10000 11.32 80 21:43 14.02.2021
2528 Clouds 15 1030 88 10000 11.32 90 21:23 14.02.2021
2529 Clouds 15 1030 88 10000 11.32 90 21:23 14.02.2021
2530 Clear 15 1025 72 10000 10.29 80 20:42 14.02.2021
2531 Clouds 15 1029 88 10000 11.83 90 20:22 14.02.2021
2532 Clouds 16 1029 82 10000 12.86 90 19:40 14.02.2021
2533 Clear 16 1024 67 10000 11.83 80 18:51 14.02.2021
2534 Clear 16 1024 67 10000 11.83 80 18:51 14.02.2021
2535 Clouds 17 1028 82 10000 8.23 90 18:29 14.02.2021
2536 Clear 17 1024 52 10000 11.32 70 17:51 14.02.2021
2537 Clear 17 1024 52 10000 11.32 70 17:33 14.02.2021
2538 Clear 18 1024 52 10000 11.83 80 16:48 14.02.2021
2539 Clouds 18 1028 82 10000 9.26 80 16:25 14.02.2021
2540 Clear 18 1023 49 10000 11.32 80 15:49 14.02.2021
2541 Clouds 18 1028 82 10000 9.26 90 15:29 14.02.2021
2542 Clear 18 1024 45 10000 10.29 80 14:45 14.02.2021
2543 Clouds 18 1028 77 10000 9.77 90 14:25 14.02.2021
2544 Clear 19 1024 46 10000 9.26 80 13:42 14.02.2021
2545 Clouds 19 1028 72 10000 7.2 90 13:23 14.02.2021
2546 Clouds 19 1028 67 10000 7.2 90 12:24 14.02.2021
2547 Clouds 17 1028 72 10000 6.17 90 11:59 14.02.2021
2548 Clear 17 1024 55 10000 11.83 80 11:40 14.02.2021
2549 Clear 17 1024 48 10000 10.29 80 11:20 14.02.2021
2550 Clouds 15 1027 77 10000 2.57 40 10:24 14.02.2021
2551 Clouds 13 1026 82 10000 2.57 30 09:40 14.02.2021
2552 Clouds 13 1026 82 10000 2.57 30 09:21 14.02.2021
2553 Clouds 13 1026 87 10000 1.03 270 08:57 14.02.2021
2554 Clouds 12 1025 82 10000 1.03 60 07:59 14.02.2021
2555 Clear 12 1023 71 10000 4.12 50 07:19 14.02.2021
2556 Clouds 12 1025 76 10000 3.09 30 06:26 14.02.2021
2557 Clear 11 1025 82 10000 0.51 230 03:59 14.02.2021
2558 Clear 13 1025 82 10000 2.57 240 02:29 14.02.2021
2559 Clouds 13 1025 76 10000 1.03 260 00:59 14.02.2021
2560 Clear 12 1024 62 10000 3.09 50 00:41 14.02.2021
2561 Clear 13 1024 76 10000 1.54 80 23:49 13.02.2021
2562 Clouds 14 1025 82 10000 0.51 290 23:25 13.02.2021
2563 Clear 14 1024 67 10000 2.06 110 22:51 13.02.2021
2564 Clouds 14 1025 72 10000 0.51 90 22:22 13.02.2021
2565 Clear 14 1024 76 10000 1.54 70 21:49 13.02.2021
2566 Clouds 14 1025 55 10000 1.03 30 21:26 13.02.2021
2567 Clear 15 1024 67 10000 1.54 60 20:44 13.02.2021
2568 Clouds 16 1024 48 10000 1.03 40 20:24 13.02.2021
2569 Clear 16 1024 55 10000 1.54 100 19:48 13.02.2021
2570 Clouds 18 1024 45 10000 0.51 240 19:23 13.02.2021
2571 Clear 18 1023 45 10000 1.54 60 18:49 13.02.2021
2572 Clear 18 1024 48 10000 1.03 220 18:24 13.02.2021
2573 Clear 18 1023 51 10000 3.6 20 17:43 13.02.2021
2574 Clear 19 1024 39 10000 1.54 190 17:23 13.02.2021
2575 Clear 20 1024 32 10000 2.06 210 16:48 13.02.2021
2576 Clear 20 1024 30 10000 1.03 100 16:30 13.02.2021
2577 Clear 19 1024 30 10000 2.06 220 15:42 13.02.2021
2578 Clear 19 1025 30 10000 2.06 200 15:24 13.02.2021
2579 Clear 19 1025 30 10000 1.03 70 14:33 13.02.2021
2580 Clear 18 1025 72 10000 4.12 280 13:49 13.02.2021
2581 Clear 17 1026 48 10000 0.51 290 13:26 13.02.2021
2582 Clear 17 1026 51 10000 1.54 290 12:52 13.02.2021
2583 Clear 16 1025 67 10000 1.03 0 12:20 13.02.2021
2584 Clear 15 1025 77 10000 1.03 0 11:47 13.02.2021
2585 Clear 15 1025 62 10000 1.03 250 11:21 13.02.2021
2586 Clear 13 1025 76 10000 3.09 270 10:56 13.02.2021
2587 Clear 12 1025 76 10000 3.09 270 10:38 13.02.2021
2588 Clear 12 1025 100 10000 1.54 80 10:19 13.02.2021
2589 Clouds 11 1025 100 8000 1.54 70 09:45 13.02.2021
2590 Clear 10 1025 76 10000 4.12 250 09:21 13.02.2021
2591 Clouds 9 1025 100 5000 2.06 60 08:41 13.02.2021
2592 Mist 10 1025 100 4000 3.09 90 07:54 13.02.2021
2593 Mist 11 1024 93 4000 2.06 80 06:42 13.02.2021
2594 Mist 11 1024 100 4000 2.57 80 06:19 13.02.2021
2595 Mist 11 1024 100 4000 1.54 150 04:19 13.02.2021
2596 Clear 12 1024 82 10000 5.66 280 01:57 13.02.2021
2597 Clear 12 1025 93 5000 2.57 80 00:51 13.02.2021
2598 Clear 12 1025 100 5000 2.57 90 23:55 12.02.2021
2599 Clear 13 1024 77 10000 7.2 270 23:31 12.02.2021
2600 Clear 13 1024 77 10000 6.69 280 22:58 12.02.2021
2601 Clear 13 1024 77 10000 6.69 280 22:29 12.02.2021
2602 Clear 13 1025 87 6000 0.51 0 21:50 12.02.2021
2603 Clear 14 1024 77 10000 6.17 280 21:29 12.02.2021
2604 Clear 14 1025 87 8000 0.51 0 20:55 12.02.2021
2605 Clear 14 1025 87 8000 0.51 0 20:37 12.02.2021
2606 Clear 15 1025 82 8000 1.03 0 20:18 12.02.2021
2607 Clear 15 1025 88 8000 1.03 0 19:43 12.02.2021
2608 Clouds 17 1023 59 10000 7.2 280 19:25 12.02.2021
2609 Clouds 18 1023 52 10000 6.17 280 18:30 12.02.2021
2610 Clouds 19 1024 77 10000 3.09 270 17:47 12.02.2021
2611 Clear 18 1022 52 10000 5.14 280 17:22 12.02.2021
2612 Clouds 19 1024 68 10000 3.09 280 16:35 12.02.2021
2613 Clouds 19 1023 49 10000 5.14 290 15:47 12.02.2021
2614 Clouds 19 1023 52 10000 6.17 290 15:21 12.02.2021
2615 Clouds 18 1024 82 8000 4.63 230 14:42 12.02.2021
2616 Clouds 18 1023 63 10000 7.2 270 14:23 12.02.2021
2617 Clouds 17 1025 88 8000 4.12 210 13:41 12.02.2021
2618 Clouds 18 1024 68 10000 6.69 260 13:22 12.02.2021
2619 Drizzle 17 1025 94 4000 3.09 200 12:47 12.02.2021
2620 Clouds 17 1024 77 10000 6.69 260 12:28 12.02.2021
2621 Drizzle 16 1025 94 5000 3.09 180 11:42 12.02.2021
2622 Clouds 16 1025 94 8000 3.09 180 11:19 12.02.2021
2623 Clouds 15 1025 100 8000 3.09 190 10:41 12.02.2021
2624 Clouds 15 1024 94 8000 3.09 180 09:49 12.02.2021
2625 Clouds 15 1023 88 10000 5.14 260 09:29 12.02.2021
2626 Clouds 14 1023 100 6000 3.09 180 08:49 12.02.2021
2627 Clouds 15 1022 94 10000 4.12 230 08:28 12.02.2021
2628 Clouds 15 1022 82 10000 4.12 250 07:57 12.02.2021
2629 Clouds 15 1022 82 10000 4.12 250 07:32 12.02.2021
2630 Clouds 15 1023 100 4000 2.57 180 06:55 12.02.2021
2631 Clouds 15 1023 100 4000 2.57 180 06:55 12.02.2021
2632 Clouds 15 1023 100 4000 2.57 180 06:55 12.02.2021
2633 Mist 15 1023 100 4000 2.57 180 05:47 12.02.2021
2634 Clouds 15 1022 82 10000 6.69 280 04:31 12.02.2021
2635 Clouds 15 1021 88 10000 6.17 280 01:32 12.02.2021
2636 Mist 15 1022 100 2500 1.03 0 23:41 11.02.2021
2637 Clouds 15 1021 82 10000 6.17 260 23:22 11.02.2021
2638 Mist 16 1022 100 2500 1.03 200 22:46 11.02.2021
2639 Clouds 16 1021 82 10000 7.72 270 22:24 11.02.2021
2640 Clouds 16 1021 82 10000 8.23 260 21:57 11.02.2021
2641 Clouds 16 1021 82 10000 8.23 260 21:36 11.02.2021
2642 Mist 16 1021 100 4000 1.03 0 21:18 11.02.2021
2643 Mist 16 1021 100 4000 2.06 290 20:41 11.02.2021
2644 Clouds 16 1020 77 10000 8.75 270 20:21 11.02.2021
2645 Mist 16 1021 100 4000 2.57 290 19:47 11.02.2021
2646 Clouds 16 1020 72 10000 6.69 260 19:28 11.02.2021
2647 Mist 17 1021 100 4000 2.06 300 18:49 11.02.2021
2648 Clouds 17 1019 64 10000 7.2 250 18:25 11.02.2021
2649 Mist 18 1020 88 5000 2.57 290 17:51 11.02.2021
2650 Clouds 18 1019 68 10000 6.69 270 17:22 11.02.2021
2651 Clouds 18 1020 94 8000 3.6 290 16:53 11.02.2021
2652 Clouds 18 1019 63 10000 7.2 270 16:34 11.02.2021
2653 Clouds 18 1019 63 10000 7.2 270 16:34 11.02.2021
2654 Clouds 18 1020 88 7000 3.09 280 15:58 11.02.2021
2655 Clouds 18 1019 63 10000 5.66 280 15:38 11.02.2021
2656 Clouds 18 1020 88 6000 2.57 260 15:20 11.02.2021
2657 Clouds 19 1020 63 10000 6.17 270 14:38 11.02.2021
2658 Clouds 19 1021 82 8000 2.57 260 14:19 11.02.2021
2659 Clouds 19 1021 68 10000 5.66 280 13:37 11.02.2021
2660 Clouds 19 1021 77 10000 2.06 260 13:18 11.02.2021
2661 Clouds 18 1021 72 10000 5.14 270 12:37 11.02.2021
2662 Clouds 18 1021 72 10000 5.14 270 11:58 11.02.2021
2663 Clouds 18 1021 72 10000 5.14 270 11:40 11.02.2021
2664 Clouds 17 1022 82 10000 1.03 0 11:20 11.02.2021
2665 Clouds 17 1022 82 10000 0.51 0 10:42 11.02.2021
2666 Clouds 16 1021 82 10000 3.09 250 10:22 11.02.2021
2667 Clouds 15 1021 88 10000 3.09 260 09:42 11.02.2021
2668 Clouds 15 1021 100 8000 1.03 0 09:19 11.02.2021
2669 Clouds 15 1021 94 6000 1.54 100 08:49 11.02.2021
2670 Clouds 15 1021 94 8000 1.03 0 07:54 11.02.2021
2671 Clouds 13 1021 93 8000 1.03 320 06:48 11.02.2021
2672 Clouds 14 1020 82 10000 4.63 270 06:25 11.02.2021
2673 Clouds 15 1021 94 8000 1.03 0 03:47 11.02.2021
2674 Clouds 15 1021 82 10000 6.17 270 02:26 11.02.2021
2675 Clouds 16 1021 82 10000 6.17 270 00:24 11.02.2021
2676 Clouds 16 1020 82 10000 7.2 260 23:59 10.02.2021
2677 Clouds 16 1020 82 10000 7.2 260 23:28 10.02.2021
2678 Clouds 16 1021 94 8000 3.09 170 22:48 10.02.2021
2679 Clouds 16 1020 82 10000 7.72 280 22:24 10.02.2021
2680 Clouds 16 1021 88 8000 2.57 190 21:40 10.02.2021
2681 Clouds 17 1020 77 10000 8.23 270 21:21 10.02.2021
2682 Clouds 16 1020 94 10000 3.09 210 20:52 10.02.2021
2683 Clouds 17 1019 77 10000 7.72 250 20:29 10.02.2021
2684 Clouds 17 1018 77 10000 11.83 260 19:57 10.02.2021
2685 Clouds 17 1018 77 10000 11.83 260 19:39 10.02.2021
2686 Clouds 17 1020 94 10000 4.63 220 19:19 10.02.2021
2687 Clouds 17 1020 88 10000 3.6 210 18:36 10.02.2021
2688 Clouds 17 1020 88 10000 4.63 210 18:18 10.02.2021
2689 Clouds 17 1020 88 10000 5.14 210 17:44 10.02.2021
2690 Clouds 17 1019 88 10000 5.14 210 17:21 10.02.2021
2691 Clouds 17 1019 88 10000 5.14 210 17:21 10.02.2021
2692 Clouds 18 1019 82 10000 4.63 200 16:48 10.02.2021
2693 Clouds 18 1018 77 8000 6.69 240 16:28 10.02.2021
2694 Clouds 17 1018 88 10000 5.14 240 15:39 10.02.2021
2695 Clouds 17 1018 88 10000 5.14 240 15:21 10.02.2021
2696 Clouds 17 1018 82 8000 5.66 240 14:39 10.02.2021
2697 Clouds 18 1018 88 8000 9.26 240 13:55 10.02.2021
2698 Clouds 18 1018 82 7000 9.26 240 13:31 10.02.2021
2699 Clouds 18 1018 77 10000 9.77 240 12:55 10.02.2021
2700 Clouds 18 1017 77 10000 9.77 240 12:31 10.02.2021
2701 Clouds 18 1017 72 10000 10.8 250 11:59 10.02.2021
2702 Clouds 17 1017 72 10000 10.8 250 11:40 10.02.2021
2703 Clouds 17 1017 72 10000 9.77 250 11:22 10.02.2021
2704 Clouds 17 1017 77 10000 9.77 250 10:37 10.02.2021
2705 Clouds 17 1018 88 8000 6.17 220 10:18 10.02.2021
2706 Clouds 17 1018 88 8000 6.17 220 10:18 10.02.2021
2707 Clouds 17 1018 88 8000 7.2 220 09:35 10.02.2021
2708 Clouds 17 1015 77 10000 8.75 250 08:57 10.02.2021
2709 Clouds 16 1017 94 8000 6.17 220 08:39 10.02.2021
2710 Clouds 17 1016 88 7000 6.17 220 07:52 10.02.2021
2711 Clouds 16 1016 88 7000 6.17 230 06:44 10.02.2021
2712 Clouds 16 1014 82 4600 11.32 250 02:26 10.02.2021
2713 Clouds 16 1014 77 10000 10.8 250 00:24 10.02.2021
2714 Clouds 17 1014 72 10000 11.32 240 23:34 09.02.2021
2715 Clouds 17 1015 88 6000 6.17 220 22:54 09.02.2021
2716 Clouds 17 1014 67 10000 11.83 250 22:24 09.02.2021
2717 Clouds 16 1015 88 5000 6.17 220 21:52 09.02.2021
2718 Clouds 16 1013 82 4400 8.75 240 21:27 09.02.2021
2719 Clouds 16 1014 88 4000 7.72 220 20:49 09.02.2021
2720 Clouds 17 1013 77 10000 10.8 240 20:26 09.02.2021
2721 Clouds 17 1012 82 10000 11.32 230 19:58 09.02.2021
2722 Clouds 17 1014 82 10000 7.2 220 19:35 09.02.2021
2723 Clouds 17 1012 72 10000 10.8 240 18:58 09.02.2021
2724 Clouds 17 1012 72 10000 10.8 240 18:58 09.02.2021
2725 Clouds 17 1012 72 10000 10.8 240 18:58 09.02.2021
2726 Clouds 17 1012 72 10000 10.8 240 18:36 09.02.2021
2727 Rain 16 1012 82 10000 9.26 240 17:57 09.02.2021
2728 Rain 17 1012 82 10000 9.26 240 17:37 09.02.2021
2729 Clouds 17 1013 88 10000 6.17 220 17:18 09.02.2021
2730 Clouds 17 1012 77 10000 8.75 240 16:40 09.02.2021
2731 Clouds 17 1013 88 10000 6.69 210 16:18 09.02.2021
2732 Clouds 17 1013 88 10000 6.17 210 15:48 09.02.2021
2733 Clouds 17 1013 72 10000 8.23 250 15:24 09.02.2021
2734 Clouds 16 1013 82 10000 8.23 240 14:53 09.02.2021
2735 Clouds 16 1013 82 2500 8.23 240 14:27 09.02.2021
2736 Clouds 17 1014 94 4000 6.69 210 13:50 09.02.2021
2737 Clouds 16 1014 82 10000 8.23 230 13:25 09.02.2021
2738 Clouds 16 1015 100 4000 6.17 210 12:49 09.02.2021
2739 Clouds 16 1014 77 10000 8.23 230 12:31 09.02.2021
2740 Clouds 16 1014 77 10000 9.26 230 11:54 09.02.2021
2741 Clouds 16 1014 77 10000 9.26 230 11:36 09.02.2021
2742 Clouds 15 1015 94 10000 5.14 180 11:18 09.02.2021
2743 Clouds 15 1015 94 10000 3.6 180 10:41 09.02.2021
2744 Clouds 15 1015 88 10000 3.6 180 10:18 09.02.2021
2745 Clouds 15 1015 94 8000 4.12 190 09:42 09.02.2021
2746 Clouds 15 1014 82 10000 5.66 220 09:23 09.02.2021
2747 Clouds 15 1014 82 7000 5.14 240 08:37 09.02.2021
2748 Clouds 15 1015 94 8000 4.12 190 08:18 09.02.2021
2749 Clouds 14 1014 94 10000 3.6 180 05:55 09.02.2021
2750 Clouds 15 1015 94 10000 3.09 190 03:50 09.02.2021
2751 Clouds 14 1014 82 10000 6.17 270 02:27 09.02.2021
2752 Clouds 15 1015 82 10000 7.72 260 00:32 09.02.2021
2753 Clouds 15 1016 77 10000 3.09 230 23:54 08.02.2021
2754 Clouds 15 1016 77 10000 3.6 240 23:20 08.02.2021
2755 Clouds 15 1015 72 10000 9.77 260 22:43 08.02.2021
2756 Clouds 15 1015 72 10000 9.77 260 22:23 08.02.2021
2757 Clouds 15 1016 77 7000 4.63 250 21:53 08.02.2021
2758 Clouds 15 1015 72 10000 10.29 260 21:31 08.02.2021
2759 Clouds 15 1014 72 10000 9.77 260 20:57 08.02.2021
2760 Clouds 15 1014 72 10000 9.77 260 20:36 08.02.2021
2761 Clouds 15 1015 88 7000 6.17 240 20:18 08.02.2021
2762 Clouds 16 1015 77 9000 6.69 240 19:41 08.02.2021
2763 Clouds 16 1013 67 10000 11.32 260 19:22 08.02.2021
2764 Clouds 16 1013 63 10000 10.8 260 18:46 08.02.2021
2765 Clouds 17 1013 63 10000 11.32 270 18:19 08.02.2021
2766 Clouds 17 1013 63 10000 11.32 270 17:43 08.02.2021
2767 Clouds 17 1012 63 10000 12.86 270 17:24 08.02.2021
2768 Clouds 17 1013 77 7000 6.69 240 16:43 08.02.2021
2769 Clouds 17 1013 77 7000 6.69 240 16:43 08.02.2021
2770 Clouds 17 1012 59 10000 11.83 270 16:21 08.02.2021
2771 Clouds 17 1013 77 6000 6.69 240 15:42 08.02.2021
2772 Clouds 17 1013 82 6000 7.2 240 15:20 08.02.2021
2773 Clouds 16 1012 67 10000 11.83 270 14:51 08.02.2021
2774 Clouds 16 1012 67 10000 11.32 280 14:31 08.02.2021
2775 Clouds 16 1012 67 10000 9.26 270 13:56 08.02.2021
2776 Clouds 16 1012 72 10000 7.72 270 13:32 08.02.2021
2777 Clouds 15 1013 77 10000 8.23 270 12:53 08.02.2021
2778 Clouds 15 1013 77 10000 8.23 270 12:35 08.02.2021
2779 Clouds 14 1014 94 1000 8.23 270 11:47 08.02.2021
2780 Clouds 14 1013 77 10000 6.17 250 11:21 08.02.2021
2781 Rain 14 1013 94 2000 5.66 240 10:44 08.02.2021
2782 Rain 13 1012 88 10000 6.69 260 10:24 08.02.2021
2783 Rain 13 1012 88 10000 6.69 260 10:24 08.02.2021
2784 Clouds 14 1012 100 1000 5.14 190 09:51 08.02.2021
2785 Clouds 13 1012 94 5000 7.72 240 09:30 08.02.2021
2786 Rain 13 1011 94 4000 6.69 180 08:41 08.02.2021
2787 Rain 13 1011 87 4000 6.17 180 08:18 08.02.2021
2788 Rain 13 1010 88 5000 8.23 220 07:22 08.02.2021
2789 Rain 13 1012 88 10000 12.86 230 05:59 08.02.2021
2790 Clouds 13 1014 88 3700 8.23 230 02:28 08.02.2021
2791 Clouds 13 1015 87 8000 4.12 190 01:18 08.02.2021
2792 Clouds 13 1015 88 10000 10.29 250 00:21 08.02.2021
2793 Clouds 13 1016 82 8000 4.12 200 23:48 07.02.2021
2794 Clouds 14 1016 77 2000 6.17 220 23:20 07.02.2021
2795 Clouds 14 1016 72 8000 5.66 220 22:45 07.02.2021
2796 Clouds 14 1015 72 10000 7.72 260 22:26 07.02.2021
2797 Clouds 14 1017 72 8000 5.66 230 21:52 07.02.2021
2798 Clouds 14 1016 72 10000 5.14 280 21:28 07.02.2021
2799 Clouds 14 1015 72 10000 7.2 260 20:54 07.02.2021
2800 Clouds 14 1015 72 10000 7.2 260 20:34 07.02.2021
2801 Clouds 14 1015 67 10000 8.75 260 19:55 07.02.2021
2802 Clouds 14 1015 62 10000 9.77 260 19:31 07.02.2021
2803 Clouds 14 1015 67 10000 9.77 260 18:56 07.02.2021
2804 Clouds 14 1015 67 10000 9.77 260 18:36 07.02.2021
2805 Clouds 14 1015 67 10000 9.77 260 18:36 07.02.2021
2806 Clouds 14 1016 72 6000 6.69 250 18:18 07.02.2021
2807 Clouds 14 1016 72 6000 5.66 230 17:44 07.02.2021
2808 Clouds 14 1016 67 6000 6.17 240 17:20 07.02.2021
2809 Clouds 14 1016 67 6000 6.17 240 17:20 07.02.2021
2810 Clouds 15 1016 63 10000 6.69 240 16:47 07.02.2021
2811 Clouds 15 1014 58 10000 10.8 270 16:27 07.02.2021
2812 Clouds 15 1014 58 10000 11.83 270 15:55 07.02.2021
2813 Clouds 14 1014 58 10000 11.83 270 15:37 07.02.2021
2814 Clouds 15 1016 63 10000 8.75 270 15:18 07.02.2021
2815 Clouds 14 1014 62 10000 11.32 270 14:39 07.02.2021
2816 Clouds 14 1016 72 8000 7.72 270 14:19 07.02.2021
2817 Clouds 14 1014 67 10000 11.83 280 13:36 07.02.2021
2818 Clouds 14 1014 71 10000 10.29 270 12:57 07.02.2021
2819 Clouds 14 1014 71 10000 10.29 270 12:37 07.02.2021
2820 Clouds 14 1015 77 7000 6.69 290 12:18 07.02.2021
2821 Clouds 13 1013 76 10000 10.29 270 11:28 07.02.2021
2822 Clouds 13 1012 82 10000 9.26 270 10:57 07.02.2021
2823 Clouds 13 1012 82 10000 9.26 270 10:27 07.02.2021
2824 Clouds 13 1013 82 7000 7.72 300 09:50 07.02.2021
2825 Clouds 13 1011 82 10000 5.14 260 09:25 07.02.2021
2826 Clouds 12 1011 87 10000 6.17 260 08:38 07.02.2021
2827 Clouds 13 1011 82 10000 6.17 310 07:47 07.02.2021
2828 Clouds 12 1010 82 10000 5.14 240 05:58 07.02.2021
2829 Clouds 12 1010 82 10000 5.14 240 05:58 07.02.2021
2830 Rain 12 1010 76 10000 6.69 220 03:59 07.02.2021
2831 Clouds 12 1011 76 10000 7.2 260 01:51 07.02.2021
2832 Clouds 12 1010 76 10000 7.2 260 00:36 07.02.2021
2833 Rain 12 1010 93 10000 2.06 300 23:48 06.02.2021
2834 Clouds 12 1010 100 4000 6.69 250 22:50 06.02.2021
2835 Clouds 14 1009 72 10000 6.69 260 21:45 06.02.2021
2836 Clouds 14 1008 82 10000 6.17 270 21:24 06.02.2021
2837 Clouds 14 1009 72 10000 7.2 260 20:53 06.02.2021
2838 Clouds 14 1008 77 10000 8.75 260 20:26 06.02.2021
2839 Clouds 14 1007 77 10000 7.72 260 19:59 06.02.2021
2840 Clouds 14 1007 77 10000 7.72 260 19:35 06.02.2021
2841 Clouds 15 1006 72 10000 7.2 260 18:59 06.02.2021
2842 Clouds 14 1008 72 10000 7.2 270 18:41 06.02.2021
2843 Clouds 15 1007 72 10000 7.72 260 18:20 06.02.2021
2844 Clouds 15 1006 77 10000 5.14 230 17:40 06.02.2021
2845 Clouds 15 1007 72 10000 7.72 250 17:20 06.02.2021
2846 Clouds 15 1007 77 10000 5.66 230 16:42 06.02.2021
2847 Clouds 15 1006 72 10000 6.17 240 16:24 06.02.2021
2848 Rain 16 1007 72 10000 8.23 240 15:50 06.02.2021
2849 Rain 16 1006 63 10000 6.17 240 15:29 06.02.2021
2850 Clouds 15 1007 72 10000 6.17 240 14:47 06.02.2021
2851 Clouds 15 1006 67 10000 5.66 240 14:28 06.02.2021
2852 Clouds 16 1007 67 10000 4.12 240 13:55 06.02.2021
2853 Clouds 15 1007 67 10000 4.12 240 13:36 06.02.2021
2854 Clouds 13 1007 87 10000 6.69 250 12:23 06.02.2021
2855 Clouds 12 1007 87 3000 9.26 240 11:58 06.02.2021
2856 Clouds 14 1007 82 10000 5.66 220 11:39 06.02.2021
2857 Rain 14 1007 76 8000 3.09 180 11:19 06.02.2021
2858 Clouds 13 1007 87 6000 3.6 160 10:47 06.02.2021
2859 Clouds 13 1006 82 10000 4.12 240 10:25 06.02.2021
2860 Clouds 13 1006 88 10000 3.6 220 09:37 06.02.2021
2861 Clouds 13 1006 87 10000 3.6 170 09:18 06.02.2021
2862 Clouds 13 1006 82 10000 3.6 180 08:52 06.02.2021
2863 Clouds 13 1005 82 10000 3.6 270 08:28 06.02.2021
2864 Clouds 13 1005 87 10000 2.06 190 06:41 06.02.2021
2865 Clouds 14 1005 77 10000 8.23 260 05:33 06.02.2021
2866 Clouds 14 1005 77 10000 6.17 250 02:43 06.02.2021
2867 Clouds 14 1005 88 10000 4.12 170 00:50 06.02.2021
2868 Clouds 14 1005 72 10000 6.17 220 00:21 06.02.2021
2869 Clouds 14 1004 72 10000 6.69 230 23:59 05.02.2021
2870 Clouds 14 1004 72 10000 6.69 230 23:29 05.02.2021
2871 Clouds 14 1004 88 3000 4.63 180 22:49 05.02.2021
2872 Clouds 14 1004 67 10000 5.14 230 22:24 05.02.2021
2873 Clouds 14 1004 67 10000 5.14 230 21:54 05.02.2021
2874 Rain 14 1004 67 10000 5.14 230 21:35 05.02.2021
2875 Clouds 15 1004 63 10000 4.63 230 20:52 05.02.2021
2876 Clouds 15 1004 59 10000 5.14 240 19:57 05.02.2021
2877 Clouds 15 1004 67 10000 5.66 260 19:25 05.02.2021
2878 Clouds 15 1004 63 10000 5.14 270 18:55 05.02.2021
2879 Clouds 16 1003 67 10000 4.63 180 18:29 05.02.2021
2880 Clouds 16 1003 72 10000 5.66 250 17:56 05.02.2021
2881 Clouds 15 1003 72 10000 5.66 250 17:34 05.02.2021
2882 Clouds 15 1003 63 10000 5.14 250 16:57 05.02.2021
2883 Clouds 15 1003 63 10000 5.14 250 16:38 05.02.2021
2884 Clouds 15 1003 82 8000 3.6 170 16:19 05.02.2021
2885 Clouds 15 1003 77 10000 5.66 230 15:31 05.02.2021
2886 Clouds 17 1004 72 10000 3.6 220 14:59 05.02.2021
2887 Clouds 17 1004 72 10000 3.6 220 14:38 05.02.2021
2888 Clouds 17 1004 72 10000 3.6 220 14:18 05.02.2021
2889 Clouds 16 1004 77 10000 3.09 220 13:42 05.02.2021
2890 Clouds 16 1004 82 8000 2.57 180 13:20 05.02.2021
2891 Clouds 16 1004 82 8000 2.57 180 12:41 05.02.2021
2892 Clouds 16 1004 82 10000 2.57 260 11:59 05.02.2021
2893 Clouds 16 1004 82 10000 2.57 260 11:38 05.02.2021
2894 Drizzle 15 1004 82 5000 2.57 180 11:19 05.02.2021
2895 Clouds 15 1004 82 8000 2.57 160 10:46 05.02.2021
2896 Clouds 14 1004 94 10000 1.03 220 10:24 05.02.2021
2897 Clouds 14 1004 94 10000 2.57 270 09:42 05.02.2021
2898 Clouds 15 1004 82 10000 1.03 300 09:23 05.02.2021
2899 Clouds 15 1003 88 10000 1.54 90 08:40 05.02.2021
2900 Clouds 15 1003 88 8000 1.54 180 07:41 05.02.2021
2901 Clouds 15 1003 88 8000 2.06 170 07:21 05.02.2021
2902 Clouds 15 1003 88 10000 4.12 100 06:28 05.02.2021
2903 Clouds 14 1004 88 10000 1.54 300 05:32 05.02.2021
2904 Clouds 14 1005 82 10000 3.6 80 02:25 05.02.2021
2905 Rain 15 1004 88 10000 3.6 30 00:58 05.02.2021
2906 Rain 15 1006 77 10000 1.54 280 00:36 05.02.2021
2907 Rain 15 1005 88 10000 3.6 80 00:18 05.02.2021
2908 Clouds 14 1005 88 10000 3.09 20 23:41 04.02.2021
2909 Clouds 14 1006 88 10000 4.12 40 23:22 04.02.2021
2910 Clouds 15 1005 82 10000 4.63 90 22:54 04.02.2021
2911 Clouds 15 1007 88 10000 4.12 60 22:30 04.02.2021
2912 Clouds 16 1004 82 10000 5.66 80 21:55 04.02.2021
2913 Clouds 16 1007 72 10000 3.09 100 21:37 04.02.2021
2914 Clouds 14 1007 82 10000 0.51 120 20:58 04.02.2021
2915 Clouds 15 1007 82 10000 0.51 120 20:34 04.02.2021
2916 Clear 15 1006 88 10000 1.54 360 19:52 04.02.2021
2917 Clear 16 1006 82 10000 3.09 40 19:26 04.02.2021
2918 Clear 16 1006 82 10000 3.09 50 18:41 04.02.2021
2919 Clear 17 1007 77 10000 1.54 230 18:22 04.02.2021
2920 Clear 17 1007 77 10000 3.09 20 17:45 04.02.2021
2921 Clouds 18 1008 72 10000 2.06 250 17:22 04.02.2021
2922 Clear 18 1007 72 10000 2.57 360 16:49 04.02.2021
2923 Clear 18 1007 68 10000 3.09 320 16:21 04.02.2021
2924 Clouds 18 1008 63 10000 3.09 320 15:41 04.02.2021
2925 Clouds 15 1009 77 10000 1.54 50 15:21 04.02.2021
2926 Clouds 17 1010 82 10000 2.57 40 14:57 04.02.2021
2927 Clouds 17 1010 82 10000 2.57 40 14:39 04.02.2021
2928 Clouds 17 1009 63 10000 2.06 280 14:19 04.02.2021
2929 Clouds 18 1009 63 10000 2.06 270 13:43 04.02.2021
2930 Clear 17 1010 68 10000 1.03 0 12:57 04.02.2021
2931 Clouds 16 1012 82 10000 2.06 40 12:27 04.02.2021
2932 Clouds 15 1011 82 10000 2.57 80 11:53 04.02.2021
2933 Clouds 15 1012 82 10000 2.57 50 11:32 04.02.2021
2934 Clouds 14 1010 88 8000 2.57 70 10:45 04.02.2021
2935 Clouds 14 1010 88 8000 2.57 100 10:18 04.02.2021
2936 Clouds 13 1011 100 8000 2.57 90 09:43 04.02.2021
2937 Clouds 13 1011 93 8000 3.09 80 09:19 04.02.2021
2938 Clear 11 1011 100 10000 2.57 80 08:41 04.02.2021
2939 Clear 12 1011 93 10000 2.57 80 08:20 04.02.2021
2940 Mist 13 1011 100 4000 2.57 60 07:42 04.02.2021
2941 Clouds 12 1011 93 8000 2.57 80 06:55 04.02.2021
2942 Clouds 11 1012 82 10000 0.51 250 06:37 04.02.2021
2943 Clouds 14 1012 82 8000 1.03 0 03:53 04.02.2021
2944 Clouds 15 1014 77 10000 4.63 270 02:26 04.02.2021
2945 Clouds 15 1014 77 10000 6.69 290 00:42 04.02.2021
2946 Clouds 15 1015 77 10000 5.66 290 23:40 03.02.2021
2947 Clouds 16 1015 72 8000 2.06 210 22:44 03.02.2021
2948 Clouds 16 1015 82 10000 6.17 280 22:22 03.02.2021
2949 Clouds 16 1015 77 10000 6.17 270 21:58 03.02.2021
2950 Clouds 16 1015 77 10000 6.17 270 21:37 03.02.2021
2951 Clouds 16 1015 67 8000 4.12 230 21:18 03.02.2021
2952 Clouds 16 1015 82 10000 6.17 270 20:43 03.02.2021
2953 Clouds 16 1015 82 10000 6.17 270 20:24 03.02.2021
2954 Clouds 16 1015 72 10000 2.57 210 19:43 03.02.2021
2955 Clouds 16 1015 72 10000 6.69 270 19:21 03.02.2021
2956 Clouds 17 1015 77 10000 2.57 220 18:48 03.02.2021
2957 Clouds 17 1015 67 10000 3.09 230 18:20 03.02.2021
2958 Clouds 18 1015 68 10000 3.09 230 17:52 03.02.2021
2959 Clouds 18 1015 68 10000 6.69 270 17:31 03.02.2021
2960 Clouds 18 1016 72 10000 4.12 230 16:56 03.02.2021
2961 Clouds 18 1015 68 10000 6.17 270 16:30 03.02.2021
2962 Clouds 18 1016 68 10000 4.12 230 15:46 03.02.2021
2963 Clouds 18 1015 68 10000 6.69 270 15:25 03.02.2021
2964 Clouds 18 1016 72 10000 4.12 230 14:53 03.02.2021
2965 Clouds 18 1016 63 10000 7.2 280 14:26 03.02.2021
2966 Clouds 18 1017 68 10000 3.6 230 13:54 03.02.2021
2967 Clouds 18 1017 67 10000 5.66 270 13:28 03.02.2021
2968 Clouds 17 1018 72 10000 3.09 220 12:49 03.02.2021
2969 Clouds 17 1017 72 10000 5.14 270 12:27 03.02.2021
2970 Clouds 16 1018 77 10000 2.06 220 11:54 03.02.2021
2971 Clouds 16 1018 77 10000 3.6 250 11:36 03.02.2021
2972 Clouds 15 1018 100 10000 1.03 0 10:56 03.02.2021
2973 Clouds 14 1017 72 10000 5.14 270 10:22 03.02.2021
2974 Clouds 12 1018 93 8000 2.06 70 09:48 03.02.2021
2975 Clouds 12 1017 77 10000 4.63 270 09:28 03.02.2021
2976 Clouds 12 1018 93 5000 2.06 80 08:53 03.02.2021
2977 Clouds 12 1017 77 10000 5.14 270 08:28 03.02.2021
2978 Clouds 12 1017 82 10000 5.14 270 07:39 03.02.2021
2979 Clouds 12 1017 82 10000 5.14 260 06:41 03.02.2021
2980 Mist 13 1018 100 4000 1.03 60 04:54 03.02.2021
2981 Clouds 13 1017 88 10000 7.72 280 04:31 03.02.2021
2982 Clouds 13 1018 82 10000 7.72 280 03:24 03.02.2021
2983 Clouds 13 1018 82 10000 8.23 270 02:36 03.02.2021
2984 Clouds 13 1018 82 10000 7.2 280 00:36 03.02.2021
2985 Clear 13 1019 100 10000 2.06 80 23:53 02.02.2021
2986 Clouds 13 1018 82 10000 4.63 260 23:29 02.02.2021
2987 Clouds 13 1018 82 10000 4.63 250 22:59 02.02.2021
2988 Clouds 13 1018 82 10000 4.63 250 22:22 02.02.2021
2989 Clouds 14 1018 77 10000 6.17 250 21:57 02.02.2021
2990 Clouds 14 1018 77 10000 6.17 250 21:31 02.02.2021
2991 Clouds 14 1018 82 10000 5.66 270 20:59 02.02.2021
2992 Clouds 14 1018 82 10000 5.66 270 20:59 02.02.2021
2993 Clouds 15 1018 82 10000 5.66 270 20:41 02.02.2021
2994 Clear 15 1019 88 10000 1.03 0 20:19 02.02.2021
2995 Clouds 15 1018 88 10000 0.51 0 19:47 02.02.2021
2996 Clouds 16 1017 72 10000 5.66 280 19:29 02.02.2021
2997 Clouds 18 1017 68 10000 6.17 280 18:44 02.02.2021
2998 Clouds 18 1017 68 10000 6.17 280 18:25 02.02.2021
2999 Clouds 18 1017 68 10000 6.17 280 18:25 02.02.2021
3000 Clouds 18 1018 77 10000 3.6 320 17:50 02.02.2021
3001 Clouds 19 1017 68 10000 4.12 280 17:23 02.02.2021
3002 Clouds 18 1017 68 10000 6.17 280 16:57 02.02.2021
3003 Clouds 18 1017 68 10000 6.17 280 16:37 02.02.2021
3004 Clouds 19 1018 68 10000 7.2 280 15:59 02.02.2021
3005 Clouds 19 1018 68 10000 3.09 290 15:40 02.02.2021
3006 Clouds 19 1019 68 10000 3.09 290 15:21 02.02.2021
3007 Clouds 19 1019 68 10000 6.69 280 14:40 02.02.2021
3008 Clouds 19 1020 68 10000 2.57 270 14:18 02.02.2021
3009 Clouds 19 1020 63 10000 2.57 280 13:44 02.02.2021
3010 Clouds 19 1020 63 10000 7.2 280 13:26 02.02.2021
3011 Clouds 18 1021 72 10000 2.57 290 12:55 02.02.2021
3012 Clouds 18 1021 67 10000 5.66 280 12:26 02.02.2021
3013 Clouds 17 1022 72 8000 2.06 270 11:41 02.02.2021
3014 Clouds 17 1021 82 8000 1.03 0 11:20 02.02.2021
3015 Clouds 15 1021 94 8000 1.03 0 10:47 02.02.2021
3016 Clouds 15 1020 77 10000 6.17 260 10:26 02.02.2021
3017 Clouds 14 1021 94 8000 2.06 100 09:46 02.02.2021
3018 Clouds 14 1021 94 8000 2.06 90 09:24 02.02.2021
3019 Clouds 14 1021 94 5000 2.57 60 08:43 02.02.2021
3020 Clouds 14 1021 100 5000 1.03 60 07:51 02.02.2021
3021 Clouds 14 1020 82 10000 6.17 270 07:26 02.02.2021
3022 Clouds 14 1020 77 10000 5.66 250 06:40 02.02.2021
3023 Mist 14 1021 94 1500 1.54 50 05:51 02.02.2021
3024 Clouds 13 1021 82 10000 7.72 280 04:36 02.02.2021
3025 Clouds 14 1021 77 10000 8.23 270 02:25 02.02.2021
3026 Clouds 13 1022 94 5000 1.54 20 00:49 02.02.2021
3027 Clouds 14 1022 94 5000 0.51 0 00:18 02.02.2021
3028 Mist 14 1022 94 4000 1.54 70 23:18 01.02.2021
3029 Clouds 14 1022 77 10000 10.29 280 22:39 01.02.2021
3030 Mist 14 1023 94 3000 1.54 40 22:20 01.02.2021
3031 Mist 14 1022 94 4000 1.03 0 21:46 01.02.2021
3032 Clouds 14 1022 82 10000 8.23 280 21:22 01.02.2021
3033 Mist 14 1023 94 3000 1.03 0 20:44 01.02.2021
3034 Clouds 15 1022 77 10000 8.75 270 20:25 01.02.2021
3035 Mist 16 1022 88 3000 0.51 0 19:49 01.02.2021
3036 Clouds 16 1021 72 10000 7.2 280 19:21 01.02.2021
3037 Clouds 17 1021 67 10000 8.23 280 18:58 01.02.2021
3038 Clouds 17 1021 67 10000 8.23 280 18:39 01.02.2021
3039 Clouds 17 1021 67 10000 8.23 280 18:21 01.02.2021
3040 Clouds 18 1021 68 10000 8.75 270 17:42 01.02.2021
3041 Clouds 18 1022 88 7000 3.09 230 17:19 01.02.2021
3042 Clouds 18 1021 63 10000 12.35 270 16:40 01.02.2021
3043 Clouds 18 1021 63 10000 12.35 270 16:21 01.02.2021
3044 Clouds 18 1021 72 10000 9.26 280 15:40 01.02.2021
3045 Clouds 18 1022 77 6000 4.12 220 15:19 01.02.2021
3046 Clouds 18 1022 77 6000 4.12 220 15:19 01.02.2021
3047 Clouds 18 1022 82 7000 5.14 220 14:48 01.02.2021
3048 Clouds 18 1023 82 7000 4.63 220 14:18 01.02.2021
3049 Clouds 18 1023 77 7000 4.12 210 13:42 01.02.2021
3050 Clouds 18 1022 77 10000 9.26 270 13:22 01.02.2021
3051 Clouds 17 1024 88 6000 3.6 200 12:44 01.02.2021
3052 Clouds 17 1022 77 10000 10.8 270 12:23 01.02.2021
3053 Clouds 16 1024 94 6000 3.09 190 11:43 01.02.2021
3054 Clouds 16 1024 94 4000 3.6 180 11:20 01.02.2021
3055 Clouds 16 1023 88 4000 3.09 180 10:46 01.02.2021
3056 Clouds 15 1023 94 4000 3.09 180 10:21 01.02.2021
3057 Clouds 15 1023 94 5000 3.09 190 09:47 01.02.2021
3058 Clouds 15 1022 94 6000 3.6 180 09:25 01.02.2021
3059 Clouds 15 1022 94 6000 3.6 190 08:56 01.02.2021
3060 Clouds 15 1022 94 6000 3.09 190 08:21 01.02.2021
3061 Clouds 15 1022 94 6000 3.6 190 06:43 01.02.2021
3062 Clouds 16 1021 88 10000 7.72 250 04:32 01.02.2021
3063 Clouds 16 1021 82 10000 8.23 260 02:37 01.02.2021
3064 Clouds 16 1024 82 8000 5.14 220 23:47 31.01.2021
3065 Clouds 17 1023 82 8000 5.66 220 22:56 31.01.2021
3066 Clouds 17 1021 67 10000 11.83 260 22:36 31.01.2021
3067 Clouds 16 1023 82 8000 4.63 220 22:18 31.01.2021
3068 Clouds 16 1023 82 8000 3.6 220 21:41 31.01.2021
3069 Clouds 16 1023 82 8000 5.14 230 21:19 31.01.2021
3070 Clouds 16 1023 82 6000 4.63 230 20:41 31.01.2021
3071 Clouds 17 1023 82 6000 4.63 220 20:19 31.01.2021
3072 Clouds 16 1021 77 10000 11.83 260 19:37 31.01.2021
3073 Clouds 16 1023 82 7000 5.14 220 19:19 31.01.2021
3074 Clouds 16 1023 82 7000 5.14 230 18:44 31.01.2021
3075 Clouds 17 1021 67 10000 12.86 260 18:24 31.01.2021
3076 Drizzle 17 1023 82 6000 5.66 230 17:50 31.01.2021
3077 Clouds 17 1021 67 10000 10.8 260 17:24 31.01.2021
3078 Clouds 17 1021 67 10000 10.29 270 16:59 31.01.2021
3079 Clouds 17 1021 67 10000 10.29 270 16:39 31.01.2021
3080 Clouds 17 1023 82 7000 5.66 220 16:19 31.01.2021
3081 Clouds 17 1023 82 7000 5.14 230 15:48 31.01.2021
3082 Clouds 17 1022 67 10000 9.77 260 14:55 31.01.2021
3083 Clouds 17 1022 77 10000 8.75 260 14:28 31.01.2021
3084 Clouds 17 1023 77 10000 8.75 260 13:59 31.01.2021
3085 Clouds 16 1023 77 10000 8.75 260 13:38 31.01.2021
3086 Clouds 16 1024 72 10000 5.66 250 12:57 31.01.2021
3087 Clouds 16 1024 72 10000 5.66 250 12:38 31.01.2021
3088 Clouds 16 1025 77 6000 3.6 220 12:20 31.01.2021
3089 Clouds 16 1024 72 10000 7.2 270 11:38 31.01.2021
3090 Clouds 16 1025 82 7000 2.57 190 11:19 31.01.2021
3091 Drizzle 14 1025 94 6000 3.09 220 10:44 31.01.2021
3092 Clouds 15 1023 72 10000 6.69 260 10:25 31.01.2021
3093 Clouds 15 1023 72 10000 6.17 270 09:39 31.01.2021
3094 Clouds 15 1022 72 10000 7.2 270 08:34 31.01.2021
3095 Clouds 15 1022 72 10000 7.2 270 08:34 31.01.2021
3096 Clouds 15 1022 72 10000 7.2 270 08:34 31.01.2021
3097 Clouds 15 1023 82 10000 4.63 250 07:55 31.01.2021
3098 Clouds 14 1021 77 10000 10.29 270 06:36 31.01.2021
3099 Clouds 14 1023 82 10000 6.69 280 02:19 31.01.2021
3100 Clouds 15 1022 67 10000 9.26 280 00:28 31.01.2021
3101 Clouds 15 1022 72 10000 10.29 280 23:42 30.01.2021
3102 Clouds 15 1023 77 10000 6.17 280 23:20 30.01.2021
3103 Clouds 16 1021 72 10000 11.32 280 22:37 30.01.2021
3104 Clouds 15 1023 82 10000 6.69 260 21:45 30.01.2021
3105 Clouds 16 1021 72 10000 10.29 270 21:24 30.01.2021
3106 Clouds 16 1022 82 10000 7.72 260 20:55 30.01.2021
3107 Clouds 16 1020 72 10000 8.23 260 20:35 30.01.2021
3108 Clouds 16 1020 72 10000 8.23 260 19:58 30.01.2021
3109 Clouds 16 1020 72 10000 8.23 260 19:39 30.01.2021
3110 Clouds 16 1021 88 10000 6.17 250 19:19 30.01.2021
3111 Clouds 16 1019 77 10000 9.26 270 18:40 30.01.2021
3112 Clouds 16 1021 82 8000 5.66 270 18:19 30.01.2021
3113 Clouds 17 1021 94 6000 6.17 250 17:45 30.01.2021
3114 Clouds 17 1021 94 5000 5.14 240 17:18 30.01.2021
3115 Clouds 16 1019 77 10000 9.26 260 16:39 30.01.2021
3116 Clouds 16 1019 77 10000 9.26 260 16:21 30.01.2021
3117 Clouds 16 1021 94 2000 6.17 220 15:47 30.01.2021
3118 Clouds 16 1019 88 10000 7.2 230 15:23 30.01.2021
3119 Clouds 16 1020 88 10000 7.72 220 14:52 30.01.2021
3120 Clouds 16 1020 88 10000 7.2 230 14:27 30.01.2021
3121 Clouds 16 1023 82 6000 6.17 210 13:48 30.01.2021
3122 Clouds 16 1023 82 7000 6.17 210 13:20 30.01.2021
3123 Clouds 17 1023 77 8000 6.17 210 12:43 30.01.2021
3124 Drizzle 17 1021 82 10000 7.2 230 12:22 30.01.2021
3125 Clouds 16 1023 88 8000 4.63 190 11:41 30.01.2021
3126 Clouds 15 1023 94 6000 4.12 200 10:55 30.01.2021
3127 Clouds 15 1023 88 6000 4.12 210 09:58 30.01.2021
3128 Clouds 15 1021 82 10000 8.75 270 09:39 30.01.2021
3129 Clouds 15 1021 82 10000 8.75 270 09:21 30.01.2021
3130 Clouds 15 1021 82 10000 9.77 260 08:41 30.01.2021
3131 Clouds 15 1021 82 10000 10.29 270 07:30 30.01.2021
3132 Clouds 15 1020 82 10000 11.32 280 06:21 30.01.2021
3133 Clouds 15 1022 82 10000 8.75 270 03:36 30.01.2021
3134 Clouds 15 1022 82 10000 10.8 280 02:26 30.01.2021
3135 Clouds 15 1022 88 10000 10.8 280 01:59 30.01.2021
3136 Clouds 15 1024 82 10000 2.57 210 00:49 30.01.2021
3137 Clouds 15 1023 82 10000 9.77 280 00:21 30.01.2021
3138 Clouds 15 1024 82 10000 2.57 220 23:49 29.01.2021
3139 Clouds 15 1022 82 10000 9.26 290 23:27 29.01.2021
3140 Clouds 15 1024 82 10000 3.09 240 22:45 29.01.2021
3141 Clouds 15 1022 82 10000 9.77 280 22:22 29.01.2021
3142 Clouds 15 1024 82 10000 4.12 260 21:43 29.01.2021
3143 Clouds 16 1022 82 10000 9.77 290 21:25 29.01.2021
3144 Clouds 16 1024 82 8000 2.57 230 20:42 29.01.2021
3145 Clouds 16 1022 77 10000 11.83 290 20:21 29.01.2021
3146 Clouds 16 1022 77 10000 9.77 290 19:39 29.01.2021
3147 Clouds 16 1023 82 8000 2.57 220 19:19 29.01.2021
3148 Clouds 17 1023 82 8000 3.09 230 18:44 29.01.2021
3149 Clouds 17 1023 82 8000 2.57 220 17:45 29.01.2021
3150 Clouds 18 1021 72 10000 6.69 290 17:22 29.01.2021
3151 Clouds 17 1023 88 8000 3.6 230 16:47 29.01.2021
3152 Clouds 18 1021 77 10000 7.2 290 16:24 29.01.2021
3153 Clouds 18 1023 88 6000 4.12 240 15:52 29.01.2021
3154 Clouds 17 1022 77 10000 8.23 290 15:34 29.01.2021
3155 Clouds 17 1022 77 10000 7.2 290 14:56 29.01.2021
3156 Clouds 17 1024 88 6000 3.6 220 14:18 29.01.2021
3157 Mist 17 1024 94 4000 3.6 220 13:45 29.01.2021
3158 Clouds 17 1023 72 10000 7.72 290 13:26 29.01.2021
3159 Clouds 17 1024 82 10000 5.66 290 12:30 29.01.2021
3160 Clouds 16 1024 82 10000 5.14 290 11:51 29.01.2021
3161 Mist 16 1025 100 4000 2.06 210 11:20 29.01.2021
3162 Clouds 16 1023 82 10000 6.17 280 10:53 29.01.2021
3163 Clouds 15 1023 88 10000 5.14 280 10:35 29.01.2021
3164 Clouds 14 1023 94 10000 4.63 270 09:50 29.01.2021
3165 Clouds 14 1023 94 10000 4.63 270 09:28 29.01.2021
3166 Mist 14 1023 100 2500 1.03 0 08:47 29.01.2021
3167 Clouds 14 1022 88 10000 4.12 250 08:25 29.01.2021
3168 Mist 14 1023 100 1800 1.03 0 07:42 29.01.2021
3169 Clouds 15 1022 88 10000 4.63 220 07:22 29.01.2021
3170 Clouds 15 1022 88 10000 5.14 230 05:38 29.01.2021
3171 Fog 14 1023 100 800 1.03 0 03:50 29.01.2021
3172 Fog 15 1024 100 800 0.51 0 00:45 29.01.2021
3173 Clouds 15 1023 94 10000 2.57 260 00:22 29.01.2021
3174 Clouds 15 1023 94 10000 2.57 260 00:22 29.01.2021
3175 Fog 15 1023 100 400 1.03 0 23:45 28.01.2021
3176 Clouds 15 1023 88 10000 2.06 240 23:26 28.01.2021
3177 Clouds 15 1023 94 10000 2.06 260 22:50 28.01.2021
3178 Clouds 15 1023 94 10000 2.06 260 22:29 28.01.2021
3179 Clouds 15 1023 94 10000 2.4 90 21:59 28.01.2021
3180 Clouds 15 1023 94 10000 2.4 90 21:40 28.01.2021
3181 Clouds 15 1023 94 10000 2.61 87 21:20 28.01.2021
3182 Clouds 16 1023 88 10000 0.51 330 20:40 28.01.2021
3183 Mist 16 1023 100 1500 2.06 320 20:19 28.01.2021
3184 Fog 16 1022 100 800 1.54 330 19:47 28.01.2021
3185 Clouds 16 1023 82 10000 1.03 220 19:24 28.01.2021
3186 Clouds 17 1022 100 2000 2.06 320 18:48 28.01.2021
3187 Clear 18 1023 72 10000 1.03 20 18:28 28.01.2021
3188 Clouds 18 1022 88 8000 2.57 270 17:47 28.01.2021
3189 Clear 18 1023 77 10000 2.57 100 17:29 28.01.2021
3190 Clouds 17 1022 100 8000 4.12 260 16:46 28.01.2021
3191 Clear 17 1023 82 10000 2.06 90 16:25 28.01.2021
3192 Clear 17 1023 82 10000 2.57 70 15:56 28.01.2021
3193 Clear 18 1023 82 10000 2.57 70 15:23 28.01.2021
3194 Mist 18 1023 100 3000 3.09 250 14:43 28.01.2021
3195 Clear 18 1024 77 10000 2.57 60 14:23 28.01.2021
3196 Clouds 17 1023 100 6000 2.06 270 13:49 28.01.2021
3197 Clear 17 1025 72 10000 3.09 60 13:21 28.01.2021
3198 Clouds 17 1024 100 6000 1.54 180 12:46 28.01.2021
3199 Clear 16 1025 77 10000 2.06 80 12:21 28.01.2021
3200 Clouds 16 1024 100 6000 2.57 110 11:44 28.01.2021
3201 Clear 15 1025 77 10000 0.51 260 11:21 28.01.2021
3202 Clear 15 1025 77 10000 0.51 20 10:55 28.01.2021
3203 Clear 14 1025 77 10000 0.51 20 10:35 28.01.2021
3204 Clear 13 1024 88 10000 2.06 250 09:59 28.01.2021
3205 Clear 13 1024 88 10000 2.06 250 09:31 28.01.2021
3206 Clear 13 1024 88 10000 2.06 250 08:57 28.01.2021
3207 Clear 13 1024 88 10000 2.06 250 08:39 28.01.2021
3208 Fog 14 1023 100 300 2.06 100 07:46 28.01.2021
3209 Fog 14 1023 100 400 1.03 0 06:51 28.01.2021
3210 Clouds 14 1023 88 10000 3.09 250 06:31 28.01.2021
3211 Clouds 14 1024 94 10000 2.57 260 04:30 28.01.2021
3212 Clouds 15 1025 100 5000 1.03 0 01:40 28.01.2021
3213 Clouds 16 1025 100 5000 1.03 60 23:54 27.01.2021
3214 Clouds 16 1025 94 10000 6.69 210 23:24 27.01.2021
3215 Clouds 16 1025 94 10000 6.69 210 23:24 27.01.2021
3216 Clouds 16 1025 94 10000 6.17 230 22:43 27.01.2021
3217 Clouds 16 1025 94 10000 6.17 230 22:24 27.01.2021
3218 Mist 16 1026 100 4000 1.03 0 21:44 27.01.2021
3219 Clouds 16 1024 88 10000 6.17 220 21:24 27.01.2021
3220 Mist 17 1026 100 2000 2.06 280 20:55 27.01.2021
3221 Clouds 17 1024 82 10000 7.2 220 20:30 27.01.2021
3222 Mist 16 1025 100 1800 1.54 250 19:56 27.01.2021
3223 Clouds 16 1024 88 10000 9.26 210 19:36 27.01.2021
3224 Mist 16 1025 100 1500 2.06 250 19:18 27.01.2021
3225 Clouds 17 1023 82 10000 7.2 200 18:40 27.01.2021
3226 Clouds 17 1023 82 10000 7.2 200 18:21 27.01.2021
3227 Clouds 18 1023 77 10000 5.66 210 17:39 27.01.2021
3228 Clouds 18 1025 100 5000 2.06 250 17:18 27.01.2021
3229 Clouds 18 1025 100 4000 1.03 0 16:43 27.01.2021
3230 Clouds 18 1023 73 10000 5.66 210 16:24 27.01.2021
3231 Mist 17 1025 100 2000 1.54 310 15:49 27.01.2021
3232 Clouds 18 1024 77 10000 6.69 220 15:29 27.01.2021
3233 Clouds 18 1025 77 10000 3.6 230 14:39 27.01.2021
3234 Clouds 18 1026 100 8000 4.12 320 14:19 27.01.2021
3235 Clouds 18 1026 77 10000 5.14 270 13:40 27.01.2021
3236 Clouds 17 1027 100 6000 2.06 270 12:46 27.01.2021
3237 Clouds 17 1026 77 10000 5.14 280 12:26 27.01.2021
3238 Clouds 17 1027 100 6000 1.03 0 11:52 27.01.2021
3239 Clouds 17 1026 88 10000 4.63 250 11:26 27.01.2021
3240 Mist 17 1026 100 2000 2.06 230 10:51 27.01.2021
3241 Clouds 17 1025 88 10000 4.12 250 10:26 27.01.2021
3242 Clouds 16 1025 94 10000 6.17 280 09:56 27.01.2021
3243 Clouds 16 1025 94 10000 6.17 280 09:29 27.01.2021
3244 Clouds 16 1025 94 10000 6.17 280 09:29 27.01.2021
3245 Clouds 16 1026 100 6000 1.03 0 08:47 27.01.2021
3246 Clouds 16 1024 88 10000 5.14 270 07:58 27.01.2021
3247 Clouds 16 1024 88 10000 5.14 270 07:38 27.01.2021
3248 Mist 16 1026 100 3000 1.03 260 06:45 27.01.2021
3249 Clouds 16 1025 88 10000 7.2 270 05:56 27.01.2021
3250 Clouds 16 1025 88 10000 7.2 270 05:34 27.01.2021
3251 Mist 16 1026 100 3000 1.54 290 02:46 27.01.2021
3252 Mist 16 1027 100 3000 1.03 260 02:20 27.01.2021
3253 Clouds 16 1027 100 8000 1.03 0 01:32 27.01.2021
3254 Clouds 16 1027 94 10000 6.17 280 00:27 27.01.2021
3255 Clouds 17 1026 94 10000 5.14 250 23:40 26.01.2021
3256 Clouds 17 1026 94 10000 5.14 250 23:40 26.01.2021
3257 Clouds 17 1027 94 8000 1.03 0 23:19 26.01.2021
3258 Clouds 17 1027 94 10000 4.63 250 22:39 26.01.2021
3259 Clouds 17 1027 94 8000 2.06 200 22:19 26.01.2021
3260 Clouds 17 1028 94 8000 1.54 210 21:51 26.01.2021
3261 Clouds 17 1027 94 10000 7.72 290 21:24 26.01.2021
3262 Clouds 17 1027 94 8000 1.54 220 20:43 26.01.2021
3263 Clouds 17 1026 88 10000 4.12 240 20:24 26.01.2021
3264 Clouds 17 1027 94 7000 1.54 230 19:51 26.01.2021
3265 Clouds 17 1026 88 10000 4.12 230 19:30 26.01.2021
3266 Clouds 17 1026 88 10000 4.12 230 19:30 26.01.2021
3267 Clouds 17 1026 82 10000 5.14 210 18:59 26.01.2021
3268 Clouds 17 1027 94 10000 2.06 230 18:41 26.01.2021
3269 Clouds 17 1026 82 10000 5.14 210 18:22 26.01.2021
3270 Clouds 17 1026 94 10000 2.57 220 17:47 26.01.2021
3271 Clouds 17 1025 82 10000 5.14 220 17:22 26.01.2021
3272 Clouds 17 1026 88 10000 3.09 220 16:51 26.01.2021
3273 Clouds 17 1026 88 10000 3.09 230 16:21 26.01.2021
3274 Clouds 18 1026 82 10000 3.6 220 15:51 26.01.2021
3275 Clouds 18 1026 82 10000 3.6 220 15:51 26.01.2021
3276 Clouds 19 1025 77 10000 4.12 250 15:33 26.01.2021
3277 Clouds 18 1026 88 10000 3.6 220 14:49 26.01.2021
3278 Clouds 18 1026 77 10000 6.17 250 14:30 26.01.2021
3279 Clouds 18 1027 82 10000 4.12 220 13:48 26.01.2021
3280 Clouds 18 1026 82 10000 6.17 280 13:27 26.01.2021
3281 Clouds 18 1027 82 10000 3.6 200 12:45 26.01.2021
3282 Clouds 18 1027 82 10000 6.69 280 12:25 26.01.2021
3283 Clouds 17 1026 77 10000 6.17 280 11:59 26.01.2021
3284 Clouds 17 1026 77 10000 6.17 280 11:39 26.01.2021
3285 Clouds 17 1027 100 10000 3.09 180 10:55 26.01.2021
3286 Clouds 16 1025 77 10000 5.14 260 10:33 26.01.2021
3287 Clouds 16 1025 77 10000 5.14 260 10:33 26.01.2021
3288 Clouds 16 1026 100 10000 2.57 0 09:49 26.01.2021
3289 Clouds 16 1025 88 10000 3.6 270 09:30 26.01.2021
3290 Clouds 16 1025 82 10000 5.14 270 08:53 26.01.2021
3291 Clouds 16 1025 82 10000 5.14 270 08:34 26.01.2021
3292 Clouds 16 1026 100 5000 2.06 190 07:50 26.01.2021
3293 Clouds 16 1024 82 10000 6.17 260 06:24 26.01.2021
3294 Mist 16 1025 100 3000 2.06 220 05:44 26.01.2021
3295 Clouds 16 1024 88 10000 7.2 270 05:23 26.01.2021
3296 Clouds 17 1023 77 10000 7.2 260 02:57 26.01.2021
3297 Clouds 16 1023 82 10000 6.69 230 00:58 26.01.2021
3298 Clouds 16 1023 82 10000 8.75 270 23:40 25.01.2021
3299 Clouds 16 1024 94 7000 4.12 240 23:18 25.01.2021
3300 Clouds 16 1022 82 10000 10.29 260 22:39 25.01.2021
3301 Clouds 16 1022 82 10000 7.72 250 21:58 25.01.2021
3302 Clouds 16 1022 82 10000 7.72 250 21:39 25.01.2021
3303 Clouds 16 1023 100 5000 3.6 240 20:53 25.01.2021
3304 Clouds 16 1021 82 10000 8.23 270 20:33 25.01.2021
3305 Clouds 16 1022 100 4000 4.12 230 19:52 25.01.2021
3306 Clouds 16 1020 82 10000 10.29 260 19:32 25.01.2021
3307 Clouds 17 1020 88 10000 8.23 270 18:59 25.01.2021
3308 Clouds 17 1021 94 6000 5.66 210 18:41 25.01.2021
3309 Clouds 17 1020 88 10000 8.23 270 18:21 25.01.2021
3310 Clouds 17 1019 88 10000 7.2 230 17:42 25.01.2021
3311 Rain 17 1019 88 10000 7.2 230 17:23 25.01.2021
3312 Clouds 17 1021 94 6000 6.17 220 16:41 25.01.2021
3313 Clouds 18 1019 72 10000 8.75 240 16:23 25.01.2021
3314 Clouds 18 1021 88 6000 6.69 220 15:50 25.01.2021
3315 Clouds 18 1019 72 10000 8.75 240 15:32 25.01.2021
3316 Clouds 18 1021 88 6000 5.66 210 14:50 25.01.2021
3317 Clouds 18 1021 88 6000 5.14 210 14:20 25.01.2021
3318 Clouds 18 1021 88 6000 5.66 210 13:54 25.01.2021
3319 Clouds 18 1021 77 10000 6.69 240 13:34 25.01.2021
3320 Clouds 18 1022 88 6000 4.12 200 12:46 25.01.2021
3321 Clouds 17 1021 77 10000 5.66 230 12:24 25.01.2021
3322 Clouds 16 1022 100 6000 3.09 200 11:55 25.01.2021
3323 Clouds 16 1022 94 6000 3.6 190 11:19 25.01.2021
3324 Clouds 16 1021 94 6000 3.6 180 10:42 25.01.2021
3325 Clouds 17 1021 100 6000 2.57 200 10:20 25.01.2021
3326 Clouds 16 1021 100 6000 3.09 210 09:46 25.01.2021
3327 Clouds 16 1020 82 10000 6.17 250 09:27 25.01.2021
3328 Clouds 16 1019 77 10000 6.17 260 08:30 25.01.2021
3329 Clouds 16 1020 100 5000 3.09 220 07:45 25.01.2021
3330 Clouds 16 1019 77 10000 4.12 230 07:25 25.01.2021
3331 Clouds 16 1019 82 10000 4.63 260 06:22 25.01.2021
3332 Clouds 16 1020 77 10000 7.2 270 01:34 25.01.2021
3333 Clouds 15 1020 100 5000 2.57 230 23:52 24.01.2021
3334 Clouds 15 1020 100 5000 3.09 230 23:20 24.01.2021
3335 Clouds 15 1020 100 4000 4.12 250 22:45 24.01.2021
3336 -273 0 0 0 0 0 22:27 24.01.2021
3337 -273 0 0 0 0 0 22:27 24.01.2021
3338 -273 0 0 0 0 0 22:26 24.01.2021
3339 Clouds 15 1020 100 5000 3.09 250 21:51 24.01.2021
3340 Clouds 15 1019 82 10000 7.2 280 21:27 24.01.2021
3341 Clouds 15 1020 100 3000 7.2 300 20:46 24.01.2021
3342 Clouds 16 1019 82 10000 6.17 260 20:23 24.01.2021
3343 Clouds 16 1019 82 10000 5.66 260 19:56 24.01.2021
3344 Clouds 16 1018 88 10000 5.66 260 19:28 24.01.2021
3345 Clouds 16 1018 88 10000 5.66 270 18:59 24.01.2021
3346 Clouds 17 1018 77 10000 5.14 250 18:40 24.01.2021
3347 Clouds 17 1018 77 10000 5.14 250 18:21 24.01.2021
3348 Clouds 17 1018 82 10000 5.14 240 17:51 24.01.2021
3349 Clouds 17 1018 77 10000 6.17 280 17:31 24.01.2021
3350 Clouds 17 1018 82 10000 5.14 250 16:59 24.01.2021
3351 Clouds 17 1018 82 10000 4.63 220 16:40 24.01.2021
3352 Clouds 17 1019 100 5000 4.63 220 16:20 24.01.2021
3353 Clouds 16 1019 100 5000 3.6 210 15:45 24.01.2021
3354 Clouds 16 1019 100 3000 3.6 190 15:20 24.01.2021
3355 Clouds 15 1020 100 5000 4.12 190 14:45 24.01.2021
3356 Clouds 15 1019 94 3000 5.14 220 14:24 24.01.2021
3357 Drizzle 16 1020 88 10000 6.69 220 13:34 24.01.2021
3358 Clouds 15 1021 100 5000 4.63 190 12:51 24.01.2021
3359 Clouds 15 1020 88 10000 5.66 220 12:22 24.01.2021
3360 Clouds 15 1021 100 5000 4.63 190 11:54 24.01.2021
3361 Rain 15 1020 94 3000 6.17 220 11:25 24.01.2021
3362 Clouds 15 1019 88 10000 7.2 220 10:59 24.01.2021
3363 Clouds 15 1019 88 10000 7.2 220 10:30 24.01.2021
3364 Clouds 15 1020 100 3000 4.12 180 09:46 24.01.2021
3365 Clouds 15 1020 100 6000 3.6 170 09:19 24.01.2021
3366 Clouds 15 1018 82 10000 6.69 240 08:37 24.01.2021
3367 Clouds 14 1020 100 8000 4.12 190 03:50 24.01.2021
3368 Clouds 15 1021 88 8000 3.09 190 02:19 24.01.2021
3369 Clouds 16 1020 77 10000 10.29 230 00:39 24.01.2021
3370 Clouds 16 1021 77 8000 5.66 200 00:19 24.01.2021
3371 Clouds 16 1020 77 10000 10.8 240 23:33 23.01.2021
3372 Clouds 16 1021 82 5000 10.8 250 22:58 23.01.2021
3373 Clouds 16 1021 82 5000 10.8 250 22:40 23.01.2021
3374 Clouds 16 1020 72 10000 10.8 240 21:59 23.01.2021
3375 Clouds 16 1020 72 10000 10.8 240 21:23 23.01.2021
3376 Clouds 16 1022 72 10000 5.66 220 20:53 23.01.2021
3377 Clouds 16 1020 67 10000 10.8 240 20:33 23.01.2021
3378 Clouds 16 1020 67 10000 8.23 240 19:56 23.01.2021
3379 Clouds 16 1020 67 10000 8.23 240 19:38 23.01.2021
3380 Clouds 16 1022 67 10000 5.66 220 19:19 23.01.2021
3381 Clouds 16 1022 67 10000 5.14 220 18:42 23.01.2021
3382 Clouds 16 1022 67 10000 5.14 220 18:20 23.01.2021
3383 Clouds 17 1020 63 10000 8.75 250 17:29 23.01.2021
3384 Clouds 17 1020 63 10000 7.2 240 16:52 23.01.2021
3385 Clouds 17 1021 63 10000 7.72 240 16:32 23.01.2021
3386 Clouds 17 1021 59 10000 8.75 240 15:53 23.01.2021
3387 Clouds 17 1021 63 10000 7.72 250 15:28 23.01.2021
3388 Clouds 17 1022 77 10000 5.14 230 14:38 23.01.2021
3389 Clouds 17 1023 67 10000 6.69 220 14:19 23.01.2021
3390 Clouds 17 1023 67 10000 6.69 220 14:19 23.01.2021
3391 Clouds 16 1023 77 10000 6.17 250 13:40 23.01.2021
3392 Clouds 16 1023 77 10000 6.17 250 13:22 23.01.2021
3393 Clouds 16 1024 67 9000 5.14 200 12:43 23.01.2021
3394 Clouds 16 1023 72 10000 7.2 270 12:23 23.01.2021
3395 Clouds 15 1023 77 10000 5.14 270 11:35 23.01.2021
3396 Clouds 14 1024 82 8000 3.6 180 10:55 23.01.2021
3397 Clouds 14 1022 82 10000 2.57 260 10:24 23.01.2021
3398 Clouds 14 1023 88 8000 3.09 180 09:52 23.01.2021
3399 Clouds 14 1023 82 10000 4.63 280 09:28 23.01.2021
3400 Clouds 14 1023 82 10000 2.57 170 08:43 23.01.2021
3401 Clouds 13 1023 88 10000 2.57 200 07:48 23.01.2021
3402 Clouds 14 1023 88 10000 4.12 250 06:49 23.01.2021
3403 Clouds 15 1023 77 10000 8.23 270 02:30 23.01.2021
3404 Clouds 15 1024 77 10000 9.77 280 00:32 23.01.2021
3405 Clouds 15 1023 77 10000 8.23 270 23:36 22.01.2021
3406 Clouds 15 1024 77 10000 5.14 250 22:44 22.01.2021
3407 Clouds 15 1024 72 10000 6.17 260 22:20 22.01.2021
3408 Clouds 15 1022 77 10000 8.75 270 21:39 22.01.2021
3409 Clouds 15 1022 77 10000 8.75 270 21:21 22.01.2021
3410 Clouds 15 1023 72 10000 5.14 250 20:46 22.01.2021
3411 Clouds 16 1022 67 10000 10.8 260 20:26 22.01.2021
3412 Clouds 16 1021 67 10000 11.32 270 19:47 22.01.2021
3413 Clouds 16 1023 72 10000 6.17 260 19:18 22.01.2021
3414 Clouds 15 1023 72 10000 6.17 260 19:18 22.01.2021
3415 Clouds 15 1022 67 10000 7.2 260 18:44 22.01.2021
3416 Clouds 16 1020 67 10000 9.26 270 18:25 22.01.2021
3417 Clouds 17 1022 67 10000 7.2 250 17:46 22.01.2021
3418 Clouds 17 1020 59 10000 10.8 270 17:28 22.01.2021
3419 Clouds 17 1022 67 10000 8.23 270 16:54 22.01.2021
3420 Clouds 18 1019 59 10000 11.32 280 16:27 22.01.2021
3421 Clouds 17 1021 72 10000 7.72 260 15:44 22.01.2021
3422 Clouds 18 1019 59 10000 13.38 260 15:19 22.01.2021
3423 Clouds 18 1019 63 10000 9.26 270 14:31 22.01.2021
3424 Clouds 18 1022 68 10000 8.23 280 13:52 22.01.2021
3425 Clouds 18 1020 59 10000 9.26 260 13:32 22.01.2021
3426 Clouds 18 1020 63 10000 9.26 270 12:53 22.01.2021
3427 Clouds 16 1020 72 10000 9.26 270 12:26 22.01.2021
3428 Clouds 17 1022 88 8000 6.17 270 11:47 22.01.2021
3429 Clouds 17 1020 77 10000 7.72 270 11:25 22.01.2021
3430 Clouds 17 1022 94 7000 6.17 260 10:45 22.01.2021
3431 Clouds 17 1021 100 6000 4.63 250 10:20 22.01.2021
3432 Clouds 16 1019 82 10000 5.14 250 09:35 22.01.2021
3433 Clouds 16 1020 100 8000 3.09 220 08:51 22.01.2021
3434 Clouds 16 1018 88 10000 8.23 250 08:30 22.01.2021
3435 Clouds 16 1018 94 6000 6.17 210 07:38 22.01.2021
3436 Drizzle 16 1021 100 6000 6.17 200 03:40 22.01.2021
3437 Clouds 17 1021 100 6000 5.66 200 00:41 22.01.2021
3438 Clouds 16 1022 100 6000 5.14 190 23:56 21.01.2021
3439 Rain 16 1021 82 10000 7.2 240 23:38 21.01.2021
3440 Clouds 16 1022 100 6000 3.6 190 22:54 21.01.2021
3441 Clouds 16 1022 82 10000 6.17 230 22:36 21.01.2021
3442 Clouds 15 1022 100 8000 3.09 190 21:44 21.01.2021
3443 Clouds 16 1022 82 10000 5.14 220 21:22 21.01.2021
3444 Clouds 16 1022 94 6000 3.6 190 20:51 21.01.2021
3445 Clouds 16 1022 77 10000 6.17 230 20:31 21.01.2021
3446 Clouds 16 1021 77 10000 7.72 230 19:56 21.01.2021
3447 Clouds 16 1021 77 10000 7.72 230 19:38 21.01.2021
3448 Clouds 16 1022 94 6000 4.12 200 19:19 21.01.2021
3449 Clouds 16 1022 88 6000 3.6 210 18:40 21.01.2021
3450 Clouds 16 1022 88 6000 4.63 210 18:21 21.01.2021
3451 Clouds 17 1022 88 6000 5.14 210 17:53 21.01.2021
3452 Clouds 17 1021 82 6000 6.17 200 17:21 21.01.2021
3453 Clouds 17 1021 82 6000 6.17 210 16:50 21.01.2021
3454 Clouds 17 1021 72 10000 7.2 240 16:28 21.01.2021
3455 Clouds 17 1021 82 10000 7.2 230 15:59 21.01.2021
3456 Clouds 17 1021 82 10000 7.2 230 15:59 21.01.2021
3457 Clouds 17 1021 82 10000 7.2 230 15:35 21.01.2021
3458 Clouds 17 1022 77 10000 7.72 240 14:54 21.01.2021
3459 Clouds 17 1022 82 10000 6.17 230 14:35 21.01.2021
3460 Clouds 17 1022 82 10000 6.69 230 13:52 21.01.2021
3461 Clouds 17 1022 82 10000 6.69 230 13:52 21.01.2021
3462 Clouds 17 1022 82 10000 5.14 220 13:33 21.01.2021
3463 Clouds 17 1023 77 10000 6.17 240 12:58 21.01.2021
3464 Clouds 16 1023 88 10000 4.12 230 12:39 21.01.2021
3465 Mist 16 1024 88 4000 3.6 190 12:20 21.01.2021
3466 Mist 16 1023 88 4000 3.6 190 11:48 21.01.2021
3467 Clouds 16 1022 72 10000 3.6 250 11:24 21.01.2021
3468 Clouds 16 1022 72 10000 3.09 240 10:51 21.01.2021
3469 Clouds 16 1021 72 10000 3.6 230 10:28 21.01.2021
3470 Clouds 15 1022 82 6000 2.57 160 09:43 21.01.2021
3471 Clouds 15 1021 82 10000 5.66 260 09:24 21.01.2021
3472 Clouds 15 1020 77 10000 4.63 250 08:39 21.01.2021
3473 Clouds 16 1020 77 10000 5.14 250 07:59 21.01.2021
3474 Clouds 16 1020 77 10000 5.14 250 07:27 21.01.2021
3475 Clouds 16 1020 82 6000 6.69 230 06:46 21.01.2021
3476 Clouds 15 1020 82 7000 6.17 240 05:20 21.01.2021
3477 Clouds 15 1019 77 10000 6.69 250 02:27 21.01.2021
3478 Clouds 16 1019 82 7000 7.2 240 00:47 21.01.2021
3479 Clouds 16 1019 88 8000 5.66 240 23:53 20.01.2021
3480 Clouds 16 1017 67 10000 10.8 260 23:32 20.01.2021
3481 Clouds 16 1017 63 10000 10.8 250 22:58 20.01.2021
3482 Clouds 16 1017 63 10000 10.8 250 22:36 20.01.2021
3483 Clouds 16 1017 67 10000 7.2 240 21:56 20.01.2021
3484 Clouds 16 1016 72 10000 8.75 250 21:24 20.01.2021
3485 Clouds 16 1016 72 10000 9.26 260 20:58 20.01.2021
3486 Clouds 16 1016 72 10000 7.72 260 20:38 20.01.2021
3487 Clouds 16 1017 94 6000 4.63 220 20:18 20.01.2021
3488 Clouds 15 1015 77 10000 3.09 230 19:41 20.01.2021
3489 Rain 14 1015 94 10000 1.54 250 19:22 20.01.2021
3490 Rain 15 1016 100 2000 6.17 220 18:42 20.01.2021
3491 Rain 15 1014 94 2500 8.23 240 17:57 20.01.2021
3492 Rain 14 1014 94 2500 8.23 240 17:37 20.01.2021
3493 Rain 14 1014 88 2500 7.2 220 16:53 20.01.2021
3494 Rain 14 1014 88 2500 7.2 220 16:33 20.01.2021
3495 Rain 14 1014 82 10000 7.2 220 15:52 20.01.2021
3496 Rain 14 1014 82 10000 7.2 220 15:34 20.01.2021
3497 Rain 14 1015 88 8000 5.14 170 14:50 20.01.2021
3498 Rain 14 1016 77 10000 5.66 230 14:23 20.01.2021
3499 Rain 14 1017 82 8000 6.17 170 13:42 20.01.2021
3500 Rain 14 1017 82 10000 6.17 210 13:24 20.01.2021
3501 Rain 14 1018 77 10000 7.2 220 12:39 20.01.2021
3502 Rain 14 1018 77 10000 5.14 220 11:57 20.01.2021
3503 Rain 14 1018 77 10000 5.14 220 11:37 20.01.2021
3504 Rain 14 1018 67 10000 6.69 230 10:56 20.01.2021
3505 Rain 14 1018 67 10000 6.69 230 10:32 20.01.2021
3506 Clouds 14 1017 71 8000 6.17 160 09:50 20.01.2021
3507 Clouds 14 1018 63 10000 6.69 230 09:24 20.01.2021
3508 Clouds 14 1018 67 8000 4.63 170 08:49 20.01.2021
3509 Clouds 14 1018 63 10000 5.14 230 08:27 20.01.2021
3510 Clouds 13 1018 71 8000 4.12 170 07:56 20.01.2021
3511 Clouds 13 1018 72 10000 2.57 260 07:25 20.01.2021
3512 Clouds 13 1018 72 10000 2.57 260 07:25 20.01.2021
3513 Clouds 12 1018 71 8000 3.09 170 05:50 20.01.2021
3514 Haze 11 1021 93 9000 2.06 260 03:27 20.01.2021
3515 Haze 12 1022 93 7000 1.54 250 00:59 20.01.2021
3516 Haze 11 1022 93 7000 1.54 250 00:31 20.01.2021
3517 Clouds 10 1022 100 6000 2.06 110 23:46 19.01.2021
3518 Clouds 10 1022 100 6000 2.06 90 23:19 19.01.2021
3519 Clouds 10 1022 100 6000 2.06 80 22:42 19.01.2021
3520 Clouds 11 1022 87 10000 0.51 310 22:22 19.01.2021
3521 Clear 11 1022 87 10000 2.06 70 21:59 19.01.2021
3522 Clear 11 1022 87 10000 2.06 70 21:59 19.01.2021
3523 Clear 11 1022 87 10000 2.06 70 21:40 19.01.2021
3524 Clouds 11 1022 100 8000 3.09 90 21:19 19.01.2021
3525 Clear 12 1023 82 10000 1.03 100 20:42 19.01.2021
3526 Clear 12 1023 76 10000 0.51 150 20:22 19.01.2021
3527 Clear 13 1023 76 10000 0.51 120 19:42 19.01.2021
3528 Clear 14 1023 72 10000 1.03 160 19:23 19.01.2021
3529 Clear 14 1023 77 10000 1.03 270 18:43 19.01.2021
3530 Clouds 15 1023 72 10000 3.09 120 18:25 19.01.2021
3531 Clear 15 1022 72 10000 2.57 290 17:45 19.01.2021
3532 Clouds 16 1023 67 10000 3.09 100 17:24 19.01.2021
3533 Clear 16 1022 63 10000 1.03 0 16:48 19.01.2021
3534 Clouds 16 1024 67 10000 3.09 100 16:25 19.01.2021
3535 Clouds 16 1024 67 10000 3.09 90 15:57 19.01.2021
3536 Clouds 15 1024 67 10000 3.09 90 15:35 19.01.2021
3537 Clouds 16 1025 67 10000 3.09 90 14:51 19.01.2021
3538 Clouds 16 1025 67 10000 2.57 70 14:31 19.01.2021
3539 Clouds 16 1025 67 10000 3.09 70 13:56 19.01.2021
3540 Clouds 15 1025 67 10000 3.09 70 13:37 19.01.2021
3541 Clear 15 1025 63 10000 1.54 50 13:19 19.01.2021
3542 Clouds 14 1027 72 10000 3.09 50 12:36 19.01.2021
3543 Clouds 14 1027 72 10000 3.09 50 12:36 19.01.2021
3544 Clouds 14 1026 77 7000 2.57 80 12:18 19.01.2021
3545 Clouds 14 1026 82 7000 2.57 80 11:43 19.01.2021
3546 Clouds 12 1027 87 10000 2.59 71 11:22 19.01.2021
3547 Clear 12 1025 94 8000 2.57 90 10:50 19.01.2021
3548 Clouds 10 1026 93 10000 1.03 270 10:29 19.01.2021
3549 Clouds 9 1026 93 10000 1.54 280 09:51 19.01.2021
3550 Clear 9 1025 100 10000 2.57 80 09:20 19.01.2021
3551 Clear 9 1025 100 10000 3.09 70 08:45 19.01.2021
3552 Clouds 9 1026 93 10000 1.03 260 07:57 19.01.2021
3553 Clear 9 1025 100 10000 3.09 90 07:22 19.01.2021
3554 Clear 10 1026 100 10000 2.57 90 04:55 19.01.2021
3555 Clouds 11 1027 87 10000 3.41 71 02:24 19.01.2021
3556 Clear 10 1026 100 10000 2.06 70 00:47 19.01.2021
3557 Clouds 11 1027 82 10000 0.51 110 23:57 18.01.2021
3558 Clouds 11 1027 82 10000 0.51 110 23:29 18.01.2021
3559 Clear 11 1026 100 10000 3.09 90 22:46 18.01.2021
3560 Clouds 11 1027 82 10000 1.03 80 22:24 18.01.2021
3561 Clear 11 1026 100 10000 1.54 80 21:48 18.01.2021
3562 Clouds 12 1027 76 10000 2.06 60 21:24 18.01.2021
3563 Clouds 12 1027 82 10000 1.03 60 20:57 18.01.2021
3564 Clouds 12 1027 82 10000 1.03 60 20:35 18.01.2021
3565 Clouds 13 1026 82 10000 1.54 30 19:54 18.01.2021
3566 Clouds 13 1026 82 10000 1.54 30 19:54 18.01.2021
3567 Clouds 13 1026 82 10000 1.54 30 19:35 18.01.2021
3568 Clouds 14 1026 77 10000 3.09 70 18:53 18.01.2021
3569 Clouds 14 1026 77 10000 3.09 70 18:33 18.01.2021
3570 Clouds 15 1026 72 10000 3.6 80 17:52 18.01.2021
3571 Clouds 15 1026 72 10000 3.6 80 17:32 18.01.2021
3572 Clouds 16 1026 72 10000 3.09 70 16:55 18.01.2021
3573 Clouds 15 1026 72 10000 3.09 70 16:33 18.01.2021
3574 Clouds 16 1026 72 10000 3.09 80 15:56 18.01.2021
3575 Clouds 15 1026 72 10000 3.09 80 15:37 18.01.2021
3576 Clear 16 1025 72 10000 3.09 270 15:19 18.01.2021
3577 Clear 16 1026 67 10000 3.09 250 14:42 18.01.2021
3578 Clouds 16 1026 72 10000 2.57 90 14:24 18.01.2021
3579 Clouds 16 1027 72 10000 2.06 120 13:45 18.01.2021
3580 Clouds 16 1027 72 10000 2.06 120 13:22 18.01.2021
3581 Clear 16 1027 67 10000 2.06 160 12:47 18.01.2021
3582 Clear 15 1027 72 10000 2.06 170 12:19 18.01.2021
3583 Clear 13 1027 76 10000 2.57 180 11:48 18.01.2021
3584 Clouds 13 1027 82 10000 1.03 260 11:27 18.01.2021
3585 Clear 12 1027 100 10000 2.06 80 10:51 18.01.2021
3586 Clear 11 1026 87 10000 2.06 230 10:30 18.01.2021
3587 Clear 9 1026 100 6000 2.57 90 09:43 18.01.2021
3588 Mist 9 1026 100 2000 2.57 90 09:18 18.01.2021
3589 Clouds 9 1026 87 10000 2.06 250 08:31 18.01.2021
3590 Mist 9 1026 100 2000 3.09 90 07:55 18.01.2021
3591 Mist 9 1025 100 3000 2.57 90 06:44 18.01.2021
3592 Clouds 10 1026 100 5000 2.06 60 04:54 18.01.2021
3593 Clouds 10 1025 82 10000 4.12 250 04:29 18.01.2021
3594 Clouds 9 1026 100 5000 1.54 60 03:53 18.01.2021
3595 Clouds 9 1026 87 10000 4.63 250 03:30 18.01.2021
3596 Clouds 9 1026 87 10000 3.6 250 02:59 18.01.2021
3597 Clouds 9 1026 100 6000 3.09 80 02:20 18.01.2021
3598 Clouds 11 1026 93 5000 2.06 80 00:41 18.01.2021
3599 Clouds 11 1027 100 5000 1.54 90 00:19 18.01.2021
3600 Clouds 11 1027 100 6000 1.03 0 23:41 17.01.2021
3601 Clouds 11 1027 100 6000 1.03 0 23:19 17.01.2021
3602 Clouds 11 1026 87 10000 3.09 250 22:24 17.01.2021
3603 Clouds 11 1026 82 10000 1.54 250 21:57 17.01.2021
3604 Clouds 11 1026 82 10000 1.54 250 21:37 17.01.2021
3605 Clear 11 1026 100 10000 2.06 90 21:18 17.01.2021
3606 Clouds 12 1027 76 10000 1.54 180 20:40 17.01.2021
3607 Clear 12 1026 93 10000 2.06 70 20:18 17.01.2021
3608 Clouds 13 1027 76 10000 1.03 140 19:40 17.01.2021
3609 Clouds 15 1027 72 10000 0.51 300 18:58 17.01.2021
3610 Clouds 15 1027 72 10000 0.51 300 18:30 17.01.2021
3611 Clear 15 1026 82 10000 4.63 50 17:54 17.01.2021
3612 Clouds 15 1027 77 10000 3.6 100 17:35 17.01.2021
3613 Clouds 16 1027 72 10000 3.09 80 16:57 17.01.2021
3614 Clouds 16 1027 72 10000 3.09 80 16:39 17.01.2021
3615 Clear 16 1025 72 10000 4.12 30 16:19 17.01.2021
3616 Clouds 16 1027 72 10000 3.09 70 15:38 17.01.2021
3617 Clear 16 1026 67 10000 2.57 240 15:19 17.01.2021
3618 Clear 16 1026 67 10000 2.57 240 14:42 17.01.2021
3619 Clouds 17 1028 72 10000 3.09 70 14:23 17.01.2021
3620 Clear 16 1026 55 10000 1.54 0 13:43 17.01.2021
3621 Clear 16 1026 55 10000 1.54 0 13:43 17.01.2021
3622 Clear 16 1026 55 10000 1.54 0 13:43 17.01.2021
3623 Clouds 16 1029 82 10000 3.6 60 13:24 17.01.2021
3624 Clear 15 1027 63 10000 1.54 100 12:46 17.01.2021
3625 Clouds 15 1029 77 10000 4.63 60 12:25 17.01.2021
3626 Clouds 14 1029 77 10000 5.66 60 11:26 17.01.2021
3627 Clouds 13 1029 82 10000 5.66 60 10:57 17.01.2021
3628 Clouds 13 1029 82 10000 5.66 60 10:37 17.01.2021
3629 Clear 13 1027 82 10000 1.54 110 10:18 17.01.2021
3630 Clear 10 1027 93 10000 2.06 60 09:18 17.01.2021
3631 Clear 10 1027 93 10000 2.06 60 09:18 17.01.2021
3632 Clear 11 1027 87 7000 2.06 110 08:41 17.01.2021
3633 Clouds 13 1028 77 10000 8.75 60 04:39 17.01.2021
3634 Clouds 13 1026 87 7000 5.66 70 04:20 17.01.2021
3635 Clouds 12 1029 76 10000 5.66 50 01:37 17.01.2021
3636 Clouds 13 1029 72 10000 7.2 60 00:21 17.01.2021
3637 Clear 13 1027 93 7000 5.66 60 23:54 16.01.2021
3638 Clouds 12 1029 77 10000 8.23 70 23:26 16.01.2021
3639 Clear 12 1029 82 10000 8.75 60 22:58 16.01.2021
3640 Clear 12 1029 82 10000 8.75 60 22:26 16.01.2021
3641 Clear 11 1028 100 5000 2.06 80 21:50 16.01.2021
3642 Clear 12 1028 72 10000 8.75 70 21:23 16.01.2021
3643 Clear 11 1027 100 6000 2.57 60 20:52 16.01.2021
3644 Clouds 12 1028 72 10000 6.17 80 20:28 16.01.2021
3645 Clear 13 1027 87 5000 1.03 0 19:50 16.01.2021
3646 Clouds 14 1027 72 10000 5.14 70 19:31 16.01.2021
3647 Clear 15 1026 77 8000 1.03 0 18:47 16.01.2021
3648 Clear 15 1026 48 10000 2.06 190 18:28 16.01.2021
3649 Clear 16 1026 44 10000 5.14 200 17:59 16.01.2021
3650 Clear 16 1026 44 10000 5.14 200 17:39 16.01.2021
3651 Clear 16 1026 44 10000 5.14 200 17:21 16.01.2021
3652 Clouds 16 1026 72 8000 2.57 210 16:42 16.01.2021
3653 Clouds 16 1026 72 8000 3.09 220 16:19 16.01.2021
3654 Clouds 16 1026 72 8000 3.6 220 15:42 16.01.2021
3655 Clouds 16 1025 42 10000 4.63 220 14:35 16.01.2021
3656 Clouds 16 1025 39 10000 4.12 220 13:54 16.01.2021
3657 Clouds 16 1025 39 10000 4.12 220 13:32 16.01.2021
3658 Clouds 15 1028 72 8000 3.09 210 12:49 16.01.2021
3659 Clear 14 1026 51 10000 5.14 270 12:31 16.01.2021
3660 Clouds 13 1026 50 10000 6.69 260 11:59 16.01.2021
3661 Clouds 13 1026 50 10000 6.69 260 11:39 16.01.2021
3662 Clouds 13 1028 82 8000 2.06 180 11:18 16.01.2021
3663 Clouds 11 1028 100 8000 1.54 150 10:41 16.01.2021
3664 Clouds 9 1025 50 10000 5.66 250 09:57 16.01.2021
3665 Clear 8 1026 100 8000 1.03 0 09:21 16.01.2021
3666 Clear 10 1026 100 6000 1.03 0 08:19 16.01.2021
3667 Clear 8 1026 100 5000 2.57 90 06:52 16.01.2021
3668 Clear 9 1024 62 10000 7.72 280 05:35 16.01.2021
3669 Clear 9 1026 100 5000 2.06 70 03:44 16.01.2021
3670 Clear 8 1026 100 5000 0.51 0 02:47 16.01.2021
3671 Clear 8 1027 100 8000 2.06 80 00:47 16.01.2021
3672 Clear 9 1025 66 10000 9.77 280 00:23 16.01.2021
3673 Clear 10 1025 62 10000 7.72 280 23:39 15.01.2021
3674 Clear 10 1025 62 10000 9.26 280 22:41 15.01.2021
3675 Clear 10 1025 62 10000 9.26 280 22:21 15.01.2021
3676 Clear 10 1027 93 10000 0.51 0 21:43 15.01.2021
3677 Clear 11 1027 87 10000 2.06 300 20:49 15.01.2021
3678 Clear 12 1025 67 10000 10.29 270 20:24 15.01.2021
3679 Clear 12 1025 62 10000 9.26 270 19:58 15.01.2021
3680 Clear 12 1025 62 10000 9.26 270 19:39 15.01.2021
3681 Clear 12 1025 62 10000 9.26 270 19:21 15.01.2021
3682 Clouds 13 1026 82 10000 3.09 290 18:42 15.01.2021
3683 Clouds 14 1026 76 10000 3.6 280 18:18 15.01.2021
3684 Clouds 14 1026 82 10000 3.6 280 17:41 15.01.2021
3685 Clear 15 1024 48 10000 7.72 280 17:21 15.01.2021
3686 Clouds 15 1026 77 10000 3.09 270 16:46 15.01.2021
3687 Clear 15 1024 44 10000 7.72 270 16:23 15.01.2021
3688 Clouds 15 1026 77 10000 3.09 280 15:41 15.01.2021
3689 Clear 15 1024 41 10000 7.2 260 15:21 15.01.2021
3690 Clouds 15 1026 77 10000 2.57 270 14:43 15.01.2021
3691 Clear 15 1025 36 10000 7.72 260 14:24 15.01.2021
3692 Clouds 16 1027 67 10000 3.6 220 13:41 15.01.2021
3693 Clouds 15 1026 51 10000 7.2 260 13:21 15.01.2021
3694 Clouds 14 1028 67 10000 3.09 200 12:49 15.01.2021
3695 Clouds 14 1027 58 10000 7.2 280 12:31 15.01.2021
3696 Clouds 13 1028 67 10000 3.6 180 11:46 15.01.2021
3697 Clouds 13 1027 62 10000 7.72 280 11:23 15.01.2021
3698 Clouds 12 1026 66 10000 7.72 280 10:53 15.01.2021
3699 Clouds 12 1026 66 10000 7.72 280 10:34 15.01.2021
3700 Clouds 11 1027 76 10000 3.6 170 09:53 15.01.2021
3701 Clouds 11 1026 62 10000 6.69 290 09:34 15.01.2021
3702 Clouds 11 1026 66 10000 7.2 270 08:37 15.01.2021
3703 Clouds 11 1027 81 10000 2.57 220 08:18 15.01.2021
3704 Clear 11 1025 71 10000 7.2 270 07:39 15.01.2021
3705 Clear 11 1025 71 10000 7.2 270 07:18 15.01.2021
3706 Clouds 10 1027 87 10000 2.06 170 03:46 15.01.2021
3707 Clear 11 1026 76 10000 9.77 270 00:57 15.01.2021
3708 Clouds 11 1028 82 10000 1.54 170 23:47 14.01.2021
3709 Clear 12 1026 76 10000 9.26 270 22:59 14.01.2021
3710 Clear 12 1026 76 10000 9.26 270 22:40 14.01.2021
3711 Clear 12 1026 76 10000 9.26 270 22:22 14.01.2021
3712 Clouds 12 1027 71 10000 2.57 230 21:42 14.01.2021
3713 Clear 13 1026 76 10000 9.26 270 21:21 14.01.2021
3714 Clouds 13 1027 71 10000 2.57 230 20:49 14.01.2021
3715 Clear 12 1026 82 10000 8.23 280 20:25 14.01.2021
3716 Clouds 13 1027 71 10000 4.63 250 19:44 14.01.2021
3717 Clear 13 1026 76 10000 8.75 270 19:26 14.01.2021
3718 Clouds 14 1027 67 10000 4.12 240 18:55 14.01.2021
3719 Clear 14 1026 67 10000 9.77 280 18:27 14.01.2021
3720 Clouds 15 1027 62 10000 4.12 220 17:46 14.01.2021
3721 Clouds 15 1025 55 10000 9.26 270 17:27 14.01.2021
3722 Clouds 14 1027 72 10000 5.14 200 16:43 14.01.2021
3723 Clouds 15 1027 67 10000 4.12 210 16:18 14.01.2021
3724 Clouds 15 1027 67 10000 5.14 210 15:45 14.01.2021
3725 Clouds 15 1026 58 10000 9.26 280 14:59 14.01.2021
3726 Clouds 15 1026 58 10000 8.75 280 14:38 14.01.2021
3727 Clouds 15 1028 67 10000 5.14 210 14:19 14.01.2021
3728 Clouds 15 1027 63 10000 7.2 280 13:52 14.01.2021
3729 Clouds 15 1029 62 10000 3.6 190 13:21 14.01.2021
3730 Clouds 14 1029 67 10000 3.6 190 12:47 14.01.2021
3731 Clouds 13 1029 66 10000 4.12 180 12:19 14.01.2021
3732 Clouds 13 1029 62 10000 4.12 180 11:43 14.01.2021
3733 Clouds 12 1029 66 10000 3.09 180 11:21 14.01.2021
3734 Clouds 12 1028 71 10000 5.14 280 10:52 14.01.2021
3735 Clouds 11 1028 66 10000 5.14 280 10:25 14.01.2021
3736 Clouds 10 1029 76 10000 1.03 0 09:48 14.01.2021
3737 Clouds 9 1027 71 10000 5.66 280 09:23 14.01.2021
3738 Clear 8 1028 81 10000 1.03 0 08:49 14.01.2021
3739 Clouds 9 1027 71 10000 6.17 280 08:25 14.01.2021
3740 Clear 8 1028 93 10000 0.51 0 07:48 14.01.2021
3741 Clear 7 1028 93 10000 1.03 0 06:52 14.01.2021
3742 Clear 8 1029 93 10000 1.03 60 05:50 14.01.2021
3743 Clear 8 1029 54 10000 9.26 260 00:46 14.01.2021
3744 Clear 8 1030 87 10000 2.57 70 23:54 13.01.2021
3745 Clear 8 1029 62 10000 7.72 260 23:23 13.01.2021
3746 Clear 9 1029 66 10000 6.69 260 22:29 13.01.2021
3747 Clear 9 1029 62 10000 6.69 260 21:57 13.01.2021
3748 Clear 9 1029 62 10000 6.69 260 21:38 13.01.2021
3749 Clear 10 1028 66 10000 6.69 260 20:59 13.01.2021
3750 Clear 11 1028 66 10000 6.69 260 20:33 13.01.2021
3751 Clear 12 1028 50 10000 4.63 230 19:58 13.01.2021
3752 Clear 12 1028 50 10000 4.63 230 19:39 13.01.2021
3753 Clear 12 1029 62 10000 2.57 250 19:19 13.01.2021
3754 Clear 14 1028 41 10000 4.12 250 18:40 13.01.2021
3755 Clear 14 1028 44 10000 4.63 270 17:51 13.01.2021
3756 Clear 14 1028 38 10000 5.14 270 17:25 13.01.2021
3757 Clear 14 1028 41 10000 5.14 260 16:51 13.01.2021
3758 Clear 15 1028 41 10000 5.14 260 16:22 13.01.2021
3759 Clouds 15 1029 51 10000 4.63 250 15:53 13.01.2021
3760 Clouds 15 1027 44 10000 3.09 230 15:35 13.01.2021
3761 Clouds 15 1029 67 10000 4.63 260 14:48 13.01.2021
3762 Clouds 15 1029 44 10000 3.09 210 13:53 13.01.2021
3763 Clouds 14 1029 44 10000 2.57 240 13:31 13.01.2021
3764 Clouds 14 1030 58 10000 2.06 170 12:47 13.01.2021
3765 Clouds 13 1030 58 10000 2.57 250 12:28 13.01.2021
3766 Clear 11 1030 71 10000 2.57 270 11:55 13.01.2021
3767 Clear 10 1030 71 10000 2.57 270 11:35 13.01.2021
3768 Clear 8 1030 76 10000 3.09 270 10:56 13.01.2021
3769 Clear 7 1030 81 10000 3.09 240 10:37 13.01.2021
3770 Clear 7 1030 93 10000 2.06 90 10:18 13.01.2021
3771 Clear 5 1029 81 10000 3.6 250 09:31 13.01.2021
3772 Clear 4 1029 100 10000 2.57 80 08:52 13.01.2021
3773 Clouds 5 1029 81 10000 2.57 240 08:31 13.01.2021
3774 Clear 5 1029 81 10000 3.09 240 07:35 13.01.2021
3775 Clear 5 1029 76 10000 3.09 240 06:56 13.01.2021
3776 Clear 6 1029 76 10000 3.6 240 04:21 13.01.2021
3777 Clear 6 1028 93 8000 1.54 80 03:48 13.01.2021
3778 Clear 6 1029 81 10000 3.6 240 03:29 13.01.2021
3779 Clear 7 1029 81 10000 3.09 230 01:32 13.01.2021
3780 Clear 7 1030 76 10000 3.6 240 00:29 13.01.2021
3781 Clear 8 1029 71 10000 3.6 240 23:22 12.01.2021
3782 Clear 8 1029 81 10000 2.57 90 22:46 12.01.2021
3783 Clear 8 1029 81 10000 2.57 90 22:46 12.01.2021
3784 Clear 9 1029 66 10000 3.09 250 22:24 12.01.2021
3785 Clear 9 1029 71 10000 2.06 40 21:51 12.01.2021
3786 Clear 10 1029 62 10000 2.06 240 21:30 12.01.2021
3787 Clear 10 1028 66 10000 2.06 40 20:49 12.01.2021
3788 Clear 11 1029 54 10000 3.09 240 20:27 12.01.2021
3789 Clear 11 1028 71 10000 1.54 60 19:55 12.01.2021
3790 Clear 12 1028 54 10000 3.6 280 19:35 12.01.2021
3791 Clear 13 1028 41 10000 3.09 200 18:46 12.01.2021
3792 Clear 13 1028 41 10000 3.09 200 18:24 12.01.2021
3793 Clear 13 1028 54 10000 2.57 350 17:44 12.01.2021
3794 Clouds 14 1028 47 10000 3.6 200 17:25 12.01.2021
3795 Clear 14 1027 47 10000 3.6 360 16:44 12.01.2021
3796 Clouds 15 1028 44 10000 3.09 200 16:24 12.01.2021
3797 Clouds 14 1028 51 10000 3.6 340 15:41 12.01.2021
3798 Clouds 14 1028 44 10000 3.09 200 15:21 12.01.2021
3799 Clouds 14 1028 47 10000 2.57 10 14:43 12.01.2021
3800 Clouds 15 1028 38 10000 2.06 200 14:23 12.01.2021
3801 Clouds 14 1028 51 10000 1.54 330 13:52 12.01.2021
3802 Clouds 14 1029 58 10000 1.03 0 13:18 12.01.2021
3803 Clear 12 1030 62 10000 1.03 260 12:24 12.01.2021
3804 Clear 11 1029 66 10000 2.06 260 11:41 12.01.2021
3805 Clouds 9 1029 76 10000 2.57 90 10:55 12.01.2021
3806 Clear 8 1029 71 10000 2.06 270 10:25 12.01.2021
3807 Clear 7 1028 76 10000 3.09 270 09:58 12.01.2021
3808 Clear 6 1028 76 10000 3.09 270 09:38 12.01.2021
3809 Clouds 6 1028 93 10000 2.57 60 09:18 12.01.2021
3810 Clear 6 1027 81 10000 3.09 270 08:26 12.01.2021
3811 Clear 6 1027 81 10000 2.06 270 07:37 12.01.2021
3812 Clouds 6 1027 87 10000 2.57 70 06:49 12.01.2021
3813 Clear 7 1027 76 10000 3.09 250 05:34 12.01.2021
3814 Clear 7 1026 81 10000 3.09 290 03:27 12.01.2021
3815 Clouds 8 1026 87 10000 2.06 60 02:21 12.01.2021
3816 Clear 9 1026 76 10000 3.09 260 01:31 12.01.2021
3817 Clear 9 1026 76 10000 3.09 260 01:31 12.01.2021
3818 Clear 9 1026 76 10000 3.09 260 01:31 12.01.2021
3819 Clear 10 1025 76 10000 4.12 290 23:57 11.01.2021
3820 Clear 10 1025 76 10000 4.12 290 23:36 11.01.2021
3821 Clouds 10 1025 66 10000 1.54 140 23:18 11.01.2021
3822 Clouds 10 1025 71 10000 2.06 160 22:45 11.01.2021
3823 Clear 9 1024 76 10000 3.09 290 22:26 11.01.2021
3824 Clear 11 1024 71 10000 3.6 260 21:42 11.01.2021
3825 Clear 11 1024 71 10000 3.6 260 21:23 11.01.2021
3826 Clouds 11 1023 66 10000 1.03 0 20:47 11.01.2021
3827 Clear 11 1023 66 10000 4.63 280 20:28 11.01.2021
3828 Clouds 12 1022 58 10000 4.63 270 19:57 11.01.2021
3829 Clouds 12 1022 58 10000 4.63 270 19:34 11.01.2021
3830 Clouds 12 1022 66 10000 2.06 200 18:46 11.01.2021
3831 Clouds 12 1021 58 10000 5.14 280 18:27 11.01.2021
3832 Clouds 12 1021 54 10000 5.14 270 17:56 11.01.2021
3833 Clouds 13 1021 54 10000 5.14 270 17:38 11.01.2021
3834 Clouds 13 1021 62 10000 2.57 220 17:19 11.01.2021
3835 Clouds 13 1020 54 10000 5.14 260 16:40 11.01.2021
3836 Clouds 13 1020 54 10000 5.14 260 16:40 11.01.2021
3837 Clouds 13 1020 54 10000 3.6 260 16:21 11.01.2021
3838 Clouds 13 1020 62 10000 3.6 240 15:49 11.01.2021
3839 Clouds 13 1019 58 10000 3.09 210 15:27 11.01.2021
3840 Clouds 12 1019 62 10000 2.57 230 14:40 11.01.2021
3841 Clouds 11 1020 66 10000 3.09 200 13:58 11.01.2021
3842 Clouds 11 1020 66 10000 2.57 240 13:38 11.01.2021
3843 Clouds 11 1020 66 10000 2.06 160 13:18 11.01.2021
3844 Clouds 11 1020 71 10000 3.09 270 12:36 11.01.2021
3845 Clouds 10 1020 71 10000 2.57 280 11:58 11.01.2021
3846 Clouds 9 1020 71 10000 2.57 280 11:36 11.01.2021
3847 Clouds 8 1019 81 10000 2.57 310 10:53 11.01.2021
3848 Clouds 7 1018 81 10000 3.09 310 10:27 11.01.2021
3849 Clouds 6 1017 100 10000 2.06 90 09:45 11.01.2021
3850 Clouds 6 1017 100 10000 2.06 90 09:23 11.01.2021
3851 Clouds 5 1017 93 10000 1.54 60 08:46 11.01.2021
3852 Clouds 5 1016 100 10000 2.06 80 08:19 11.01.2021
3853 Clouds 6 1016 87 10000 1.54 260 07:30 11.01.2021
3854 Clouds 6 1016 87 10000 1.54 250 06:59 11.01.2021
3855 Clouds 6 1016 87 10000 1.54 250 06:26 11.01.2021
3856 Clouds 7 1014 93 4000 1.03 0 01:46 11.01.2021
3857 Clouds 6 1014 87 10000 3.09 310 00:38 11.01.2021
3858 Clouds 6 1013 100 6000 2.57 70 23:43 10.01.2021
3859 Clouds 7 1012 93 6000 2.57 80 22:49 10.01.2021
3860 Clouds 7 1013 87 10000 1.03 10 22:27 10.01.2021
3861 Clouds 7 1012 93 6000 1.03 0 21:46 10.01.2021
3862 Clouds 7 1013 87 10000 1.54 330 21:21 10.01.2021
3863 Clouds 7 1013 87 10000 1.54 10 20:57 10.01.2021
3864 Clouds 7 1013 87 10000 1.54 10 20:33 10.01.2021
3865 Clouds 7 1012 81 9000 1.54 20 19:59 10.01.2021
3866 Clouds 7 1012 81 9000 1.54 20 19:38 10.01.2021
3867 Clouds 7 1011 87 5000 2.57 80 19:20 10.01.2021
3868 Rain 7 1012 81 10000 1.54 10 18:42 10.01.2021
3869 Clouds 7 1010 93 10000 2.57 100 18:19 10.01.2021
3870 Clouds 8 1011 76 10000 1.54 340 17:22 10.01.2021
3871 Clouds 8 1009 93 8000 3.09 80 16:43 10.01.2021
3872 Rain 8 1010 76 10000 2.06 320 16:25 10.01.2021
3873 Clouds 8 1010 76 10000 3.09 290 15:26 10.01.2021
3874 Clouds 8 1010 76 10000 1.54 330 14:52 10.01.2021
3875 Rain 8 1010 76 10000 1.54 330 14:34 10.01.2021
3876 Clouds 9 1010 66 10000 1.54 300 13:55 10.01.2021
3877 Clouds 9 1010 66 10000 1.54 300 13:37 10.01.2021
3878 Clouds 9 1010 66 10000 1.54 300 13:37 10.01.2021
3879 Clouds 9 1009 87 6000 2.57 150 13:19 10.01.2021
3880 Clouds 10 1009 71 8000 2.57 150 12:50 10.01.2021
3881 Rain 9 1010 66 10000 2.06 320 12:32 10.01.2021
3882 Clouds 9 1009 71 8000 2.06 300 11:44 10.01.2021
3883 Clouds 9 1009 66 8000 4.12 290 11:19 10.01.2021
3884 Clouds 9 1009 62 8000 5.66 280 10:42 10.01.2021
3885 Clouds 9 1008 87 10000 0.51 210 10:21 10.01.2021
3886 Clouds 7 1008 87 10000 1.03 330 09:28 10.01.2021
3887 Clouds 8 1007 87 10000 1.03 290 08:22 10.01.2021
3888 Clouds 8 1007 87 10000 2.06 260 07:33 10.01.2021
3889 Clouds 8 1006 76 5000 5.66 270 06:20 10.01.2021
3890 Rain 8 1006 81 10000 1.54 330 05:38 10.01.2021
3891 Clouds 9 1006 61 6000 3.6 240 03:55 10.01.2021
3892 Rain 9 1006 71 10000 3.6 200 01:29 10.01.2021
3893 Clouds 9 1006 66 6000 7.72 290 23:55 09.01.2021
3894 Rain 9 1006 87 10000 1.03 20 23:36 09.01.2021
3895 Clouds 9 1005 71 5000 6.69 280 22:49 09.01.2021
3896 Clouds 9 1005 71 3000 12.86 280 22:19 09.01.2021
3897 Clouds 9 1006 87 8000 4.12 240 21:57 09.01.2021
3898 Clouds 10 1005 81 7000 2.57 210 21:39 09.01.2021
3899 Clouds 10 1005 81 7000 2.57 210 21:19 09.01.2021
3900 Rain 10 1004 62 6000 5.66 250 20:44 09.01.2021
3901 Clouds 9 1004 81 6000 5.14 270 19:45 09.01.2021
3902 Rain 8 1005 87 5000 4.63 200 19:24 09.01.2021
3903 Clouds 10 1005 71 10000 3.09 170 18:59 09.01.2021
3904 Clouds 10 1005 71 10000 3.09 170 18:35 09.01.2021
3905 Rain 10 1005 81 4000 11.32 260 17:50 09.01.2021
3906 Rain 11 1005 71 10000 4.63 220 17:32 09.01.2021
3907 Rain 11 1005 66 10000 7.2 270 16:36 09.01.2021
3908 Clouds 12 1005 54 10000 6.17 280 15:53 09.01.2021
3909 Rain 11 1005 54 10000 6.17 280 15:34 09.01.2021
3910 Rain 12 1005 66 1500 6.69 250 14:42 09.01.2021
3911 Rain 13 1005 58 4000 3.6 220 14:21 09.01.2021
3912 Clouds 13 1005 58 8000 6.17 240 13:50 09.01.2021
3913 Clouds 12 1006 54 10000 10.29 260 13:31 09.01.2021
3914 Clouds 12 1006 54 10000 10.8 270 12:59 09.01.2021
3915 Clouds 12 1007 62 4000 7.2 240 12:27 09.01.2021
3916 Clouds 12 1007 62 10000 7.2 260 11:56 09.01.2021
3917 Clouds 11 1007 62 10000 7.2 260 11:35 09.01.2021
3918 Clouds 11 1007 71 10000 6.17 280 10:55 09.01.2021
3919 Clouds 10 1007 71 10000 6.17 280 10:36 09.01.2021
3920 Clouds 10 1006 62 6000 7.72 260 09:54 09.01.2021
3921 Clouds 10 1006 76 10000 5.14 290 09:29 09.01.2021
3922 Clouds 11 1005 71 10000 8.75 270 09:00 09.01.2021
3923 Clouds 11 1005 66 6000 8.75 270 07:43 09.01.2021
3924 Clouds 11 1003 81 10000 7.2 280 06:40 09.01.2021
3925 Clouds 12 1004 71 6000 9.26 260 04:54 09.01.2021
3926 Clouds 12 1002 82 10000 8.75 280 03:25 09.01.2021
3927 Clouds 13 1002 87 10000 8.75 280 02:38 09.01.2021
3928 Clouds 13 1003 76 5000 8.23 240 02:19 09.01.2021
3929 Clouds 12 1002 94 5000 11.83 270 00:37 09.01.2021
3930 Clouds 12 1003 100 4000 6.69 250 00:19 09.01.2021
3931 Clouds 13 1001 94 5000 13.89 260 23:26 08.01.2021
3932 Clouds 14 999 82 10000 12.35 260 22:25 08.01.2021
3933 Drizzle 14 1001 94 5000 7.72 260 21:46 08.01.2021
3934 Clouds 14 997 88 1600 4.12 120 20:57 08.01.2021
3935 Clouds 15 997 88 1600 4.12 120 20:26 08.01.2021
3936 Rain 15 997 100 4000 3.09 220 19:55 08.01.2021
3937 Rain 15 997 94 4800 7.72 140 19:22 08.01.2021
3938 Rain 16 998 94 3000 4.12 190 18:36 08.01.2021
3939 Rain 16 996 88 4000 4.63 150 18:18 08.01.2021
3940 Rain 16 998 88 3000 4.63 180 17:45 08.01.2021
3941 Clouds 16 998 94 3500 4.63 120 17:22 08.01.2021
3942 Clouds 16 999 82 8000 4.12 130 16:34 08.01.2021
3943 Rain 16 997 82 2000 5.66 160 15:44 08.01.2021
3944 Clouds 16 999 94 6000 5.66 120 14:56 08.01.2021
3945 Clouds 16 999 94 6000 5.66 120 14:35 08.01.2021
3946 Clouds 15 998 94 3000 7.2 150 13:41 08.01.2021
3947 Rain 16 998 94 2000 4.12 150 13:18 08.01.2021
3948 Rain 15 1000 94 2000 4.63 170 12:45 08.01.2021
3949 Clouds 16 1000 82 5000 5.66 160 12:19 08.01.2021
3950 Clouds 16 1001 82 4000 4.12 170 11:42 08.01.2021
3951 Clouds 15 1002 94 1600 5.14 110 11:22 08.01.2021
3952 Clouds 15 1001 94 3000 4.12 170 10:48 08.01.2021
3953 Clouds 15 1002 94 1700 5.66 100 10:24 08.01.2021
3954 Clouds 15 1001 82 6000 5.14 160 09:44 08.01.2021
3955 Clouds 15 1002 94 2200 8.75 130 09:21 08.01.2021
3956 Clouds 15 1001 88 6000 4.12 170 08:19 08.01.2021
3957 Clouds 14 1002 94 1800 7.2 50 07:25 08.01.2021
3958 Rain 13 1004 88 6000 10.29 50 04:26 08.01.2021
3959 Clouds 13 1003 100 6000 7.72 40 23:46 07.01.2021
3960 Clouds 13 1003 100 6000 7.72 40 23:46 07.01.2021
3961 Clouds 13 1006 94 2400 10.29 50 23:28 07.01.2021
3962 Clouds 13 1004 100 4000 8.75 40 22:42 07.01.2021
3963 Rain 13 1004 100 3000 8.23 40 22:18 07.01.2021
3964 Rain 14 1005 88 1500 11.83 60 21:40 07.01.2021
3965 Rain 14 1005 88 1500 11.83 60 21:21 07.01.2021
3966 Rain 13 1003 100 3000 7.72 60 20:44 07.01.2021
3967 Rain 13 1006 88 3300 9.26 60 20:23 07.01.2021
3968 Clouds 13 1004 100 3000 5.14 60 19:42 07.01.2021
3969 Rain 13 1005 100 3000 4.12 50 18:54 07.01.2021
3970 Rain 13 1006 88 7000 6.17 50 18:23 07.01.2021
3971 Rain 13 1005 94 6000 2.57 30 17:42 07.01.2021
3972 Clouds 13 1005 94 4000 0.51 0 17:18 07.01.2021
3973 Rain 13 1005 88 4000 1.03 0 16:51 07.01.2021
3974 Rain 13 1005 88 6000 0.51 0 16:20 07.01.2021
3975 Clouds 13 1006 87 2000 7.2 50 15:34 07.01.2021
3976 Clouds 14 1005 82 8000 3.09 230 14:42 07.01.2021
3977 Clouds 13 1006 87 3000 7.2 60 14:22 07.01.2021
3978 Clouds 13 1007 94 3500 6.69 50 13:31 07.01.2021
3979 Clouds 13 1007 94 2800 6.17 50 12:57 07.01.2021
3980 Clouds 13 1008 93 3000 7.7 60 12:29 07.01.2021
3981 Clouds 14 1008 93 3000 7.7 60 11:51 07.01.2021
3982 Clouds 14 1007 93 3500 7.2 60 11:30 07.01.2021
3983 Clouds 14 1005 87 10000 2.6 150 10:47 07.01.2021
3984 Clouds 14 1005 93 10000 2.1 160 10:19 07.01.2021
3985 Clouds 14 1004 93 10000 2.1 170 09:44 07.01.2021
3986 Clouds 14 1004 100 10000 2.1 150 09:18 07.01.2021
3987 Clouds 14 1005 93 3000 8.7 60 08:25 07.01.2021
3988 Clouds 13 1002 100 10000 1.5 120 07:44 07.01.2021
3989 Clouds 13 1004 87 4500 10.3 70 06:52 07.01.2021
3990 Clouds 12 1004 87 2800 12.3 70 03:34 07.01.2021
3991 Clouds 12 1005 93 1700 15.4 70 00:25 07.01.2021
3992 Rain 12 1005 87 3000 17 90 23:36 06.01.2021
3993 Clouds 12 1006 93 1000 18 90 22:37 06.01.2021
3994 Rain 12 1006 93 1900 16.5 90 21:42 06.01.2021
3995 Rain 12 1006 93 1900 16.5 90 21:22 06.01.2021
3996 Rain 13 1003 93 4000 10.3 80 20:50 06.01.2021
3997 Rain 11 1004 100 4000 8.7 80 20:23 06.01.2021
3998 Rain 12 1004 100 4000 5.7 80 19:49 06.01.2021
3999 Rain 12 1007 93 2500 13.4 90 19:29 06.01.2021
4000 Rain 12 1007 93 2500 11.8 80 18:52 06.01.2021
4001 Rain 12 1007 93 2500 11.8 80 18:34 06.01.2021
4002 Rain 12 1008 93 3000 11.3 80 17:59 06.01.2021
4003 Rain 12 1008 93 3000 11.3 80 17:41 06.01.2021
4004 Rain 12 1008 93 3000 11.3 80 17:21 06.01.2021
4005 Rain 13 1008 82 7000 11.8 90 16:38 06.01.2021
4006 Rain 13 1008 82 7000 11.8 90 16:38 06.01.2021
4007 Rain 13 1006 76 10000 6.2 90 16:18 06.01.2021
4008 Rain 13 1006 76 10000 6.7 90 15:46 06.01.2021
4009 Rain 13 1008 87 10000 9.8 90 15:24 06.01.2021
4010 Rain 13 1009 87 7000 9.8 80 14:36 06.01.2021
4011 Rain 12 1009 87 8000 9.3 80 13:56 06.01.2021
4012 Rain 13 1010 82 10000 7.7 90 13:36 06.01.2021
4013 Clouds 13 1008 76 10000 5.7 80 13:18 06.01.2021
4014 Rain 13 1011 82 10000 8.7 90 12:42 06.01.2021
4015 Clouds 13 1010 76 10000 1.5 110 11:46 06.01.2021
4016 Clouds 13 1011 76 10000 7.2 100 11:23 06.01.2021
4017 Clouds 12 1011 71 10000 8.2 100 10:44 06.01.2021
4018 Clouds 12 1011 76 10000 5.7 70 09:52 06.01.2021
4019 Clouds 11 1010 76 10000 5.7 70 09:33 06.01.2021
4020 Clouds 11 1008 81 10000 4.1 80 08:54 06.01.2021
4021 Clouds 11 1008 81 10000 4.1 70 08:20 06.01.2021
4022 Clouds 11 1008 81 10000 3.1 80 07:53 06.01.2021
4023 Clouds 10 1008 81 10000 3.6 60 06:44 06.01.2021
4024 Clouds 10 1009 87 10000 4.1 30 05:30 06.01.2021
4025 Clouds 10 1008 93 10000 3.1 80 04:18 06.01.2021
4026 Clouds 11 1008 71 10000 5.1 120 02:43 06.01.2021
4027 Clouds 10 1007 81 10000 3.1 70 02:21 06.01.2021
4028 Clouds 11 1007 76 10000 3.6 40 23:51 05.01.2021
4029 Clouds 11 1008 71 10000 4.6 130 22:57 05.01.2021
4030 Clouds 11 1008 71 10000 4.6 130 22:38 05.01.2021
4031 Clouds 11 1007 76 10000 4.1 50 22:19 05.01.2021
4032 Clouds 11 1009 71 10000 4.6 110 21:27 05.01.2021
4033 Clouds 12 1009 62 10000 4.1 120 20:31 05.01.2021
4034 Rain 12 1008 66 10000 4.6 80 19:57 05.01.2021
4035 Rain 12 1008 66 10000 4.6 80 19:38 05.01.2021
4036 Rain 11 1008 81 6000 3.1 90 19:18 05.01.2021
4037 Rain 13 1008 62 10000 4.6 90 18:42 05.01.2021
4038 Clouds 13 1007 62 8000 3.6 120 18:18 05.01.2021
4039 Rain 13 1008 62 10000 3.1 80 17:40 05.01.2021
4040 Rain 13 1007 66 8000 2.6 110 17:20 05.01.2021
4041 Clouds 13 1009 62 10000 2.1 70 16:39 05.01.2021
4042 Clouds 13 1007 66 8000 2.6 60 16:20 05.01.2021
4043 Clouds 13 1008 62 8000 2.6 30 15:44 05.01.2021
4044 Clouds 14 1008 58 8000 3.1 40 14:49 05.01.2021
4045 Clouds 13 1008 58 10000 3.1 50 14:19 05.01.2021
4046 Clouds 13 1010 71 10000 0.5 150 13:44 05.01.2021
4047 Clouds 12 1011 76 10000 1 290 13:20 05.01.2021
4048 Clouds 12 1010 58 10000 2.6 40 12:46 05.01.2021
4049 Clouds 12 1011 76 10000 1 260 12:21 05.01.2021
4050 Clouds 11 1012 81 10000 2.6 250 11:34 05.01.2021
4051 -273 0 0 0 0 0 11:33 05.01.2021
4052 Clouds 11 1012 81 10000 2.6 250 11:32 05.01.2021
4053 Clouds 11 1012 81 10000 2.6 250 11:32 05.01.2021
4054 Clouds 11 1011 71 10000 2.6 80 10:46 05.01.2021
4055 Clouds 10 1012 71 10000 2.1 310 10:25 05.01.2021
4056 Clouds 10 1011 70 10000 2.6 100 09:47 05.01.2021
4057 Clouds 9 1011 81 10000 3.1 80 09:26 05.01.2021
4058 Clouds 9 1011 76 10000 2.1 230 08:23 05.01.2021
4059 Clouds 8 1011 76 10000 1.5 240 06:39 05.01.2021
4060 Clouds 8 1012 76 10000 2.1 260 03:42 05.01.2021
4061 Clouds 7 1013 93 6000 2.1 70 00:28 05.01.2021
4062 Clouds 7 1013 93 6000 3.1 80 23:43 04.01.2021
4063 Clouds 7 1013 93 7000 2.1 60 23:24 04.01.2021
4064 Clouds 7 1013 93 7000 2.1 80 22:46 04.01.2021
4065 Clouds 7 1013 93 7000 2.1 80 22:46 04.01.2021
4066 Clouds 8 1013 93 7000 2.1 70 22:21 04.01.2021
4067 Clouds 8 1014 66 10000 1.5 270 21:42 04.01.2021
4068 Clouds 8 1014 66 10000 1.5 270 21:22 04.01.2021
4069 Clouds 10 1014 57 10000 2.6 310 20:42 04.01.2021
4070 Clouds 10 1014 57 10000 2.6 310 20:21 04.01.2021
4071 Clouds 11 1014 54 10000 2.6 310 19:43 04.01.2021
4072 Clouds 11 1013 54 10000 3.1 310 19:21 04.01.2021
4073 Clouds 11 1014 81 10000 1.5 20 18:46 04.01.2021
4074 Clouds 13 1013 44 10000 5.1 290 17:59 04.01.2021
4075 Clouds 14 1013 47 10000 5.1 280 17:39 04.01.2021
4076 Clouds 14 1013 66 10000 1 0 17:21 04.01.2021
4077 Clouds 13 1013 50 10000 4.6 270 16:42 04.01.2021
4078 Clouds 13 1013 71 10000 2.6 300 16:24 04.01.2021
4079 Clouds 13 1013 62 10000 3.6 300 15:48 04.01.2021
4080 Clouds 13 1013 66 10000 3.1 260 15:24 04.01.2021
4081 Clouds 13 1014 54 10000 3.6 200 14:21 04.01.2021
4082 Clouds 13 1015 58 10000 6.2 260 13:36 04.01.2021
4083 Clouds 12 1016 62 10000 4.6 270 12:57 04.01.2021
4084 Clouds 12 1016 62 10000 3.1 280 12:30 04.01.2021
4085 Clouds 11 1016 62 10000 2.6 170 11:45 04.01.2021
4086 Clouds 10 1017 66 10000 2.6 150 11:19 04.01.2021
4087 Clouds 8 1017 70 10000 2.6 250 10:45 04.01.2021
4088 Clouds 8 1017 70 10000 2.6 250 10:23 04.01.2021
4089 Clouds 6 1017 100 10000 2.6 70 09:44 04.01.2021
4090 Clouds 6 1017 93 10000 2.6 90 09:18 04.01.2021
4091 Clouds 6 1016 70 10000 3.1 280 08:32 04.01.2021
4092 Clouds 5 1016 93 8000 2.6 100 07:47 04.01.2021
4093 Clear 6 1016 70 10000 1.5 280 06:40 04.01.2021
4094 Clouds 5 1016 93 8000 2.1 60 05:20 04.01.2021
4095 Clear 7 1017 75 10000 3.6 290 02:27 04.01.2021
4096 Clear 7 1018 70 10000 3.1 290 00:27 04.01.2021
4097 Clear 7 1018 65 10000 3.1 290 23:38 03.01.2021
4098 Clear 8 1018 66 10000 3.6 290 22:58 03.01.2021
4099 Clear 8 1018 66 10000 3.6 290 22:39 03.01.2021
4100 Clouds 8 1018 87 8000 1 40 22:21 03.01.2021
4101 Clouds 9 1018 66 10000 5.7 290 21:41 03.01.2021
4102 Clouds 9 1018 66 10000 5.7 290 21:23 03.01.2021
4103 Clouds 9 1018 62 10000 5.1 280 20:41 03.01.2021
4104 Clouds 9 1018 81 10000 2.1 100 20:19 03.01.2021
4105 Clouds 10 1018 70 10000 1.5 90 19:46 03.01.2021
4106 Clouds 11 1018 54 10000 5.7 270 19:27 03.01.2021
4107 Clouds 11 1018 61 10000 1.5 300 18:46 03.01.2021
4108 Clouds 12 1018 58 10000 6.7 260 18:25 03.01.2021
4109 Clouds 13 1018 54 10000 2.6 250 17:53 03.01.2021
4110 Clouds 13 1018 54 10000 6.7 270 17:27 03.01.2021
4111 Clouds 13 1018 54 10000 5.1 270 16:55 03.01.2021
4112 Clouds 13 1018 54 10000 5.7 270 16:36 03.01.2021
4113 Clouds 13 1018 47 10000 3.1 230 16:18 03.01.2021
4114 Clouds 13 1018 35 10000 6.2 270 15:40 03.01.2021
4115 Clear 13 1018 35 10000 5.1 280 14:59 03.01.2021
4116 Clear 13 1018 30 10000 6.7 290 14:33 03.01.2021
4117 Clear 13 1019 32 10000 6.7 280 13:52 03.01.2021
4118 Clear 12 1019 34 10000 5.1 270 13:24 03.01.2021
4119 Clear 12 1020 40 10000 4.6 270 12:55 03.01.2021
4120 Clear 10 1020 53 10000 3.6 250 11:44 03.01.2021
4121 Clear 9 1020 70 10000 1.5 90 11:26 03.01.2021
4122 Clear 8 1020 81 10000 2.6 80 10:56 03.01.2021
4123 Clear 7 1019 61 10000 3.1 280 10:31 03.01.2021
4124 Clear 6 1019 65 10000 4.1 270 09:42 03.01.2021
4125 Clear 6 1019 65 10000 4.1 270 09:23 03.01.2021
4126 Clear 5 1018 65 10000 2.1 270 07:58 03.01.2021
4127 Clear 6 1018 59 10000 4.1 290 05:59 03.01.2021
4128 Clear 8 1018 66 10000 4.6 270 02:29 03.01.2021
4129 Clouds 7 1018 81 10000 2.1 70 01:48 03.01.2021
4130 Clouds 8 1018 70 10000 1 0 00:21 03.01.2021
4131 Clear 10 1018 66 10000 4.1 250 23:30 02.01.2021
4132 Clouds 11 1018 57 10000 3.6 310 22:58 02.01.2021
4133 Clear 11 1018 66 10000 4.1 270 22:32 02.01.2021
4134 Clouds 11 1018 53 10000 4.6 300 21:52 02.01.2021
4135 Clear 11 1018 66 10000 5.7 270 21:32 02.01.2021
4136 Clouds 11 1018 62 10000 4.1 290 20:56 02.01.2021
4137 Clear 11 1017 66 10000 7.2 270 20:38 02.01.2021
4138 Clouds 11 1018 57 10000 4.6 290 20:19 02.01.2021
4139 Clouds 11 1017 57 10000 4.1 300 19:21 02.01.2021
4140 Clear 11 1016 46 10000 8.2 280 18:58 02.01.2021
4141 Clear 12 1016 46 10000 8.2 280 18:40 02.01.2021
4142 Clouds 11 1017 62 10000 4.1 280 18:20 02.01.2021
4143 Clouds 12 1017 62 10000 4.6 300 17:45 02.01.2021
4144 Clouds 12 1016 50 10000 7.2 270 16:59 02.01.2021
4145 Clouds 12 1016 50 10000 7.2 270 16:23 02.01.2021
4146 Clouds 13 1017 54 10000 5.7 280 15:54 02.01.2021
4147 Clouds 13 1016 54 10000 7.2 280 15:33 02.01.2021
4148 Clouds 13 1016 54 10000 7.2 270 14:58 02.01.2021
4149 Clouds 13 1016 54 10000 7.2 270 14:36 02.01.2021
4150 Clouds 12 1017 54 10000 6.2 270 13:51 02.01.2021
4151 Clouds 12 1017 54 10000 4.6 290 13:22 02.01.2021
4152 Clouds 12 1018 71 10000 3.6 300 12:48 02.01.2021
4153 Clouds 12 1017 57 10000 5.1 280 12:28 02.01.2021
4154 Clouds 10 1017 66 10000 5.1 270 11:44 02.01.2021
4155 Clouds 10 1018 76 10000 3.1 320 11:21 02.01.2021
4156 Clouds 9 1017 70 10000 5.7 270 10:42 02.01.2021
4157 Clouds 10 1017 70 10000 5.7 270 10:24 02.01.2021
4158 Clouds 9 1017 66 10000 5.7 300 09:43 02.01.2021
4159 Clouds 8 1016 75 10000 5.1 270 09:43 02.01.2021
4160 Clouds 9 1017 71 10000 5.7 300 09:22 02.01.2021
4161 Clouds 9 1017 71 10000 6.2 300 08:49 02.01.2021
4162 Clouds 9 1016 66 10000 5.1 310 08:21 02.01.2021
4163 Clear 9 1016 81 10000 3.1 290 07:43 02.01.2021
4164 Clouds 9 1016 62 10000 5.7 300 07:19 02.01.2021
4165 Clouds 9 1016 66 10000 5.1 300 06:25 02.01.2021
4166 Clear 10 1016 76 10000 9.8 280 04:27 02.01.2021
4167 Clouds 12 1016 66 10000 7.7 310 00:54 02.01.2021
4168 Clouds 12 1015 66 10000 7.7 280 00:35 02.01.2021
4169 Clouds 12 1015 71 10000 5.7 260 23:44 01.01.2021
4170 Clouds 12 1015 71 10000 6.2 280 23:20 01.01.2021
4171 Clouds 10 1016 100 10000 2.1 90 22:47 01.01.2021
4172 Clouds 10 1016 93 10000 3.1 80 22:22 01.01.2021
4173 Clouds 11 1015 66 10000 6.2 270 21:43 01.01.2021
4174 Clouds 11 1016 81 8000 1.5 310 21:21 01.01.2021
4175 Clouds 11 1016 87 3000 1.5 0 20:52 01.01.2021
4176 Rain 11 1016 87 7000 4.1 250 20:20 01.01.2021
4177 Clouds 13 1015 62 10000 7.2 270 19:43 01.01.2021
4178 Clouds 13 1015 62 10000 7.2 270 19:23 01.01.2021
4179 Rain 13 1016 58 10000 5.1 270 18:52 01.01.2021
4180 Clouds 13 1015 54 10000 6.7 270 18:34 01.01.2021
4181 Clouds 13 1015 54 10000 7.2 270 17:59 01.01.2021
4182 Clouds 14 1015 54 10000 7.7 280 17:41 01.01.2021
4183 Clouds 14 1016 54 10000 5.1 290 17:18 01.01.2021
4184 Clouds 14 1015 50 10000 7.7 280 16:37 01.01.2021
4185 Clouds 13 1016 62 10000 6.2 300 15:45 01.01.2021
4186 Clouds 13 1015 50 10000 7.2 290 14:56 01.01.2021
4187 Clouds 14 1015 54 10000 7.2 290 14:37 01.01.2021
4188 Clouds 14 1017 58 10000 6.7 300 13:46 01.01.2021
4189 Clouds 14 1016 58 10000 7.7 280 13:25 01.01.2021
4190 Clouds 13 1016 62 10000 8.7 290 12:39 01.01.2021
4191 Clouds 13 1017 54 10000 7.7 300 12:18 01.01.2021
4192 Clouds 12 1017 66 10000 9.3 280 11:39 01.01.2021
4193 Clouds 12 1018 62 10000 6.2 310 11:18 01.01.2021
4194 Clouds 11 1017 71 10000 8.2 280 10:35 01.01.2021
4195 Clouds 11 1017 66 10000 7.2 310 09:47 01.01.2021
4196 Clouds 12 1016 62 10000 7.2 310 09:20 01.01.2021
4197 Clouds 11 1015 81 10000 7.2 290 08:29 01.01.2021
4198 Clouds 12 1016 100 4000 10.8 300 04:53 01.01.2021
4199 Clouds 11 1016 100 10000 3.6 170 02:44 01.01.2021
4200 Haze 11 1016 82 6000 6.7 240 01:35 01.01.2021
4201 Clouds 11 1017 87 10000 4.1 220 00:28 01.01.2021
4202 Clouds 12 1017 81 7000 6.7 280 23:36 31.12.2020
4203 Clouds 11 1018 71 10000 2.6 180 23:18 31.12.2020
4204 Clouds 12 1018 71 10000 3.6 250 22:38 31.12.2020
4205 Clouds 12 1019 66 10000 2.6 180 22:19 31.12.2020
4206 Clouds 12 1019 66 10000 2.6 180 21:47 31.12.2020
4207 Clouds 12 1019 71 10000 2.6 250 21:24 31.12.2020
4208 Clouds 12 1019 71 10000 2.6 250 20:49 31.12.2020
4209 Clouds 11 1019 76 10000 1.5 250 20:18 31.12.2020
4210 Clouds 12 1019 71 10000 2.1 230 19:46 31.12.2020
4211 Clouds 12 1018 62 10000 5.1 280 19:28 31.12.2020
4212 Clouds 12 1019 71 10000 2.6 280 18:49 31.12.2020
4213 Clouds 13 1018 50 10000 6.2 290 18:24 31.12.2020
4214 Clear 13 1019 58 10000 3.6 290 17:44 31.12.2020
4215 Clouds 14 1018 54 10000 7.2 280 17:23 31.12.2020
4216 Clouds 14 1018 54 10000 6.7 280 16:43 31.12.2020
4217 Clouds 14 1018 54 10000 6.7 280 16:43 31.12.2020
4218 Clouds 14 1018 54 10000 6.7 280 16:43 31.12.2020
4219 Clear 14 1019 54 10000 5.1 300 16:23 31.12.2020
4220 Clear 14 1019 58 10000 4.6 310 15:49 31.12.2020
4221 Clouds 14 1018 50 10000 7.2 280 15:22 31.12.2020
4222 Clouds 14 1018 50 10000 7.2 280 15:22 31.12.2020
4223 Clouds 14 1018 50 10000 7.2 280 14:57 31.12.2020
4224 Clear 14 1018 50 10000 6.7 280 14:39 31.12.2020
4225 Clouds 14 1020 54 10000 4.1 300 14:21 31.12.2020
4226 Clear 14 1019 47 10000 6.2 280 13:39 31.12.2020
4227 Clear 14 1019 47 10000 6.2 280 13:39 31.12.2020
4228 Clear 13 1020 54 10000 5.1 300 13:21 31.12.2020
4229 Clear 13 1019 54 10000 5.1 270 12:53 31.12.2020
4230 Clear 13 1019 54 10000 4.6 280 12:35 31.12.2020
4231 Clear 11 1020 61 10000 4.1 260 11:52 31.12.2020
4232 Clear 11 1020 61 10000 4.1 260 11:32 31.12.2020
4233 Clear 11 1020 61 10000 4.1 260 11:32 31.12.2020
4234 Clear 9 1021 87 10000 2.1 100 10:50 31.12.2020
4235 Clear 8 1019 65 10000 3.1 250 10:29 31.12.2020
4236 Clear 6 1019 70 10000 3.1 240 09:58 31.12.2020
4237 Clear 6 1019 70 10000 3.1 240 09:36 31.12.2020
4238 Clear 7 1020 81 10000 1.5 80 08:51 31.12.2020
4239 Clouds 7 1019 70 10000 3.1 240 08:33 31.12.2020
4240 Clear 7 1018 75 10000 3.1 260 07:59 31.12.2020
4241 Clear 7 1018 75 10000 3.1 260 07:32 31.12.2020
4242 Clear 7 1019 65 10000 3.6 240 05:56 31.12.2020
4243 Clear 7 1019 65 10000 3.6 240 05:28 31.12.2020
4244 Clear 7 1019 86 10000 2.6 100 02:56 31.12.2020
4245 Clear 8 1019 61 10000 3.1 270 02:25 31.12.2020
4246 Clear 8 1019 81 10000 1 0 01:46 31.12.2020
4247 Clear 8 1019 61 10000 3.6 260 01:27 31.12.2020
4248 Clear 8 1019 61 10000 3.6 260 01:27 31.12.2020
4249 Clear 8 1019 75 10000 0.5 0 00:48 31.12.2020
4250 Clear 9 1020 75 10000 2.1 70 23:52 30.12.2020
4251 Clear 8 1020 75 10000 1.5 50 23:20 30.12.2020
4252 Clear 8 1019 75 10000 1.5 90 22:49 30.12.2020
4253 Clear 9 1019 57 10000 4.6 290 22:30 30.12.2020
4254 Clear 10 1019 66 10000 1 0 21:46 30.12.2020
4255 Clear 10 1019 62 10000 4.6 280 21:24 30.12.2020
4256 Clear 9 1019 70 10000 1.5 360 20:51 30.12.2020
4257 Clear 10 1019 57 10000 6.2 280 20:22 30.12.2020
4258 Clear 11 1018 54 10000 5.7 290 19:41 30.12.2020
4259 Clear 11 1018 54 10000 5.7 290 19:23 30.12.2020
4260 Clear 12 1019 66 10000 2.1 320 18:47 30.12.2020
4261 Clear 13 1018 47 10000 5.1 280 18:29 30.12.2020
4262 Clear 14 1018 44 10000 5.1 290 17:52 30.12.2020
4263 Clouds 14 1019 58 10000 2.6 300 17:33 30.12.2020
4264 Clear 14 1018 41 10000 5.1 280 16:58 30.12.2020
4265 Clear 14 1018 41 10000 5.1 280 16:33 30.12.2020
4266 Clouds 14 1019 50 10000 3.6 320 15:48 30.12.2020
4267 Clear 14 1018 38 10000 4.1 270 15:25 30.12.2020
4268 Clouds 14 1019 47 10000 2.1 210 14:44 30.12.2020
4269 Clouds 14 1019 47 10000 2.1 210 14:24 30.12.2020
4270 Clear 13 1020 43 10000 2.1 260 13:42 30.12.2020
4271 Clear 13 1020 54 10000 3.6 310 12:43 30.12.2020
4272 Clear 12 1021 54 10000 2.6 320 12:21 30.12.2020
4273 Clear 11 1020 61 10000 3.1 270 11:36 30.12.2020
4274 Clear 10 1021 81 10000 0.5 0 11:18 30.12.2020
4275 Clouds 9 1020 87 10000 1 0 10:49 30.12.2020
4276 Clear 8 1020 75 10000 3.1 300 10:27 30.12.2020
4277 Clouds 7 1019 93 10000 2.6 90 09:50 30.12.2020
4278 Clouds 7 1019 75 10000 2.1 270 09:28 30.12.2020
4279 Clear 8 1019 75 10000 3.1 300 08:28 30.12.2020
4280 Clear 8 1018 76 10000 3.1 280 07:29 30.12.2020
4281 Clouds 8 1018 81 10000 1.5 20 06:52 30.12.2020
4282 Clear 9 1017 75 10000 2.6 280 06:30 30.12.2020
4283 Clear 9 1017 76 10000 5.1 290 05:43 30.12.2020
4284 Clouds 10 1017 76 10000 3.6 340 05:24 30.12.2020
4285 Clear 11 1016 71 10000 7.2 280 03:28 30.12.2020
4286 Clear 11 1016 66 10000 6.2 280 02:39 30.12.2020
4287 Clouds 11 1017 66 10000 3.6 340 01:56 30.12.2020
4288 Clear 11 1016 71 10000 5.7 270 01:32 30.12.2020
4289 Clouds 13 1016 66 10000 5.1 320 00:48 30.12.2020
4290 Clouds 12 1016 66 10000 7.2 270 00:29 30.12.2020
4291 Clouds 13 1016 66 10000 4.6 320 23:54 29.12.2020
4292 Clouds 13 1015 66 10000 5.7 290 23:35 29.12.2020
4293 Clouds 13 1015 71 10000 4.1 310 22:56 29.12.2020
4294 Clouds 13 1015 71 10000 4.1 310 22:37 29.12.2020
4295 Clouds 13 1015 66 10000 5.1 300 22:19 29.12.2020
4296 Clouds 13 1014 76 10000 5.1 290 21:44 29.12.2020
4297 Clear 13 1014 71 10000 5.1 270 21:24 29.12.2020
4298 Clouds 13 1014 82 7000 5.7 270 20:45 29.12.2020
4299 Clouds 14 1013 67 10000 6.7 270 20:25 29.12.2020
4300 Clouds 14 1014 71 6000 4.6 270 19:46 29.12.2020
4301 Clouds 14 1013 67 10000 6.7 270 19:23 29.12.2020
4302 Clouds 14 1013 71 6000 4.6 240 18:54 29.12.2020
4303 Clouds 14 1012 67 10000 7.2 270 18:29 29.12.2020
4304 Clouds 14 1013 87 6000 2.6 260 17:48 29.12.2020
4305 Clouds 14 1013 76 8000 7.2 290 17:23 29.12.2020
4306 Clouds 15 1013 67 8000 6.2 240 16:56 29.12.2020
4307 Clouds 14 1013 71 8000 5.7 250 16:27 29.12.2020
4308 Clouds 15 1013 62 8000 4.6 260 15:51 29.12.2020
4309 Clouds 16 1012 58 10000 7.7 260 15:33 29.12.2020
4310 Clouds 16 1012 58 10000 7.7 260 15:33 29.12.2020
4311 Clouds 15 1013 58 8000 5.1 260 14:45 29.12.2020
4312 Clouds 15 1012 67 10000 6.2 250 14:27 29.12.2020
4313 Clouds 14 1013 71 10000 6.2 260 13:56 29.12.2020
4314 Clouds 15 1013 67 10000 5.7 280 13:25 29.12.2020
4315 Clouds 15 1013 62 10000 4.6 290 12:45 29.12.2020
4316 Clouds 15 1013 62 10000 4.6 290 12:26 29.12.2020
4317 Clouds 15 1013 62 10000 4.6 290 12:26 29.12.2020
4318 Clouds 14 1013 62 10000 4.6 260 11:59 29.12.2020
4319 Clouds 13 1013 66 10000 3.1 250 11:32 29.12.2020
4320 Clouds 12 1013 62 6000 2.6 280 10:52 29.12.2020
4321 Clouds 12 1013 62 6000 5.7 300 10:20 29.12.2020
4322 Clouds 11 1012 76 10000 4.1 270 09:40 29.12.2020
4323 Clouds 11 1012 66 6000 3.6 300 09:18 29.12.2020
4324 Clouds 11 1012 71 6000 3.6 300 08:47 29.12.2020
4325 Clear 11 1011 66 10000 5.1 270 07:40 29.12.2020
4326 Clear 11 1011 71 10000 5.7 280 06:58 29.12.2020
4327 Clouds 12 1011 66 10000 7.7 270 05:40 29.12.2020
4328 Drizzle 13 1011 82 5000 5.7 310 01:46 29.12.2020
4329 Clouds 14 1011 66 10000 8.7 270 00:24 29.12.2020
4330 Clouds 14 1011 66 10000 8.7 270 00:24 29.12.2020
4331 Clouds 13 1011 71 10000 8.7 270 23:37 28.12.2020
4332 Clouds 13 1010 76 10000 8.2 280 22:44 28.12.2020
4333 Drizzle 13 1011 100 5000 5.1 280 21:51 28.12.2020
4334 Clouds 13 1010 76 10000 7.7 280 21:30 28.12.2020
4335 Drizzle 13 1011 100 3000 3.6 290 20:50 28.12.2020
4336 Drizzle 13 1011 100 3000 3.6 290 20:50 28.12.2020
4337 Clouds 13 1010 76 10000 7.7 280 20:31 28.12.2020
4338 Clouds 13 1010 76 10000 8.2 280 19:59 28.12.2020
4339 Clouds 13 1009 76 10000 7.7 280 19:41 28.12.2020
4340 Clouds 13 1009 76 10000 7.7 280 19:21 28.12.2020
4341 Drizzle 13 1010 100 1800 4.6 300 18:48 28.12.2020
4342 Clouds 13 1010 87 6000 7.7 290 18:26 28.12.2020
4343 Clouds 14 1009 87 10000 8.7 270 17:41 28.12.2020
4344 Clouds 14 1010 82 1600 8.7 240 17:18 28.12.2020
4345 Clouds 14 1009 87 7000 8.2 280 16:32 28.12.2020
4346 Clouds 16 1009 77 5000 11.3 270 15:58 28.12.2020
4347 Clouds 16 1009 67 10000 11.8 260 15:38 28.12.2020
4348 Clouds 16 1011 77 7000 8.7 230 14:43 28.12.2020
4349 Clouds 17 1011 72 10000 8.7 240 13:51 28.12.2020
4350 Clouds 17 1010 63 10000 9.3 250 13:23 28.12.2020
4351 Clouds 16 1011 59 10000 9.8 260 12:38 28.12.2020
4352 Clouds 16 1012 77 10000 9.8 270 12:18 28.12.2020
4353 Clouds 16 1012 63 10000 8.7 250 11:42 28.12.2020
4354 Clouds 16 1013 67 10000 9.8 250 11:18 28.12.2020
4355 Clouds 16 1011 72 10000 9.8 260 10:38 28.12.2020
4356 Clouds 16 1013 63 10000 8.2 250 10:19 28.12.2020
4357 Clouds 16 1011 63 10000 9.8 250 09:38 28.12.2020
4358 Clouds 16 1013 63 10000 8.2 250 09:18 28.12.2020
4359 Clouds 14 1012 67 10000 8.7 250 06:55 28.12.2020
4360 Clouds 14 1011 71 10000 9.8 270 05:57 28.12.2020
4361 Clouds 14 1012 67 10000 12.3 270 03:59 28.12.2020
4362 Clouds 13 1014 76 10000 9.3 290 01:56 28.12.2020
4363 Clear 13 1014 71 10000 9.8 280 00:28 28.12.2020
4364 Clear 12 1014 66 10000 8.2 280 23:37 27.12.2020
4365 Clear 12 1016 87 10000 2.6 240 22:52 27.12.2020
4366 Clear 12 1016 87 10000 2.1 260 21:55 27.12.2020
4367 Clear 12 1015 58 10000 9.3 280 21:24 27.12.2020
4368 Clear 13 1015 58 10000 7.2 280 20:40 27.12.2020
4369 Clear 13 1015 76 10000 2.1 290 19:24 27.12.2020
4370 Clear 14 1015 58 10000 6.2 270 18:52 27.12.2020
4371 Clear 15 1015 48 10000 6.2 260 18:24 27.12.2020
4372 Clear 16 1015 48 10000 6.2 280 17:59 27.12.2020
4373 Clear 16 1015 55 10000 3.6 220 17:39 27.12.2020
4374 Clouds 16 1016 59 10000 2.1 250 17:18 27.12.2020
4375 Clear 16 1016 55 10000 3.1 220 16:25 27.12.2020
4376 Clear 16 1016 58 10000 1.5 150 15:34 27.12.2020
4377 Clouds 16 1017 54 10000 1.5 110 14:56 27.12.2020
4378 Clouds 16 1017 54 10000 1.5 110 14:38 27.12.2020
4379 Clouds 15 1019 58 10000 1.5 40 13:39 27.12.2020
4380 Clouds 15 1020 58 10000 2.1 50 12:59 27.12.2020
4381 Clouds 15 1020 58 10000 3.1 30 12:28 27.12.2020
4382 Clouds 13 1020 66 10000 1 260 11:42 27.12.2020
4383 Clear 13 1019 62 10000 3.6 80 11:23 27.12.2020
4384 Clear 13 1019 66 10000 2.6 90 10:49 27.12.2020
4385 Clear 12 1019 71 10000 3.1 90 10:23 27.12.2020
4386 Clouds 11 1020 66 10000 2.6 360 09:39 27.12.2020
4387 Clouds 10 1020 71 10000 1 290 08:29 27.12.2020
4388 Clear 11 1018 76 10000 3.6 90 07:47 27.12.2020
4389 Clear 11 1018 81 10000 3.6 90 07:18 27.12.2020
4390 Clear 12 1021 58 10000 7.2 70 05:39 27.12.2020
4391 Clear 13 1021 54 10000 9.3 90 03:26 27.12.2020
4392 Clear 13 1022 54 10000 8.7 80 02:30 27.12.2020
4393 Clear 13 1023 54 10000 9.8 100 00:58 27.12.2020
4394 Clear 13 1021 66 10000 7.2 60 23:44 26.12.2020
4395 Clear 13 1023 54 10000 9.3 90 23:26 26.12.2020
4396 Clear 14 1021 62 10000 7.7 60 22:46 26.12.2020
4397 Clear 14 1021 66 10000 7.2 60 22:20 26.12.2020
4398 Clear 14 1021 66 10000 6.2 50 21:54 26.12.2020
4399 Clear 14 1023 54 10000 9.3 90 21:31 26.12.2020
4400 Clear 14 1021 66 10000 5.7 50 20:46 26.12.2020
4401 Clear 14 1023 50 10000 9.3 90 20:26 26.12.2020
4402 Clouds 14 1021 66 10000 5.7 60 19:50 26.12.2020
4403 Clouds 14 1020 66 10000 6.2 60 19:22 26.12.2020
4404 Clear 14 1023 54 10000 9.8 100 18:36 26.12.2020
4405 Clouds 15 1021 62 10000 6.2 70 17:48 26.12.2020
4406 Clear 15 1023 51 10000 10.3 90 17:29 26.12.2020
4407 Clouds 16 1023 51 10000 7.2 90 16:40 26.12.2020
4408 Clouds 16 1020 55 10000 8.2 80 16:21 26.12.2020
4409 Clouds 16 1023 54 10000 7.2 80 15:24 26.12.2020
4410 Clear 16 1021 48 10000 8.7 70 14:44 26.12.2020
4411 Clear 16 1021 51 10000 8.7 90 14:20 26.12.2020
4412 Clouds 16 1025 54 10000 8.2 90 13:42 26.12.2020
4413 Clouds 16 1025 54 10000 8.2 90 13:42 26.12.2020
4414 Clouds 16 1025 54 10000 8.2 90 13:23 26.12.2020
4415 Clouds 16 1025 51 10000 8.2 80 12:42 26.12.2020
4416 Clouds 16 1023 59 10000 11.3 70 12:20 26.12.2020
4417 Clouds 16 1025 51 10000 9.3 80 11:51 26.12.2020
4418 Clouds 16 1025 48 10000 8.7 80 11:21 26.12.2020
4419 Clouds 15 1022 67 10000 8.2 70 10:51 26.12.2020
4420 Clouds 15 1024 54 10000 9.8 90 10:27 26.12.2020
4421 Clouds 15 1022 71 7000 8.7 70 09:49 26.12.2020
4422 Clouds 15 1024 47 10000 9.3 90 09:24 26.12.2020
4423 Clouds 14 1021 66 7000 8.2 70 08:20 26.12.2020
4424 Clouds 15 1023 51 10000 10.3 90 07:33 26.12.2020
4425 Clouds 15 1020 76 7000 9.8 80 06:23 26.12.2020
4426 Clouds 16 1020 77 7000 5.7 70 02:49 26.12.2020
4427 Clouds 16 1023 82 10000 10.8 80 00:42 26.12.2020
4428 Clouds 16 1023 82 10000 9.3 70 23:59 25.12.2020
4429 Clouds 16 1023 82 10000 9.3 70 23:39 25.12.2020
4430 Clouds 15 1021 87 7000 4.1 50 23:20 25.12.2020
4431 Clouds 15 1023 82 10000 8.7 80 22:37 25.12.2020
4432 Clouds 15 1021 93 7000 3.1 30 21:49 25.12.2020
4433 Clouds 15 1022 77 10000 8.2 80 21:31 25.12.2020
4434 Clouds 15 1020 87 7000 1 0 20:47 25.12.2020
4435 Clouds 15 1022 82 10000 6.7 80 20:28 25.12.2020
4436 Clouds 14 1020 93 7000 2.6 10 19:43 25.12.2020
4437 Clouds 16 1020 77 8000 3.6 40 18:56 25.12.2020
4438 Clouds 17 1021 77 10000 5.1 80 18:37 25.12.2020
4439 Clouds 17 1020 77 10000 5.1 100 17:35 25.12.2020
4440 Clouds 17 1019 72 7000 4.1 40 16:56 25.12.2020
4441 Clouds 17 1020 77 10000 6.2 90 16:26 25.12.2020
4442 Clouds 17 1019 77 7000 5.1 40 15:55 25.12.2020
4443 Clouds 17 1020 77 10000 5.1 90 15:34 25.12.2020
4444 Clouds 17 1019 82 7000 4.6 50 14:45 25.12.2020
4445 Clouds 17 1020 77 10000 5.1 70 14:21 25.12.2020
4446 Clouds 17 1021 77 10000 4.6 70 13:43 25.12.2020
4447 Clouds 17 1021 77 10000 4.6 70 13:25 25.12.2020
4448 Clouds 17 1021 72 10000 3.1 30 12:34 25.12.2020
4449 Clouds 15 1020 87 6000 2.6 80 11:52 25.12.2020
4450 Clouds 15 1021 82 10000 0.5 100 11:25 25.12.2020
4451 Clouds 13 1021 87 10000 1 30 10:49 25.12.2020
4452 Clouds 13 1021 87 10000 1 30 10:23 25.12.2020
4453 Clouds 12 1020 87 10000 1 60 09:27 25.12.2020
4454 Clouds 11 1019 100 6000 1 130 08:47 25.12.2020
4455 Clouds 12 1020 87 10000 0.5 50 07:57 25.12.2020
4456 Clouds 11 1019 100 8000 2.1 80 06:44 25.12.2020
4457 Clouds 11 1019 100 8000 2.1 70 02:50 25.12.2020
4458 Clouds 12 1020 100 8000 2.1 80 01:18 25.12.2020
4459 Clouds 13 1020 100 8000 3.1 80 00:18 25.12.2020
4460 Clouds 13 1021 72 10000 2.6 240 23:23 24.12.2020
4461 Clouds 13 1021 72 10000 2.6 240 22:37 24.12.2020
4462 Clouds 13 1021 100 10000 1.5 120 22:18 24.12.2020
4463 Clouds 14 1021 72 10000 3.6 270 21:32 24.12.2020
4464 Clouds 15 1021 100 10000 1 10 20:19 24.12.2020
4465 Clouds 17 1020 68 10000 7.2 280 18:22 24.12.2020
4466 Clouds 18 1020 63 10000 6.7 270 17:58 24.12.2020
4467 Clouds 18 1020 63 10000 6.7 270 17:36 24.12.2020
4468 Clouds 18 1020 63 10000 5.1 280 16:28 24.12.2020
4469 Clouds 19 1020 55 10000 5.7 270 15:58 24.12.2020
4470 Clouds 19 1020 55 10000 5.7 270 15:40 24.12.2020
4471 Clouds 18 1021 77 10000 3.1 270 15:18 24.12.2020
4472 Clouds 19 1021 59 10000 5.1 270 14:42 24.12.2020
4473 Clouds 19 1021 59 10000 5.1 270 14:23 24.12.2020
4474 Clouds 18 1022 63 10000 3.1 260 13:39 24.12.2020
4475 Clouds 17 1023 77 10000 2.1 250 13:20 24.12.2020
4476 Clouds 17 1023 77 10000 2.6 280 12:41 24.12.2020
4477 Clouds 17 1023 72 10000 2.6 240 12:20 24.12.2020
4478 Clouds 16 1024 77 10000 3.1 210 11:39 24.12.2020
4479 Clouds 15 1024 100 8000 1.5 80 11:20 24.12.2020
4480 Clouds 14 1024 100 8000 2.1 70 10:49 24.12.2020
4481 Clouds 14 1023 87 10000 2.1 240 10:30 24.12.2020
4482 Clouds 12 1023 93 10000 2.1 250 09:52 24.12.2020
4483 Clouds 12 1023 93 10000 2.6 250 09:23 24.12.2020
4484 Clear 12 1023 87 10000 2.6 270 07:59 24.12.2020
4485 Clear 12 1023 87 10000 2.6 270 07:38 24.12.2020
4486 Mist 12 1023 100 4000 3.1 80 06:52 24.12.2020
4487 Clouds 13 1024 93 10000 3.1 280 04:24 24.12.2020
4488 Mist 14 1024 100 3000 2.1 90 01:53 24.12.2020
4489 Clouds 14 1025 87 10000 2.6 240 01:30 24.12.2020
4490 Mist 13 1025 100 3000 2.6 80 00:55 24.12.2020
4491 Mist 14 1025 100 2000 2.6 80 00:19 24.12.2020
4492 Clouds 14 1025 82 10000 3.6 240 23:40 23.12.2020
4493 Mist 14 1025 100 4000 2.6 70 23:21 23.12.2020
4494 Clouds 14 1025 100 5000 2.1 90 22:50 23.12.2020
4495 Clouds 15 1025 87 10000 3.1 280 22:29 23.12.2020
4496 Clouds 15 1025 100 5000 0.5 0 21:49 23.12.2020
4497 Clouds 15 1025 77 10000 3.1 260 21:24 23.12.2020
4498 Clouds 15 1025 100 5000 0.5 0 20:49 23.12.2020
4499 Clouds 16 1025 82 10000 3.1 260 20:31 23.12.2020
4500 Clouds 16 1025 82 10000 3.6 270 19:59 23.12.2020
4501 Clouds 16 1025 77 10000 3.1 250 19:38 23.12.2020
4502 Clouds 16 1025 93 10000 0.5 0 19:19 23.12.2020
4503 Clouds 17 1024 87 10000 2.1 240 18:46 23.12.2020
4504 Clouds 18 1025 88 10000 1.5 230 18:20 23.12.2020
4505 Clouds 19 1024 63 10000 3.1 220 17:36 23.12.2020
4506 Clouds 19 1025 82 10000 2.6 220 17:18 23.12.2020
4507 Clouds 19 1024 68 10000 3.1 200 16:40 23.12.2020
4508 Clear 18 1025 82 10000 3.1 230 16:22 23.12.2020
4509 Clear 19 1025 72 10000 3.1 230 15:50 23.12.2020
4510 Clouds 19 1025 68 10000 2.1 120 15:27 23.12.2020
4511 Clouds 19 1025 68 10000 1.5 70 14:58 23.12.2020
4512 Clouds 19 1026 72 10000 1 230 14:37 23.12.2020
4513 Clear 18 1025 72 10000 3.1 230 14:19 23.12.2020
4514 Clouds 18 1026 77 10000 1 270 13:43 23.12.2020
4515 Clouds 17 1027 77 10000 1 280 13:19 23.12.2020
4516 Clouds 17 1027 77 10000 1 230 12:47 23.12.2020
4517 Clouds 17 1027 77 10000 1 230 12:24 23.12.2020
4518 Clear 16 1027 72 10000 2.1 150 11:46 23.12.2020
4519 Clear 15 1027 82 10000 1.5 90 11:19 23.12.2020
4520 Clouds 14 1027 87 10000 0.5 250 10:42 23.12.2020
4521 Clouds 14 1027 87 10000 0.5 250 10:24 23.12.2020
4522 Clouds 12 1026 93 10000 1.85 75 09:33 23.12.2020
4523 Clear 11 1025 100 10000 2.1 60 08:45 23.12.2020
4524 Clear 12 1025 100 10000 2.6 70 08:20 23.12.2020
4525 Clouds 13 1025 87 10000 1.5 100 07:27 23.12.2020
4526 Clouds 12 1025 93 10000 1 270 06:39 23.12.2020
4527 Clear 12 1025 87 10000 2.1 80 05:28 23.12.2020
4528 Clear 12 1025 87 10000 0.5 160 04:56 23.12.2020
4529 Clear 14 1026 87 10000 6.2 90 00:34 23.12.2020
4530 Clear 14 1025 93 10000 3.1 80 23:49 22.12.2020
4531 Clear 14 1025 93 10000 3.1 90 23:30 22.12.2020
4532 Clear 15 1026 82 10000 5.1 100 22:44 22.12.2020
4533 Clear 15 1026 82 10000 5.1 100 22:25 22.12.2020
4534 Clouds 15 1026 82 10000 5.7 90 21:58 22.12.2020
4535 Clouds 16 1026 82 10000 5.7 90 21:38 22.12.2020
4536 Clear 16 1025 82 10000 2.6 110 21:18 22.12.2020
4537 Clear 16 1024 82 10000 4.1 90 20:47 22.12.2020
4538 Clear 16 1024 82 10000 2.6 110 20:21 22.12.2020
4539 Clear 15 1024 82 10000 4.6 90 19:44 22.12.2020
4540 Clear 16 1024 82 10000 4.6 90 19:21 22.12.2020
4541 Clear 16 1024 77 10000 4.1 90 18:50 22.12.2020
4542 Clouds 17 1025 87 10000 5.1 90 18:29 22.12.2020
4543 Clear 18 1023 63 10000 3.6 100 17:51 22.12.2020
4544 Clouds 18 1025 87 10000 4.6 70 17:25 22.12.2020
4545 Clouds 18 1025 87 10000 5.1 80 16:55 22.12.2020
4546 Clouds 18 1025 87 10000 5.1 80 16:36 22.12.2020
4547 Clear 18 1023 56 10000 3.1 110 16:18 22.12.2020
4548 Clouds 18 1025 82 10000 6.7 80 15:42 22.12.2020
4549 Clear 19 1023 52 10000 3.6 140 15:20 22.12.2020
4550 Clouds 18 1026 82 10000 6.2 80 14:43 22.12.2020
4551 Clear 18 1024 56 10000 3.6 130 14:25 22.12.2020
4552 Clear 18 1024 60 10000 3.6 120 13:47 22.12.2020
4553 Clouds 17 1027 87 10000 6.2 70 13:19 22.12.2020
4554 Clouds 17 1027 87 10000 6.2 70 12:56 22.12.2020
4555 Clouds 17 1028 82 10000 6.2 70 12:38 22.12.2020
4556 Clear 18 1025 68 10000 4.1 100 12:19 22.12.2020
4557 Clouds 17 1028 82 10000 6.7 80 11:41 22.12.2020
4558 Clear 17 1025 77 10000 5.1 100 11:22 22.12.2020
4559 Clouds 16 1027 82 10000 6.7 80 10:55 22.12.2020
4560 Clouds 16 1027 82 10000 6.2 70 10:27 22.12.2020
4561 Clouds 15 1027 82 10000 6.7 70 09:58 22.12.2020
4562 Clouds 15 1027 82 10000 7.2 80 09:30 22.12.2020
4563 Clouds 14 1026 87 10000 6.7 70 08:57 22.12.2020
4564 Clouds 14 1026 87 10000 6.7 70 08:38 22.12.2020
4565 Clear 14 1024 93 10000 4.1 90 07:57 22.12.2020
4566 Clouds 15 1026 82 10000 6.2 70 07:26 22.12.2020
4567 Clouds 15 1026 82 10000 5.1 80 06:31 22.12.2020
4568 Clear 14 1025 87 10000 3.6 100 05:25 22.12.2020
4569 Clear 14 1025 82 10000 4.1 90 02:19 22.12.2020
4570 Clear 15 1028 87 10000 6.2 90 00:23 22.12.2020
4571 Clouds 15 1028 87 10000 4.6 90 23:43 21.12.2020
4572 Clear 15 1026 71 10000 3.1 100 23:19 21.12.2020
4573 Clouds 15 1028 82 10000 4.6 90 22:36 21.12.2020
4574 Clear 15 1026 76 10000 2.1 70 22:18 21.12.2020
4575 Clear 15 1026 82 10000 4.1 100 21:46 21.12.2020
4576 Clouds 15 1028 87 10000 4.6 90 21:27 21.12.2020
4577 Clouds 16 1028 87 10000 3.6 80 20:43 21.12.2020
4578 Clear 16 1026 82 10000 3.1 50 20:21 21.12.2020
4579 Clear 16 1026 82 10000 1.5 80 19:47 21.12.2020
4580 Clear 17 1026 77 10000 4.6 60 19:20 21.12.2020
4581 Clouds 17 1028 82 10000 4.1 90 18:57 21.12.2020
4582 Clouds 17 1027 82 10000 4.1 70 18:39 21.12.2020
4583 Clear 17 1026 72 10000 4.6 50 18:20 21.12.2020
4584 Clouds 18 1027 82 10000 4.6 80 17:42 21.12.2020
4585 Clouds 18 1027 82 10000 4.6 80 17:22 21.12.2020
4586 Clouds 17 1027 77 10000 4.6 80 16:41 21.12.2020
4587 Clear 18 1026 77 10000 6.2 30 16:19 21.12.2020
4588 Clouds 18 1028 77 10000 4.1 70 15:41 21.12.2020
4589 Clouds 18 1028 77 10000 4.1 70 15:41 21.12.2020
4590 Clouds 18 1028 72 10000 4.1 80 14:58 21.12.2020
4591 Clear 18 1026 55 10000 4.6 50 14:22 21.12.2020
4592 Clouds 18 1029 72 10000 5.1 90 13:52 21.12.2020
4593 Clouds 18 1029 72 10000 5.1 100 13:33 21.12.2020
4594 Clouds 17 1029 72 10000 3.1 90 12:57 21.12.2020
4595 Clouds 17 1029 72 10000 3.1 90 12:57 21.12.2020
4596 Clouds 17 1030 72 10000 2.1 80 12:37 21.12.2020
4597 Clear 17 1028 67 10000 3.1 60 12:18 21.12.2020
4598 Clouds 16 1030 72 10000 2.1 80 11:42 21.12.2020
4599 Clear 14 1029 82 10000 2.1 80 11:22 21.12.2020
4600 Clouds 14 1029 76 10000 1.5 260 10:55 21.12.2020
4601 Clouds 12 1029 71 10000 1.5 250 10:37 21.12.2020
4602 Clouds 11 1029 76 10000 2.1 250 09:55 21.12.2020
4603 Clouds 10 1028 76 10000 1.5 250 09:37 21.12.2020
4604 Clear 10 1028 100 6000 2.1 90 09:18 21.12.2020
4605 Clouds 10 1027 100 6000 1.5 80 08:18 21.12.2020
4606 Clouds 9 1027 100 7000 2.1 80 06:48 21.12.2020
4607 Clear 11 1027 81 10000 3.1 250 04:58 21.12.2020
4608 Clear 11 1027 76 10000 3.1 250 02:32 21.12.2020
4609 Clear 12 1027 82 10000 3.1 260 00:35 21.12.2020
4610 Clear 12 1027 82 10000 5.1 260 23:38 20.12.2020
4611 Clouds 12 1027 100 7000 2.1 70 23:19 20.12.2020
4612 Clear 13 1027 77 10000 4.1 270 22:42 20.12.2020
4613 Clear 13 1027 93 10000 2.1 70 22:22 20.12.2020
4614 Clear 14 1026 72 10000 5.1 260 21:40 20.12.2020
4615 Clear 14 1027 93 10000 1 120 21:22 20.12.2020
4616 Clear 14 1026 77 10000 5.1 270 20:53 20.12.2020
4617 Clear 14 1026 77 10000 5.1 270 20:26 20.12.2020
4618 Clouds 14 1026 77 10000 5.1 260 19:56 20.12.2020
4619 Clouds 15 1025 72 10000 4.6 260 19:38 20.12.2020
4620 Clear 14 1026 82 10000 2.1 300 19:19 20.12.2020
4621 Clouds 16 1025 67 10000 5.1 260 18:41 20.12.2020
4622 Clouds 16 1025 67 10000 5.1 260 18:22 20.12.2020
4623 Clouds 16 1026 72 10000 3.1 290 17:45 20.12.2020
4624 Clouds 17 1024 67 10000 5.1 270 17:27 20.12.2020
4625 Clouds 17 1025 72 10000 3.1 290 16:47 20.12.2020
4626 Clouds 17 1025 67 10000 5.1 290 16:27 20.12.2020
4627 Clouds 17 1025 67 10000 3.6 270 15:50 20.12.2020
4628 Clouds 17 1024 67 10000 6.7 260 15:25 20.12.2020
4629 Clouds 18 1025 67 10000 6.2 290 14:56 20.12.2020
4630 Clouds 18 1024 67 10000 5.1 290 14:34 20.12.2020
4631 Clouds 16 1025 82 10000 3.1 270 13:47 20.12.2020
4632 Clouds 16 1025 72 10000 5.1 280 13:28 20.12.2020
4633 Clouds 16 1025 77 10000 4.6 280 12:58 20.12.2020
4634 Clouds 16 1025 82 10000 4.6 280 12:39 20.12.2020
4635 Clouds 16 1025 82 10000 4.6 280 12:21 20.12.2020
4636 Clouds 16 1025 77 10000 2.1 180 11:44 20.12.2020
4637 Clouds 15 1025 82 10000 1 0 11:19 20.12.2020
4638 Clouds 14 1025 87 10000 0.5 0 10:45 20.12.2020
4639 Clouds 14 1025 82 10000 1.5 0 10:20 20.12.2020
4640 Clouds 14 1024 82 10000 2.6 170 09:46 20.12.2020
4641 Clouds 14 1024 82 10000 5.7 280 09:27 20.12.2020
4642 Clouds 14 1023 87 10000 5.1 280 08:56 20.12.2020
4643 Clouds 14 1023 87 10000 4.6 270 08:37 20.12.2020
4644 Clouds 15 1022 82 10000 4.1 270 07:25 20.12.2020
4645 Clouds 14 1023 87 6000 2.6 180 05:44 20.12.2020
4646 Clouds 14 1022 93 6000 4.6 180 01:46 20.12.2020
4647 Clouds 15 1022 72 10000 6.2 240 00:38 20.12.2020
4648 Clouds 15 1022 72 10000 6.2 240 00:38 20.12.2020
4649 Clouds 15 1022 77 6000 2.6 180 23:21 19.12.2020
4650 Clouds 15 1022 77 6000 3.6 180 22:57 19.12.2020
4651 Clouds 15 1022 82 10000 4.6 220 22:38 19.12.2020
4652 Clouds 15 1021 77 6000 3.1 170 22:19 19.12.2020
4653 Clouds 16 1022 77 10000 4.6 230 21:42 19.12.2020
4654 Clouds 16 1022 77 10000 4.6 230 21:24 19.12.2020
4655 Clouds 15 1022 87 6000 3.1 150 20:45 19.12.2020
4656 Clouds 15 1022 93 6000 2.6 160 20:21 19.12.2020
4657 Clouds 15 1022 87 10000 2.1 270 19:54 19.12.2020
4658 Clouds 15 1022 87 10000 1 280 19:36 19.12.2020
4659 Clouds 16 1021 77 6000 2.6 180 18:43 19.12.2020
4660 Clouds 16 1021 87 10000 0.5 360 18:25 19.12.2020
4661 Clouds 16 1021 77 6000 2.6 180 17:49 19.12.2020
4662 Clouds 16 1021 87 10000 1.5 70 17:28 19.12.2020
4663 Clouds 16 1021 87 10000 0.5 330 16:55 19.12.2020
4664 Rain 16 1021 82 10000 1 300 16:36 19.12.2020
4665 Rain 16 1021 72 6000 2.6 180 16:18 19.12.2020
4666 Clouds 16 1021 72 6000 3.6 200 15:47 19.12.2020
4667 Clouds 16 1021 72 8000 3.1 180 14:49 19.12.2020
4668 Rain 16 1021 77 8000 3.1 180 14:24 19.12.2020
4669 Rain 15 1022 87 10000 1 260 13:42 19.12.2020
4670 Clouds 15 1022 72 8000 2.6 180 13:21 19.12.2020
4671 Clouds 15 1022 72 8000 2.6 180 12:54 19.12.2020
4672 Clouds 15 1023 82 10000 1 250 12:36 19.12.2020
4673 Clouds 15 1022 67 8000 2.6 170 12:18 19.12.2020
4674 Clouds 14 1023 87 10000 1.5 250 11:40 19.12.2020
4675 Clouds 13 1023 93 8000 2.1 100 10:47 19.12.2020
4676 Clouds 12 1023 87 10000 2.1 260 10:27 19.12.2020
4677 Clouds 12 1022 87 10000 2.1 240 09:59 19.12.2020
4678 Clouds 10 1022 93 10000 2.1 250 09:39 19.12.2020
4679 Clouds 10 1022 93 10000 2.6 250 08:52 19.12.2020
4680 Clear 11 1021 100 10000 2.1 70 07:55 19.12.2020
4681 Clear 11 1021 100 10000 2.1 80 07:18 19.12.2020
4682 Clouds 11 1021 93 10000 2.1 250 06:39 19.12.2020
4683 Clear 11 1021 100 10000 2.6 90 05:19 19.12.2020
4684 Clouds 12 1021 93 10000 1.5 260 03:28 19.12.2020
4685 Clouds 12 1022 93 10000 1 250 00:41 19.12.2020
4686 Clear 12 1022 100 10000 1.5 90 00:18 19.12.2020
4687 Clear 12 1022 100 10000 1.5 70 23:48 18.12.2020
4688 Clouds 12 1023 93 10000 1 300 23:24 18.12.2020
4689 Clear 13 1022 100 10000 2.1 60 22:48 18.12.2020
4690 Clouds 13 1022 87 10000 0.5 200 22:24 18.12.2020
4691 Clear 13 1022 100 10000 2.1 70 21:51 18.12.2020
4692 Clouds 14 1022 77 10000 1 260 21:31 18.12.2020
4693 Clouds 13 1021 93 10000 0.5 50 20:43 18.12.2020
4694 Clouds 15 1022 77 10000 2.1 150 20:23 18.12.2020
4695 Clouds 15 1022 87 10000 1 0 19:46 18.12.2020
4696 Clouds 16 1021 82 10000 1.5 310 19:22 18.12.2020
4697 Clouds 16 1022 82 10000 1.5 60 18:45 18.12.2020
4698 Clouds 16 1022 82 10000 1.5 60 18:25 18.12.2020
4699 Clouds 17 1022 77 10000 2.1 90 17:36 18.12.2020
4700 Clouds 17 1022 77 10000 1.5 80 16:57 18.12.2020
4701 Clouds 17 1022 77 10000 1.5 60 16:38 18.12.2020
4702 Clear 17 1021 72 10000 3.6 300 16:20 18.12.2020
4703 Clouds 17 1022 77 10000 2.6 70 15:44 18.12.2020
4704 Clouds 17 1022 77 10000 2.6 70 15:25 18.12.2020
4705 Clouds 17 1022 77 10000 2.6 70 14:55 18.12.2020
4706 Clear 17 1021 59 10000 1.5 280 14:23 18.12.2020
4707 Clouds 17 1023 77 10000 1 80 13:51 18.12.2020
4708 Clouds 16 1023 77 10000 2.6 90 13:31 18.12.2020
4709 Clouds 16 1023 77 10000 2.6 80 12:56 18.12.2020
4710 Clouds 16 1024 77 10000 1.5 90 12:30 18.12.2020
4711 Clouds 15 1024 72 10000 0.5 100 11:27 18.12.2020
4712 Clouds 13 1024 81 10000 1.5 250 10:40 18.12.2020
4713 Clouds 12 1023 87 10000 2.1 240 10:21 18.12.2020
4714 Clouds 12 1023 87 10000 2.1 240 09:55 18.12.2020
4715 Clouds 11 1023 87 10000 2.6 260 09:36 18.12.2020
4716 Clouds 11 1023 100 8000 2.1 70 09:18 18.12.2020
4717 Clouds 11 1023 87 10000 3.1 250 08:42 18.12.2020
4718 Clouds 11 1023 100 6000 2.6 70 07:52 18.12.2020
4719 Clouds 11 1023 100 6000 2.6 80 07:19 18.12.2020
4720 Clouds 12 1023 87 10000 1.5 230 06:58 18.12.2020
4721 Clear 12 1023 87 10000 3.1 250 05:44 18.12.2020
4722 Clouds 12 1023 100 6000 1 0 04:51 18.12.2020
4723 Clear 13 1024 87 10000 3.1 260 02:49 18.12.2020
4724 Clear 13 1024 93 10000 3.1 260 01:43 18.12.2020
4725 Clouds 13 1024 87 10000 2.1 260 00:28 18.12.2020
4726 Clouds 13 1023 100 6000 2.1 90 23:51 17.12.2020
4727 Clouds 13 1023 100 6000 2.1 100 23:20 17.12.2020
4728 Clouds 14 1023 100 6000 1.5 100 22:47 17.12.2020
4729 Clouds 13 1024 87 10000 2.1 270 22:27 17.12.2020
4730 Clouds 15 1024 77 10000 1.5 240 21:44 17.12.2020
4731 Clouds 15 1024 77 10000 1.5 240 21:44 17.12.2020
4732 Clouds 15 1024 77 10000 1.5 240 21:44 17.12.2020
4733 Clouds 15 1024 77 10000 1.5 240 21:44 17.12.2020
4734 Clouds 15 1023 93 7000 1.5 100 21:21 17.12.2020
4735 Clouds 15 1023 93 8000 1.5 80 20:45 17.12.2020
4736 Clouds 15 1023 93 10000 1.5 40 20:19 17.12.2020
4737 Clouds 15 1023 87 10000 1.5 40 19:50 17.12.2020
4738 Clouds 16 1023 72 10000 2.1 300 19:25 17.12.2020
4739 Clouds 16 1022 87 10000 1.5 250 18:47 17.12.2020
4740 Clouds 17 1022 72 10000 3.1 270 18:27 17.12.2020
4741 Clouds 17 1022 72 10000 3.1 270 18:27 17.12.2020
4742 Clouds 17 1022 72 10000 2.1 250 17:58 17.12.2020
4743 Clouds 17 1022 63 10000 2.6 210 17:38 17.12.2020
4744 Clouds 17 1022 77 10000 2.6 250 17:20 17.12.2020
4745 Clouds 18 1022 59 10000 3.1 190 16:37 17.12.2020
4746 Clouds 17 1021 67 10000 3.6 240 16:19 17.12.2020
4747 Clouds 18 1021 63 10000 3.1 200 15:42 17.12.2020
4748 Clouds 18 1021 63 10000 2.1 0 15:23 17.12.2020
4749 Clouds 17 1021 67 10000 3.1 190 14:47 17.12.2020
4750 Clouds 18 1022 72 10000 1 160 14:20 17.12.2020
4751 Clouds 17 1022 72 10000 2.1 250 13:42 17.12.2020
4752 Clouds 17 1022 63 10000 2.1 180 13:18 17.12.2020
4753 Clouds 16 1022 77 10000 1 280 12:39 17.12.2020
4754 Clouds 16 1022 72 10000 2.1 180 12:21 17.12.2020
4755 Clouds 14 1022 82 10000 1 250 11:41 17.12.2020
4756 Clouds 14 1022 82 10000 2.1 80 11:20 17.12.2020
4757 Clouds 13 1021 87 10000 1 270 10:40 17.12.2020
4758 Clouds 11 1021 93 10000 2.6 270 09:37 17.12.2020
4759 Clouds 11 1020 100 8000 1.5 60 08:50 17.12.2020
4760 Clouds 11 1020 93 10000 1.5 250 07:42 17.12.2020
4761 Clouds 11 1020 93 10000 1.5 250 07:21 17.12.2020
4762 Clouds 11 1019 100 8000 1 0 06:47 17.12.2020
4763 Clouds 11 1019 87 10000 1 250 06:29 17.12.2020
4764 Clouds 13 1018 87 10000 1.5 250 03:30 17.12.2020
4765 Clouds 14 1018 82 10000 2.1 220 00:27 17.12.2020
4766 Clouds 14 1017 87 10000 2.1 210 23:40 16.12.2020
4767 Clouds 13 1017 82 8000 2.6 160 23:18 16.12.2020
4768 Clouds 14 1017 87 8000 2.1 130 22:48 16.12.2020
4769 Clouds 14 1017 82 10000 2.6 170 22:28 16.12.2020
4770 Clouds 13 1017 87 10000 2.1 190 21:42 16.12.2020
4771 Clouds 13 1017 87 10000 2.1 190 21:23 16.12.2020
4772 Rain 14 1016 100 7000 2.1 140 20:52 16.12.2020
4773 Rain 14 1016 82 10000 4.6 270 20:20 16.12.2020
4774 Rain 14 1016 82 10000 4.6 270 19:38 16.12.2020
4775 Rain 14 1016 93 10000 4.6 270 19:18 16.12.2020
4776 Rain 14 1015 93 4000 1 0 18:47 16.12.2020
4777 Rain 14 1016 82 5000 6.2 260 18:25 16.12.2020
4778 Rain 15 1014 82 5000 4.1 130 17:36 16.12.2020
4779 Rain 15 1014 93 5000 2.6 280 16:47 16.12.2020
4780 Rain 15 1014 77 5000 4.1 120 16:29 16.12.2020
4781 Clouds 16 1014 77 5000 4.1 120 15:58 16.12.2020
4782 Clouds 16 1014 77 10000 3.1 70 15:39 16.12.2020
4783 Clouds 16 1014 87 4000 5.1 170 15:18 16.12.2020
4784 Clouds 17 1015 77 10000 3.1 70 14:44 16.12.2020
4785 Clouds 17 1015 77 10000 3.1 70 14:25 16.12.2020
4786 Clouds 16 1016 77 10000 3.1 80 13:41 16.12.2020
4787 Clouds 16 1015 77 8000 4.6 200 13:20 16.12.2020
4788 Clouds 15 1017 76 10000 1 100 12:43 16.12.2020
4789 Clouds 15 1017 76 10000 1 120 11:51 16.12.2020
4790 Clouds 14 1017 81 10000 1 270 11:31 16.12.2020
4791 Clouds 13 1017 81 10000 2.1 280 10:56 16.12.2020
4792 Clouds 13 1017 76 10000 1 260 10:32 16.12.2020
4793 Clouds 12 1017 81 10000 1.5 270 09:56 16.12.2020
4794 Clouds 11 1017 81 10000 1.5 260 09:29 16.12.2020
4795 Clouds 10 1017 81 10000 1.5 270 08:22 16.12.2020
4796 Clear 10 1016 93 10000 3.1 80 07:45 16.12.2020
4797 Clear 10 1015 93 10000 2.6 80 07:20 16.12.2020
4798 Clear 11 1017 76 10000 3.1 240 03:37 16.12.2020
4799 Clear 12 1018 81 10000 3.6 260 01:59 16.12.2020
4800 Clear 12 1017 81 10000 3.1 70 23:50 15.12.2020
4801 Clear 13 1018 76 10000 2.6 270 23:31 15.12.2020
4802 Clear 14 1018 72 10000 2.6 270 22:41 15.12.2020
4803 Clear 14 1018 72 10000 2.6 270 22:21 15.12.2020
4804 Clear 13 1018 76 10000 2.1 90 21:47 15.12.2020
4805 Clear 13 1018 76 10000 2.6 80 21:23 15.12.2020
4806 Clear 13 1018 71 10000 1.5 100 20:45 15.12.2020
4807 Clear 14 1018 72 10000 2.6 250 20:27 15.12.2020
4808 Clear 15 1018 66 10000 2.1 60 19:55 15.12.2020
4809 Clear 15 1018 59 10000 1.5 280 19:33 15.12.2020
4810 Clear 17 1018 55 10000 3.1 290 18:42 15.12.2020
4811 Clear 17 1018 55 10000 3.1 290 18:22 15.12.2020
4812 Clear 18 1018 59 10000 1.5 330 17:58 15.12.2020
4813 Clear 19 1018 52 10000 3.1 230 17:40 15.12.2020
4814 Clear 18 1018 48 10000 1 0 17:20 15.12.2020
4815 Clear 19 1018 52 10000 3.1 240 16:32 15.12.2020
4816 Clouds 18 1018 52 10000 2.6 320 15:52 15.12.2020
4817 Clouds 18 1018 55 10000 3.1 260 15:31 15.12.2020
4818 Clouds 18 1018 52 10000 2.1 320 14:48 15.12.2020
4819 Clouds 18 1019 59 10000 1.5 330 14:21 15.12.2020
4820 Clouds 18 1019 59 10000 1 0 13:52 15.12.2020
4821 Clouds 18 1019 59 10000 4.1 260 13:32 15.12.2020
4822 Clouds 18 1020 59 10000 2.1 330 12:47 15.12.2020
4823 Clouds 18 1020 59 10000 2.1 330 12:47 15.12.2020
4824 Clouds 17 1020 63 10000 3.1 280 12:22 15.12.2020
4825 Clouds 17 1020 72 10000 3.1 280 11:56 15.12.2020
4826 Clouds 17 1020 77 10000 2.1 270 11:26 15.12.2020
4827 Clouds 16 1020 82 10000 2.6 280 10:55 15.12.2020
4828 Clouds 16 1019 77 10000 2.1 290 10:32 15.12.2020
4829 Clouds 16 1019 82 10000 4.6 270 09:51 15.12.2020
4830 Clouds 15 1019 87 10000 5.1 260 09:32 15.12.2020
4831 Clouds 15 1018 82 10000 4.1 270 08:53 15.12.2020
4832 Clouds 16 1018 82 10000 3.1 290 08:26 15.12.2020
4833 Clouds 16 1017 93 6000 0.5 0 07:50 15.12.2020
4834 Clouds 16 1017 77 10000 4.6 260 07:26 15.12.2020
4835 Clouds 16 1017 77 10000 5.1 280 06:37 15.12.2020
4836 Clouds 16 1016 82 10000 4.6 260 03:29 15.12.2020
4837 Clear 17 1015 82 10000 5.7 280 00:35 15.12.2020
4838 Clear 17 1015 88 10000 4.1 280 23:26 14.12.2020
4839 Clouds 17 1015 82 6000 4.1 240 22:56 14.12.2020
4840 Haze 17 1015 93 8000 5.1 280 22:34 14.12.2020
4841 Clouds 18 1015 93 4000 3.6 250 21:46 14.12.2020
4842 Clear 18 1014 82 8000 4.6 220 21:23 14.12.2020
4843 Rain 17 1015 100 2000 7.2 260 20:52 14.12.2020
4844 Clouds 18 1014 82 10000 3.6 220 20:30 14.12.2020
4845 Clouds 18 1014 82 10000 4.6 220 19:54 14.12.2020
4846 Clouds 18 1014 77 10000 6.7 230 19:29 14.12.2020
4847 Clouds 18 1014 88 4000 4.1 190 18:51 14.12.2020
4848 Clouds 18 1014 88 4000 4.1 190 18:51 14.12.2020
4849 Clouds 19 1014 82 8000 4.6 190 18:31 14.12.2020
4850 Clouds 19 1014 82 8000 3.6 190 17:47 14.12.2020
4851 Clouds 19 1014 72 10000 5.7 230 17:24 14.12.2020
4852 Clouds 19 1013 72 10000 5.1 230 16:52 14.12.2020
4853 Clouds 19 1013 72 10000 5.1 230 16:29 14.12.2020
4854 Clouds 19 1014 77 10000 5.1 200 15:44 14.12.2020
4855 Clouds 19 1014 82 10000 4.1 250 15:22 14.12.2020
4856 Clouds 19 1014 82 10000 7.2 250 14:43 14.12.2020
4857 Clouds 19 1014 82 10000 7.2 250 14:24 14.12.2020
4858 Clouds 18 1014 77 10000 4.1 240 13:44 14.12.2020
4859 Clouds 18 1014 88 6000 3.1 190 13:20 14.12.2020
4860 Clouds 18 1015 77 10000 4.1 240 12:52 14.12.2020
4861 Clouds 18 1015 77 10000 2.6 260 12:28 14.12.2020
4862 Clouds 17 1015 77 10000 5.1 240 11:35 14.12.2020
4863 Clouds 17 1015 82 10000 3.6 270 10:40 14.12.2020
4864 Clouds 17 1015 82 10000 3.6 270 10:21 14.12.2020
4865 Clouds 16 1015 93 8000 2.6 170 09:43 14.12.2020
4866 Clouds 16 1014 93 6000 2.1 180 08:47 14.12.2020
4867 Clouds 16 1014 87 10000 3.1 240 08:29 14.12.2020
4868 Clouds 16 1014 93 6000 2.1 180 07:44 14.12.2020
4869 Clouds 15 1013 100 6000 1.5 170 06:47 14.12.2020
4870 Clouds 15 1013 87 10000 1.5 280 05:35 14.12.2020
4871 Clouds 15 1014 82 10000 3.1 240 02:26 14.12.2020
4872 Clouds 16 1014 100 6000 1 0 00:56 14.12.2020
4873 Clouds 16 1014 77 10000 3.6 230 00:33 14.12.2020
4874 Clouds 15 1014 100 6000 1 0 23:50 13.12.2020
4875 Clouds 16 1014 82 10000 2.1 230 23:30 13.12.2020
4876 Clouds 16 1013 100 8000 1 0 22:47 13.12.2020
4877 Clouds 16 1013 100 8000 1.5 80 22:20 13.12.2020
4878 Clouds 16 1013 93 8000 1.5 40 21:45 13.12.2020
4879 Clouds 16 1014 93 8000 0.5 0 21:26 13.12.2020
4880 Clouds 16 1013 77 10000 1.5 280 20:35 13.12.2020
4881 Clouds 17 1013 67 10000 0.5 60 19:57 13.12.2020
4882 Clouds 17 1013 67 10000 0.5 60 19:37 13.12.2020
4883 Clear 17 1013 93 10000 1.5 260 19:19 13.12.2020
4884 Clear 18 1013 63 10000 1 30 18:42 13.12.2020
4885 Clear 18 1013 82 10000 1 0 18:20 13.12.2020
4886 Clouds 18 1013 82 10000 1.5 300 17:46 13.12.2020
4887 Clear 18 1013 59 10000 1.5 40 17:21 13.12.2020
4888 Clear 18 1014 59 10000 1.5 50 16:55 13.12.2020
4889 Clear 19 1014 55 10000 2.6 60 16:36 13.12.2020
4890 Clouds 20 1014 52 10000 1.5 70 15:58 13.12.2020
4891 Clouds 19 1014 52 10000 1.5 70 15:38 13.12.2020
4892 Clouds 20 1014 49 10000 1 110 15:20 13.12.2020
4893 Clouds 19 1015 55 10000 1 90 14:43 13.12.2020
4894 Clouds 19 1015 59 10000 2.1 80 14:20 13.12.2020
4895 Clouds 18 1016 68 10000 2.1 80 13:43 13.12.2020
4896 Clouds 18 1016 68 10000 2.1 80 13:22 13.12.2020
4897 Clouds 19 1016 68 10000 2.1 270 12:42 13.12.2020
4898 Clouds 19 1016 68 10000 2.1 270 12:22 13.12.2020
4899 Clouds 18 1016 72 10000 3.1 260 11:36 13.12.2020
4900 Clouds 18 1016 77 10000 3.1 250 10:52 13.12.2020
4901 Clouds 17 1016 77 10000 5.1 270 10:34 13.12.2020
4902 Clouds 17 1016 77 10000 4.6 270 09:54 13.12.2020
4903 Clouds 17 1015 77 10000 6.7 250 08:58 13.12.2020
4904 Clouds 17 1015 77 10000 6.7 250 08:33 13.12.2020
4905 Clouds 17 1015 77 10000 6.2 250 07:35 13.12.2020
4906 Clouds 17 1017 88 10000 6.7 270 04:23 13.12.2020
4907 Clouds 17 1018 88 10000 6.2 270 02:40 13.12.2020
4908 Clouds 17 1019 88 10000 5.7 250 01:37 13.12.2020
4909 Clouds 17 1019 88 10000 5.7 250 01:37 13.12.2020
4910 Clouds 17 1019 100 8000 1.5 200 00:48 13.12.2020
4911 Clouds 18 1019 93 8000 2.1 230 23:51 12.12.2020
4912 Clouds 18 1019 88 10000 6.7 270 23:31 12.12.2020
4913 Clouds 18 1020 93 8000 2.1 240 22:46 12.12.2020
4914 Clouds 18 1019 82 10000 5.7 220 21:56 12.12.2020
4915 Clouds 18 1019 82 10000 5.7 220 21:34 12.12.2020
4916 Clouds 18 1020 100 6000 3.6 260 20:55 12.12.2020
4917 Clouds 18 1019 82 10000 7.2 250 20:24 12.12.2020
4918 Clouds 18 1019 82 10000 5.7 220 19:57 12.12.2020
4919 Clouds 18 1019 82 10000 5.7 220 19:38 12.12.2020
4920 Clouds 18 1020 100 6000 2.6 240 19:20 12.12.2020
4921 Clouds 18 1019 82 10000 7.2 250 18:41 12.12.2020
4922 Clouds 18 1019 82 10000 7.2 250 18:23 12.12.2020
4923 Clouds 18 1020 100 5000 4.1 250 17:45 12.12.2020
4924 Clouds 19 1019 82 10000 6.2 270 16:54 12.12.2020
4925 Clouds 19 1020 88 8000 4.6 250 16:19 12.12.2020
4926 Clouds 19 1020 88 8000 5.1 250 15:44 12.12.2020
4927 Clouds 19 1019 77 10000 5.7 240 15:26 12.12.2020
4928 Clouds 18 1020 93 6000 5.7 250 14:44 12.12.2020
4929 Clouds 19 1020 82 10000 7.2 270 13:54 12.12.2020
4930 Clouds 19 1020 77 10000 7.2 260 13:36 12.12.2020
4931 Clouds 18 1021 93 6000 5.1 260 12:47 12.12.2020
4932 Clouds 18 1020 88 10000 7.7 270 11:43 12.12.2020
4933 Clouds 18 1020 82 10000 7.2 280 10:53 12.12.2020
4934 Clouds 18 1019 88 10000 7.7 250 09:32 12.12.2020
4935 Clouds 18 1020 100 5000 5.1 250 08:52 12.12.2020
4936 Clouds 17 1020 93 8000 6.7 240 02:46 12.12.2020
4937 Clouds 17 1021 93 8000 5.7 240 23:53 11.12.2020
4938 Clouds 18 1021 77 8000 5.1 220 22:21 11.12.2020
4939 Clouds 18 1019 77 10000 9.3 260 20:35 11.12.2020
4940 Clouds 17 1020 100 3000 8.2 260 17:52 11.12.2020
4941 Clouds 18 1019 82 10000 11.3 260 14:41 11.12.2020
4942 Clouds 18 1019 82 10000 9.3 260 13:58 11.12.2020
4943 Clouds 18 1020 82 10000 8.7 270 12:49 11.12.2020
4944 Clouds 18 1020 82 10000 9.3 270 11:58 11.12.2020
4945 Clouds 18 1019 82 10000 8.7 260 11:38 11.12.2020
4946 Clouds 17 1019 93 10000 7.2 260 10:44 11.12.2020
4947 Clouds 17 1020 100 3000 6.2 250 08:43 11.12.2020
4948 Clouds 18 1018 93 10000 9.3 260 05:40 11.12.2020
4949 Clouds 18 1019 100 3000 7.7 260 04:49 11.12.2020
4950 Clouds 18 1019 82 10000 9.8 260 01:32 11.12.2020
4951 Clouds 18 1019 82 10000 7.7 250 23:38 10.12.2020
4952 Clouds 18 1019 82 10000 8.7 260 22:24 10.12.2020
4953 Clouds 18 1019 82 10000 9.3 260 21:35 10.12.2020
4954 Clouds 18 1018 82 10000 9.3 260 20:39 10.12.2020
4955 Clouds 18 1019 82 10000 8.7 250 19:37 10.12.2020
4956 Clouds 18 1019 82 10000 7.2 250 18:53 10.12.2020
4957 Clouds 18 1020 100 4000 6.2 240 17:50 10.12.2020
4958 Clouds 17 1020 100 3000 8.7 240 16:25 10.12.2020
4959 Clouds 18 1018 82 10000 9.3 260 15:25 10.12.2020
4960 Clouds 17 1020 88 10000 7.2 240 14:48 10.12.2020
4961 Clouds 17 1019 82 10000 9.3 270 14:25 10.12.2020
4962 Clouds 18 1021 77 10000 7.7 260 12:38 10.12.2020
4963 Clouds 18 1021 82 10000 7.7 250 11:32 10.12.2020
4964 Clouds 16 1022 87 8000 4.6 260 08:51 10.12.2020
4965 Clouds 16 1020 82 10000 7.2 270 07:38 10.12.2020
4966 Clouds 16 1021 87 10000 7.7 270 06:41 10.12.2020
4967 Clouds 17 1022 82 8000 5.7 230 02:53 10.12.2020
4968 Clouds 17 1022 82 10000 6.7 220 01:58 10.12.2020
4969 Clouds 16 1024 93 8000 2.6 190 23:50 09.12.2020
4970 Clouds 15 1023 72 10000 6.2 260 20:51 09.12.2020
4971 Clouds 15 1023 72 10000 5.1 280 20:26 09.12.2020
4972 Clear 15 1023 77 10000 2.1 220 19:20 09.12.2020
4973 Clouds 16 1022 58 10000 5.1 290 17:42 09.12.2020
4974 Clouds 16 1022 54 10000 7.2 270 16:40 09.12.2020
4975 Clouds 16 1022 55 10000 2.6 250 16:20 09.12.2020
4976 Clouds 16 1023 54 10000 6.2 270 14:53 09.12.2020
4977 Clear 16 1023 51 10000 5.1 280 14:27 09.12.2020
4978 Clear 16 1023 47 10000 6.2 280 13:51 09.12.2020
4979 Clouds 15 1024 55 10000 2.6 280 13:18 09.12.2020
4980 Clouds 15 1024 58 10000 2.6 280 12:43 09.12.2020
4981 Clouds 14 1025 62 10000 3.6 320 11:46 09.12.2020
4982 Clouds 12 1023 71 10000 5.7 270 09:59 09.12.2020
4983 Clouds 12 1022 76 10000 5.7 270 08:42 09.12.2020
4984 Clouds 13 1022 62 10000 4.1 310 06:56 09.12.2020
4985 Clear 13 1021 71 10000 8.7 260 05:42 09.12.2020
4986 Clouds 14 1021 66 10000 8.2 290 02:57 09.12.2020
4987 Clouds 15 1021 77 10000 4.6 310 00:52 09.12.2020
4988 Clouds 16 1020 58 10000 7.2 270 23:37 08.12.2020
4989 Clouds 16 1019 67 10000 7.2 260 22:43 08.12.2020
4990 Clouds 16 1020 82 4000 5.1 310 20:49 08.12.2020
4991 Clouds 15 1019 72 10000 7.2 260 19:31 08.12.2020
4992 Clouds 16 1018 72 10000 7.2 280 18:41 08.12.2020
4993 Clouds 17 1019 93 8000 9.3 240 17:20 08.12.2020
4994 Clouds 18 1017 63 10000 11.3 260 15:25 08.12.2020
4995 Clouds 19 1017 63 10000 11.8 270 13:53 08.12.2020
4996 Clouds 18 1020 72 8000 9.8 250 12:54 08.12.2020
4997 Clouds 18 1020 68 8000 10.3 260 12:20 08.12.2020
4998 Clouds 18 1018 72 10000 11.3 260 11:27 08.12.2020
4999 Clouds 18 1018 67 10000 11.3 260 10:41 08.12.2020
5000 Clouds 17 1020 67 8000 9.8 260 09:45 08.12.2020
5001 Clouds 17 1018 72 10000 9.3 270 07:41 08.12.2020
5002 Clouds 16 1018 72 10000 11.8 260 05:42 08.12.2020
5003 Clouds 17 1018 72 10000 10.8 260 02:33 08.12.2020
5004 Clouds 16 1020 67 10000 7.7 270 00:45 08.12.2020
5005 Clouds 16 1018 72 10000 8.2 260 23:36 07.12.2020
5006 Clouds 17 1018 72 10000 8.7 250 22:21 07.12.2020
5007 Clouds 17 1018 72 10000 8.7 260 21:38 07.12.2020
5008 Clouds 17 1017 77 10000 7.2 270 19:27 07.12.2020
5009 Clouds 16 1016 72 10000 9.3 270 17:57 07.12.2020
5010 Clouds 17 1018 100 8000 7.7 280 17:20 07.12.2020
5011 Clouds 16 1016 82 10000 9.3 270 16:43 07.12.2020
5012 Clouds 17 1016 82 9000 10.3 270 15:25 07.12.2020
5013 Clouds 16 1016 82 4000 10.3 270 14:33 07.12.2020
5014 Clouds 17 1017 77 10000 5.7 230 13:36 07.12.2020
5015 Clouds 17 1018 82 10000 7.7 240 12:30 07.12.2020
5016 Clouds 17 1018 72 10000 5.7 230 11:42 07.12.2020
5017 Clouds 15 1017 77 10000 4.1 230 10:36 07.12.2020
5018 Clouds 14 1017 82 10000 6.7 220 09:23 07.12.2020
5019 Clouds 13 1017 82 10000 3.1 250 07:38 07.12.2020
5020 Clouds 12 1018 87 10000 3.1 230 05:27 07.12.2020
5021 Clouds 13 1019 93 10000 3.1 170 03:53 07.12.2020
5022 Clouds 14 1019 62 10000 5.1 270 00:49 07.12.2020
5023 Clouds 14 1019 62 10000 4.1 250 22:52 06.12.2020
5024 Clouds 14 1018 67 10000 5.1 260 21:44 06.12.2020
5025 Clouds 14 1018 66 10000 6.7 280 20:43 06.12.2020
5026 Clouds 14 1018 66 10000 6.7 280 20:22 06.12.2020
5027 Clouds 14 1017 62 10000 6.7 270 19:26 06.12.2020
5028 Clouds 15 1016 54 10000 8.2 270 17:31 06.12.2020
5029 Clouds 16 1016 58 10000 7.7 270 16:33 06.12.2020
5030 Clouds 15 1017 51 8000 7.2 290 14:49 06.12.2020
5031 Clouds 14 1018 58 10000 5.7 290 12:59 06.12.2020
5032 Clouds 14 1018 58 10000 6.2 290 12:30 06.12.2020
5033 Clouds 12 1018 66 10000 7.2 280 11:41 06.12.2020
5034 Clouds 13 1018 66 10000 7.2 280 11:22 06.12.2020
5035 Clouds 12 1017 66 10000 6.2 280 10:32 06.12.2020
5036 Clouds 12 1016 76 10000 5.1 290 08:57 06.12.2020
5037 Clouds 12 1016 62 8000 6.2 290 07:20 06.12.2020
5038 Clouds 11 1015 81 7000 2.1 230 03:50 06.12.2020
5039 Clouds 12 1015 58 6000 5.7 310 00:43 06.12.2020
5040 Clear 12 1015 66 10000 7.7 280 00:25 06.12.2020
5041 Clouds 12 1015 54 5000 4.6 280 23:44 05.12.2020
5042 Clouds 12 1014 66 10000 5.1 290 22:23 05.12.2020
5043 Clouds 13 1014 66 10000 5.1 280 21:51 05.12.2020
5044 Clouds 13 1013 66 10000 5.1 280 21:27 05.12.2020
5045 Clouds 12 1013 54 10000 4.1 280 19:49 05.12.2020
5046 Clouds 12 1013 58 10000 5.7 270 18:45 05.12.2020
5047 Clouds 13 1011 62 10000 8.7 280 17:35 05.12.2020
5048 Clouds 14 1010 58 10000 8.7 280 16:43 05.12.2020
5049 Clouds 14 1012 50 10000 6.7 270 16:20 05.12.2020
5050 Clouds 13 1010 62 10000 7.7 280 14:30 05.12.2020
5051 Clouds 11 1010 66 10000 7.2 280 12:32 05.12.2020
5052 Clouds 10 1010 70 10000 9.3 270 11:48 05.12.2020
5053 Clouds 10 1009 75 10000 5.1 280 10:32 05.12.2020
5054 Clouds 10 1007 71 10000 7.2 320 07:49 05.12.2020
5055 Clear 10 1006 70 10000 5.7 270 07:25 05.12.2020
5056 Rain 11 1005 62 10000 9.8 290 04:44 05.12.2020
5057 Clouds 12 1005 54 8000 12.9 290 23:56 04.12.2020
5058 Clouds 12 1003 71 10000 10.3 280 22:39 04.12.2020
5059 Clouds 11 1003 87 9000 8.7 290 20:29 04.12.2020
5060 Clouds 14 1001 76 10000 9.8 290 18:53 04.12.2020
5061 Clouds 16 1003 72 8000 15.9 270 18:20 04.12.2020
5062 Clouds 15 1000 77 10000 11.3 260 17:40 04.12.2020
5063 Clouds 14 1002 82 5000 10.8 270 15:50 04.12.2020
5064 Clouds 17 1003 67 10000 12.3 250 13:57 04.12.2020
5065 Clouds 17 1004 67 10000 11.3 250 13:29 04.12.2020
5066 Clouds 16 1005 72 10000 11.3 250 12:54 04.12.2020
5067 Clouds 17 1006 67 10000 9.8 260 10:42 04.12.2020
5068 Clouds 17 1006 67 10000 9.8 260 10:23 04.12.2020
5069 Clouds 15 1008 82 10000 7.2 280 07:29 04.12.2020
5070 Clouds 16 1008 67 10000 6.7 260 06:39 04.12.2020
5071 Clear 16 1010 72 10000 7.2 260 02:25 04.12.2020
5072 Clear 16 1012 82 10000 8.2 270 23:21 03.12.2020
5073 Clouds 16 1013 77 10000 6.2 260 22:45 03.12.2020
5074 Clouds 17 1012 82 10000 4.6 260 20:49 03.12.2020
5075 Clouds 17 1011 72 10000 5.1 260 19:37 03.12.2020
5076 Clouds 17 1012 77 10000 4.1 250 19:18 03.12.2020
5077 Clouds 18 1011 68 10000 5.1 230 18:18 03.12.2020
5078 Clouds 18 1012 82 10000 4.1 210 17:19 03.12.2020
5079 Clouds 18 1013 67 10000 3.1 110 15:56 03.12.2020
5080 Clouds 18 1013 67 10000 3.1 110 15:31 03.12.2020
5081 Clouds 18 1013 68 10000 2.6 230 14:48 03.12.2020
5082 Clouds 18 1014 72 10000 2.1 270 13:44 03.12.2020
5083 Clouds 17 1015 72 10000 3.1 50 12:32 03.12.2020
5084 Clouds 16 1015 72 10000 3.1 40 11:38 03.12.2020
5085 Clouds 15 1015 72 10000 1.5 20 10:25 03.12.2020
5086 Clouds 13 1014 87 6000 2.6 80 07:47 03.12.2020
5087 Clouds 12 1014 100 5000 2.1 90 03:22 03.12.2020
5088 Clouds 13 1014 100 7000 2.1 110 01:19 03.12.2020
5089 Clouds 14 1015 100 7000 2.1 70 22:48 02.12.2020
5090 Clear 14 1014 72 10000 5.7 260 22:26 02.12.2020
5091 Clear 15 1014 77 10000 5.1 290 21:25 02.12.2020
5092 Clear 15 1015 100 7000 1.5 70 20:46 02.12.2020
5093 Clear 16 1014 72 10000 6.7 290 20:28 02.12.2020
5094 Clouds 18 1013 72 10000 6.2 270 18:39 02.12.2020
5095 Clouds 18 1014 77 8000 3.1 270 17:47 02.12.2020
5096 Clouds 19 1014 77 8000 5.1 270 17:28 02.12.2020
5097 Clouds 19 1013 63 10000 7.2 270 15:23 02.12.2020
5098 Clouds 19 1015 63 10000 3.1 220 12:45 02.12.2020
5099 Clear 15 1015 72 10000 3.6 250 10:29 02.12.2020
5100 Clear 13 1015 77 10000 4.6 270 09:27 02.12.2020
5101 Mist 13 1016 100 4000 2.1 90 05:53 02.12.2020
5102 Clear 16 1019 82 10000 2.6 250 22:21 01.12.2020
5103 Clear 16 1018 87 10000 1.5 40 21:53 01.12.2020
5104 Clouds 17 1018 82 10000 1.5 80 19:36 01.12.2020
5105 Clear 18 1018 82 10000 2.6 40 18:18 01.12.2020
5106 Clouds 19 1019 77 10000 2.6 80 16:37 01.12.2020
5107 Clouds 20 1021 72 10000 3.1 60 13:54 01.12.2020
5108 Clouds 19 1022 68 10000 3.1 50 12:26 01.12.2020
5109 Clouds 18 1022 68 10000 2.6 40 11:27 01.12.2020
5110 Clouds 17 1022 77 10000 2.1 30 10:39 01.12.2020
5111 Clouds 16 1022 77 10000 2.6 30 09:24 01.12.2020
5112 Clear 16 1020 82 10000 1 0 06:50 01.12.2020
5113 Clear 17 1020 77 10000 3.1 100 01:53 01.12.2020
5114 Clouds 17 1019 72 10000 5.1 80 00:56 01.12.2020
5115 Clouds 17 1021 88 10000 7.7 80 23:21 30.11.2020
5116 Clouds 17 1019 72 10000 6.7 70 22:45 30.11.2020
5117 Haze 17 1021 88 9000 7.7 80 22:25 30.11.2020
5118 Haze 17 1020 88 9000 6.2 80 20:57 30.11.2020
5119 Haze 17 1019 88 8000 6.2 80 19:42 30.11.2020
5120 Clear 18 1017 72 10000 7.2 70 18:24 30.11.2020
5121 Clear 18 1016 72 10000 7.7 80 17:48 30.11.2020
5122 Clear 19 1016 68 10000 8.2 80 16:55 30.11.2020
5123 Clouds 19 1018 77 10000 8.7 80 15:59 30.11.2020
5124 Clear 19 1016 64 10000 9.8 90 14:47 30.11.2020
5125 Clouds 19 1019 77 10000 10.3 80 13:53 30.11.2020
5126 Clouds 19 1019 77 10000 9.3 80 12:26 30.11.2020
5127 Clouds 19 1019 77 10000 9.3 80 11:58 30.11.2020
5128 Clouds 18 1019 82 10000 9.8 80 10:28 30.11.2020
5129 Clouds 18 1019 82 10000 9.3 80 09:50 30.11.2020
5130 Clouds 17 1014 77 10000 6.7 70 07:18 30.11.2020
5131 Clouds 16 1015 87 10000 3.1 90 00:54 30.11.2020
5132 Clouds 16 1015 93 8000 2.6 80 21:52 29.11.2020
5133 Clouds 16 1016 82 10000 9.3 90 21:31 29.11.2020
5134 Clouds 17 1015 82 10000 5.1 90 19:58 29.11.2020
5135 Clouds 18 1013 77 6000 2.1 90 17:47 29.11.2020
5136 Clouds 18 1014 82 10000 6.7 70 16:27 29.11.2020
5137 Clouds 18 1015 87 10000 4.1 70 13:24 29.11.2020
5138 Clouds 17 1015 82 9000 1 90 11:41 29.11.2020
5139 Clouds 16 1014 87 10000 1.5 50 10:34 29.11.2020
5140 Clouds 16 1013 87 10000 1 140 08:38 29.11.2020
5141 Clouds 16 1012 77 10000 1 170 06:32 29.11.2020
5142 Rain 16 1012 100 1500 3.1 170 23:52 28.11.2020
5143 Rain 16 1011 82 7000 4.6 230 22:56 28.11.2020
5144 Clouds 17 1010 93 10000 3.1 160 20:47 28.11.2020
5145 Clouds 16 1010 93 10000 2.6 170 19:48 28.11.2020
5146 Clouds 16 1010 82 7000 2.1 240 19:22 28.11.2020
5147 Clouds 17 1009 72 10000 2.6 220 18:27 28.11.2020
5148 Clouds 17 1009 88 10000 3.1 170 17:47 28.11.2020
5149 Clouds 17 1009 72 10000 5.1 230 16:40 28.11.2020
5150 Clouds 17 1009 72 10000 5.1 250 14:52 28.11.2020
5151 Clouds 15 1009 82 10000 5.1 230 11:31 28.11.2020
5152 Clouds 15 1009 82 10000 5.1 230 10:28 28.11.2020
5153 Clouds 13 1007 82 10000 2.6 250 06:36 28.11.2020
5154 Rain 13 1007 82 10000 5.7 240 03:26 28.11.2020
5155 Clouds 13 1007 76 10000 3.6 280 01:34 28.11.2020
5156 Clouds 13 1007 76 7000 3.6 160 22:55 27.11.2020
5157 Clouds 13 1007 82 10000 6.7 250 21:33 27.11.2020
5158 Clouds 13 1007 82 10000 6.2 240 20:30 27.11.2020
5159 Rain 14 1006 76 10000 6.2 250 19:25 27.11.2020
5160 Rain 14 1006 76 10000 3.6 280 18:28 27.11.2020
5161 Clouds 15 1006 67 10000 4.6 180 14:46 27.11.2020
5162 Clouds 14 1006 62 10000 7.2 250 13:25 27.11.2020
5163 Clouds 14 1007 71 10000 5.1 180 12:47 27.11.2020
5164 Clouds 14 1007 71 10000 2.1 260 11:35 27.11.2020
5165 Clouds 13 1007 71 10000 3.6 180 10:50 27.11.2020
5166 Clouds 12 1007 76 10000 3.6 170 09:57 27.11.2020
5167 Clouds 13 1006 66 10000 1.94 225 07:22 27.11.2020
5168 Clouds 14 1008 66 10000 3.15 82 22:27 26.11.2020
5169 Clouds 12 1007 81 8000 1.5 120 21:56 26.11.2020
5170 Clouds 13 1007 81 8000 1.5 120 20:52 26.11.2020
5171 Clouds 14 1008 67 10000 4.1 100 18:41 26.11.2020
5172 Clouds 15 1007 62 8000 2.6 150 17:50 26.11.2020
5173 Clouds 15 1008 58 10000 4.1 190 14:50 26.11.2020
5174 Clouds 15 1008 67 8000 4.6 170 13:20 26.11.2020
5175 Clouds 15 1009 62 10000 3.6 200 12:42 26.11.2020
5176 Clouds 14 1009 67 10000 1 170 11:35 26.11.2020
5177 Rain 14 1008 67 10000 1.5 180 10:27 26.11.2020
5178 Rain 14 1008 67 10000 4.6 160 09:41 26.11.2020
5179 Rain 14 1008 67 10000 4.6 160 09:21 26.11.2020
5180 Rain 14 1008 82 10000 3.6 160 08:38 26.11.2020
5181 Clouds 14 1009 100 6000 2.6 120 02:19 26.11.2020
5182 Clouds 15 1011 87 10000 4.6 80 22:32 25.11.2020
5183 Clouds 14 1011 93 10000 1.5 70 20:38 25.11.2020
5184 Clouds 14 1012 93 10000 2.1 60 19:29 25.11.2020
5185 Clouds 15 1013 93 10000 1.5 30 18:23 25.11.2020
5186 Rain 18 1012 77 10000 6.7 230 15:56 25.11.2020
5187 Clouds 18 1013 77 10000 3.1 130 15:35 25.11.2020
5188 Clouds 18 1013 77 10000 2.1 150 13:47 25.11.2020
5189 Clouds 18 1015 72 10000 3.6 150 13:29 25.11.2020
5190 Rain 17 1016 100 4000 3.6 190 11:44 25.11.2020
5191 Rain 17 1016 87 7000 4.6 160 11:18 25.11.2020
5192 Clouds 16 1016 93 10000 2.6 170 09:18 25.11.2020
5193 Clouds 17 1017 77 10000 1.5 210 08:40 25.11.2020
5194 Clouds 17 1019 82 10000 2.6 270 03:58 25.11.2020
5195 Clouds 17 1020 93 8000 2.1 180 01:51 25.11.2020
5196 Rain 17 1020 82 10000 3.6 210 00:22 25.11.2020
5197 Rain 17 1020 82 10000 3.6 210 00:22 25.11.2020
5198 Clouds 17 1021 77 10000 1 200 23:36 24.11.2020
5199 Clouds 17 1021 77 10000 2.6 140 22:57 24.11.2020
5200 Clouds 17 1021 82 10000 1.5 170 21:51 24.11.2020
5201 Clouds 17 1021 82 10000 2.1 190 21:28 24.11.2020
5202 Clouds 17 1021 82 10000 2.1 200 20:19 24.11.2020
5203 Clear 18 1021 77 10000 4.6 90 18:39 24.11.2020
5204 Clouds 18 1021 77 10000 3.6 90 17:29 24.11.2020
5205 Clouds 18 1021 77 10000 4.6 90 16:38 24.11.2020
5206 Clouds 18 1022 77 10000 4.6 80 15:56 24.11.2020
5207 Clouds 19 1022 77 10000 4.6 80 15:36 24.11.2020
5208 Clouds 19 1021 64 10000 4.1 230 15:18 24.11.2020
5209 Clouds 18 1023 77 10000 5.1 70 14:31 24.11.2020
5210 Clouds 19 1023 35 10000 2.1 170 12:42 24.11.2020
5211 Clouds 19 1025 77 10000 6.2 70 12:21 24.11.2020
5212 Clouds 18 1025 77 10000 6.2 60 11:35 24.11.2020
5213 Clouds 17 1025 72 10000 6.7 70 10:26 24.11.2020
5214 Clear 15 1023 71 10000 3.6 80 09:42 24.11.2020
5215 Clouds 14 1024 77 10000 7.2 70 09:22 24.11.2020
5216 Clear 14 1022 81 10000 3.6 80 06:50 24.11.2020
5217 Clear 15 1023 76 10000 5.1 80 04:18 24.11.2020
5218 Clouds 16 1026 63 10000 9.8 90 22:27 23.11.2020
5219 Clouds 16 1026 63 10000 9.3 90 21:34 23.11.2020
5220 Clear 16 1023 62 10000 7.2 90 20:49 23.11.2020
5221 Clear 16 1023 59 10000 7.7 90 20:19 23.11.2020
5222 Clouds 18 1025 59 10000 7.2 90 17:59 23.11.2020
5223 Clouds 19 1025 59 10000 7.2 90 17:21 23.11.2020
5224 Clear 19 1023 42 10000 7.7 80 16:19 23.11.2020
5225 Clear 20 1023 37 10000 8.2 70 14:46 23.11.2020
5226 Clear 20 1023 37 10000 8.2 70 14:46 23.11.2020
5227 Clear 19 1024 42 10000 8.7 70 12:55 23.11.2020
5228 Clouds 19 1027 59 10000 8.7 90 12:34 23.11.2020
5229 Clear 19 1025 45 10000 8.7 90 11:44 23.11.2020
5230 Clear 18 1025 52 10000 7.7 90 10:47 23.11.2020
5231 Clouds 16 1026 63 10000 9.3 90 09:31 23.11.2020
5232 Clouds 16 1026 67 10000 8.7 80 08:39 23.11.2020
5233 Clear 16 1023 67 10000 7.7 90 07:19 23.11.2020
5234 Clouds 16 1026 63 10000 9.3 110 00:25 23.11.2020
5235 Clear 16 1023 55 10000 7.7 80 23:18 22.11.2020
5236 Clear 17 1026 63 10000 11.3 100 21:40 22.11.2020
5237 Clear 17 1023 51 10000 8.7 80 20:51 22.11.2020
5238 Clear 17 1023 44 10000 8.2 90 19:52 22.11.2020
5239 Clouds 18 1025 55 10000 11.8 90 18:40 22.11.2020
5240 Clouds 18 1025 55 10000 11.8 90 18:40 22.11.2020
5241 Clear 19 1022 34 10000 10.3 80 16:50 22.11.2020
5242 Clouds 20 1026 48 10000 9.8 90 15:30 22.11.2020
5243 Clouds 20 1026 48 10000 9.8 90 14:28 22.11.2020
5244 Clear 19 1024 32 10000 11.3 80 12:49 22.11.2020
5245 Clouds 19 1027 52 10000 9.8 100 11:56 22.11.2020
5246 Clear 19 1024 39 10000 10.3 90 11:20 22.11.2020
5247 Clouds 18 1027 52 10000 11.3 100 10:38 22.11.2020
5248 Clouds 16 1026 59 10000 11.3 100 08:36 22.11.2020
5249 Clear 17 1022 63 10000 9.3 90 01:47 22.11.2020
5250 Clear 18 1026 68 10000 14.9 100 22:56 21.11.2020
5251 Clear 18 1025 72 10000 13.9 100 21:39 21.11.2020
5252 Clear 18 1022 68 10000 9.3 80 20:55 21.11.2020
5253 Clouds 18 1025 77 10000 13.4 100 20:31 21.11.2020
5254 Clear 18 1022 68 10000 10.3 80 19:52 21.11.2020
5255 Clouds 18 1025 77 10000 12.9 90 19:26 21.11.2020
5256 Clouds 19 1024 77 10000 9.3 80 17:57 21.11.2020
5257 Clear 20 1021 52 10000 9.8 80 16:48 21.11.2020
5258 Clouds 21 1024 72 10000 10.3 90 15:51 21.11.2020
5259 Clouds 21 1024 72 10000 10.3 100 15:21 21.11.2020
5260 Clouds 20 1025 72 10000 10.3 90 14:42 21.11.2020
5261 Clouds 20 1025 72 10000 10.8 100 13:41 21.11.2020
5262 Clear 21 1022 46 10000 9.8 90 12:24 21.11.2020
5263 Clear 20 1023 49 10000 8.7 90 11:54 21.11.2020
5264 Clouds 20 1025 77 10000 8.7 100 10:37 21.11.2020
5265 Clouds 18 1025 82 10000 8.2 100 09:22 21.11.2020
5266 Clear 18 1022 67 10000 7.7 80 08:50 21.11.2020
5267 Clear 17 1021 72 10000 7.7 80 05:43 21.11.2020
5268 Clouds 18 1024 82 10000 10.8 80 04:23 21.11.2020
5269 Clouds 18 1025 88 10000 7.7 80 00:23 21.11.2020
5270 Clouds 18 1025 82 10000 8.2 90 23:21 20.11.2020
5271 Clear 18 1021 63 10000 10.3 80 21:46 20.11.2020
5272 Clouds 18 1025 88 10000 8.7 90 21:26 20.11.2020
5273 Clouds 18 1024 88 10000 7.7 100 20:42 20.11.2020
5274 Clouds 18 1024 88 10000 7.7 90 19:33 20.11.2020
5275 Clouds 19 1024 82 10000 7.7 100 18:27 20.11.2020
5276 Clouds 19 1024 82 10000 6.7 110 17:32 20.11.2020
5277 Clouds 20 1024 77 10000 6.2 90 16:48 20.11.2020
5278 Clouds 20 1024 77 10000 6.2 90 16:27 20.11.2020
5279 Clouds 20 1024 72 10000 6.2 80 15:42 20.11.2020
5280 Clouds 20 1025 72 10000 6.2 70 13:57 20.11.2020
5281 Clear 21 1022 46 10000 10.8 70 13:20 20.11.2020
5282 Clouds 20 1026 77 10000 6.7 80 12:50 20.11.2020
5283 Clouds 20 1026 77 10000 6.7 70 11:52 20.11.2020
5284 Clouds 19 1026 82 10000 6.7 70 11:21 20.11.2020
5285 Clear 19 1023 55 10000 10.3 70 09:47 20.11.2020
5286 Clouds 18 1026 77 10000 8.2 80 08:29 20.11.2020
5287 Clear 18 1023 63 10000 12.9 70 07:47 20.11.2020
5288 Clouds 18 1024 63 10000 9.8 70 03:45 20.11.2020
5289 Clouds 19 1028 88 10000 9.3 80 23:36 19.11.2020
5290 Clouds 19 1029 88 10000 8.7 80 22:29 19.11.2020
5291 Clouds 19 1025 63 10000 9.8 60 21:50 19.11.2020
5292 Clouds 19 1025 63 10000 13.4 60 20:53 19.11.2020
5293 Clouds 19 1025 63 10000 12.3 60 20:19 19.11.2020
5294 Clouds 19 1028 88 10000 9.3 70 19:26 19.11.2020
5295 Clouds 19 1028 88 10000 9.3 70 18:35 19.11.2020
5296 Clouds 20 1024 56 10000 13.4 80 17:18 19.11.2020
5297 Clouds 20 1027 82 10000 10.3 80 16:25 19.11.2020
5298 Clouds 19 1028 88 10000 8.7 70 15:28 19.11.2020
5299 Clouds 20 1024 49 10000 14.9 80 13:47 19.11.2020
5300 Clouds 19 1028 88 10000 8.2 70 13:27 19.11.2020
5301 Clouds 20 1029 88 10000 8.7 80 12:51 19.11.2020
5302 Clouds 20 1024 52 10000 13.4 80 12:25 19.11.2020
5303 Clouds 19 1028 82 10000 8.2 70 11:40 19.11.2020
5304 Clouds 20 1024 56 10000 12.9 70 11:20 19.11.2020
5305 Clouds 19 1028 88 10000 9.3 80 10:29 19.11.2020
5306 Clouds 19 1024 68 10000 9.8 80 09:45 19.11.2020
5307 Clouds 19 1027 88 10000 8.2 70 09:26 19.11.2020
5308 Clear 19 1023 68 10000 9.8 70 08:20 19.11.2020
5309 Clouds 19 1026 82 10000 7.7 70 06:49 19.11.2020
5310 Clear 19 1023 68 10000 4.1 100 01:46 19.11.2020
5311 Clouds 18 1027 82 10000 7.2 90 00:29 19.11.2020
5312 Clear 19 1023 68 10000 9.8 80 23:25 18.11.2020
5313 Clouds 19 1027 82 10000 4.6 80 22:36 18.11.2020
5314 Clear 19 1023 63 10000 9.8 70 22:18 18.11.2020
5315 Clouds 19 1026 88 10000 4.1 90 21:39 18.11.2020
5316 Clear 19 1023 68 10000 9.8 80 21:20 18.11.2020
5317 Clouds 19 1023 68 10000 8.2 70 19:48 18.11.2020
5318 Clouds 19 1026 88 10000 4.6 110 19:27 18.11.2020
5319 Clear 19 1022 64 10000 6.7 70 18:55 18.11.2020
5320 Clouds 19 1025 88 10000 5.7 110 18:36 18.11.2020
5321 Clouds 20 1026 82 10000 6.7 100 17:37 18.11.2020
5322 Clouds 21 1026 82 10000 6.7 80 16:24 18.11.2020
5323 Clouds 21 1026 82 10000 6.7 80 15:36 18.11.2020
5324 Clouds 21 1027 82 10000 5.7 90 14:40 18.11.2020
5325 Clear 21 1024 53 10000 8.2 80 13:43 18.11.2020
5326 Clear 21 1024 56 10000 6.2 90 13:20 18.11.2020
5327 Clouds 20 1028 77 10000 5.7 70 12:29 18.11.2020
5328 Clouds 20 1028 77 10000 5.1 60 11:28 18.11.2020
5329 Clouds 19 1027 82 10000 5.1 50 10:31 18.11.2020
5330 Clouds 18 1027 82 10000 5.1 50 09:52 18.11.2020
5331 Clouds 18 1026 82 10000 5.1 80 07:40 18.11.2020
5332 Clouds 17 1026 82 10000 4.1 70 06:33 18.11.2020
5333 Clear 18 1027 77 10000 3.1 90 00:25 18.11.2020
5334 Clear 18 1027 77 10000 3.1 120 23:34 17.11.2020
5335 Clear 18 1025 100 7000 4.1 90 22:46 17.11.2020
5336 Clear 18 1027 82 10000 4.1 100 22:28 17.11.2020
5337 Clear 18 1025 100 7000 3.1 80 21:50 17.11.2020
5338 Clear 19 1027 82 10000 3.1 100 21:30 17.11.2020
5339 Clear 18 1025 93 10000 3.6 60 20:44 17.11.2020
5340 Clear 18 1027 88 10000 3.1 100 20:24 17.11.2020
5341 Clear 19 1024 82 10000 4.1 50 19:50 17.11.2020
5342 Haze 20 1026 88 9000 2.6 80 18:24 17.11.2020
5343 Clouds 21 1026 77 10000 2.6 90 17:33 17.11.2020
5344 Clear 22 1024 64 10000 3.6 40 16:49 17.11.2020
5345 Clear 22 1024 60 10000 3.1 50 16:18 17.11.2020
5346 Clouds 22 1026 77 10000 3.1 100 15:38 17.11.2020
5347 Clear 22 1024 64 10000 3.6 40 15:20 17.11.2020
5348 Clouds 22 1026 77 10000 3.6 100 14:30 17.11.2020
5349 Clouds 22 1027 82 10000 3.1 80 13:54 17.11.2020
5350 Clouds 21 1027 82 10000 2.6 80 13:27 17.11.2020
5351 Clear 21 1025 53 10000 2.1 60 12:42 17.11.2020
5352 Clear 21 1026 53 10000 3.1 90 11:45 17.11.2020
5353 Clouds 20 1027 82 10000 3.1 90 11:26 17.11.2020
5354 Clouds 18 1027 77 10000 3.1 80 10:39 17.11.2020
5355 Clouds 18 1026 77 10000 3.1 80 09:53 17.11.2020
5356 Clouds 17 1026 77 10000 2.6 80 09:34 17.11.2020
5357 Clear 16 1025 77 10000 2.6 80 08:26 17.11.2020
5358 Clear 15 1025 87 10000 2.6 90 07:57 17.11.2020
5359 Clear 15 1025 87 10000 2.6 90 07:28 17.11.2020
5360 Clear 17 1024 88 10000 3.6 230 04:29 17.11.2020
5361 Clear 17 1024 82 10000 2.6 250 03:22 17.11.2020
5362 Clear 17 1024 82 10000 2.6 250 03:22 17.11.2020
5363 Clear 18 1024 77 10000 4.1 240 02:28 17.11.2020
5364 Fog 18 1024 100 50 1.5 340 00:56 17.11.2020
5365 Fog 18 1025 100 100 1 350 23:53 16.11.2020
5366 Clear 19 1024 77 10000 3.1 230 23:30 16.11.2020
5367 Rain 19 1024 100 500 1.98 268 22:48 16.11.2020
5368 Clear 19 1024 77 10000 4.6 230 22:22 16.11.2020
5369 Mist 19 1024 100 2500 1.5 80 21:50 16.11.2020
5370 Clear 20 1024 73 10000 4.1 240 21:27 16.11.2020
5371 Clear 20 1023 73 10000 4.1 280 20:59 16.11.2020
5372 Clear 20 1023 73 10000 4.1 280 20:25 16.11.2020
5373 Clear 21 1023 60 10000 3.6 270 19:45 16.11.2020
5374 Clouds 21 1023 60 10000 3.6 270 19:27 16.11.2020
5375 Mist 22 1023 88 3000 1 250 18:47 16.11.2020
5376 Clear 24 1023 88 10000 2.1 260 17:54 16.11.2020
5377 Clear 24 1022 41 10000 4.6 240 17:25 16.11.2020
5378 Clear 23 1022 53 10000 6.7 260 16:57 16.11.2020
5379 Clear 23 1022 53 10000 6.7 260 16:38 16.11.2020
5380 Clear 23 1023 78 10000 3.1 260 16:18 16.11.2020
5381 Clear 23 1022 53 10000 5.1 270 15:41 16.11.2020
5382 Clear 23 1022 53 10000 5.1 270 15:21 16.11.2020
5383 Clear 23 1022 53 10000 6.2 280 14:39 16.11.2020
5384 Clear 24 1023 47 10000 4.1 260 13:34 16.11.2020
5385 Clear 24 1023 53 10000 3.1 240 12:34 16.11.2020
5386 Clear 23 1023 56 10000 3.1 250 11:54 16.11.2020
5387 Clear 21 1023 64 10000 2.6 260 11:36 16.11.2020
5388 Clouds 21 1024 68 8000 1.5 240 11:18 16.11.2020
5389 Clear 20 1023 64 10000 3.1 230 10:39 16.11.2020
5390 Mist 20 1024 72 4000 1 0 10:20 16.11.2020
5391 Clear 17 1023 82 10000 2.6 270 09:41 16.11.2020
5392 Clear 16 1023 82 10000 0.5 0 08:53 16.11.2020
5393 Clear 16 1022 87 10000 2.6 270 08:34 16.11.2020
5394 Clear 16 1022 77 10000 1 100 07:43 16.11.2020
5395 Clear 16 1022 77 10000 1.5 140 06:47 16.11.2020
5396 Clear 16 1022 82 10000 1.5 300 05:53 16.11.2020
5397 Clouds 16 1022 93 10000 3.1 240 04:36 16.11.2020
5398 Clouds 17 1022 88 7000 1.5 50 01:48 16.11.2020
5399 Clouds 17 1023 100 500 0.5 310 01:21 16.11.2020
5400 Clear 18 1022 88 10000 3.1 90 23:48 15.11.2020
5401 Clouds 18 1024 93 200 0.5 310 23:21 15.11.2020
5402 Clouds 18 1024 93 4800 1.5 280 22:39 15.11.2020
5403 Clear 18 1022 82 10000 1.5 80 22:18 15.11.2020
5404 Fog 19 1023 88 10000 0.5 340 21:41 15.11.2020
5405 Clear 19 1022 82 10000 2.6 80 21:20 15.11.2020
5406 Clear 19 1023 77 10000 1 120 20:41 15.11.2020
5407 Clear 19 1021 88 10000 2.6 80 20:18 15.11.2020
5408 Clear 20 1021 77 10000 2.1 100 19:43 15.11.2020
5409 Clear 20 1022 82 10000 2.1 90 19:22 15.11.2020
5410 Rain 21 1022 72 10000 1.5 90 18:55 15.11.2020
5411 Clear 21 1022 72 10000 2.1 100 18:37 15.11.2020
5412 Clear 22 1020 69 10000 2.1 120 18:18 15.11.2020
5413 Clear 23 1022 77 10000 2.1 90 17:42 15.11.2020
5414 Clear 24 1022 77 10000 2.1 90 17:22 15.11.2020
5415 Clear 24 1020 47 10000 1.5 280 16:44 15.11.2020
5416 Clear 24 1020 47 10000 1 0 16:20 15.11.2020
5417 Clear 23 1020 50 10000 2.1 270 15:49 15.11.2020
5418 Clear 23 1022 77 10000 2.6 90 15:26 15.11.2020
5419 Clouds 24 1022 77 10000 2.1 90 14:54 15.11.2020
5420 Clouds 23 1022 82 10000 2.1 90 14:27 15.11.2020
5421 Clouds 23 1022 82 10000 1.5 90 13:53 15.11.2020
5422 Clouds 22 1022 77 10000 2.6 100 13:34 15.11.2020
5423 Clouds 21 1023 88 10000 2.6 90 12:47 15.11.2020
5424 Clear 21 1021 60 10000 2.6 80 12:20 15.11.2020
5425 Clear 21 1021 64 10000 3.1 90 11:44 15.11.2020
5426 Clear 19 1021 68 10000 3.1 90 11:19 15.11.2020
5427 Clouds 19 1021 77 8000 3.1 90 10:53 15.11.2020
5428 Clouds 18 1023 88 10000 0.5 240 10:31 15.11.2020
5429 Clouds 17 1023 93 10000 1.5 290 09:55 15.11.2020
5430 Fog 17 1022 93 10000 1 110 09:32 15.11.2020
5431 Fog 17 1022 93 10000 2.1 100 08:56 15.11.2020
5432 Fog 16 1022 93 10000 1.5 90 08:38 15.11.2020
5433 Clear 15 1020 87 10000 1.5 90 07:45 15.11.2020
5434 Clear 15 1020 87 10000 0.5 0 06:42 15.11.2020
5435 Clear 17 1020 88 10000 3.6 80 04:54 15.11.2020
5436 Clouds 17 1022 93 3300 1.5 290 02:21 15.11.2020
5437 Clouds 17 1022 93 6000 0.5 230 00:31 15.11.2020
5438 Clouds 18 1023 88 6000 0.5 270 23:49 14.11.2020
5439 Clear 18 1022 77 10000 2.6 100 22:55 14.11.2020
5440 Clear 18 1022 77 10000 2.6 100 22:55 14.11.2020
5441 Clouds 18 1023 88 10000 2.6 100 22:37 14.11.2020
5442 Clear 18 1022 82 10000 2.1 90 22:18 14.11.2020
5443 Clouds 18 1023 93 10000 1.5 80 21:39 14.11.2020
5444 Clouds 18 1023 93 10000 1.5 80 21:39 14.11.2020
5445 Clear 18 1022 82 10000 2.1 70 21:20 14.11.2020
5446 Clear 18 1022 88 10000 2.1 60 20:42 14.11.2020
5447 Clouds 19 1022 82 10000 2.1 50 20:23 14.11.2020
5448 Clouds 19 1022 82 10000 2.6 60 19:36 14.11.2020
5449 Clear 20 1021 72 10000 1 0 18:58 14.11.2020
5450 Clouds 20 1021 82 10000 2.1 90 18:39 14.11.2020
5451 Clouds 20 1021 82 10000 2.1 90 18:21 14.11.2020
5452 Clear 20 1020 68 10000 2.1 330 17:44 14.11.2020
5453 Clouds 20 1021 77 10000 2.6 90 17:25 14.11.2020
5454 Clouds 21 1021 72 10000 1.5 110 16:52 14.11.2020
5455 Clouds 22 1021 68 10000 2.1 130 16:31 14.11.2020
5456 Clouds 22 1021 64 10000 3.6 200 15:53 14.11.2020
5457 Clouds 21 1021 68 10000 5.1 180 15:31 14.11.2020
5458 Clouds 21 1021 68 10000 3.6 190 14:54 14.11.2020
5459 Clouds 21 1021 72 10000 2.1 190 14:29 14.11.2020
5460 Clouds 20 1021 72 10000 2.1 200 13:51 14.11.2020
5461 Clouds 20 1022 77 10000 2.1 210 13:29 14.11.2020
5462 Rain 18 1022 93 5000 1.5 150 12:49 14.11.2020
5463 Rain 19 1022 82 10000 3.1 200 12:30 14.11.2020
5464 Clouds 18 1022 88 10000 2.6 140 11:55 14.11.2020
5465 Haze 18 1022 93 7000 2.6 110 11:36 14.11.2020
5466 Rain 18 1022 93 8000 2.6 110 10:51 14.11.2020
5467 Clouds 18 1022 93 4000 2.1 100 10:27 14.11.2020
5468 Clouds 18 1022 93 4000 2.1 100 10:27 14.11.2020
5469 Rain 18 1022 93 8000 2.1 100 09:58 14.11.2020
5470 Rain 18 1021 93 6000 3.1 100 09:40 14.11.2020
5471 Rain 18 1021 88 2500 1 0 09:22 14.11.2020
5472 Rain 18 1021 93 7000 2.6 80 08:40 14.11.2020
5473 Clouds 17 1020 82 4000 1.5 10 08:18 14.11.2020
5474 Clouds 18 1020 93 8000 4.1 80 07:41 14.11.2020
5475 Haze 17 1020 93 9000 4.6 80 06:38 14.11.2020
5476 Clouds 17 1019 82 6000 2.1 70 06:20 14.11.2020
5477 Clouds 18 1020 93 10000 4.1 80 04:39 14.11.2020
5478 Rain 18 1021 93 8000 5.7 80 01:29 14.11.2020
5479 Clouds 18 1020 82 6000 1 110 23:54 13.11.2020
5480 Clouds 18 1020 82 6000 1 110 23:54 13.11.2020
5481 Clouds 18 1021 93 7000 2.6 90 23:33 13.11.2020
5482 Clouds 18 1020 82 6000 1.5 90 22:56 13.11.2020
5483 Clouds 18 1021 93 10000 2.1 90 22:38 13.11.2020
5484 Clouds 18 1020 88 6000 0.5 0 22:19 13.11.2020
5485 Clouds 19 1021 93 8000 1.5 70 21:42 13.11.2020
5486 Clouds 19 1021 93 8000 1.5 70 21:22 13.11.2020
5487 Clouds 19 1020 82 6000 2.1 290 20:50 13.11.2020
5488 Clouds 19 1021 93 10000 2.6 90 20:23 13.11.2020
5489 Clouds 19 1019 77 8000 2.1 70 19:47 13.11.2020
5490 Clouds 19 1020 93 10000 3.1 100 19:24 13.11.2020
5491 Rain 19 1020 88 10000 3.1 100 18:58 13.11.2020
5492 Clouds 20 1020 88 10000 3.1 100 18:26 13.11.2020
5493 Clouds 20 1020 88 10000 2.6 100 17:43 13.11.2020
5494 Clouds 20 1020 88 10000 2.6 100 17:43 13.11.2020
5495 Clouds 20 1019 88 10000 3.1 110 17:19 13.11.2020
5496 Clouds 20 1018 60 8000 1.5 260 16:50 13.11.2020
5497 Clouds 20 1018 60 8000 2.1 280 16:24 13.11.2020
5498 Clouds 20 1018 60 8000 2.1 270 15:52 13.11.2020
5499 Clouds 20 1019 82 10000 4.6 90 15:32 13.11.2020
5500 Clear 21 1019 53 10000 2.1 260 14:50 13.11.2020
5501 Clouds 20 1020 82 10000 4.6 90 14:27 13.11.2020
5502 Clouds 21 1020 45 10000 4.1 80 13:53 13.11.2020
5503 Clouds 20 1020 88 10000 4.1 80 13:29 13.11.2020
5504 Clouds 21 1020 88 10000 3.6 70 12:51 13.11.2020
5505 Clear 21 1020 43 10000 1.5 190 12:25 13.11.2020
5506 Clouds 21 1021 88 10000 3.6 80 11:52 13.11.2020
5507 Clouds 20 1021 88 10000 3.6 80 11:33 13.11.2020
5508 Clouds 20 1021 88 10000 3.6 70 10:59 13.11.2020
5509 Clouds 19 1021 93 10000 3.6 70 10:39 13.11.2020
5510 Clouds 19 1021 93 10000 3.6 70 10:21 13.11.2020
5511 Clear 18 1019 82 10000 2.6 90 09:43 13.11.2020
5512 Clouds 18 1020 93 10000 3.6 80 09:23 13.11.2020
5513 Clear 18 1018 82 10000 3.1 100 08:52 13.11.2020
5514 Clear 17 1018 87 10000 2.1 80 08:21 13.11.2020
5515 Clear 17 1018 87 10000 2.1 80 07:45 13.11.2020
5516 Clouds 17 1019 93 10000 4.1 70 07:26 13.11.2020
5517 Clear 17 1018 87 10000 3.1 90 06:49 13.11.2020
5518 Clouds 18 1019 93 10000 5.1 60 05:58 13.11.2020
5519 Clouds 18 1019 93 10000 5.1 60 05:30 13.11.2020
5520 Clear 18 1018 82 10000 4.6 100 01:46 13.11.2020
5521 Clear 18 1018 77 10000 4.1 90 00:53 13.11.2020
5522 Clouds 18 1020 88 10000 6.2 70 00:32 13.11.2020
5523 Clouds 18 1020 93 10000 6.7 70 23:38 12.11.2020
5524 Clear 18 1018 77 10000 4.6 90 23:19 12.11.2020
5525 Clear 19 1017 72 10000 5.1 80 22:50 12.11.2020
5526 Clouds 19 1020 93 10000 6.7 70 22:32 12.11.2020
5527 Clouds 19 1019 88 9000 6.7 70 21:56 12.11.2020
5528 Clouds 19 1019 88 9000 6.7 70 21:36 12.11.2020
5529 Clear 19 1017 72 10000 6.2 80 21:18 12.11.2020
5530 Clouds 19 1019 88 10000 7.7 80 20:39 12.11.2020
5531 Clouds 19 1019 88 10000 7.7 80 20:21 12.11.2020
5532 Clouds 19 1016 72 10000 7.7 80 19:47 12.11.2020
5533 Clouds 19 1019 88 10000 8.7 80 19:29 12.11.2020
5534 Clear 19 1016 68 10000 7.7 90 18:52 12.11.2020
5535 Clear 19 1016 68 10000 7.7 80 18:24 12.11.2020
5536 Clear 19 1016 68 10000 7.7 80 18:24 12.11.2020
5537 Clouds 20 1016 64 9000 7.7 80 17:48 12.11.2020
5538 Clouds 20 1019 82 10000 6.2 80 17:29 12.11.2020
5539 Clouds 20 1016 60 9000 8.2 70 16:47 12.11.2020
5540 Clouds 20 1018 77 10000 7.2 80 16:27 12.11.2020
5541 Clouds 20 1019 82 10000 6.7 80 15:59 12.11.2020
5542 Clouds 20 1019 82 10000 7.7 80 15:40 12.11.2020
5543 Clouds 20 1016 56 9000 7.7 80 15:20 12.11.2020
5544 Clouds 20 1019 77 10000 8.7 80 14:46 12.11.2020
5545 Clouds 21 1019 77 10000 8.7 80 14:25 12.11.2020
5546 Clouds 20 1017 60 9000 9.8 80 13:49 12.11.2020
5547 Clouds 20 1017 64 9000 8.2 90 13:21 12.11.2020
5548 Clouds 20 1017 64 9000 8.2 90 13:21 12.11.2020
5549 Clouds 19 1020 82 10000 9.3 80 12:59 12.11.2020
5550 Clouds 19 1020 82 10000 9.8 80 12:40 12.11.2020
5551 Clouds 20 1018 64 9000 10.3 80 12:18 12.11.2020
5552 Clouds 20 1018 64 9000 9.3 80 11:45 12.11.2020
5553 Clouds 19 1021 88 10000 8.2 80 11:26 12.11.2020
5554 Clouds 19 1021 88 10000 7.7 80 10:41 12.11.2020
5555 Clouds 19 1021 88 10000 7.7 80 10:23 12.11.2020
5556 Clouds 19 1021 88 10000 7.7 80 10:23 12.11.2020
5557 Clouds 19 1018 72 8000 7.7 80 09:46 12.11.2020
5558 Clouds 19 1020 88 10000 7.7 80 09:22 12.11.2020
5559 Clouds 19 1020 88 10000 7.2 70 08:56 12.11.2020
5560 Clouds 19 1020 88 10000 7.2 70 08:37 12.11.2020
5561 Clouds 19 1018 72 8000 7.2 80 08:19 12.11.2020
5562 Clouds 19 1020 88 10000 7.2 80 07:42 12.11.2020
5563 Clouds 19 1017 72 8000 8.2 80 07:18 12.11.2020
5564 Clouds 19 1017 72 7000 8.2 80 06:47 12.11.2020
5565 Clear 18 1017 82 10000 7.7 80 05:19 12.11.2020
5566 Clouds 18 1021 88 10000 8.7 70 03:21 12.11.2020
5567 Clear 18 1019 77 10000 7.7 90 01:23 12.11.2020
5568 Clear 18 1019 77 10000 8.2 80 23:47 11.11.2020
5569 Clouds 18 1022 88 10000 9.3 80 23:25 11.11.2020
5570 Clouds 18 1022 93 10000 9.3 80 22:58 11.11.2020
5571 Clouds 18 1022 93 10000 9.3 80 22:39 11.11.2020
5572 Clear 19 1019 72 10000 8.2 80 22:19 11.11.2020
5573 Clouds 19 1022 88 10000 8.2 80 21:41 11.11.2020
5574 Clear 19 1019 72 10000 7.7 80 21:23 11.11.2020
5575 Clear 19 1019 72 10000 7.2 80 20:55 11.11.2020
5576 Clouds 19 1022 88 10000 9.8 90 20:37 11.11.2020
5577 Clear 19 1019 72 10000 8.2 80 20:19 11.11.2020
5578 Clear 19 1019 72 10000 8.2 80 19:48 11.11.2020
5579 Clouds 19 1021 88 10000 9.8 80 19:30 11.11.2020
5580 Clouds 19 1021 88 10000 9.8 80 19:30 11.11.2020
5581 Clear 19 1018 68 10000 9.8 80 18:49 11.11.2020
5582 Haze 19 1021 88 9000 7.2 80 18:28 11.11.2020
5583 Haze 19 1021 88 9000 7.2 80 17:41 11.11.2020
5584 Haze 20 1021 88 9000 7.2 80 17:22 11.11.2020
5585 Clear 20 1018 60 10000 9.8 80 16:49 11.11.2020
5586 Haze 20 1021 88 8000 7.7 80 16:31 11.11.2020
5587 Clear 20 1018 53 10000 10.3 70 15:48 11.11.2020
5588 Clouds 21 1021 82 10000 7.7 80 15:26 11.11.2020
5589 Clouds 21 1021 82 10000 8.7 70 14:55 11.11.2020
5590 Clouds 21 1022 82 10000 7.7 80 14:34 11.11.2020
5591 Clouds 21 1022 82 10000 8.7 80 13:56 11.11.2020
5592 Clouds 21 1022 82 10000 9.3 80 13:33 11.11.2020
5593 Clouds 21 1022 82 10000 9.3 80 13:33 11.11.2020
5594 Clouds 20 1023 82 10000 9.3 80 12:42 11.11.2020
5595 Clear 21 1020 53 10000 11.3 80 12:20 11.11.2020
5596 Clear 20 1020 60 10000 10.8 70 11:49 11.11.2020
5597 Clouds 20 1023 82 10000 9.3 80 11:29 11.11.2020
5598 Clouds 19 1023 88 10000 9.8 80 10:42 11.11.2020
5599 Clouds 19 1023 88 10000 9.8 80 10:22 11.11.2020
5600 Clouds 19 1020 68 10000 8.7 80 09:46 11.11.2020
5601 Clouds 18 1023 88 10000 9.3 90 09:28 11.11.2020
5602 Clear 18 1020 77 10000 7.2 80 08:46 11.11.2020
5603 Clear 17 1020 72 10000 7.7 80 08:27 11.11.2020
5604 Clear 18 1020 77 10000 7.7 80 07:51 11.11.2020
5605 Clouds 18 1023 88 10000 8.7 80 07:30 11.11.2020
5606 Clouds 18 1023 88 10000 8.2 70 06:27 11.11.2020
5607 Clouds 18 1023 88 10000 8.7 70 04:30 11.11.2020
5608 Clouds 18 1024 88 10000 8.7 80 01:32 11.11.2020
5609 Clouds 18 1024 88 10000 9.3 80 00:34 11.11.2020
5610 Clear 18 1022 72 10000 8.2 70 23:55 10.11.2020
5611 Clear 18 1025 88 10000 8.7 80 23:24 10.11.2020
5612 Clear 18 1024 88 10000 9.8 80 22:57 10.11.2020
5613 Clear 18 1024 88 10000 9.8 80 22:27 10.11.2020
5614 Clear 18 1022 72 10000 6.2 70 21:54 10.11.2020
5615 Clear 18 1024 93 10000 9.3 80 21:36 10.11.2020
5616 Clear 19 1022 72 10000 4.1 60 21:18 10.11.2020
5617 Clouds 19 1024 88 10000 5.1 80 20:42 10.11.2020
5618 Clouds 19 1024 88 10000 5.1 80 20:23 10.11.2020
5619 Clear 19 1022 63 10000 5.1 50 19:50 10.11.2020
5620 Clouds 19 1024 88 10000 4.6 70 19:32 10.11.2020
5621 Clouds 18 1023 88 10000 3.6 70 18:59 10.11.2020
5622 Clouds 20 1023 82 10000 3.6 70 18:40 10.11.2020
5623 Clear 20 1021 60 10000 4.1 50 18:19 10.11.2020
5624 Clouds 20 1023 77 10000 3.6 80 17:44 10.11.2020
5625 Clear 20 1021 60 10000 5.7 40 17:26 10.11.2020
5626 Clouds 20 1023 77 10000 3.1 70 16:57 10.11.2020
5627 Clouds 20 1023 77 10000 3.1 70 16:57 10.11.2020
5628 Clouds 20 1023 77 10000 3.6 90 16:37 10.11.2020
5629 Clouds 21 1021 56 10000 6.7 40 16:18 10.11.2020
5630 Clouds 20 1023 72 10000 3.1 90 15:45 10.11.2020
5631 Clouds 21 1023 72 10000 3.1 90 15:23 10.11.2020
5632 Clouds 20 1024 72 10000 2.6 100 14:41 10.11.2020
5633 Clouds 20 1022 64 10000 4.1 40 14:22 10.11.2020
5634 Clouds 20 1024 77 10000 3.1 90 13:41 10.11.2020
5635 Clouds 20 1024 77 10000 3.1 90 13:23 10.11.2020
5636 Clouds 20 1024 72 10000 3.1 80 12:58 10.11.2020
5637 Clouds 20 1024 72 10000 3.1 60 12:39 10.11.2020
5638 Clear 20 1023 64 8000 1.5 100 12:20 10.11.2020
5639 Clouds 18 1025 68 10000 1.5 70 11:39 10.11.2020
5640 Clouds 18 1025 68 10000 1.5 70 11:20 10.11.2020
5641 Clear 17 1024 88 5000 1.5 110 10:43 10.11.2020
5642 Clouds 16 1025 72 10000 1.5 250 10:24 10.11.2020
5643 Clouds 15 1024 72 10000 1 250 09:51 10.11.2020
5644 Clouds 14 1024 82 10000 2.1 260 09:26 10.11.2020
5645 Clouds 14 1023 82 10000 3.1 250 08:59 10.11.2020
5646 Clouds 13 1023 82 10000 3.1 250 08:30 10.11.2020
5647 Mist 14 1023 100 3500 2.1 70 07:56 10.11.2020
5648 Clear 14 1023 82 10000 2.6 240 07:37 10.11.2020
5649 Mist 14 1023 100 2500 2.6 70 07:18 10.11.2020
5650 Clear 14 1023 82 10000 2.6 250 06:38 10.11.2020
5651 Clear 14 1022 77 10000 2.6 260 05:27 10.11.2020
5652 Clear 15 1023 77 10000 3.6 250 02:59 10.11.2020
5653 Clear 16 1023 77 10000 4.1 270 01:41 10.11.2020
5654 Clear 16 1023 77 10000 3.1 270 00:30 10.11.2020
5655 Clear 16 1023 82 10000 3.6 280 23:42 09.11.2020
5656 Clear 17 1023 77 10000 4.1 270 22:58 09.11.2020
5657 Clear 17 1023 77 10000 4.1 270 22:40 09.11.2020
5658 Clear 17 1023 87 9000 0.5 0 22:19 09.11.2020
5659 Clear 18 1023 82 10000 3.1 260 21:40 09.11.2020
5660 Clear 18 1023 82 10000 3.1 260 21:21 09.11.2020
5661 Clear 18 1023 77 10000 5.1 260 20:41 09.11.2020
5662 Clear 18 1023 77 10000 5.1 260 20:21 09.11.2020
5663 Clear 18 1023 77 10000 5.1 260 20:21 09.11.2020
5664 Clear 19 1022 72 10000 3.6 230 19:43 09.11.2020
5665 Clouds 19 1022 72 10000 3.6 230 19:23 09.11.2020
5666 Clouds 19 1023 88 10000 2.1 310 18:56 09.11.2020
5667 Clouds 19 1023 88 10000 2.1 310 18:56 09.11.2020
5668 Clouds 20 1022 77 10000 3.6 210 18:38 09.11.2020
5669 Clouds 20 1022 82 10000 2.6 290 18:18 09.11.2020
5670 Clouds 20 1022 77 10000 3.6 190 17:43 09.11.2020
5671 Clouds 20 1022 77 10000 3.6 190 17:24 09.11.2020
5672 Clouds 21 1022 64 10000 3.1 200 16:41 09.11.2020
5673 Clouds 21 1022 77 10000 2.6 270 16:20 09.11.2020
5674 Clouds 21 1022 73 10000 3.1 210 15:42 09.11.2020
5675 Clouds 21 1022 73 10000 3.1 210 15:24 09.11.2020
5676 Clouds 20 1022 77 7000 1 0 14:46 09.11.2020
5677 Clouds 20 1022 77 10000 3.1 220 14:27 09.11.2020
5678 Clouds 19 1022 82 10000 2.1 230 13:52 09.11.2020
5679 Clouds 19 1023 88 10000 3.1 200 13:21 09.11.2020
5680 Clouds 18 1023 88 10000 2.6 260 12:51 09.11.2020
5681 Rain 18 1024 93 10000 2.6 280 12:26 09.11.2020
5682 Clouds 18 1024 88 10000 1.5 90 11:59 09.11.2020
5683 Clouds 17 1024 88 10000 1.5 230 11:41 09.11.2020
5684 Clouds 17 1024 88 10000 1.5 230 11:22 09.11.2020
5685 Clouds 16 1024 82 10000 2.1 270 10:43 09.11.2020
5686 Drizzle 16 1023 87 4000 1.5 80 10:24 09.11.2020
5687 Rain 16 1023 82 10000 1.5 260 09:51 09.11.2020
5688 Clouds 16 1023 82 10000 2.1 250 09:25 09.11.2020
5689 Clouds 14 1022 93 8000 2.6 90 08:44 09.11.2020
5690 Clouds 14 1022 93 10000 3.1 80 08:21 09.11.2020
5691 Clouds 14 1022 87 10000 2.6 250 07:41 09.11.2020
5692 Clouds 14 1022 87 10000 2.6 250 07:21 09.11.2020
5693 Clouds 15 1022 82 10000 2.1 250 06:37 09.11.2020
5694 Clouds 15 1022 87 10000 1.5 260 03:31 09.11.2020
5695 Clear 15 1021 93 10000 1.5 70 01:55 09.11.2020
5696 Clouds 15 1022 93 10000 0.5 100 01:36 09.11.2020
5697 Clear 16 1022 87 10000 2.1 70 23:53 08.11.2020
5698 Clear 16 1022 87 10000 2.1 70 23:53 08.11.2020
5699 Clouds 17 1022 93 7000 1 20 23:30 08.11.2020
5700 Clear 17 1021 87 10000 2.6 80 22:55 08.11.2020
5701 Clouds 17 1022 88 10000 1.5 80 22:36 08.11.2020
5702 Clear 17 1021 87 10000 1 0 22:18 08.11.2020
5703 Clouds 18 1022 88 10000 2.6 80 21:38 08.11.2020
5704 Clouds 18 1021 88 8000 1 20 21:19 08.11.2020
5705 Clouds 19 1022 63 10000 3.6 110 20:39 08.11.2020
5706 Clouds 19 1022 63 10000 3.6 110 20:39 08.11.2020
5707 Clouds 19 1022 63 10000 3.6 110 20:21 08.11.2020
5708 Clouds 19 1022 63 10000 3.6 110 20:21 08.11.2020
5709 Clouds 19 1022 68 10000 3.1 90 19:57 08.11.2020
5710 Clouds 19 1022 68 10000 3.1 90 19:39 08.11.2020
5711 Clouds 20 1021 64 10000 0.5 0 19:20 08.11.2020
5712 Clouds 20 1021 64 10000 0.5 0 18:47 08.11.2020
5713 Clouds 20 1021 64 10000 1.5 300 18:21 08.11.2020
5714 Clouds 20 1021 72 10000 2.6 80 17:57 08.11.2020
5715 Clouds 21 1021 68 10000 2.6 90 17:37 08.11.2020
5716 Clouds 21 1020 64 10000 2.6 280 17:19 08.11.2020
5717 Clouds 20 1020 64 10000 2.1 280 16:47 08.11.2020
5718 Clouds 20 1021 77 10000 3.1 90 16:21 08.11.2020
5719 Clouds 20 1021 82 10000 3.1 100 15:56 08.11.2020
5720 Clouds 20 1021 77 10000 3.1 90 15:38 08.11.2020
5721 Clouds 20 1021 77 10000 3.1 90 15:38 08.11.2020
5722 Clouds 21 1021 53 10000 2.6 290 15:19 08.11.2020
5723 Clouds 20 1022 82 10000 2.6 100 14:39 08.11.2020
5724 Clouds 20 1022 82 10000 3.1 90 14:20 08.11.2020
5725 Clear 20 1021 64 10000 3.1 270 13:45 08.11.2020
5726 Clear 20 1021 64 10000 3.1 270 13:45 08.11.2020
5727 Clear 21 1021 60 10000 2.6 260 13:21 08.11.2020
5728 Clear 20 1021 60 10000 2.6 250 12:42 08.11.2020
5729 Clouds 20 1023 82 10000 2.6 90 12:24 08.11.2020
5730 Clouds 19 1023 77 10000 2.1 80 11:57 08.11.2020
5731 Clouds 19 1023 77 10000 2.1 70 11:38 08.11.2020
5732 Clear 19 1022 64 10000 2.6 90 11:20 08.11.2020
5733 Clear 18 1022 68 10000 3.1 90 10:49 08.11.2020
5734 Clouds 17 1023 93 10000 0.5 210 10:18 08.11.2020
5735 Clear 16 1022 72 10000 3.1 80 09:42 08.11.2020
5736 Clouds 15 1023 93 10000 0.5 160 09:24 08.11.2020
5737 Clouds 15 1023 93 10000 0.5 260 08:55 08.11.2020
5738 Clouds 15 1023 93 10000 0.5 230 08:36 08.11.2020
5739 Clouds 15 1022 93 10000 1 250 07:57 08.11.2020
5740 Clouds 15 1022 93 10000 1 250 07:39 08.11.2020
5741 Clouds 14 1021 87 5000 2.6 70 07:18 08.11.2020
5742 Clouds 15 1021 82 5000 2.6 80 05:55 08.11.2020
5743 Clouds 15 1022 93 10000 0.5 230 05:26 08.11.2020
5744 Mist 15 1021 93 4000 3.1 80 03:46 08.11.2020
5745 Mist 15 1022 93 4000 2.6 100 01:49 08.11.2020
5746 Mist 16 1022 93 4000 1.5 70 01:18 08.11.2020
5747 Clouds 16 1023 82 10000 2.6 270 00:24 08.11.2020
5748 Clouds 16 1023 93 5000 3.1 90 23:45 07.11.2020
5749 Clear 16 1023 88 10000 1.5 270 23:27 07.11.2020
5750 Clear 17 1023 82 10000 2.6 250 22:41 07.11.2020
5751 Clear 17 1023 82 10000 2.6 250 22:23 07.11.2020
5752 Clouds 17 1023 88 7000 2.1 100 21:45 07.11.2020
5753 Clouds 18 1023 88 7000 1 0 21:22 07.11.2020
5754 Clouds 19 1022 82 6000 1 0 20:50 07.11.2020
5755 Clear 19 1023 72 10000 1.5 300 20:32 07.11.2020
5756 Clouds 19 1022 82 10000 0.5 0 19:52 07.11.2020
5757 Clouds 19 1022 72 10000 1 280 19:29 07.11.2020
5758 Clouds 20 1022 68 10000 3.1 280 18:58 07.11.2020
5759 Clouds 20 1022 68 10000 3.1 260 18:38 07.11.2020
5760 Clouds 21 1021 72 10000 2.6 210 18:19 07.11.2020
5761 Clouds 21 1022 60 10000 5.1 260 17:40 07.11.2020
5762 Clouds 21 1022 60 10000 5.1 260 17:22 07.11.2020
5763 Clouds 22 1022 53 10000 5.1 250 16:42 07.11.2020
5764 Clouds 22 1021 68 10000 4.1 220 16:23 07.11.2020
5765 Clouds 22 1021 64 10000 3.6 220 15:43 07.11.2020
5766 Clouds 22 1021 56 10000 5.1 240 15:23 07.11.2020
5767 Clouds 22 1021 64 10000 4.1 200 14:48 07.11.2020
5768 Clouds 22 1022 64 10000 4.1 230 14:30 07.11.2020
5769 Clouds 22 1022 64 10000 4.1 230 14:30 07.11.2020
5770 Clouds 21 1022 72 10000 3.6 210 13:59 07.11.2020
5771 Clouds 21 1022 77 10000 3.6 210 13:31 07.11.2020
5772 Clouds 21 1022 77 10000 5.1 210 12:58 07.11.2020
5773 Clouds 20 1022 72 10000 3.1 210 12:30 07.11.2020
5774 Clouds 20 1022 72 10000 4.6 200 11:45 07.11.2020
5775 Clouds 20 1021 72 10000 3.6 190 11:24 07.11.2020
5776 Clouds 19 1021 82 10000 3.6 190 10:46 07.11.2020
5777 Clouds 19 1020 77 10000 3.1 200 10:28 07.11.2020
5778 Clouds 19 1020 72 10000 6.7 240 09:58 07.11.2020
5779 Clouds 19 1019 68 10000 7.2 240 09:37 07.11.2020
5780 Clouds 19 1018 77 10000 6.2 230 08:58 07.11.2020
5781 Clouds 19 1018 77 10000 6.2 230 08:37 07.11.2020
5782 Clouds 19 1018 77 10000 6.2 230 08:37 07.11.2020
5783 Clouds 18 1019 82 8000 3.1 190 08:18 07.11.2020
5784 Clouds 19 1017 77 10000 4.6 210 07:37 07.11.2020
5785 Clouds 19 1017 77 10000 4.6 210 07:37 07.11.2020
5786 Clouds 18 1017 88 8000 3.1 180 06:48 07.11.2020
5787 Clouds 18 1016 82 10000 4.1 230 05:37 07.11.2020
5788 Rain 18 1015 68 10000 4.6 230 03:25 07.11.2020
5789 Clouds 20 1014 63 10000 5.1 170 01:45 07.11.2020
5790 Clouds 21 1014 60 10000 5.1 170 01:25 07.11.2020
5791 Clouds 21 1014 53 10000 7.2 120 00:27 07.11.2020
5792 Clouds 21 1014 56 10000 5.7 140 23:29 06.11.2020
5793 Clouds 20 1013 56 10000 5.1 160 22:45 06.11.2020
5794 Clouds 20 1012 56 8000 5.7 150 22:20 06.11.2020
5795 Clouds 20 1014 72 8000 3.1 220 21:58 06.11.2020
5796 Clouds 19 1014 72 8000 3.1 220 21:40 06.11.2020
5797 Rain 19 1012 68 8000 4.1 120 21:18 06.11.2020
5798 Rain 19 1013 77 6000 4.1 100 20:43 06.11.2020
5799 Rain 19 1013 77 3000 2.1 130 20:19 06.11.2020
5800 Rain 20 1013 72 5000 1 0 19:45 06.11.2020
5801 Rain 21 1012 64 5000 1 240 19:26 06.11.2020
5802 Rain 21 1012 60 8000 2.6 120 18:47 06.11.2020
5803 Clouds 21 1012 60 8000 2.6 120 18:28 06.11.2020
5804 Rain 21 1012 60 9000 2.1 60 17:52 06.11.2020
5805 Rain 21 1012 60 9000 2.1 60 17:52 06.11.2020
5806 Haze 21 1012 60 7000 1.5 40 17:34 06.11.2020
5807 Haze 21 1011 60 7000 2.1 50 16:59 06.11.2020
5808 Haze 22 1011 60 7000 3.1 40 16:37 06.11.2020
5809 Rain 22 1012 60 6000 3.6 250 16:19 06.11.2020
5810 Haze 22 1011 60 7000 3.6 40 15:34 06.11.2020
5811 Haze 22 1011 60 7000 3.6 40 15:34 06.11.2020
5812 Haze 22 1011 60 7000 4.1 40 14:55 06.11.2020
5813 Haze 22 1011 60 8000 3.6 40 14:30 06.11.2020
5814 Haze 21 1011 64 8000 5.1 40 13:56 06.11.2020
5815 Haze 21 1011 68 8000 6.2 40 13:26 06.11.2020
5816 Haze 21 1012 72 7000 5.1 50 12:59 06.11.2020
5817 Haze 21 1012 72 7000 6.7 50 12:40 06.11.2020
5818 Haze 21 1012 72 7000 6.7 50 12:21 06.11.2020
5819 Haze 20 1012 72 6000 6.2 60 11:37 06.11.2020
5820 Haze 21 1012 72 6000 6.7 60 10:58 06.11.2020
5821 Haze 20 1012 82 6000 7.7 60 10:35 06.11.2020
5822 Haze 19 1012 82 7000 7.7 50 09:57 06.11.2020
5823 Haze 18 1011 77 8000 7.2 60 09:38 06.11.2020
5824 Clouds 18 1010 88 5000 1 0 09:20 06.11.2020
5825 Clouds 18 1010 88 8000 1 0 08:47 06.11.2020
5826 Haze 18 1011 77 8000 7.7 60 08:27 06.11.2020
5827 Clouds 18 1011 77 10000 7.2 60 07:42 06.11.2020
5828 Clouds 18 1010 88 8000 2.6 100 07:18 06.11.2020
5829 Clouds 18 1011 72 10000 7.2 50 06:40 06.11.2020
5830 Clouds 18 1011 82 5000 5.1 70 05:37 06.11.2020
5831 Clouds 18 1013 82 10000 3.1 20 01:59 06.11.2020
5832 Clouds 19 1013 77 10000 5.1 50 00:29 06.11.2020
5833 Clouds 20 1012 64 10000 1.5 80 23:51 05.11.2020
5834 Clouds 20 1014 82 5000 3.6 60 23:24 05.11.2020
5835 Rain 20 1012 60 10000 2.6 90 22:45 05.11.2020
5836 Rain 19 1012 63 10000 4.1 90 22:26 05.11.2020
5837 Clouds 19 1014 88 10000 6.2 60 21:57 05.11.2020
5838 Clouds 19 1014 88 10000 6.2 60 21:38 05.11.2020
5839 Clear 19 1011 56 10000 5.1 80 21:18 05.11.2020
5840 Clear 19 1011 56 10000 5.1 80 20:43 05.11.2020
5841 Clear 19 1010 56 10000 4.6 80 20:22 05.11.2020
5842 Clear 19 1010 56 10000 4.6 80 19:44 05.11.2020
5843 Clouds 19 1013 93 6000 6.7 70 19:26 05.11.2020
5844 Clouds 20 1012 93 6000 7.2 80 18:56 05.11.2020
5845 Clouds 20 1012 93 6000 7.2 80 18:38 05.11.2020
5846 Clear 21 1010 49 10000 5.1 90 18:20 05.11.2020
5847 Rain 21 1012 88 6000 6.2 70 17:42 05.11.2020
5848 Rain 22 1012 88 6000 6.2 70 17:23 05.11.2020
5849 Clear 22 1009 44 10000 5.7 90 16:46 05.11.2020
5850 Haze 22 1012 82 7000 4.1 100 16:26 05.11.2020
5851 Clear 23 1008 34 10000 5.1 100 15:50 05.11.2020
5852 Clear 23 1008 34 10000 5.1 100 15:50 05.11.2020
5853 Rain 23 1011 88 7000 5.1 100 15:27 05.11.2020
5854 Clear 23 1009 31 10000 3.1 120 14:50 05.11.2020
5855 Rain 22 1012 82 10000 4.6 100 14:31 05.11.2020
5856 Clouds 22 1012 82 10000 4.6 100 13:59 05.11.2020
5857 Clouds 22 1013 82 10000 5.1 130 13:39 05.11.2020
5858 Clouds 22 1013 77 10000 4.1 110 12:54 05.11.2020
5859 Clouds 21 1013 60 10000 5.7 120 12:30 05.11.2020
5860 Clouds 21 1013 64 10000 5.7 120 11:58 05.11.2020
5861 Clouds 20 1013 72 10000 5.1 120 11:39 05.11.2020
5862 Rain 20 1014 68 10000 1.5 100 11:21 05.11.2020
5863 Clouds 20 1012 55 10000 4.6 120 10:47 05.11.2020
5864 Rain 19 1014 56 10000 3.1 180 10:26 05.11.2020
5865 Clouds 19 1012 67 10000 3.1 110 09:48 05.11.2020
5866 Clouds 19 1013 60 10000 5.1 200 09:24 05.11.2020
5867 Clouds 19 1013 60 10000 5.1 200 09:24 05.11.2020
5868 Rain 19 1013 52 10000 5.7 170 08:48 05.11.2020
5869 Clouds 18 1011 67 10000 5.1 140 08:29 05.11.2020
5870 Clouds 19 1012 56 10000 3.1 150 07:42 05.11.2020
5871 Clouds 19 1012 56 10000 3.1 150 07:23 05.11.2020
5872 Clouds 17 1011 67 10000 2.6 160 06:42 05.11.2020
5873 Clouds 17 1011 67 10000 2.6 160 06:42 05.11.2020
5874 Clouds 18 1010 72 10000 2.1 160 05:54 05.11.2020
5875 Clouds 17 1011 82 9000 4.6 120 01:39 05.11.2020
5876 Rain 17 1011 82 10000 6.2 140 00:34 05.11.2020
5877 Rain 16 1011 82 3500 3.6 160 23:46 04.11.2020
5878 Rain 17 1012 82 10000 5.1 100 23:26 04.11.2020
5879 Clouds 17 1012 77 2500 6.2 150 22:54 04.11.2020
5880 Clouds 17 1012 77 2500 6.2 150 22:54 04.11.2020
5881 Rain 17 1012 93 10000 8.2 100 22:36 04.11.2020
5882 Rain 17 1010 77 9000 7.2 80 22:18 04.11.2020
5883 Rain 18 1012 93 9000 8.2 90 21:42 04.11.2020
5884 Rain 18 1012 93 9000 8.2 90 21:24 04.11.2020
5885 Clouds 17 1011 82 5000 4.6 100 20:45 04.11.2020
5886 Rain 18 1013 88 10000 5.7 100 20:27 04.11.2020
5887 Rain 17 1011 77 6000 4.6 90 19:50 04.11.2020
5888 Rain 17 1013 93 10000 5.1 60 19:30 04.11.2020
5889 Clouds 18 1013 88 10000 5.7 70 18:56 04.11.2020
5890 Clouds 18 1013 88 10000 5.7 70 18:38 04.11.2020
5891 Clouds 18 1011 72 6000 3.1 90 18:20 04.11.2020
5892 Clouds 18 1014 82 10000 3.1 110 17:41 04.11.2020
5893 Clouds 18 1014 82 10000 3.1 110 17:41 04.11.2020
5894 Clouds 18 1014 82 10000 3.1 110 17:23 04.11.2020
5895 Rain 19 1013 88 10000 5.1 80 16:42 04.11.2020
5896 Rain 19 1013 88 10000 5.1 80 16:24 04.11.2020
5897 Clouds 19 1013 77 6000 3.1 260 15:49 04.11.2020
5898 Clouds 19 1014 88 10000 4.6 80 15:26 04.11.2020
5899 Rain 20 1015 88 10000 2.6 70 14:59 04.11.2020
5900 Rain 20 1016 82 10000 2.1 110 14:41 04.11.2020
5901 Rain 20 1016 82 10000 2.1 110 14:21 04.11.2020
5902 Rain 19 1015 64 6000 1 0 13:47 04.11.2020
5903 Clouds 19 1015 72 6000 2.1 250 13:20 04.11.2020
5904 Rain 19 1017 82 10000 3.6 80 12:54 04.11.2020
5905 Rain 19 1017 82 10000 3.6 100 12:36 04.11.2020
5906 Clouds 19 1017 82 10000 3.1 80 11:59 04.11.2020
5907 Clouds 18 1018 82 10000 4.6 80 11:40 04.11.2020
5908 Clouds 18 1017 68 8000 2.6 120 11:20 04.11.2020
5909 Clouds 18 1016 63 8000 3.6 110 10:46 04.11.2020
5910 Clouds 18 1018 82 10000 4.1 70 10:22 04.11.2020
5911 Clouds 18 1018 82 10000 4.1 90 09:53 04.11.2020
5912 Clouds 18 1018 82 10000 4.1 90 09:23 04.11.2020
5913 Clouds 17 1017 72 10000 3.6 70 08:46 04.11.2020
5914 Clouds 17 1018 88 10000 3.6 70 08:21 04.11.2020
5915 Clear 17 1017 72 10000 3.1 100 07:50 04.11.2020
5916 Clouds 17 1019 82 10000 4.6 80 07:27 04.11.2020
5917 Clear 16 1018 77 10000 3.1 90 06:46 04.11.2020
5918 Clear 17 1018 77 10000 4.1 100 06:27 04.11.2020
5919 Clear 17 1018 72 10000 7.2 80 03:46 04.11.2020
5920 Clear 17 1019 77 10000 3.6 90 02:20 04.11.2020
5921 Clouds 17 1020 77 6000 3.1 70 00:43 04.11.2020
5922 Clouds 17 1021 82 6000 3.1 50 23:44 03.11.2020
5923 Clouds 17 1022 88 7000 1 70 23:21 03.11.2020
5924 Clouds 17 1023 88 9000 2.6 70 22:41 03.11.2020
5925 Clouds 17 1023 88 9000 2.6 70 22:21 03.11.2020
5926 Clouds 18 1021 82 6000 3.6 80 21:56 03.11.2020
5927 Clouds 17 1022 88 10000 3.1 60 21:37 03.11.2020
5928 Clouds 18 1021 82 6000 2.1 0 21:19 03.11.2020
5929 Clouds 18 1021 82 6000 2.1 0 20:43 03.11.2020
5930 Clouds 18 1022 88 10000 2.1 40 20:23 03.11.2020
5931 Clouds 18 1021 77 6000 1 0 19:43 03.11.2020
5932 Haze 18 1022 88 9000 2.1 70 19:22 03.11.2020
5933 Clouds 18 1021 68 7000 2.6 50 18:45 03.11.2020
5934 Clear 18 1022 88 10000 2.6 80 18:21 03.11.2020
5935 Clear 18 1022 88 10000 3.1 80 17:58 03.11.2020
5936 Clear 19 1022 77 10000 3.1 80 17:40 03.11.2020
5937 Clouds 19 1021 72 6000 4.1 320 17:21 03.11.2020
5938 Clouds 19 1021 68 8000 3.6 310 16:44 03.11.2020
5939 Clouds 19 1021 77 10000 4.1 90 16:22 03.11.2020
5940 Clouds 19 1021 68 8000 4.1 290 15:43 03.11.2020
5941 Clouds 19 1022 77 10000 3.6 80 15:24 03.11.2020
5942 Clouds 19 1022 77 10000 3.6 80 14:52 03.11.2020
5943 Clouds 19 1022 77 10000 3.1 70 14:33 03.11.2020
5944 Clouds 19 1022 72 7000 2.6 250 13:46 03.11.2020
5945 Clouds 19 1023 77 10000 3.1 70 13:23 03.11.2020
5946 Clouds 19 1023 77 10000 3.1 70 12:59 03.11.2020
5947 Clouds 18 1023 82 10000 3.1 70 12:37 03.11.2020
5948 Clouds 18 1023 68 6000 2.6 250 12:18 03.11.2020
5949 Haze 18 1023 82 8000 2.6 90 11:41 03.11.2020
5950 Haze 18 1023 82 8000 2.6 90 11:20 03.11.2020
5951 Haze 18 1023 82 8000 2.6 90 11:20 03.11.2020
5952 Haze 15 1023 93 5000 1.5 250 10:39 03.11.2020
5953 Haze 15 1023 93 5000 1.5 250 10:21 03.11.2020
5954 Haze 14 1023 93 5000 2.1 290 09:51 03.11.2020
5955 Mist 14 1023 93 7000 1 280 09:33 03.11.2020
5956 Mist 14 1022 87 4000 0.5 0 08:56 03.11.2020
5957 Mist 13 1022 93 2500 1 190 08:35 03.11.2020
5958 Clouds 13 1021 87 7000 0.5 0 07:49 03.11.2020
5959 Fog 13 1022 100 500 1 290 07:22 03.11.2020
5960 Clear 13 1021 87 10000 0.5 0 06:49 03.11.2020
5961 Clouds 15 1022 100 700 1 40 05:38 03.11.2020
5962 Clouds 16 1020 72 7000 3.6 90 02:43 03.11.2020
5963 Clear 17 1023 93 4600 0.5 180 00:41 03.11.2020
5964 Clear 17 1021 82 10000 7.2 30 23:52 02.11.2020
5965 Clear 18 1023 88 6000 2.1 60 23:33 02.11.2020
5966 Clear 18 1020 72 10000 6.7 40 22:54 02.11.2020
5967 Clear 18 1023 88 6000 1.5 40 22:35 02.11.2020
5968 Clear 18 1022 88 5000 0.5 110 21:59 02.11.2020
5969 Clear 18 1022 88 5000 0.5 110 21:37 02.11.2020
5970 Clear 18 1020 72 10000 5.1 50 21:19 02.11.2020
5971 Clear 18 1020 72 10000 5.1 50 21:19 02.11.2020
5972 Clear 18 1022 93 9000 2.6 50 20:39 02.11.2020
5973 Clear 18 1020 72 10000 6.7 60 20:20 02.11.2020
5974 Clear 18 1020 72 10000 5.7 50 19:46 02.11.2020
5975 Clear 18 1022 93 8000 3.1 50 19:27 02.11.2020
5976 Haze 18 1021 93 8000 3.1 70 18:56 02.11.2020
5977 Clear 19 1021 88 10000 3.1 80 18:38 02.11.2020
5978 Clear 19 1019 68 10000 6.7 40 18:19 02.11.2020
5979 Clear 19 1021 88 10000 3.1 70 17:42 02.11.2020
5980 Clear 20 1021 88 10000 3.1 70 17:24 02.11.2020
5981 Clear 20 1019 56 10000 7.2 40 16:49 02.11.2020
5982 Clouds 20 1021 82 10000 3.6 70 16:31 02.11.2020
5983 Clouds 20 1021 88 10000 3.6 70 15:57 02.11.2020
5984 Clouds 20 1022 88 10000 3.6 80 15:38 02.11.2020
5985 Clouds 20 1022 88 10000 3.6 80 15:38 02.11.2020
5986 Clear 20 1019 60 10000 7.7 40 15:19 02.11.2020
5987 Clear 20 1019 60 10000 7.7 40 15:19 02.11.2020
5988 Clear 21 1019 56 10000 7.2 30 14:43 02.11.2020
5989 Clear 21 1020 53 10000 6.2 30 14:19 02.11.2020
5990 Clear 21 1020 53 10000 4.6 40 13:48 02.11.2020
5991 Clouds 21 1023 82 10000 3.1 50 13:22 02.11.2020
5992 Clouds 21 1023 82 10000 3.1 60 12:50 02.11.2020
5993 Clouds 20 1023 82 10000 3.1 50 12:27 02.11.2020
5994 Clear 20 1021 56 10000 5.1 50 11:46 02.11.2020
5995 Clear 20 1021 60 10000 5.1 60 11:20 02.11.2020
5996 Clear 19 1021 64 10000 4.6 60 10:48 02.11.2020
5997 Haze 18 1023 93 8000 1 330 10:25 02.11.2020
5998 Haze 17 1023 87 8000 0.5 290 09:55 02.11.2020
5999 Haze 16 1023 93 8000 1 270 09:29 02.11.2020
6000 Mist 16 1022 100 7000 1 20 08:57 02.11.2020
6001 Mist 15 1022 100 7000 1 20 08:36 02.11.2020
6002 Clear 15 1020 87 10000 4.1 80 08:18 02.11.2020
6003 Mist 16 1022 100 3400 0.5 330 07:39 02.11.2020
6004 Clear 16 1020 77 6000 3.1 90 06:45 02.11.2020
6005 Clear 16 1019 72 8000 3.1 80 05:19 02.11.2020
6006 Clear 17 1023 87 6000 0.5 220 01:34 02.11.2020
6007 Clear 17 1023 93 5000 1.5 70 00:38 02.11.2020
6008 Clear 17 1021 72 10000 4.1 70 00:19 02.11.2020
6009 Clear 18 1023 88 4800 1.5 80 23:38 01.11.2020
6010 Clear 18 1021 72 10000 6.2 40 23:20 01.11.2020
6011 Clear 18 1023 88 5000 1.5 70 22:42 01.11.2020
6012 Clear 18 1023 88 5000 1.5 70 22:22 01.11.2020
6013 Clear 18 1021 72 10000 4.6 50 21:43 01.11.2020
6014 Haze 18 1023 88 8000 1 100 21:24 01.11.2020
6015 Clear 18 1021 77 10000 5.1 50 20:48 01.11.2020
6016 Clear 18 1023 93 10000 1 70 20:26 01.11.2020
6017 Clear 18 1021 72 10000 2.6 50 19:49 01.11.2020
6018 Clear 19 1023 88 10000 1.5 80 19:29 01.11.2020
6019 Clear 19 1023 88 10000 2.6 90 18:59 01.11.2020
6020 Clear 19 1022 82 10000 2.6 70 18:40 01.11.2020
6021 Clear 20 1021 64 10000 5.7 30 18:19 01.11.2020
6022 Clear 20 1021 60 10000 4.6 30 17:45 01.11.2020
6023 Clear 20 1023 82 10000 3.1 70 17:27 01.11.2020
6024 Clear 21 1021 47 10000 5.1 40 16:45 01.11.2020
6025 Clear 20 1023 88 10000 3.1 70 16:27 01.11.2020
6026 Clear 20 1023 82 10000 3.6 80 15:59 01.11.2020
6027 Clear 20 1023 82 10000 3.6 70 15:39 01.11.2020
6028 Clear 20 1022 60 10000 2.6 240 15:20 01.11.2020
6029 Clouds 20 1022 68 9000 2.6 250 14:46 01.11.2020
6030 Clouds 20 1024 82 10000 2.6 70 14:22 01.11.2020
6031 Clouds 19 1024 82 10000 3.1 60 13:57 01.11.2020
6032 Clouds 19 1024 88 10000 4.1 70 13:39 01.11.2020
6033 Clouds 19 1023 68 6000 2.6 260 13:21 01.11.2020
6034 Fog 19 1025 88 8000 3.1 70 12:42 01.11.2020
6035 Fog 19 1025 88 8000 3.1 70 12:20 01.11.2020
6036 Fog 18 1025 88 800 3.1 70 11:48 01.11.2020
6037 Clouds 19 1024 72 6000 2.6 260 11:18 01.11.2020
6038 Clouds 18 1024 72 6000 1 0 10:42 01.11.2020
6039 Fog 17 1025 87 10000 1.5 270 10:24 01.11.2020
6040 Clouds 16 1024 82 6000 0.5 0 09:49 01.11.2020
6041 Fog 15 1024 93 10000 1.5 270 09:26 01.11.2020
6042 Fog 14 1024 87 10000 1 240 08:40 01.11.2020
6043 Clouds 14 1023 87 10000 1.5 260 07:57 01.11.2020
6044 Clear 15 1022 87 6000 1.5 120 06:52 01.11.2020
6045 Clear 16 1024 87 10000 2.6 260 02:32 01.11.2020
6046 Clear 16 1025 93 10000 2.1 250 01:38 01.11.2020
6047 Clear 17 1024 77 10000 1 70 23:56 31.10.2020
6048 Clear 17 1024 82 10000 0.5 0 23:23 31.10.2020
6049 Clear 17 1024 77 10000 1.5 20 22:45 31.10.2020
6050 Clear 18 1025 88 10000 0.5 270 22:24 31.10.2020
6051 Clear 18 1025 88 10000 0.5 270 22:24 31.10.2020
6052 Clear 18 1024 68 10000 2.6 30 21:46 31.10.2020
6053 Clear 18 1024 93 9000 1 80 21:22 31.10.2020
6054 Clear 19 1023 60 10000 2.1 360 20:44 31.10.2020
6055 Clear 19 1023 60 10000 2.6 40 20:21 31.10.2020
6056 Clear 19 1023 56 10000 4.6 50 19:58 31.10.2020
6057 Clear 19 1023 88 10000 2.6 100 19:37 31.10.2020
6058 Clear 20 1023 49 10000 2.1 50 19:18 31.10.2020
6059 Clear 20 1023 46 10000 1 0 18:42 31.10.2020
6060 Clear 21 1023 43 10000 3.1 50 17:47 31.10.2020
6061 Clear 21 1024 82 10000 2.1 70 17:29 31.10.2020
6062 Clear 21 1023 77 10000 4.1 90 16:59 31.10.2020
6063 Clear 22 1023 72 10000 4.1 90 16:39 31.10.2020
6064 Clear 22 1024 72 10000 2.1 80 15:57 31.10.2020
6065 Clear 22 1024 72 10000 2.6 110 15:36 31.10.2020
6066 Clear 22 1023 53 10000 2.6 260 15:18 31.10.2020
6067 Clear 22 1023 56 10000 3.1 260 14:46 31.10.2020
6068 Clear 22 1025 68 10000 2.1 110 14:26 31.10.2020
6069 Clear 22 1024 64 10000 2.1 240 13:49 31.10.2020
6070 Clear 21 1025 72 10000 2.6 80 13:21 31.10.2020
6071 Clear 21 1026 72 10000 1.5 70 12:32 31.10.2020
6072 Clear 22 1024 60 10000 2.1 70 11:47 31.10.2020
6073 Clear 20 1026 77 10000 2.1 60 11:28 31.10.2020
6074 Clear 20 1026 77 10000 1.5 70 10:54 31.10.2020
6075 Clouds 19 1026 82 10000 0.5 310 10:33 31.10.2020
6076 Clear 17 1025 87 10000 0.5 360 09:42 31.10.2020
6077 Clouds 16 1024 88 8000 2.6 90 09:21 31.10.2020
6078 Clouds 16 1025 93 10000 1 340 08:32 31.10.2020
6079 Clouds 16 1023 87 7000 3.1 90 07:50 31.10.2020
6080 Haze 16 1024 93 9000 1 50 07:27 31.10.2020
6081 Haze 16 1024 93 8000 2.1 30 06:39 31.10.2020
6082 Clear 17 1022 82 10000 4.6 80 04:51 31.10.2020
6083 Clear 17 1022 82 10000 5.1 90 03:45 31.10.2020
6084 Clouds 18 1025 93 10000 3.1 100 01:29 31.10.2020
6085 Clear 18 1022 77 10000 5.1 90 00:46 31.10.2020
6086 Clear 18 1022 77 10000 3.6 80 23:50 30.10.2020
6087 Clouds 18 1024 88 10000 5.1 90 23:24 30.10.2020
6088 Clear 18 1022 72 10000 5.1 90 22:45 30.10.2020
6089 Clouds 18 1024 82 10000 3.1 90 22:24 30.10.2020
6090 Clear 19 1022 68 10000 4.1 80 21:55 30.10.2020
6091 Clouds 19 1024 82 10000 3.1 50 21:37 30.10.2020
6092 Clear 19 1021 68 10000 5.1 90 21:18 30.10.2020
6093 Clouds 19 1024 82 10000 3.1 90 20:39 30.10.2020
6094 Clear 19 1021 64 10000 5.7 80 20:20 30.10.2020
6095 Clear 19 1021 68 10000 4.6 90 19:44 30.10.2020
6096 Clear 19 1021 64 10000 5.1 90 19:18 30.10.2020
6097 Clear 20 1021 60 10000 5.1 80 18:49 30.10.2020
6098 Clouds 20 1024 77 10000 3.1 90 18:27 30.10.2020
6099 Clear 20 1021 68 10000 4.6 40 17:49 30.10.2020
6100 Clear 20 1021 68 10000 5.7 40 17:23 30.10.2020
6101 Clouds 21 1023 77 10000 3.6 90 16:57 30.10.2020
6102 Clouds 21 1024 77 10000 3.6 90 16:36 30.10.2020
6103 Clouds 21 1024 77 10000 3.6 90 16:36 30.10.2020
6104 Clear 22 1021 53 10000 5.7 60 16:18 30.10.2020
6105 Clouds 22 1024 72 10000 4.6 90 15:40 30.10.2020
6106 Clear 22 1021 57 10000 6.7 40 15:19 30.10.2020
6107 Clear 22 1021 47 10000 6.2 60 14:44 30.10.2020
6108 Clouds 22 1024 72 10000 5.1 70 14:25 30.10.2020
6109 Clear 23 1021 47 10000 8.2 70 13:45 30.10.2020
6110 Clouds 22 1025 64 10000 5.1 70 13:21 30.10.2020
6111 Clouds 23 1025 64 10000 5.1 70 12:52 30.10.2020
6112 Clouds 22 1025 68 10000 5.1 70 12:22 30.10.2020
6113 Clouds 21 1025 68 10000 5.1 70 11:56 30.10.2020
6114 Clouds 21 1025 72 10000 5.1 80 11:23 30.10.2020
6115 Clouds 20 1026 72 10000 5.1 80 10:52 30.10.2020
6116 Clouds 19 1025 77 10000 5.7 70 10:26 30.10.2020
6117 Clouds 19 1025 77 10000 5.7 70 09:59 30.10.2020
6118 Clouds 19 1025 77 10000 5.1 70 09:41 30.10.2020
6119 Clear 19 1021 64 10000 9.8 80 09:19 30.10.2020
6120 Clouds 18 1024 88 10000 5.1 80 08:33 30.10.2020
6121 Clear 18 1021 68 10000 9.8 80 07:58 30.10.2020
6122 Clouds 18 1024 82 10000 6.2 90 07:40 30.10.2020
6123 Clouds 18 1024 82 10000 6.2 90 07:21 30.10.2020
6124 Clear 18 1021 68 10000 9.8 80 06:19 30.10.2020
6125 Clear 18 1024 77 10000 6.7 80 03:59 30.10.2020
6126 Clear 19 1024 68 10000 6.7 100 01:26 30.10.2020
6127 Clear 20 1025 59 10000 7.2 110 00:26 30.10.2020
6128 Clear 20 1021 40 10000 7.2 70 23:43 29.10.2020
6129 Clear 20 1025 55 10000 6.7 110 23:25 29.10.2020
6130 Clear 20 1021 42 10000 6.7 90 22:45 29.10.2020
6131 Clear 20 1024 55 10000 6.2 100 22:27 29.10.2020
6132 Clear 20 1020 45 10000 9.3 80 21:49 29.10.2020
6133 Clear 20 1024 63 10000 5.7 100 21:24 29.10.2020
6134 Clear 20 1020 52 10000 10.3 70 20:43 29.10.2020
6135 Clear 20 1020 52 10000 10.3 70 20:43 29.10.2020
6136 Clear 20 1024 55 10000 6.7 110 20:24 29.10.2020
6137 Clear 20 1024 55 10000 6.2 110 19:57 29.10.2020
6138 Clear 20 1024 55 10000 6.2 110 19:38 29.10.2020
6139 Clear 21 1020 46 10000 10.3 70 19:18 29.10.2020
6140 Clear 21 1019 46 10000 10.3 70 18:45 29.10.2020
6141 Clear 21 1024 49 10000 7.7 110 18:25 29.10.2020
6142 Clear 21 1023 52 10000 7.7 110 17:42 29.10.2020
6143 Clear 22 1020 43 10000 11.3 80 17:22 29.10.2020
6144 Clear 22 1024 56 10000 6.7 110 16:53 29.10.2020
6145 Clear 22 1023 56 10000 6.7 100 16:23 29.10.2020
6146 Clear 21 1023 68 10000 6.7 100 15:58 29.10.2020
6147 Clear 22 1024 77 10000 6.2 110 15:40 29.10.2020
6148 Clear 22 1024 77 10000 6.2 110 15:22 29.10.2020
6149 Clear 22 1024 72 10000 6.2 110 14:58 29.10.2020
6150 Clear 22 1024 72 10000 5.7 110 14:39 29.10.2020
6151 Clear 22 1024 72 10000 5.7 110 14:39 29.10.2020
6152 Clear 22 1020 33 10000 10.3 80 14:18 29.10.2020
6153 Clear 21 1025 68 10000 5.1 110 13:40 29.10.2020
6154 Clear 22 1025 68 10000 5.1 110 13:22 29.10.2020
6155 Clouds 21 1025 82 10000 4.6 110 12:41 29.10.2020
6156 Clear 21 1022 38 10000 8.2 70 12:19 29.10.2020
6157 Clear 21 1022 43 10000 8.2 80 11:47 29.10.2020
6158 Clouds 19 1025 82 10000 3.1 80 11:25 29.10.2020
6159 Clouds 18 1025 77 10000 3.1 80 10:38 29.10.2020
6160 Clear 18 1022 55 10000 5.7 70 10:19 29.10.2020
6161 Clouds 18 1025 82 10000 2.6 50 09:53 29.10.2020
6162 Clouds 16 1024 87 10000 1.5 30 09:28 29.10.2020
6163 Clear 16 1022 72 10000 3.1 80 08:56 29.10.2020
6164 Clouds 15 1024 82 10000 1 80 08:34 29.10.2020
6165 Clear 15 1021 67 10000 2.1 100 07:54 29.10.2020
6166 Clouds 15 1023 82 10000 2.1 70 07:35 29.10.2020
6167 Clear 15 1021 67 10000 2.1 100 06:57 29.10.2020
6168 Clear 15 1021 62 10000 1.5 130 04:52 29.10.2020
6169 Clouds 15 1023 72 10000 1 100 03:58 29.10.2020
6170 Clouds 18 1023 62 10000 4.17 76 01:22 29.10.2020
6171 Clouds 18 1023 61 10000 4.21 76 00:31 29.10.2020
6172 Clouds 18 1023 59 10000 3.98 70 23:48 28.10.2020
6173 Clouds 18 1023 60 10000 3.91 70 23:22 28.10.2020
6174 Clear 17 1021 63 10000 3.1 40 22:45 28.10.2020
6175 Clear 17 1021 63 10000 3.1 40 22:26 28.10.2020
6176 Clouds 17 1022 67 10000 0.5 70 21:58 28.10.2020
6177 Clouds 17 1022 67 10000 0.5 70 21:40 28.10.2020
6178 Clear 17 1021 67 10000 2.1 40 21:20 28.10.2020
6179 Clear 18 1021 59 10000 3.1 30 20:42 28.10.2020
6180 Clear 17 1022 77 10000 1 70 20:22 28.10.2020
6181 Clear 18 1022 77 10000 1.5 90 19:50 28.10.2020
6182 Clear 19 1022 63 10000 1.5 90 19:28 28.10.2020
6183 Clear 19 1020 52 10000 2.6 20 18:48 28.10.2020
6184 Clear 21 1021 63 10000 3.1 90 18:21 28.10.2020
6185 Clear 20 1021 59 10000 2.6 80 17:45 28.10.2020
6186 Clear 20 1021 59 10000 2.6 80 17:25 28.10.2020
6187 Clear 20 1021 59 10000 3.1 90 16:57 28.10.2020
6188 Clear 21 1021 46 10000 2.6 90 16:39 28.10.2020
6189 Clear 21 1020 52 10000 3.6 300 16:20 28.10.2020
6190 Clear 21 1021 37 10000 1 160 15:38 28.10.2020
6191 Clear 21 1021 56 10000 3.6 280 15:19 28.10.2020
6192 Clear 21 1021 52 10000 3.1 290 14:43 28.10.2020
6193 Clear 21 1022 46 10000 1.5 110 14:23 28.10.2020
6194 Clouds 22 1023 47 10000 1.52 86 12:48 28.10.2020
6195 Clouds 19 1022 48 10000 1.89 81 12:27 28.10.2020
6196 Clouds 19 1022 48 10000 1.89 81 11:57 28.10.2020
6197 Clear 18 1022 68 10000 1 0 11:39 28.10.2020
6198 Clear 18 1022 68 10000 1 0 11:19 28.10.2020
6199 Clear 15 1022 77 10000 1 0 10:44 28.10.2020
6200 Clear 15 1022 76 10000 3.1 270 10:26 28.10.2020
6201 Clear 14 1021 71 10000 2.6 260 09:44 28.10.2020
6202 Clear 14 1021 71 10000 2.6 260 09:23 28.10.2020
6203 Clear 13 1021 87 10000 1.5 70 08:50 28.10.2020
6204 Clear 13 1020 67 10000 2.6 240 08:30 28.10.2020
6205 Clear 13 1020 81 10000 2.1 80 07:53 28.10.2020
6206 Clear 14 1020 67 10000 2.6 240 07:31 28.10.2020
6207 Clear 13 1020 81 10000 2.1 80 06:54 28.10.2020
6208 Clear 13 1020 72 10000 2.6 250 06:36 28.10.2020
6209 Clear 13 1020 72 10000 4.1 270 05:22 28.10.2020
6210 Clear 14 1020 72 10000 4.6 270 04:30 28.10.2020
6211 Clear 14 1020 67 10000 6.2 270 02:26 28.10.2020
6212 Clear 14 1020 67 10000 6.2 270 02:26 28.10.2020
6213 Clear 13 1021 76 10000 2.1 90 01:53 28.10.2020
6214 Clear 15 1021 59 10000 5.7 240 00:31 28.10.2020
6215 Clear 14 1021 81 10000 2.6 80 23:47 27.10.2020
6216 Clear 15 1021 55 10000 4.6 250 23:21 27.10.2020
6217 Clear 15 1021 67 10000 1 80 22:44 27.10.2020
6218 Clear 16 1021 67 10000 1.5 110 22:19 27.10.2020
6219 Clear 16 1021 67 10000 1 100 21:57 27.10.2020
6220 Clear 17 1021 52 10000 6.2 250 21:37 27.10.2020
6221 Clear 16 1021 62 10000 1 0 21:19 27.10.2020
6222 Clear 18 1020 52 10000 6.7 270 20:46 27.10.2020
6223 Clear 18 1021 51 10000 3.6 310 20:24 27.10.2020
6224 Clear 18 1021 51 10000 3.6 310 19:55 27.10.2020
6225 Clear 18 1020 52 10000 6.7 270 19:36 27.10.2020
6226 Clear 18 1020 51 10000 3.1 300 19:18 27.10.2020
6227 Clear 18 1020 51 10000 3.1 300 18:44 27.10.2020
6228 Clouds 19 1019 45 10000 6.2 280 18:21 27.10.2020
6229 Clouds 20 1019 43 10000 6.7 260 17:44 27.10.2020
6230 Clouds 20 1019 43 10000 6.7 260 17:22 27.10.2020
6231 Clear 21 1019 37 10000 4.6 250 16:57 27.10.2020
6232 Clear 21 1019 37 10000 4.6 250 16:39 27.10.2020
6233 Clear 21 1019 37 10000 4.6 250 16:21 27.10.2020
6234 Clear 21 1019 33 10000 3.1 240 15:41 27.10.2020
6235 Clear 21 1019 33 10000 3.1 240 15:23 27.10.2020
6236 Clouds 21 1021 42 10000 4.6 290 14:48 27.10.2020
6237 Clear 20 1020 37 10000 2.1 200 14:29 27.10.2020
6238 Clear 20 1021 42 10000 3.1 120 13:56 27.10.2020
6239 Clear 20 1021 42 10000 3.1 120 13:56 27.10.2020
6240 Clear 19 1021 48 10000 3.1 100 13:25 27.10.2020
6241 Clouds 19 1022 45 10000 3.1 300 12:43 27.10.2020
6242 Clear 19 1022 40 10000 2.6 250 12:24 27.10.2020
6243 Clear 18 1022 52 10000 2.6 310 11:45 27.10.2020
6244 Clouds 18 1022 55 10000 2.6 250 11:26 27.10.2020
6245 Clear 17 1022 55 10000 2.1 250 10:54 27.10.2020
6246 Clear 16 1022 58 10000 2.1 250 10:36 27.10.2020
6247 Clear 15 1022 67 10000 0.5 0 10:18 27.10.2020
6248 Clear 13 1022 62 10000 2.1 260 09:28 27.10.2020
6249 Clear 12 1022 81 10000 2.1 70 08:56 27.10.2020
6250 Clear 12 1021 66 10000 3.1 270 08:27 27.10.2020
6251 Clouds 12 1021 81 10000 2.6 90 07:52 27.10.2020
6252 Clear 12 1021 66 10000 2.1 270 07:33 27.10.2020
6253 Clouds 11 1021 81 10000 2.6 80 06:49 27.10.2020
6254 Clouds 11 1021 87 10000 2.1 80 06:19 27.10.2020
6255 Clouds 11 1021 87 10000 2.1 80 06:19 27.10.2020
6256 Clouds 12 1021 71 10000 2.6 270 05:44 27.10.2020
6257 Clouds 12 1021 71 10000 3.1 270 04:58 27.10.2020
6258 Clouds 13 1022 81 10000 2.1 70 02:49 27.10.2020
6259 Clouds 14 1022 76 10000 2.6 90 01:18 27.10.2020
6260 Clouds 14 1023 67 10000 4.6 270 23:59 26.10.2020
6261 Clouds 14 1023 67 10000 4.6 270 23:36 26.10.2020
6262 Clear 15 1023 76 10000 2.1 80 22:56 26.10.2020
6263 Clouds 15 1022 63 10000 4.1 290 22:30 26.10.2020
6264 Clear 15 1023 76 10000 2.1 80 21:56 26.10.2020
6265 Clouds 15 1022 59 10000 5.7 300 21:36 26.10.2020
6266 Clear 15 1023 71 10000 0.5 0 21:18 26.10.2020
6267 Clear 16 1022 62 10000 1 0 20:46 26.10.2020
6268 Clear 16 1022 59 10000 4.6 270 20:26 26.10.2020
6269 Clear 17 1022 59 10000 2.1 300 19:49 26.10.2020
6270 Clouds 18 1021 59 10000 6.7 280 19:28 26.10.2020
6271 Clouds 18 1021 48 10000 8.2 290 18:57 26.10.2020
6272 Clouds 18 1021 48 10000 8.2 290 18:36 26.10.2020
6273 Clear 18 1022 51 10000 5.1 300 18:18 26.10.2020
6274 Clouds 19 1020 48 10000 6.2 280 17:41 26.10.2020
6275 Clouds 19 1020 48 10000 6.2 280 17:23 26.10.2020
6276 Clouds 18 1021 48 10000 5.7 300 16:45 26.10.2020
6277 Clouds 19 1020 48 10000 7.2 280 16:22 26.10.2020
6278 Clouds 19 1021 48 10000 6.2 310 15:46 26.10.2020
6279 Clouds 19 1020 48 10000 6.7 280 15:28 26.10.2020
6280 Clouds 19 1020 45 10000 7.2 280 14:59 26.10.2020
6281 Clouds 19 1021 48 10000 6.7 280 14:38 26.10.2020
6282 Clouds 19 1021 55 10000 7.2 280 13:58 26.10.2020
6283 Clouds 19 1021 48 10000 7.2 290 13:36 26.10.2020
6284 Clouds 19 1022 52 10000 5.7 310 13:18 26.10.2020
6285 Clouds 19 1022 55 10000 5.7 310 12:42 26.10.2020
6286 Clouds 19 1022 55 10000 5.7 310 12:42 26.10.2020
6287 Clouds 18 1021 52 10000 6.7 290 12:23 26.10.2020
6288 Clouds 18 1022 63 8000 5.1 290 11:47 26.10.2020
6289 Clouds 18 1022 63 8000 5.1 290 11:47 26.10.2020
6290 Clouds 18 1021 48 10000 6.7 300 11:23 26.10.2020
6291 Clouds 17 1021 55 10000 4.1 280 10:57 26.10.2020
6292 Clouds 17 1021 63 10000 5.1 260 10:38 26.10.2020
6293 Clouds 17 1022 67 8000 4.1 320 10:19 26.10.2020
6294 Clouds 17 1020 63 10000 5.1 260 09:39 26.10.2020
6295 Clouds 17 1021 67 10000 5.1 340 09:18 26.10.2020
6296 Clouds 17 1019 67 10000 5.1 270 08:27 26.10.2020
6297 Clouds 17 1020 72 10000 4.1 310 07:52 26.10.2020
6298 Clouds 17 1019 77 10000 6.2 270 07:31 26.10.2020
6299 Clouds 17 1018 77 10000 8.2 280 05:58 26.10.2020
6300 Clouds 17 1019 93 6000 6.7 310 04:20 26.10.2020
6301 Clouds 17 1019 93 2000 8.7 290 03:21 26.10.2020
6302 Clouds 17 1019 93 2000 8.7 290 03:21 26.10.2020
6303 Clouds 17 1018 88 10000 9.8 220 01:36 26.10.2020
6304 Clouds 19 1019 77 10000 9.3 220 00:39 26.10.2020
6305 Clouds 19 1019 77 10000 9.3 220 00:21 26.10.2020
6306 Clouds 19 1020 77 10000 7.2 230 23:37 25.10.2020
6307 Clouds 19 1020 68 10000 6.7 220 22:59 25.10.2020
6308 Clouds 20 1020 68 10000 6.7 220 22:39 25.10.2020
6309 Clouds 20 1021 72 10000 4.1 210 22:19 25.10.2020
6310 Clouds 19 1020 72 10000 6.7 230 21:39 25.10.2020
6311 Clouds 19 1021 68 10000 4.1 210 21:19 25.10.2020
6312 Clouds 19 1020 64 10000 4.6 230 20:44 25.10.2020
6313 Clouds 19 1020 64 10000 4.6 230 20:25 25.10.2020
6314 Clouds 19 1020 64 10000 5.7 230 19:58 25.10.2020
6315 Clouds 19 1020 64 10000 5.7 230 19:39 25.10.2020
6316 Clouds 19 1021 77 10000 3.1 200 19:20 25.10.2020
6317 Clouds 20 1020 68 10000 6.2 240 18:41 25.10.2020
6318 Clouds 20 1020 68 10000 6.2 240 18:23 25.10.2020
6319 Clouds 20 1020 64 10000 7.2 240 17:58 25.10.2020
6320 Clouds 21 1020 56 10000 6.2 240 17:38 25.10.2020
6321 Clouds 21 1021 64 10000 4.6 210 17:19 25.10.2020
6322 Clouds 20 1021 60 10000 4.6 210 16:46 25.10.2020
6323 Clouds 21 1020 64 10000 8.2 270 16:28 25.10.2020
6324 Clouds 21 1021 60 10000 4.6 220 15:50 25.10.2020
6325 Clouds 20 1021 64 10000 8.7 270 15:29 25.10.2020
6326 Clouds 20 1021 60 10000 7.7 260 14:55 25.10.2020
6327 Clouds 20 1021 60 10000 9.3 270 14:31 25.10.2020
6328 Clouds 20 1021 64 10000 7.2 280 13:55 25.10.2020
6329 Clouds 20 1022 64 10000 7.2 280 13:37 25.10.2020
6330 Clouds 20 1022 60 10000 7.2 280 13:18 25.10.2020
6331 Clouds 20 1022 60 10000 7.2 280 12:40 25.10.2020
6332 Clouds 20 1022 60 10000 7.2 280 12:22 25.10.2020
6333 Clouds 19 1023 68 10000 5.1 270 11:43 25.10.2020
6334 Clouds 19 1023 68 10000 5.1 270 11:21 25.10.2020
6335 Clouds 18 1023 72 10000 2.6 180 10:48 25.10.2020
6336 Clouds 18 1023 68 10000 5.7 260 10:26 25.10.2020
6337 Clouds 17 1023 77 10000 5.1 270 09:55 25.10.2020
6338 Clouds 16 1023 82 10000 5.1 260 09:37 25.10.2020
6339 Clouds 16 1023 87 10000 1.5 170 09:18 25.10.2020
6340 Clouds 16 1022 82 10000 4.1 280 08:40 25.10.2020
6341 Clouds 14 1022 82 10000 4.1 280 08:22 25.10.2020
6342 Clouds 14 1022 82 10000 3.1 250 07:46 25.10.2020
6343 Clouds 14 1023 93 10000 0.5 0 06:57 25.10.2020
6344 Clear 14 1022 82 10000 2.1 270 06:30 25.10.2020
6345 Clear 14 1022 87 10000 5.7 280 05:22 25.10.2020
6346 Clouds 14 1023 93 10000 2.1 70 04:50 25.10.2020
6347 Clear 16 1024 72 10000 4.1 230 02:37 25.10.2020
6348 Clear 16 1025 82 10000 0.5 0 00:54 25.10.2020
6349 Clear 16 1025 82 10000 4.6 270 00:29 25.10.2020
6350 Clear 16 1025 82 10000 6.2 270 23:57 24.10.2020
6351 Clear 17 1025 82 10000 6.2 270 23:36 24.10.2020
6352 Clear 17 1025 77 10000 5.1 260 22:59 24.10.2020
6353 Clear 18 1025 77 10000 5.1 260 22:41 24.10.2020
6354 Clear 18 1025 77 10000 5.1 260 22:22 24.10.2020
6355 Clear 19 1025 72 10000 2.6 310 21:55 24.10.2020
6356 Clear 19 1025 72 10000 3.6 260 21:36 24.10.2020
6357 Clear 19 1025 68 10000 2.1 300 21:18 24.10.2020
6358 Clear 20 1024 60 10000 5.7 260 20:42 24.10.2020
6359 Clouds 20 1025 68 10000 2.6 290 20:20 24.10.2020
6360 Clear 21 1024 60 10000 6.7 260 19:41 24.10.2020
6361 Clear 21 1024 60 10000 6.7 260 19:23 24.10.2020
6362 Clouds 21 1024 53 10000 5.1 260 18:51 24.10.2020
6363 Clouds 22 1024 53 10000 5.1 260 18:30 24.10.2020
6364 Clouds 22 1025 60 10000 4.1 270 17:46 24.10.2020
6365 Clouds 22 1024 46 10000 4.6 250 17:26 24.10.2020
6366 Clouds 22 1024 46 10000 4.6 240 16:53 24.10.2020
6367 Clouds 22 1025 49 10000 4.6 240 16:35 24.10.2020
6368 Clouds 22 1025 53 10000 3.1 200 15:57 24.10.2020
6369 Clouds 23 1025 53 10000 3.1 190 15:38 24.10.2020
6370 Clouds 23 1026 56 10000 4.1 260 15:18 24.10.2020
6371 Clouds 22 1026 49 10000 2.1 230 14:38 24.10.2020
6372 Clouds 22 1026 56 10000 3.1 240 14:19 24.10.2020
6373 Clouds 21 1027 60 10000 3.6 250 13:44 24.10.2020
6374 Clouds 21 1027 60 10000 3.1 240 13:19 24.10.2020
6375 Clouds 20 1027 72 10000 1.5 250 12:37 24.10.2020
6376 Clouds 18 1027 82 10000 2.1 280 12:19 24.10.2020
6377 Clouds 19 1027 72 10000 1.5 180 11:49 24.10.2020
6378 Clouds 18 1027 77 10000 1.5 90 11:20 24.10.2020
6379 Clouds 16 1027 82 10000 2.1 90 10:43 24.10.2020
6380 Clear 16 1027 87 10000 2.6 270 10:25 24.10.2020
6381 Clouds 15 1026 87 9000 2.1 90 09:45 24.10.2020
6382 Clear 15 1026 93 10000 2.1 260 09:26 24.10.2020
6383 Clouds 15 1026 87 7000 2.6 90 08:54 24.10.2020
6384 Clouds 15 1026 87 7000 2.6 100 08:18 24.10.2020
6385 Clouds 15 1026 87 7000 2.6 100 08:18 24.10.2020
6386 Clouds 15 1026 87 7000 2.6 90 07:49 24.10.2020
6387 Clouds 14 1026 87 7000 2.6 90 07:20 24.10.2020
6388 Clouds 14 1026 87 7000 2.6 80 06:49 24.10.2020
6389 Clear 15 1026 87 10000 2.6 250 04:59 24.10.2020
6390 Clouds 16 1026 87 6000 2.6 80 02:20 24.10.2020
6391 Clear 16 1026 87 8000 2.6 80 00:44 24.10.2020
6392 Clear 17 1026 82 10000 2.6 260 00:23 24.10.2020
6393 Clear 17 1026 82 10000 3.6 290 23:59 23.10.2020
6394 Clear 17 1026 82 10000 3.6 290 23:38 23.10.2020
6395 Clouds 17 1026 87 8000 1 80 23:19 23.10.2020
6396 Clouds 17 1025 82 10000 1 60 22:42 23.10.2020
6397 Clouds 18 1025 82 10000 1 60 22:21 23.10.2020
6398 Clouds 19 1025 77 10000 2.19 303 21:53 23.10.2020
6399 Clear 19 1025 68 10000 3.6 240 21:29 23.10.2020
6400 Clear 19 1024 72 10000 3.6 260 20:57 23.10.2020
6401 Clear 19 1024 72 10000 3.6 260 20:37 23.10.2020
6402 Clouds 19 1025 72 10000 1.5 250 20:18 23.10.2020
6403 Clear 21 1024 68 10000 5.1 270 19:42 23.10.2020
6404 Clear 21 1024 68 10000 5.1 270 19:24 23.10.2020
6405 Clouds 21 1024 64 10000 3.1 230 18:42 23.10.2020
6406 Clouds 21 1024 64 10000 3.1 230 18:22 23.10.2020
6407 Clouds 21 1024 64 10000 4.6 250 17:44 23.10.2020
6408 Rain 21 1024 60 10000 3.6 220 17:21 23.10.2020
6409 Clouds 21 1024 56 10000 4.1 240 16:47 23.10.2020
6410 Clouds 21 1024 64 10000 2.6 240 16:26 23.10.2020
6411 Rain 21 1024 68 10000 3.1 220 15:55 23.10.2020
6412 Clouds 22 1024 64 10000 3.1 230 15:36 23.10.2020
6413 Rain 22 1024 60 10000 2.6 240 15:18 23.10.2020
6414 Clouds 22 1024 64 10000 1.5 200 14:40 23.10.2020
6415 Clouds 22 1024 64 10000 1.5 200 14:22 23.10.2020
6416 Rain 21 1024 72 10000 3.1 210 13:39 23.10.2020
6417 Rain 21 1024 72 10000 3.1 210 13:21 23.10.2020
6418 Clouds 20 1024 72 10000 3.1 230 12:48 23.10.2020
6419 Clouds 19 1024 77 10000 1.5 280 12:28 23.10.2020
6420 Clouds 19 1024 72 10000 2.6 170 11:48 23.10.2020
6421 Clouds 18 1024 93 10000 1 260 11:22 23.10.2020
6422 Rain 17 1023 82 10000 3.6 170 10:47 23.10.2020
6423 Rain 17 1023 93 10000 2.1 270 10:26 23.10.2020
6424 Clouds 17 1022 82 10000 2.6 170 09:48 23.10.2020
6425 Rain 17 1022 93 10000 2.1 280 09:27 23.10.2020
6426 Clouds 17 1022 82 10000 2.6 160 08:53 23.10.2020
6427 Clouds 17 1022 93 10000 2.6 290 08:35 23.10.2020
6428 Clouds 17 1021 82 10000 2.1 170 07:47 23.10.2020
6429 Clouds 17 1021 88 10000 2.6 270 07:23 23.10.2020
6430 Clouds 17 1021 82 10000 2.1 220 06:31 23.10.2020
6431 Clouds 17 1021 88 8000 1.5 180 05:44 23.10.2020
6432 Clear 18 1020 93 2600 2.6 260 02:33 23.10.2020
6433 Clouds 17 1019 82 10000 2.1 170 01:52 23.10.2020
6434 Rain 18 1019 82 10000 2.1 170 00:48 23.10.2020
6435 Rain 19 1019 88 10000 2.6 170 23:48 22.10.2020
6436 Clear 19 1018 77 10000 3.1 200 23:30 22.10.2020
6437 Clear 19 1018 77 10000 2.6 220 22:50 22.10.2020
6438 Rain 19 1018 77 10000 2.6 220 22:28 22.10.2020
6439 Clear 19 1017 72 10000 2.6 240 21:59 22.10.2020
6440 Clear 19 1017 72 10000 2.6 240 21:59 22.10.2020
6441 Clear 19 1017 72 10000 2.6 240 21:41 22.10.2020
6442 Clear 19 1017 72 10000 2.6 240 21:23 22.10.2020
6443 Clouds 19 1017 77 8000 1.5 180 20:45 22.10.2020
6444 Rain 19 1016 72 10000 2.6 230 20:26 22.10.2020
6445 Clouds 20 1016 72 10000 4.1 200 19:59 22.10.2020
6446 Clouds 20 1016 72 10000 4.1 200 19:39 22.10.2020
6447 Clouds 20 1016 72 8000 2.1 190 19:18 22.10.2020
6448 Clouds 20 1015 72 10000 3.6 210 18:42 22.10.2020
6449 Clouds 20 1015 72 7000 3.1 180 18:20 22.10.2020
6450 Rain 19 1015 72 7000 3.6 190 17:45 22.10.2020
6451 Rain 20 1014 72 10000 3.6 220 17:22 22.10.2020
6452 Clouds 20 1014 64 6000 3.6 210 16:46 22.10.2020
6453 Clouds 20 1014 82 10000 4.1 190 16:25 22.10.2020
6454 Clouds 20 1014 77 10000 3.1 190 15:56 22.10.2020
6455 Clouds 20 1014 77 10000 2.1 190 15:38 22.10.2020
6456 Clouds 20 1014 72 6000 3.1 190 15:19 22.10.2020
6457 Clouds 20 1015 77 10000 2.6 190 14:42 22.10.2020
6458 Clouds 20 1015 77 10000 2.6 190 14:23 22.10.2020
6459 Clouds 20 1015 82 10000 2.1 160 13:45 22.10.2020
6460 Clouds 20 1015 82 10000 2.1 160 13:23 22.10.2020
6461 Clouds 19 1014 88 6000 3.6 170 12:44 22.10.2020
6462 Clouds 19 1014 88 6000 3.6 170 12:22 22.10.2020
6463 Clouds 19 1014 82 6000 3.6 170 11:47 22.10.2020
6464 Clouds 18 1014 88 6000 3.6 170 11:19 22.10.2020
6465 Clouds 18 1013 88 6000 2.6 160 10:49 22.10.2020
6466 Clouds 18 1013 88 6000 2.6 160 10:49 22.10.2020
6467 Clouds 18 1013 93 10000 2.6 80 10:27 22.10.2020
6468 Rain 18 1013 88 6000 3.6 160 09:46 22.10.2020
6469 Rain 18 1013 93 10000 4.1 120 09:25 22.10.2020
6470 Rain 18 1012 88 6000 3.1 180 08:47 22.10.2020
6471 Rain 17 1012 93 10000 4.6 110 08:27 22.10.2020
6472 Rain 18 1012 88 6000 2.6 170 07:51 22.10.2020
6473 Rain 18 1012 93 8000 3.1 80 07:32 22.10.2020
6474 Rain 18 1012 88 8000 2.1 200 06:46 22.10.2020
6475 Rain 19 1013 93 6000 2.1 60 06:25 22.10.2020
6476 Clouds 19 1013 88 10000 2.6 130 05:39 22.10.2020
6477 Clouds 19 1013 88 10000 2.6 100 03:37 22.10.2020
6478 Clouds 19 1014 93 10000 4.6 40 01:35 22.10.2020
6479 Rain 19 1014 93 10000 4.1 50 00:24 22.10.2020
6480 Clouds 19 1013 64 10000 1.5 130 23:44 21.10.2020
6481 Clouds 19 1014 93 10000 4.1 50 23:22 21.10.2020
6482 Clouds 19 1013 93 10000 5.1 60 22:39 21.10.2020
6483 Clouds 20 1013 68 10000 1.5 170 22:19 21.10.2020
6484 Clouds 20 1013 73 10000 2.1 180 21:47 21.10.2020
6485 Clouds 20 1012 73 10000 2.1 190 21:20 21.10.2020
6486 Clouds 20 1013 88 10000 3.1 40 20:59 21.10.2020
6487 Clouds 20 1013 88 10000 3.1 40 20:41 21.10.2020
6488 Clouds 20 1012 77 10000 2.6 210 20:18 21.10.2020
6489 Clouds 21 1012 88 10000 2.1 40 19:41 21.10.2020
6490 Clouds 21 1012 88 10000 2.1 40 19:23 21.10.2020
6491 Clouds 21 1012 82 10000 2.1 30 18:54 21.10.2020
6492 Clouds 22 1012 77 10000 1 140 18:31 21.10.2020
6493 Clouds 22 1012 77 10000 2.1 160 17:51 21.10.2020
6494 Clouds 22 1011 68 10000 5.1 130 17:22 21.10.2020
6495 Clouds 22 1012 73 10000 3.1 120 16:59 21.10.2020
6496 Clouds 21 1012 73 10000 3.1 120 16:40 21.10.2020
6497 Clouds 21 1012 73 10000 3.1 120 16:40 21.10.2020
6498 Clouds 23 1011 68 10000 3.6 210 16:20 21.10.2020
6499 Clouds 23 1012 60 10000 2.1 240 15:46 21.10.2020
6500 Clouds 23 1012 60 10000 3.1 220 15:22 21.10.2020
6501 Clouds 22 1012 73 10000 5.7 220 14:49 21.10.2020
6502 Clouds 22 1013 68 10000 3.1 220 14:29 21.10.2020
6503 Clouds 23 1013 68 10000 3.1 220 13:58 21.10.2020
6504 Clouds 22 1013 68 10000 3.1 220 13:40 21.10.2020
6505 Clouds 21 1013 73 10000 3.6 220 13:20 21.10.2020
6506 Clouds 21 1013 73 10000 3.1 210 12:40 21.10.2020
6507 Clouds 21 1013 77 10000 3.1 210 12:20 21.10.2020
6508 Clouds 20 1013 82 10000 4.1 200 11:46 21.10.2020
6509 Clouds 21 1012 77 8000 4.1 180 11:20 21.10.2020
6510 Clouds 20 1012 82 8000 3.6 180 10:49 21.10.2020
6511 Clouds 20 1012 82 10000 3.1 210 10:27 21.10.2020
6512 Clouds 20 1012 82 10000 5.1 200 09:58 21.10.2020
6513 Clouds 20 1012 82 10000 5.1 200 09:39 21.10.2020
6514 Clouds 19 1011 93 10000 3.6 220 08:57 21.10.2020
6515 Clouds 19 1011 93 10000 3.6 220 08:39 21.10.2020
6516 Clouds 19 1011 93 10000 3.6 220 08:21 21.10.2020
6517 Clouds 19 1011 88 4000 5.1 230 07:41 21.10.2020
6518 Clouds 19 1010 82 10000 3.6 220 06:58 21.10.2020
6519 Rain 20 1010 82 10000 3.6 220 06:32 21.10.2020
6520 Clouds 20 1010 82 10000 4.6 210 04:48 21.10.2020
6521 Rain 19 1010 88 10000 5.1 230 02:27 21.10.2020
6522 Clouds 20 1010 93 6000 3.6 200 23:55 20.10.2020
6523 Rain 20 1010 93 5000 5.1 220 23:20 20.10.2020
6524 Clouds 21 1009 83 6000 5.1 180 22:36 20.10.2020
6525 Rain 20 1009 83 6000 4.1 180 22:18 20.10.2020
6526 Rain 20 1010 88 8000 4.6 110 21:45 20.10.2020
6527 Rain 21 1010 88 8000 4.6 110 21:18 20.10.2020
6528 Rain 21 1010 82 9000 3.6 100 20:42 20.10.2020
6529 Rain 21 1009 88 10000 5.1 100 20:23 20.10.2020
6530 Rain 22 1009 88 10000 4.6 100 19:44 20.10.2020
6531 Rain 22 1009 82 10000 3.1 110 19:22 20.10.2020
6532 Rain 22 1009 88 10000 4.6 60 18:57 20.10.2020
6533 Rain 22 1010 82 10000 5.1 70 18:37 20.10.2020
6534 Clouds 23 1007 32 7000 3.1 220 17:50 20.10.2020
6535 Clouds 22 1010 82 10000 7.2 70 17:32 20.10.2020
6536 Clouds 22 1011 82 10000 5.7 60 16:56 20.10.2020
6537 Clouds 21 1011 82 10000 6.7 70 16:38 20.10.2020
6538 Rain 21 1011 82 10000 6.7 70 16:20 20.10.2020
6539 Clouds 22 1011 82 10000 6.7 70 15:41 20.10.2020
6540 Clouds 22 1011 82 10000 7.2 70 15:22 20.10.2020
6541 Clouds 22 1012 82 10000 6.2 80 14:44 20.10.2020
6542 Clouds 22 1013 82 10000 7.2 70 14:24 20.10.2020
6543 Clouds 22 1013 82 10000 7.2 70 13:57 20.10.2020
6544 Clouds 22 1013 82 10000 7.2 70 13:38 20.10.2020
6545 Clouds 21 1014 77 10000 7.7 70 13:19 20.10.2020
6546 Clouds 21 1014 82 10000 7.2 70 12:46 20.10.2020
6547 Clouds 20 1014 88 10000 5.7 70 12:28 20.10.2020
6548 Clouds 20 1015 88 10000 6.7 70 11:46 20.10.2020
6549 Clouds 20 1015 88 10000 5.7 60 11:27 20.10.2020
6550 Clouds 19 1015 88 10000 4.6 60 10:40 20.10.2020
6551 Clouds 20 1015 88 10000 6.2 60 10:22 20.10.2020
6552 Clouds 19 1014 88 10000 6.7 70 09:44 20.10.2020
6553 Clouds 19 1012 68 10000 4.6 90 09:19 20.10.2020
6554 Clouds 19 1014 88 10000 6.2 70 08:39 20.10.2020
6555 Clouds 19 1012 68 10000 4.6 100 07:54 20.10.2020
6556 Clouds 19 1014 88 10000 5.1 80 07:26 20.10.2020
6557 Clouds 19 1015 82 10000 5.1 50 06:57 20.10.2020
6558 Clouds 19 1015 82 10000 5.1 50 06:19 20.10.2020
6559 Clouds 19 1014 68 10000 3.1 90 03:59 20.10.2020
6560 Clouds 20 1014 60 10000 3.1 100 02:30 20.10.2020
6561 Clouds 19 1018 88 10000 5.7 60 01:22 20.10.2020
6562 Clouds 19 1015 64 10000 2.6 100 00:50 20.10.2020
6563 Clouds 19 1017 93 10000 6.2 70 00:24 20.10.2020
6564 Clouds 19 1015 68 10000 3.1 100 23:49 19.10.2020
6565 Clouds 20 1018 88 10000 5.7 90 23:24 19.10.2020
6566 Clouds 20 1015 64 10000 4.1 100 22:51 19.10.2020
6567 Clouds 20 1018 88 10000 5.7 90 22:25 19.10.2020
6568 Clouds 20 1018 82 10000 5.1 110 21:50 19.10.2020
6569 Clouds 20 1018 82 10000 5.1 110 21:23 19.10.2020
6570 Clouds 20 1015 60 10000 4.1 110 20:54 19.10.2020
6571 Clouds 20 1018 82 10000 5.7 90 20:36 19.10.2020
6572 Clouds 21 1018 82 10000 5.1 110 19:59 19.10.2020
6573 Clouds 20 1018 82 10000 5.1 110 19:41 19.10.2020
6574 Clouds 20 1018 82 10000 5.1 110 19:19 19.10.2020
6575 Clouds 21 1018 77 10000 5.1 80 18:43 19.10.2020
6576 Clouds 21 1015 60 10000 2.1 260 18:19 19.10.2020
6577 Clouds 21 1018 72 10000 5.7 70 17:46 19.10.2020
6578 Clouds 21 1018 72 10000 5.7 70 17:26 19.10.2020
6579 Clouds 24 1018 72 10000 5.1 80 16:52 19.10.2020
6580 Clouds 23 1018 77 10000 5.1 80 16:28 19.10.2020
6581 Clouds 23 1017 48 10000 8.57 81 15:46 19.10.2020
6582 Clouds 23 1017 49 10000 8.59 87 15:25 19.10.2020
6583 Clouds 23 1017 49 10000 8.59 87 15:25 19.10.2020
6584 Clouds 23 1017 49 10000 8.59 87 14:53 19.10.2020
6585 Clouds 23 1018 49 10000 9.13 87 14:28 19.10.2020
6586 Clouds 23 1018 49 10000 9.13 87 13:55 19.10.2020
6587 Clouds 23 1018 49 10000 9.27 87 13:37 19.10.2020
6588 Clouds 23 1018 50 10000 9.32 89 13:18 19.10.2020
6589 Clouds 23 1018 50 10000 9.32 89 12:43 19.10.2020
6590 Clouds 23 1018 50 10000 9.4 88 12:25 19.10.2020
6591 Clouds 18 1019 77 10000 7.2 70 11:42 19.10.2020
6592 Clouds 19 1019 77 10000 7.2 70 11:21 19.10.2020
6593 Clouds 19 1019 77 10000 8.7 80 10:44 19.10.2020
6594 Clouds 19 1019 77 10000 8.7 80 10:44 19.10.2020
6595 Clouds 20 1015 64 10000 7.7 90 10:21 19.10.2020
6596 Clouds 19 1019 77 10000 8.2 80 09:52 19.10.2020
6597 Clouds 18 1019 82 10000 7.2 80 09:24 19.10.2020
6598 Clouds 19 1015 72 10000 9.8 80 08:49 19.10.2020
6599 Clouds 19 1019 88 10000 7.7 60 08:24 19.10.2020
6600 Clouds 18 1015 77 10000 9.3 90 07:55 19.10.2020
6601 Clouds 18 1015 72 10000 9.3 80 07:20 19.10.2020
6602 Clouds 18 1015 77 10000 9.3 80 06:20 19.10.2020
6603 Clouds 18 1019 82 10000 9.8 70 04:30 19.10.2020
6604 Clouds 18 1015 72 10000 9.3 80 03:44 19.10.2020
6605 Clouds 19 1020 88 10000 6.2 100 00:59 19.10.2020
6606 Clouds 19 1020 88 10000 6.2 100 00:25 19.10.2020
6607 Clouds 19 1016 68 10000 9.3 80 23:48 18.10.2020
6608 Clouds 19 1020 88 10000 6.7 100 23:26 18.10.2020
6609 Clouds 19 1015 68 10000 8.2 80 22:53 18.10.2020
6610 Clouds 19 1019 82 10000 6.2 110 22:23 18.10.2020
6611 Clouds 19 1019 82 10000 5.1 110 21:56 18.10.2020
6612 Clouds 19 1019 82 10000 5.1 110 21:37 18.10.2020
6613 Clouds 19 1015 68 10000 8.7 80 21:18 18.10.2020
6614 Clouds 19 1019 82 10000 5.1 110 20:40 18.10.2020
6615 Clouds 20 1019 82 10000 5.1 110 20:21 18.10.2020
6616 Clouds 20 1015 56 10000 8.7 80 19:44 18.10.2020
6617 Clouds 20 1015 56 10000 8.7 80 19:44 18.10.2020
6618 Clouds 20 1015 56 10000 8.7 80 19:44 18.10.2020
6619 Clouds 20 1018 82 10000 5.1 100 19:26 18.10.2020
6620 Clouds 22 1014 47 10000 9.3 80 18:49 18.10.2020
6621 Clouds 22 1018 82 10000 6.7 80 18:28 18.10.2020
6622 Clouds 22 1014 41 10000 8.2 80 17:44 18.10.2020
6623 Clouds 22 1015 38 10000 8.7 80 17:25 18.10.2020
6624 Clouds 22 1018 77 10000 6.2 70 17:25 18.10.2020
6625 Clouds 22 1018 77 10000 6.2 70 16:57 18.10.2020
6626 Clouds 22 1018 77 10000 6.2 70 16:38 18.10.2020
6627 Clouds 23 1015 39 10000 8.2 60 16:20 18.10.2020
6628 Clouds 22 1019 72 10000 6.2 70 15:41 18.10.2020
6629 Clouds 23 1015 39 10000 7.7 70 15:19 18.10.2020
6630 Clouds 22 1019 77 10000 6.2 70 14:56 18.10.2020
6631 Clouds 22 1020 77 10000 5.7 70 14:29 18.10.2020
6632 Clouds 22 1020 77 10000 5.1 70 13:57 18.10.2020
6633 Clouds 22 1020 77 10000 6.7 80 13:38 18.10.2020
6634 Clear 22 1017 41 10000 5.1 110 13:20 18.10.2020
6635 Clouds 21 1020 77 10000 7.2 80 12:42 18.10.2020
6636 Clouds 21 1020 77 10000 7.2 80 12:21 18.10.2020
6637 Clouds 19 1020 82 10000 3.1 70 11:42 18.10.2020
6638 Clouds 19 1020 82 10000 3.1 70 11:23 18.10.2020
6639 Clear 19 1017 56 10000 5.7 90 10:43 18.10.2020
6640 Clouds 18 1019 82 10000 2.6 90 10:21 18.10.2020
6641 Clouds 17 1019 77 10000 1 90 09:52 18.10.2020
6642 Clouds 16 1019 82 10000 1 70 09:25 18.10.2020
6643 Clouds 16 1018 87 10000 2.1 80 08:59 18.10.2020
6644 Clouds 16 1018 87 10000 2.1 80 08:39 18.10.2020
6645 Clouds 16 1018 87 10000 2.1 80 08:21 18.10.2020
6646 Clouds 16 1018 82 10000 1.5 80 07:32 18.10.2020
6647 Clear 16 1018 77 10000 3.6 100 05:33 18.10.2020
6648 Clear 16 1017 67 10000 1 0 03:21 18.10.2020
6649 Clear 16 1017 77 10000 2.1 40 01:44 18.10.2020
6650 Clear 16 1017 77 10000 1 0 00:55 18.10.2020
6651 Clear 17 1018 77 10000 1.5 70 00:35 18.10.2020
6652 Clear 17 1018 77 10000 1 70 23:56 17.10.2020
6653 Clear 17 1018 77 10000 1 70 23:38 17.10.2020
6654 Clear 17 1017 72 10000 1.5 60 23:19 17.10.2020
6655 Clear 17 1018 77 10000 1.5 50 22:42 17.10.2020
6656 Clear